<?xml version="1.0" encoding="UTF-8" standalone="no" ?>
<gpx xmlns="http://www.topografix.com/GPX/1/1" xmlns:xsi="http://www.w3.org/2001/XMLSchema-instance" xsi:schemaLocation="http://www.topografix.com/GPX/1/1 http://www.topografix.com/GPX/1/1/gpx.xsd" version="1.1" creator="VisuGPX - https://www.visugpx.com">
  <metadata>
    <name>Transmaurienne 2014 Dimanche</name>
    <desc><![CDATA[Transmaurienne 2014 Dimanche
Etape 4
St Jean d\'Arves
St Sorlin d\'Arves
Glacier de l\'Etendard ]]></desc>
  </metadata>
  <wpt lat="45.2137" lon="6.26606">
    <ele>1560</ele>
  </wpt>
  <wpt lat="45.22057" lon="6.23741">
    <ele>1506</ele>
  </wpt>
  <trk>
    <name><![CDATA[Transmaurienne 2014 Dimanche_1]]></name>
    <trkseg>
      <trkpt lat="45.21464" lon="6.26479">
        <ele>1578</ele>
        <time>2014-08-10T08:02:50Z</time>
      </trkpt>
      <trkpt lat="45.2147" lon="6.26468">
        <ele>1579</ele>
        <time>2014-08-10T08:02:54Z</time>
      </trkpt>
      <trkpt lat="45.21467" lon="6.26455">
        <ele>1579</ele>
        <time>2014-08-10T08:02:59Z</time>
      </trkpt>
      <trkpt lat="45.21465" lon="6.2644">
        <ele>1579</ele>
        <time>2014-08-10T08:03:04Z</time>
      </trkpt>
      <trkpt lat="45.21464" lon="6.26427">
        <ele>1579</ele>
        <time>2014-08-10T08:03:09Z</time>
      </trkpt>
      <trkpt lat="45.21459" lon="6.26412">
        <ele>1581</ele>
        <time>2014-08-10T08:03:15Z</time>
      </trkpt>
      <trkpt lat="45.21444" lon="6.264">
        <ele>1579</ele>
        <time>2014-08-10T08:03:19Z</time>
      </trkpt>
      <trkpt lat="45.21434" lon="6.2639">
        <ele>1579</ele>
        <time>2014-08-10T08:03:21Z</time>
      </trkpt>
      <trkpt lat="45.21427" lon="6.26376">
        <ele>1579</ele>
        <time>2014-08-10T08:03:28Z</time>
      </trkpt>
      <trkpt lat="45.21418" lon="6.26368">
        <ele>1579</ele>
        <time>2014-08-10T08:03:31Z</time>
      </trkpt>
      <trkpt lat="45.21415" lon="6.26356">
        <ele>1573</ele>
        <time>2014-08-10T08:03:36Z</time>
      </trkpt>
      <trkpt lat="45.21417" lon="6.26341">
        <ele>1578</ele>
        <time>2014-08-10T08:03:42Z</time>
      </trkpt>
      <trkpt lat="45.2141" lon="6.26328">
        <ele>1576</ele>
        <time>2014-08-10T08:03:45Z</time>
      </trkpt>
      <trkpt lat="45.21405" lon="6.26313">
        <ele>1576</ele>
        <time>2014-08-10T08:03:49Z</time>
      </trkpt>
      <trkpt lat="45.21401" lon="6.26298">
        <ele>1576</ele>
        <time>2014-08-10T08:03:54Z</time>
      </trkpt>
      <trkpt lat="45.21396" lon="6.26286">
        <ele>1576</ele>
        <time>2014-08-10T08:04:00Z</time>
      </trkpt>
      <trkpt lat="45.21394" lon="6.26272">
        <ele>1576</ele>
        <time>2014-08-10T08:04:05Z</time>
      </trkpt>
      <trkpt lat="45.21395" lon="6.26259">
        <ele>1577</ele>
        <time>2014-08-10T08:04:08Z</time>
      </trkpt>
      <trkpt lat="45.21398" lon="6.26243">
        <ele>1578</ele>
        <time>2014-08-10T08:04:11Z</time>
      </trkpt>
      <trkpt lat="45.21403" lon="6.26226">
        <ele>1577</ele>
        <time>2014-08-10T08:04:14Z</time>
      </trkpt>
      <trkpt lat="45.21407" lon="6.26211">
        <ele>1577</ele>
        <time>2014-08-10T08:04:17Z</time>
      </trkpt>
      <trkpt lat="45.21411" lon="6.26194">
        <ele>1577</ele>
        <time>2014-08-10T08:04:20Z</time>
      </trkpt>
      <trkpt lat="45.21414" lon="6.2618">
        <ele>1578</ele>
        <time>2014-08-10T08:04:23Z</time>
      </trkpt>
      <trkpt lat="45.21417" lon="6.26166">
        <ele>1581</ele>
        <time>2014-08-10T08:04:26Z</time>
      </trkpt>
      <trkpt lat="45.2142" lon="6.26154">
        <ele>1584</ele>
        <time>2014-08-10T08:04:29Z</time>
      </trkpt>
      <trkpt lat="45.21427" lon="6.26137">
        <ele>1586</ele>
        <time>2014-08-10T08:04:32Z</time>
      </trkpt>
      <trkpt lat="45.21429" lon="6.2612">
        <ele>1587</ele>
        <time>2014-08-10T08:04:35Z</time>
      </trkpt>
      <trkpt lat="45.21432" lon="6.26102">
        <ele>1586</ele>
        <time>2014-08-10T08:04:38Z</time>
      </trkpt>
      <trkpt lat="45.21435" lon="6.26086">
        <ele>1585</ele>
        <time>2014-08-10T08:04:41Z</time>
      </trkpt>
      <trkpt lat="45.2144" lon="6.2607">
        <ele>1584</ele>
        <time>2014-08-10T08:04:44Z</time>
      </trkpt>
      <trkpt lat="45.21444" lon="6.26057">
        <ele>1584</ele>
        <time>2014-08-10T08:04:47Z</time>
      </trkpt>
      <trkpt lat="45.21447" lon="6.26042">
        <ele>1584</ele>
        <time>2014-08-10T08:04:50Z</time>
      </trkpt>
      <trkpt lat="45.2145" lon="6.26028">
        <ele>1584</ele>
        <time>2014-08-10T08:04:53Z</time>
      </trkpt>
      <trkpt lat="45.21454" lon="6.26014">
        <ele>1584</ele>
        <time>2014-08-10T08:04:56Z</time>
      </trkpt>
      <trkpt lat="45.21462" lon="6.26005">
        <ele>1585</ele>
        <time>2014-08-10T08:05:01Z</time>
      </trkpt>
      <trkpt lat="45.21472" lon="6.26005">
        <ele>1587</ele>
        <time>2014-08-10T08:05:09Z</time>
      </trkpt>
      <trkpt lat="45.21466" lon="6.26016">
        <ele>1586</ele>
        <time>2014-08-10T08:05:23Z</time>
      </trkpt>
      <trkpt lat="45.21464" lon="6.26029">
        <ele>1586</ele>
        <time>2014-08-10T08:05:42Z</time>
      </trkpt>
      <trkpt lat="45.21474" lon="6.26035">
        <ele>1587</ele>
        <time>2014-08-10T08:05:47Z</time>
      </trkpt>
      <trkpt lat="45.21482" lon="6.26041">
        <ele>1588</ele>
        <time>2014-08-10T08:05:53Z</time>
      </trkpt>
      <trkpt lat="45.21488" lon="6.26051">
        <ele>1590</ele>
        <time>2014-08-10T08:06:03Z</time>
      </trkpt>
      <trkpt lat="45.21492" lon="6.26064">
        <ele>1592</ele>
        <time>2014-08-10T08:06:14Z</time>
      </trkpt>
      <trkpt lat="45.21497" lon="6.26077">
        <ele>1596</ele>
        <time>2014-08-10T08:06:27Z</time>
      </trkpt>
      <trkpt lat="45.21504" lon="6.26087">
        <ele>1601</ele>
        <time>2014-08-10T08:06:32Z</time>
      </trkpt>
      <trkpt lat="45.21514" lon="6.26093">
        <ele>1604</ele>
        <time>2014-08-10T08:06:46Z</time>
      </trkpt>
      <trkpt lat="45.21524" lon="6.26098">
        <ele>1606</ele>
        <time>2014-08-10T08:06:52Z</time>
      </trkpt>
      <trkpt lat="45.21525" lon="6.26114">
        <ele>1606</ele>
        <time>2014-08-10T08:07:08Z</time>
      </trkpt>
      <trkpt lat="45.21531" lon="6.26125">
        <ele>1607</ele>
        <time>2014-08-10T08:07:12Z</time>
      </trkpt>
      <trkpt lat="45.21537" lon="6.26138">
        <ele>1608</ele>
        <time>2014-08-10T08:07:24Z</time>
      </trkpt>
      <trkpt lat="45.21544" lon="6.26147">
        <ele>1609</ele>
        <time>2014-08-10T08:07:28Z</time>
      </trkpt>
      <trkpt lat="45.21551" lon="6.26156">
        <ele>1610</ele>
        <time>2014-08-10T08:07:31Z</time>
      </trkpt>
      <trkpt lat="45.21551" lon="6.2617">
        <ele>1610</ele>
        <time>2014-08-10T08:07:37Z</time>
      </trkpt>
      <trkpt lat="45.2155" lon="6.26183">
        <ele>1610</ele>
        <time>2014-08-10T08:07:43Z</time>
      </trkpt>
      <trkpt lat="45.21552" lon="6.26197">
        <ele>1609</ele>
        <time>2014-08-10T08:07:49Z</time>
      </trkpt>
      <trkpt lat="45.21556" lon="6.2621">
        <ele>1610</ele>
        <time>2014-08-10T08:07:55Z</time>
      </trkpt>
      <trkpt lat="45.21563" lon="6.26223">
        <ele>1611</ele>
        <time>2014-08-10T08:08:01Z</time>
      </trkpt>
      <trkpt lat="45.21569" lon="6.26236">
        <ele>1612</ele>
        <time>2014-08-10T08:08:08Z</time>
      </trkpt>
      <trkpt lat="45.21573" lon="6.26249">
        <ele>1615</ele>
        <time>2014-08-10T08:08:14Z</time>
      </trkpt>
      <trkpt lat="45.21576" lon="6.26262">
        <ele>1612</ele>
        <time>2014-08-10T08:08:20Z</time>
      </trkpt>
      <trkpt lat="45.21582" lon="6.26273">
        <ele>1611</ele>
        <time>2014-08-10T08:08:25Z</time>
      </trkpt>
      <trkpt lat="45.21589" lon="6.26285">
        <ele>1626</ele>
        <time>2014-08-10T08:08:30Z</time>
      </trkpt>
      <trkpt lat="45.21594" lon="6.26296">
        <ele>1626</ele>
        <time>2014-08-10T08:08:36Z</time>
      </trkpt>
      <trkpt lat="45.21598" lon="6.26309">
        <ele>1626</ele>
        <time>2014-08-10T08:08:42Z</time>
      </trkpt>
      <trkpt lat="45.21603" lon="6.26321">
        <ele>1625</ele>
        <time>2014-08-10T08:08:48Z</time>
      </trkpt>
      <trkpt lat="45.21609" lon="6.26333">
        <ele>1626</ele>
        <time>2014-08-10T08:08:54Z</time>
      </trkpt>
      <trkpt lat="45.21614" lon="6.26347">
        <ele>1624</ele>
        <time>2014-08-10T08:08:59Z</time>
      </trkpt>
      <trkpt lat="45.21618" lon="6.26358">
        <ele>1625</ele>
        <time>2014-08-10T08:09:03Z</time>
      </trkpt>
      <trkpt lat="45.21621" lon="6.26374">
        <ele>1625</ele>
        <time>2014-08-10T08:09:07Z</time>
      </trkpt>
      <trkpt lat="45.21624" lon="6.26386">
        <ele>1625</ele>
        <time>2014-08-10T08:09:10Z</time>
      </trkpt>
      <trkpt lat="45.21627" lon="6.26401">
        <ele>1626</ele>
        <time>2014-08-10T08:09:14Z</time>
      </trkpt>
      <trkpt lat="45.21632" lon="6.26415">
        <ele>1627</ele>
        <time>2014-08-10T08:09:19Z</time>
      </trkpt>
      <trkpt lat="45.21637" lon="6.26428">
        <ele>1626</ele>
        <time>2014-08-10T08:09:24Z</time>
      </trkpt>
      <trkpt lat="45.21641" lon="6.26441">
        <ele>1626</ele>
        <time>2014-08-10T08:09:30Z</time>
      </trkpt>
      <trkpt lat="45.21645" lon="6.26453">
        <ele>1627</ele>
        <time>2014-08-10T08:09:41Z</time>
      </trkpt>
      <trkpt lat="45.21651" lon="6.26466">
        <ele>1628</ele>
        <time>2014-08-10T08:09:50Z</time>
      </trkpt>
      <trkpt lat="45.21653" lon="6.26479">
        <ele>1629</ele>
        <time>2014-08-10T08:09:57Z</time>
      </trkpt>
      <trkpt lat="45.21653" lon="6.26492">
        <ele>1632</ele>
        <time>2014-08-10T08:10:05Z</time>
      </trkpt>
      <trkpt lat="45.21657" lon="6.26506">
        <ele>1634</ele>
        <time>2014-08-10T08:10:14Z</time>
      </trkpt>
      <trkpt lat="45.21659" lon="6.2652">
        <ele>1632</ele>
        <time>2014-08-10T08:10:23Z</time>
      </trkpt>
      <trkpt lat="45.21661" lon="6.26534">
        <ele>1631</ele>
        <time>2014-08-10T08:10:32Z</time>
      </trkpt>
      <trkpt lat="45.21662" lon="6.26548">
        <ele>1631</ele>
        <time>2014-08-10T08:10:40Z</time>
      </trkpt>
      <trkpt lat="45.21661" lon="6.26561">
        <ele>1633</ele>
        <time>2014-08-10T08:10:48Z</time>
      </trkpt>
      <trkpt lat="45.2166" lon="6.26576">
        <ele>1637</ele>
        <time>2014-08-10T08:10:56Z</time>
      </trkpt>
      <trkpt lat="45.21658" lon="6.26589">
        <ele>1639</ele>
        <time>2014-08-10T08:11:03Z</time>
      </trkpt>
      <trkpt lat="45.21657" lon="6.26604">
        <ele>1636</ele>
        <time>2014-08-10T08:11:11Z</time>
      </trkpt>
      <trkpt lat="45.21657" lon="6.26619">
        <ele>1635</ele>
        <time>2014-08-10T08:11:19Z</time>
      </trkpt>
      <trkpt lat="45.21659" lon="6.26633">
        <ele>1636</ele>
        <time>2014-08-10T08:11:26Z</time>
      </trkpt>
      <trkpt lat="45.21661" lon="6.26647">
        <ele>1639</ele>
        <time>2014-08-10T08:11:34Z</time>
      </trkpt>
      <trkpt lat="45.21664" lon="6.26659">
        <ele>1645</ele>
        <time>2014-08-10T08:11:42Z</time>
      </trkpt>
      <trkpt lat="45.21666" lon="6.26674">
        <ele>1647</ele>
        <time>2014-08-10T08:11:49Z</time>
      </trkpt>
      <trkpt lat="45.2167" lon="6.26686">
        <ele>1662</ele>
        <time>2014-08-10T08:11:56Z</time>
      </trkpt>
      <trkpt lat="45.21674" lon="6.267">
        <ele>1665</ele>
        <time>2014-08-10T08:12:03Z</time>
      </trkpt>
      <trkpt lat="45.21678" lon="6.26713">
        <ele>1667</ele>
        <time>2014-08-10T08:12:11Z</time>
      </trkpt>
      <trkpt lat="45.21676" lon="6.26726">
        <ele>1666</ele>
        <time>2014-08-10T08:12:22Z</time>
      </trkpt>
      <trkpt lat="45.21669" lon="6.26737">
        <ele>1664</ele>
        <time>2014-08-10T08:12:33Z</time>
      </trkpt>
      <trkpt lat="45.21668" lon="6.2675">
        <ele>1659</ele>
        <time>2014-08-10T08:12:45Z</time>
      </trkpt>
      <trkpt lat="45.21668" lon="6.26765">
        <ele>1667</ele>
        <time>2014-08-10T08:12:52Z</time>
      </trkpt>
      <trkpt lat="45.21667" lon="6.26778">
        <ele>1651</ele>
        <time>2014-08-10T08:13:02Z</time>
      </trkpt>
      <trkpt lat="45.21665" lon="6.26792">
        <ele>1651</ele>
        <time>2014-08-10T08:13:13Z</time>
      </trkpt>
      <trkpt lat="45.21666" lon="6.26806">
        <ele>1653</ele>
        <time>2014-08-10T08:13:25Z</time>
      </trkpt>
      <trkpt lat="45.21667" lon="6.26819">
        <ele>1671</ele>
        <time>2014-08-10T08:13:34Z</time>
      </trkpt>
      <trkpt lat="45.2167" lon="6.26832">
        <ele>1668</ele>
        <time>2014-08-10T08:13:44Z</time>
      </trkpt>
      <trkpt lat="45.21672" lon="6.26845">
        <ele>1671</ele>
        <time>2014-08-10T08:13:54Z</time>
      </trkpt>
      <trkpt lat="45.21676" lon="6.26859">
        <ele>1673</ele>
        <time>2014-08-10T08:14:04Z</time>
      </trkpt>
      <trkpt lat="45.21682" lon="6.26871">
        <ele>1675</ele>
        <time>2014-08-10T08:14:11Z</time>
      </trkpt>
      <trkpt lat="45.21686" lon="6.26883">
        <ele>1675</ele>
        <time>2014-08-10T08:14:19Z</time>
      </trkpt>
      <trkpt lat="45.21692" lon="6.26894">
        <ele>1675</ele>
        <time>2014-08-10T08:14:26Z</time>
      </trkpt>
      <trkpt lat="45.21698" lon="6.26905">
        <ele>1675</ele>
        <time>2014-08-10T08:14:35Z</time>
      </trkpt>
      <trkpt lat="45.21705" lon="6.26915">
        <ele>1677</ele>
        <time>2014-08-10T08:14:43Z</time>
      </trkpt>
      <trkpt lat="45.21712" lon="6.26924">
        <ele>1676</ele>
        <time>2014-08-10T08:14:52Z</time>
      </trkpt>
      <trkpt lat="45.21718" lon="6.26934">
        <ele>1677</ele>
        <time>2014-08-10T08:15:01Z</time>
      </trkpt>
      <trkpt lat="45.21724" lon="6.26945">
        <ele>1677</ele>
        <time>2014-08-10T08:15:10Z</time>
      </trkpt>
      <trkpt lat="45.21732" lon="6.26955">
        <ele>1678</ele>
        <time>2014-08-10T08:15:19Z</time>
      </trkpt>
      <trkpt lat="45.21738" lon="6.26967">
        <ele>1678</ele>
        <time>2014-08-10T08:15:28Z</time>
      </trkpt>
      <trkpt lat="45.21744" lon="6.26979">
        <ele>1680</ele>
        <time>2014-08-10T08:15:38Z</time>
      </trkpt>
      <trkpt lat="45.21749" lon="6.26992">
        <ele>1683</ele>
        <time>2014-08-10T08:15:46Z</time>
      </trkpt>
      <trkpt lat="45.21754" lon="6.27004">
        <ele>1689</ele>
        <time>2014-08-10T08:15:55Z</time>
      </trkpt>
      <trkpt lat="45.21761" lon="6.27016">
        <ele>1693</ele>
        <time>2014-08-10T08:16:03Z</time>
      </trkpt>
      <trkpt lat="45.21766" lon="6.27028">
        <ele>1695</ele>
        <time>2014-08-10T08:16:12Z</time>
      </trkpt>
      <trkpt lat="45.21772" lon="6.27039">
        <ele>1696</ele>
        <time>2014-08-10T08:16:21Z</time>
      </trkpt>
      <trkpt lat="45.21778" lon="6.2705">
        <ele>1697</ele>
        <time>2014-08-10T08:16:30Z</time>
      </trkpt>
      <trkpt lat="45.21785" lon="6.27058">
        <ele>1698</ele>
        <time>2014-08-10T08:16:39Z</time>
      </trkpt>
      <trkpt lat="45.21794" lon="6.27065">
        <ele>1699</ele>
        <time>2014-08-10T08:16:47Z</time>
      </trkpt>
      <trkpt lat="45.21803" lon="6.27073">
        <ele>1701</ele>
        <time>2014-08-10T08:16:57Z</time>
      </trkpt>
      <trkpt lat="45.21806" lon="6.27085">
        <ele>1709</ele>
        <time>2014-08-10T08:17:06Z</time>
      </trkpt>
      <trkpt lat="45.21798" lon="6.27097">
        <ele>1708</ele>
        <time>2014-08-10T08:17:12Z</time>
      </trkpt>
      <trkpt lat="45.2179" lon="6.27109">
        <ele>1708</ele>
        <time>2014-08-10T08:17:16Z</time>
      </trkpt>
      <trkpt lat="45.2178" lon="6.27121">
        <ele>1708</ele>
        <time>2014-08-10T08:17:20Z</time>
      </trkpt>
      <trkpt lat="45.21771" lon="6.27126">
        <ele>1707</ele>
        <time>2014-08-10T08:17:22Z</time>
      </trkpt>
      <trkpt lat="45.2176" lon="6.27128">
        <ele>1706</ele>
        <time>2014-08-10T08:17:24Z</time>
      </trkpt>
      <trkpt lat="45.21749" lon="6.2713">
        <ele>1688</ele>
        <time>2014-08-10T08:17:26Z</time>
      </trkpt>
      <trkpt lat="45.21737" lon="6.27133">
        <ele>1688</ele>
        <time>2014-08-10T08:17:28Z</time>
      </trkpt>
      <trkpt lat="45.21724" lon="6.27136">
        <ele>1686</ele>
        <time>2014-08-10T08:17:30Z</time>
      </trkpt>
      <trkpt lat="45.21712" lon="6.27142">
        <ele>1685</ele>
        <time>2014-08-10T08:17:32Z</time>
      </trkpt>
      <trkpt lat="45.217" lon="6.27148">
        <ele>1683</ele>
        <time>2014-08-10T08:17:34Z</time>
      </trkpt>
      <trkpt lat="45.21688" lon="6.27157">
        <ele>1680</ele>
        <time>2014-08-10T08:17:36Z</time>
      </trkpt>
      <trkpt lat="45.21675" lon="6.27168">
        <ele>1682</ele>
        <time>2014-08-10T08:17:38Z</time>
      </trkpt>
      <trkpt lat="45.21662" lon="6.27177">
        <ele>1675</ele>
        <time>2014-08-10T08:17:40Z</time>
      </trkpt>
      <trkpt lat="45.21648" lon="6.27184">
        <ele>1675</ele>
        <time>2014-08-10T08:17:42Z</time>
      </trkpt>
      <trkpt lat="45.21633" lon="6.27189">
        <ele>1674</ele>
        <time>2014-08-10T08:17:44Z</time>
      </trkpt>
      <trkpt lat="45.21617" lon="6.27194">
        <ele>1673</ele>
        <time>2014-08-10T08:17:46Z</time>
      </trkpt>
      <trkpt lat="45.21608" lon="6.27198">
        <ele>1672</ele>
        <time>2014-08-10T08:17:47Z</time>
      </trkpt>
      <trkpt lat="45.21592" lon="6.27208">
        <ele>1672</ele>
        <time>2014-08-10T08:17:49Z</time>
      </trkpt>
      <trkpt lat="45.21579" lon="6.27218">
        <ele>1662</ele>
        <time>2014-08-10T08:17:51Z</time>
      </trkpt>
      <trkpt lat="45.21566" lon="6.27224">
        <ele>1662</ele>
        <time>2014-08-10T08:17:53Z</time>
      </trkpt>
      <trkpt lat="45.21552" lon="6.27229">
        <ele>1661</ele>
        <time>2014-08-10T08:17:55Z</time>
      </trkpt>
      <trkpt lat="45.21539" lon="6.27231">
        <ele>1659</ele>
        <time>2014-08-10T08:17:57Z</time>
      </trkpt>
      <trkpt lat="45.21527" lon="6.27229">
        <ele>1657</ele>
        <time>2014-08-10T08:17:59Z</time>
      </trkpt>
      <trkpt lat="45.21516" lon="6.27221">
        <ele>1656</ele>
        <time>2014-08-10T08:18:01Z</time>
      </trkpt>
      <trkpt lat="45.21504" lon="6.27211">
        <ele>1654</ele>
        <time>2014-08-10T08:18:03Z</time>
      </trkpt>
      <trkpt lat="45.21493" lon="6.27199">
        <ele>1644</ele>
        <time>2014-08-10T08:18:05Z</time>
      </trkpt>
      <trkpt lat="45.21483" lon="6.27188">
        <ele>1643</ele>
        <time>2014-08-10T08:18:07Z</time>
      </trkpt>
      <trkpt lat="45.21471" lon="6.27179">
        <ele>1642</ele>
        <time>2014-08-10T08:18:09Z</time>
      </trkpt>
      <trkpt lat="45.21457" lon="6.27173">
        <ele>1640</ele>
        <time>2014-08-10T08:18:11Z</time>
      </trkpt>
      <trkpt lat="45.21441" lon="6.27173">
        <ele>1638</ele>
        <time>2014-08-10T08:18:13Z</time>
      </trkpt>
      <trkpt lat="45.21427" lon="6.27177">
        <ele>1636</ele>
        <time>2014-08-10T08:18:15Z</time>
      </trkpt>
      <trkpt lat="45.2141" lon="6.27187">
        <ele>1635</ele>
        <time>2014-08-10T08:18:17Z</time>
      </trkpt>
      <trkpt lat="45.21402" lon="6.27194">
        <ele>1636</ele>
        <time>2014-08-10T08:18:18Z</time>
      </trkpt>
      <trkpt lat="45.21393" lon="6.27198">
        <ele>1637</ele>
        <time>2014-08-10T08:18:19Z</time>
      </trkpt>
      <trkpt lat="45.21377" lon="6.27207">
        <ele>1638</ele>
        <time>2014-08-10T08:18:21Z</time>
      </trkpt>
      <trkpt lat="45.21361" lon="6.27211">
        <ele>1638</ele>
        <time>2014-08-10T08:18:23Z</time>
      </trkpt>
      <trkpt lat="45.2135" lon="6.27214">
        <ele>1639</ele>
        <time>2014-08-10T08:18:25Z</time>
      </trkpt>
      <trkpt lat="45.2134" lon="6.2721">
        <ele>1638</ele>
        <time>2014-08-10T08:18:27Z</time>
      </trkpt>
      <trkpt lat="45.21324" lon="6.27197">
        <ele>1632</ele>
        <time>2014-08-10T08:18:29Z</time>
      </trkpt>
      <trkpt lat="45.21314" lon="6.27188">
        <ele>1631</ele>
        <time>2014-08-10T08:18:30Z</time>
      </trkpt>
      <trkpt lat="45.21305" lon="6.27179">
        <ele>1630</ele>
        <time>2014-08-10T08:18:31Z</time>
      </trkpt>
      <trkpt lat="45.21296" lon="6.2717">
        <ele>1629</ele>
        <time>2014-08-10T08:18:32Z</time>
      </trkpt>
      <trkpt lat="45.21286" lon="6.27161">
        <ele>1615</ele>
        <time>2014-08-10T08:18:33Z</time>
      </trkpt>
      <trkpt lat="45.21275" lon="6.27153">
        <ele>1614</ele>
        <time>2014-08-10T08:18:34Z</time>
      </trkpt>
      <trkpt lat="45.21264" lon="6.27144">
        <ele>1613</ele>
        <time>2014-08-10T08:18:35Z</time>
      </trkpt>
      <trkpt lat="45.21254" lon="6.27137">
        <ele>1613</ele>
        <time>2014-08-10T08:18:36Z</time>
      </trkpt>
      <trkpt lat="45.21244" lon="6.2713">
        <ele>1607</ele>
        <time>2014-08-10T08:18:37Z</time>
      </trkpt>
      <trkpt lat="45.21233" lon="6.27125">
        <ele>1606</ele>
        <time>2014-08-10T08:18:38Z</time>
      </trkpt>
      <trkpt lat="45.21223" lon="6.2712">
        <ele>1606</ele>
        <time>2014-08-10T08:18:39Z</time>
      </trkpt>
      <trkpt lat="45.21213" lon="6.27116">
        <ele>1605</ele>
        <time>2014-08-10T08:18:40Z</time>
      </trkpt>
      <trkpt lat="45.21203" lon="6.2711">
        <ele>1605</ele>
        <time>2014-08-10T08:18:41Z</time>
      </trkpt>
      <trkpt lat="45.21194" lon="6.27106">
        <ele>1604</ele>
        <time>2014-08-10T08:18:42Z</time>
      </trkpt>
      <trkpt lat="45.21184" lon="6.27101">
        <ele>1603</ele>
        <time>2014-08-10T08:18:43Z</time>
      </trkpt>
      <trkpt lat="45.21175" lon="6.27097">
        <ele>1602</ele>
        <time>2014-08-10T08:18:44Z</time>
      </trkpt>
      <trkpt lat="45.21165" lon="6.27093">
        <ele>1598</ele>
        <time>2014-08-10T08:18:45Z</time>
      </trkpt>
      <trkpt lat="45.21155" lon="6.27088">
        <ele>1598</ele>
        <time>2014-08-10T08:18:46Z</time>
      </trkpt>
      <trkpt lat="45.2114" lon="6.27083">
        <ele>1592</ele>
        <time>2014-08-10T08:18:48Z</time>
      </trkpt>
      <trkpt lat="45.21126" lon="6.2708">
        <ele>1590</ele>
        <time>2014-08-10T08:18:50Z</time>
      </trkpt>
      <trkpt lat="45.21115" lon="6.27076">
        <ele>1590</ele>
        <time>2014-08-10T08:18:52Z</time>
      </trkpt>
      <trkpt lat="45.21106" lon="6.27064">
        <ele>1589</ele>
        <time>2014-08-10T08:18:54Z</time>
      </trkpt>
      <trkpt lat="45.21098" lon="6.27047">
        <ele>1588</ele>
        <time>2014-08-10T08:18:56Z</time>
      </trkpt>
      <trkpt lat="45.21093" lon="6.2703">
        <ele>1586</ele>
        <time>2014-08-10T08:18:58Z</time>
      </trkpt>
      <trkpt lat="45.2109" lon="6.27016">
        <ele>1584</ele>
        <time>2014-08-10T08:19:00Z</time>
      </trkpt>
      <trkpt lat="45.21096" lon="6.27004">
        <ele>1583</ele>
        <time>2014-08-10T08:19:02Z</time>
      </trkpt>
      <trkpt lat="45.21112" lon="6.27003">
        <ele>1585</ele>
        <time>2014-08-10T08:19:04Z</time>
      </trkpt>
      <trkpt lat="45.2113" lon="6.27003">
        <ele>1586</ele>
        <time>2014-08-10T08:19:06Z</time>
      </trkpt>
      <trkpt lat="45.2114" lon="6.27003">
        <ele>1586</ele>
        <time>2014-08-10T08:19:07Z</time>
      </trkpt>
      <trkpt lat="45.2115" lon="6.27002">
        <ele>1586</ele>
        <time>2014-08-10T08:19:08Z</time>
      </trkpt>
      <trkpt lat="45.2116" lon="6.26999">
        <ele>1581</ele>
        <time>2014-08-10T08:19:09Z</time>
      </trkpt>
      <trkpt lat="45.21171" lon="6.26997">
        <ele>1583</ele>
        <time>2014-08-10T08:19:10Z</time>
      </trkpt>
      <trkpt lat="45.21181" lon="6.26995">
        <ele>1581</ele>
        <time>2014-08-10T08:19:11Z</time>
      </trkpt>
      <trkpt lat="45.21197" lon="6.26988">
        <ele>1579</ele>
        <time>2014-08-10T08:19:13Z</time>
      </trkpt>
      <trkpt lat="45.21215" lon="6.26973">
        <ele>1578</ele>
        <time>2014-08-10T08:19:16Z</time>
      </trkpt>
      <trkpt lat="45.21222" lon="6.26963">
        <ele>1577</ele>
        <time>2014-08-10T08:19:18Z</time>
      </trkpt>
      <trkpt lat="45.21223" lon="6.26944">
        <ele>1575</ele>
        <time>2014-08-10T08:19:21Z</time>
      </trkpt>
      <trkpt lat="45.2123" lon="6.26933">
        <ele>1573</ele>
        <time>2014-08-10T08:19:23Z</time>
      </trkpt>
      <trkpt lat="45.21239" lon="6.26925">
        <ele>1571</ele>
        <time>2014-08-10T08:19:25Z</time>
      </trkpt>
      <trkpt lat="45.21246" lon="6.26915">
        <ele>1567</ele>
        <time>2014-08-10T08:19:27Z</time>
      </trkpt>
      <trkpt lat="45.21255" lon="6.26906">
        <ele>1567</ele>
        <time>2014-08-10T08:19:29Z</time>
      </trkpt>
      <trkpt lat="45.21263" lon="6.26897">
        <ele>1567</ele>
        <time>2014-08-10T08:19:31Z</time>
      </trkpt>
      <trkpt lat="45.2127" lon="6.26884">
        <ele>1566</ele>
        <time>2014-08-10T08:19:34Z</time>
      </trkpt>
      <trkpt lat="45.21276" lon="6.2687">
        <ele>1565</ele>
        <time>2014-08-10T08:19:38Z</time>
      </trkpt>
      <trkpt lat="45.21278" lon="6.26854">
        <ele>1564</ele>
        <time>2014-08-10T08:19:42Z</time>
      </trkpt>
      <trkpt lat="45.21277" lon="6.26841">
        <ele>1563</ele>
        <time>2014-08-10T08:19:46Z</time>
      </trkpt>
      <trkpt lat="45.21281" lon="6.26824">
        <ele>1558</ele>
        <time>2014-08-10T08:19:49Z</time>
      </trkpt>
      <trkpt lat="45.21283" lon="6.26811">
        <ele>1558</ele>
        <time>2014-08-10T08:19:51Z</time>
      </trkpt>
      <trkpt lat="45.2129" lon="6.26796">
        <ele>1559</ele>
        <time>2014-08-10T08:19:54Z</time>
      </trkpt>
      <trkpt lat="45.21296" lon="6.26786">
        <ele>1559</ele>
        <time>2014-08-10T08:19:56Z</time>
      </trkpt>
      <trkpt lat="45.21304" lon="6.26771">
        <ele>1559</ele>
        <time>2014-08-10T08:19:59Z</time>
      </trkpt>
      <trkpt lat="45.21309" lon="6.26753">
        <ele>1559</ele>
        <time>2014-08-10T08:20:02Z</time>
      </trkpt>
      <trkpt lat="45.2131" lon="6.26739">
        <ele>1556</ele>
        <time>2014-08-10T08:20:04Z</time>
      </trkpt>
      <trkpt lat="45.2131" lon="6.26721">
        <ele>1555</ele>
        <time>2014-08-10T08:20:07Z</time>
      </trkpt>
      <trkpt lat="45.213" lon="6.26714">
        <ele>1554</ele>
        <time>2014-08-10T08:20:10Z</time>
      </trkpt>
      <trkpt lat="45.21292" lon="6.26725">
        <ele>1554</ele>
        <time>2014-08-10T08:20:13Z</time>
      </trkpt>
      <trkpt lat="45.21284" lon="6.26734">
        <ele>1554</ele>
        <time>2014-08-10T08:20:15Z</time>
      </trkpt>
      <trkpt lat="45.21274" lon="6.26736">
        <ele>1553</ele>
        <time>2014-08-10T08:20:18Z</time>
      </trkpt>
      <trkpt lat="45.21265" lon="6.26726">
        <ele>1553</ele>
        <time>2014-08-10T08:20:20Z</time>
      </trkpt>
      <trkpt lat="45.21254" lon="6.26712">
        <ele>1553</ele>
        <time>2014-08-10T08:20:22Z</time>
      </trkpt>
      <trkpt lat="45.21245" lon="6.26695">
        <ele>1548</ele>
        <time>2014-08-10T08:20:24Z</time>
      </trkpt>
      <trkpt lat="45.21238" lon="6.26678">
        <ele>1547</ele>
        <time>2014-08-10T08:20:26Z</time>
      </trkpt>
      <trkpt lat="45.21234" lon="6.26661">
        <ele>1546</ele>
        <time>2014-08-10T08:20:28Z</time>
      </trkpt>
      <trkpt lat="45.2123" lon="6.26647">
        <ele>1546</ele>
        <time>2014-08-10T08:20:30Z</time>
      </trkpt>
      <trkpt lat="45.21228" lon="6.26634">
        <ele>1545</ele>
        <time>2014-08-10T08:20:32Z</time>
      </trkpt>
      <trkpt lat="45.21223" lon="6.26619">
        <ele>1545</ele>
        <time>2014-08-10T08:20:35Z</time>
      </trkpt>
      <trkpt lat="45.2122" lon="6.26603">
        <ele>1545</ele>
        <time>2014-08-10T08:20:37Z</time>
      </trkpt>
      <trkpt lat="45.21215" lon="6.26581">
        <ele>1544</ele>
        <time>2014-08-10T08:20:39Z</time>
      </trkpt>
      <trkpt lat="45.2121" lon="6.26563">
        <ele>1544</ele>
        <time>2014-08-10T08:20:41Z</time>
      </trkpt>
      <trkpt lat="45.21201" lon="6.26547">
        <ele>1543</ele>
        <time>2014-08-10T08:20:43Z</time>
      </trkpt>
      <trkpt lat="45.21199" lon="6.26531">
        <ele>1543</ele>
        <time>2014-08-10T08:20:45Z</time>
      </trkpt>
      <trkpt lat="45.21194" lon="6.26514">
        <ele>1543</ele>
        <time>2014-08-10T08:20:47Z</time>
      </trkpt>
      <trkpt lat="45.21187" lon="6.26498">
        <ele>1544</ele>
        <time>2014-08-10T08:20:49Z</time>
      </trkpt>
      <trkpt lat="45.2118" lon="6.26482">
        <ele>1544</ele>
        <time>2014-08-10T08:20:51Z</time>
      </trkpt>
      <trkpt lat="45.21173" lon="6.26466">
        <ele>1545</ele>
        <time>2014-08-10T08:20:53Z</time>
      </trkpt>
      <trkpt lat="45.21169" lon="6.26449">
        <ele>1546</ele>
        <time>2014-08-10T08:20:55Z</time>
      </trkpt>
      <trkpt lat="45.21164" lon="6.26431">
        <ele>1543</ele>
        <time>2014-08-10T08:20:57Z</time>
      </trkpt>
      <trkpt lat="45.21161" lon="6.26414">
        <ele>1545</ele>
        <time>2014-08-10T08:20:59Z</time>
      </trkpt>
      <trkpt lat="45.21158" lon="6.26397">
        <ele>1542</ele>
        <time>2014-08-10T08:21:01Z</time>
      </trkpt>
      <trkpt lat="45.21156" lon="6.26381">
        <ele>1541</ele>
        <time>2014-08-10T08:21:03Z</time>
      </trkpt>
      <trkpt lat="45.21155" lon="6.26367">
        <ele>1540</ele>
        <time>2014-08-10T08:21:05Z</time>
      </trkpt>
      <trkpt lat="45.21146" lon="6.2636">
        <ele>1540</ele>
        <time>2014-08-10T08:21:08Z</time>
      </trkpt>
      <trkpt lat="45.21134" lon="6.26364">
        <ele>1538</ele>
        <time>2014-08-10T08:21:11Z</time>
      </trkpt>
      <trkpt lat="45.21124" lon="6.26367">
        <ele>1537</ele>
        <time>2014-08-10T08:21:13Z</time>
      </trkpt>
      <trkpt lat="45.2111" lon="6.26371">
        <ele>1536</ele>
        <time>2014-08-10T08:21:15Z</time>
      </trkpt>
      <trkpt lat="45.21096" lon="6.26377">
        <ele>1535</ele>
        <time>2014-08-10T08:21:17Z</time>
      </trkpt>
      <trkpt lat="45.21083" lon="6.26385">
        <ele>1523</ele>
        <time>2014-08-10T08:21:19Z</time>
      </trkpt>
      <trkpt lat="45.21073" lon="6.2639">
        <ele>1523</ele>
        <time>2014-08-10T08:21:21Z</time>
      </trkpt>
      <trkpt lat="45.21064" lon="6.26394">
        <ele>1522</ele>
        <time>2014-08-10T08:21:23Z</time>
      </trkpt>
      <trkpt lat="45.21055" lon="6.26403">
        <ele>1522</ele>
        <time>2014-08-10T08:21:25Z</time>
      </trkpt>
      <trkpt lat="45.21046" lon="6.26419">
        <ele>1526</ele>
        <time>2014-08-10T08:21:27Z</time>
      </trkpt>
      <trkpt lat="45.21037" lon="6.26438">
        <ele>1525</ele>
        <time>2014-08-10T08:21:29Z</time>
      </trkpt>
      <trkpt lat="45.21027" lon="6.26451">
        <ele>1525</ele>
        <time>2014-08-10T08:21:31Z</time>
      </trkpt>
      <trkpt lat="45.21014" lon="6.26455">
        <ele>1524</ele>
        <time>2014-08-10T08:21:33Z</time>
      </trkpt>
      <trkpt lat="45.20998" lon="6.26454">
        <ele>1513</ele>
        <time>2014-08-10T08:21:35Z</time>
      </trkpt>
      <trkpt lat="45.20984" lon="6.26449">
        <ele>1512</ele>
        <time>2014-08-10T08:21:37Z</time>
      </trkpt>
      <trkpt lat="45.20973" lon="6.26446">
        <ele>1510</ele>
        <time>2014-08-10T08:21:39Z</time>
      </trkpt>
      <trkpt lat="45.20961" lon="6.26447">
        <ele>1509</ele>
        <time>2014-08-10T08:21:42Z</time>
      </trkpt>
      <trkpt lat="45.20949" lon="6.26451">
        <ele>1508</ele>
        <time>2014-08-10T08:21:46Z</time>
      </trkpt>
      <trkpt lat="45.2094" lon="6.26454">
        <ele>1507</ele>
        <time>2014-08-10T08:21:49Z</time>
      </trkpt>
      <trkpt lat="45.2093" lon="6.26455">
        <ele>1506</ele>
        <time>2014-08-10T08:21:53Z</time>
      </trkpt>
      <trkpt lat="45.20919" lon="6.26463">
        <ele>1507</ele>
        <time>2014-08-10T08:21:59Z</time>
      </trkpt>
      <trkpt lat="45.2091" lon="6.2647">
        <ele>1493</ele>
        <time>2014-08-10T08:22:05Z</time>
      </trkpt>
      <trkpt lat="45.20902" lon="6.26478">
        <ele>1494</ele>
        <time>2014-08-10T08:22:11Z</time>
      </trkpt>
      <trkpt lat="45.20891" lon="6.26476">
        <ele>1491</ele>
        <time>2014-08-10T08:22:18Z</time>
      </trkpt>
      <trkpt lat="45.20883" lon="6.26468">
        <ele>1488</ele>
        <time>2014-08-10T08:22:23Z</time>
      </trkpt>
      <trkpt lat="45.20877" lon="6.26455">
        <ele>1485</ele>
        <time>2014-08-10T08:22:29Z</time>
      </trkpt>
      <trkpt lat="45.2087" lon="6.26444">
        <ele>1483</ele>
        <time>2014-08-10T08:22:33Z</time>
      </trkpt>
      <trkpt lat="45.20861" lon="6.26443">
        <ele>1481</ele>
        <time>2014-08-10T08:22:37Z</time>
      </trkpt>
      <trkpt lat="45.20851" lon="6.26447">
        <ele>1479</ele>
        <time>2014-08-10T08:22:41Z</time>
      </trkpt>
      <trkpt lat="45.2084" lon="6.26448">
        <ele>1478</ele>
        <time>2014-08-10T08:22:45Z</time>
      </trkpt>
      <trkpt lat="45.20831" lon="6.26459">
        <ele>1462</ele>
        <time>2014-08-10T08:22:48Z</time>
      </trkpt>
      <trkpt lat="45.20824" lon="6.26476">
        <ele>1465</ele>
        <time>2014-08-10T08:22:51Z</time>
      </trkpt>
      <trkpt lat="45.2082" lon="6.26491">
        <ele>1467</ele>
        <time>2014-08-10T08:22:54Z</time>
      </trkpt>
      <trkpt lat="45.20811" lon="6.26503">
        <ele>1470</ele>
        <time>2014-08-10T08:22:58Z</time>
      </trkpt>
      <trkpt lat="45.20804" lon="6.26511">
        <ele>1468</ele>
        <time>2014-08-10T08:23:01Z</time>
      </trkpt>
      <trkpt lat="45.20794" lon="6.26521">
        <ele>1466</ele>
        <time>2014-08-10T08:23:04Z</time>
      </trkpt>
      <trkpt lat="45.20785" lon="6.2653">
        <ele>1465</ele>
        <time>2014-08-10T08:23:06Z</time>
      </trkpt>
      <trkpt lat="45.20777" lon="6.26542">
        <ele>1464</ele>
        <time>2014-08-10T08:23:08Z</time>
      </trkpt>
      <trkpt lat="45.20769" lon="6.26554">
        <ele>1464</ele>
        <time>2014-08-10T08:23:10Z</time>
      </trkpt>
      <trkpt lat="45.20763" lon="6.26566">
        <ele>1463</ele>
        <time>2014-08-10T08:23:12Z</time>
      </trkpt>
      <trkpt lat="45.20756" lon="6.26575">
        <ele>1461</ele>
        <time>2014-08-10T08:23:15Z</time>
      </trkpt>
      <trkpt lat="45.20747" lon="6.26569">
        <ele>1453</ele>
        <time>2014-08-10T08:23:20Z</time>
      </trkpt>
      <trkpt lat="45.20741" lon="6.26558">
        <ele>1450</ele>
        <time>2014-08-10T08:23:26Z</time>
      </trkpt>
      <trkpt lat="45.20734" lon="6.26545">
        <ele>1448</ele>
        <time>2014-08-10T08:23:34Z</time>
      </trkpt>
      <trkpt lat="45.20726" lon="6.26533">
        <ele>1447</ele>
        <time>2014-08-10T08:23:54Z</time>
      </trkpt>
      <trkpt lat="45.20716" lon="6.2653">
        <ele>1446</ele>
        <time>2014-08-10T08:24:03Z</time>
      </trkpt>
      <trkpt lat="45.20713" lon="6.26515">
        <ele>1445</ele>
        <time>2014-08-10T08:24:11Z</time>
      </trkpt>
      <trkpt lat="45.20699" lon="6.2651">
        <ele>1443</ele>
        <time>2014-08-10T08:24:19Z</time>
      </trkpt>
      <trkpt lat="45.20691" lon="6.26504">
        <ele>1441</ele>
        <time>2014-08-10T08:24:21Z</time>
      </trkpt>
      <trkpt lat="45.20681" lon="6.26506">
        <ele>1439</ele>
        <time>2014-08-10T08:24:24Z</time>
      </trkpt>
      <trkpt lat="45.20672" lon="6.26516">
        <ele>1439</ele>
        <time>2014-08-10T08:24:27Z</time>
      </trkpt>
      <trkpt lat="45.20663" lon="6.26529">
        <ele>1431</ele>
        <time>2014-08-10T08:24:30Z</time>
      </trkpt>
      <trkpt lat="45.20656" lon="6.26543">
        <ele>1431</ele>
        <time>2014-08-10T08:24:33Z</time>
      </trkpt>
      <trkpt lat="45.20651" lon="6.26559">
        <ele>1433</ele>
        <time>2014-08-10T08:24:36Z</time>
      </trkpt>
      <trkpt lat="45.20643" lon="6.26573">
        <ele>1433</ele>
        <time>2014-08-10T08:24:39Z</time>
      </trkpt>
      <trkpt lat="45.20636" lon="6.26582">
        <ele>1432</ele>
        <time>2014-08-10T08:24:41Z</time>
      </trkpt>
      <trkpt lat="45.20627" lon="6.26596">
        <ele>1438</ele>
        <time>2014-08-10T08:24:44Z</time>
      </trkpt>
      <trkpt lat="45.20616" lon="6.26597">
        <ele>1437</ele>
        <time>2014-08-10T08:24:45Z</time>
      </trkpt>
      <trkpt lat="45.20609" lon="6.26607">
        <ele>1437</ele>
        <time>2014-08-10T08:24:47Z</time>
      </trkpt>
      <trkpt lat="45.20604" lon="6.26623">
        <ele>1438</ele>
        <time>2014-08-10T08:24:50Z</time>
      </trkpt>
      <trkpt lat="45.20601" lon="6.26639">
        <ele>1439</ele>
        <time>2014-08-10T08:24:53Z</time>
      </trkpt>
      <trkpt lat="45.20595" lon="6.26654">
        <ele>1440</ele>
        <time>2014-08-10T08:24:56Z</time>
      </trkpt>
      <trkpt lat="45.20588" lon="6.26665">
        <ele>1440</ele>
        <time>2014-08-10T08:24:59Z</time>
      </trkpt>
      <trkpt lat="45.2058" lon="6.26669">
        <ele>1440</ele>
        <time>2014-08-10T08:25:02Z</time>
      </trkpt>
      <trkpt lat="45.2057" lon="6.26666">
        <ele>1434</ele>
        <time>2014-08-10T08:25:07Z</time>
      </trkpt>
      <trkpt lat="45.20575" lon="6.26654">
        <ele>1433</ele>
        <time>2014-08-10T08:25:10Z</time>
      </trkpt>
      <trkpt lat="45.20583" lon="6.26639">
        <ele>1439</ele>
        <time>2014-08-10T08:25:13Z</time>
      </trkpt>
      <trkpt lat="45.20587" lon="6.26625">
        <ele>1437</ele>
        <time>2014-08-10T08:25:15Z</time>
      </trkpt>
      <trkpt lat="45.20586" lon="6.26608">
        <ele>1435</ele>
        <time>2014-08-10T08:25:18Z</time>
      </trkpt>
      <trkpt lat="45.20588" lon="6.26595">
        <ele>1431</ele>
        <time>2014-08-10T08:25:21Z</time>
      </trkpt>
      <trkpt lat="45.20588" lon="6.26579">
        <ele>1426</ele>
        <time>2014-08-10T08:25:24Z</time>
      </trkpt>
      <trkpt lat="45.20586" lon="6.26565">
        <ele>1426</ele>
        <time>2014-08-10T08:25:27Z</time>
      </trkpt>
      <trkpt lat="45.20586" lon="6.2655">
        <ele>1425</ele>
        <time>2014-08-10T08:25:30Z</time>
      </trkpt>
      <trkpt lat="45.20585" lon="6.26535">
        <ele>1424</ele>
        <time>2014-08-10T08:25:33Z</time>
      </trkpt>
      <trkpt lat="45.2058" lon="6.26522">
        <ele>1412</ele>
        <time>2014-08-10T08:25:39Z</time>
      </trkpt>
      <trkpt lat="45.20585" lon="6.26509">
        <ele>1416</ele>
        <time>2014-08-10T08:25:45Z</time>
      </trkpt>
      <trkpt lat="45.20582" lon="6.26497">
        <ele>1410</ele>
        <time>2014-08-10T08:25:49Z</time>
      </trkpt>
      <trkpt lat="45.20581" lon="6.26481">
        <ele>1407</ele>
        <time>2014-08-10T08:25:52Z</time>
      </trkpt>
      <trkpt lat="45.2058" lon="6.26466">
        <ele>1405</ele>
        <time>2014-08-10T08:25:54Z</time>
      </trkpt>
      <trkpt lat="45.20577" lon="6.26454">
        <ele>1404</ele>
        <time>2014-08-10T08:25:56Z</time>
      </trkpt>
      <trkpt lat="45.20572" lon="6.2644">
        <ele>1404</ele>
        <time>2014-08-10T08:25:58Z</time>
      </trkpt>
      <trkpt lat="45.20565" lon="6.26425">
        <ele>1403</ele>
        <time>2014-08-10T08:26:00Z</time>
      </trkpt>
      <trkpt lat="45.20559" lon="6.2641">
        <ele>1403</ele>
        <time>2014-08-10T08:26:02Z</time>
      </trkpt>
      <trkpt lat="45.20552" lon="6.26394">
        <ele>1403</ele>
        <time>2014-08-10T08:26:04Z</time>
      </trkpt>
      <trkpt lat="45.20543" lon="6.26381">
        <ele>1403</ele>
        <time>2014-08-10T08:26:06Z</time>
      </trkpt>
      <trkpt lat="45.2054" lon="6.26365">
        <ele>1403</ele>
        <time>2014-08-10T08:26:13Z</time>
      </trkpt>
      <trkpt lat="45.20536" lon="6.26352">
        <ele>1403</ele>
        <time>2014-08-10T08:26:18Z</time>
      </trkpt>
      <trkpt lat="45.20533" lon="6.26338">
        <ele>1403</ele>
        <time>2014-08-10T08:26:32Z</time>
      </trkpt>
      <trkpt lat="45.20543" lon="6.2634">
        <ele>1403</ele>
        <time>2014-08-10T08:26:38Z</time>
      </trkpt>
      <trkpt lat="45.20553" lon="6.26345">
        <ele>1403</ele>
        <time>2014-08-10T08:26:41Z</time>
      </trkpt>
      <trkpt lat="45.2055" lon="6.26331">
        <ele>1406</ele>
        <time>2014-08-10T08:26:46Z</time>
      </trkpt>
      <trkpt lat="45.20547" lon="6.26318">
        <ele>1406</ele>
        <time>2014-08-10T08:26:52Z</time>
      </trkpt>
      <trkpt lat="45.20538" lon="6.26308">
        <ele>1406</ele>
        <time>2014-08-10T08:26:55Z</time>
      </trkpt>
      <trkpt lat="45.20529" lon="6.26294">
        <ele>1407</ele>
        <time>2014-08-10T08:26:59Z</time>
      </trkpt>
      <trkpt lat="45.20528" lon="6.26278">
        <ele>1408</ele>
        <time>2014-08-10T08:27:04Z</time>
      </trkpt>
      <trkpt lat="45.20522" lon="6.26265">
        <ele>1408</ele>
        <time>2014-08-10T08:27:11Z</time>
      </trkpt>
      <trkpt lat="45.20519" lon="6.26252">
        <ele>1409</ele>
        <time>2014-08-10T08:27:19Z</time>
      </trkpt>
      <trkpt lat="45.20514" lon="6.26236">
        <ele>1412</ele>
        <time>2014-08-10T08:27:23Z</time>
      </trkpt>
      <trkpt lat="45.20504" lon="6.26222">
        <ele>1413</ele>
        <time>2014-08-10T08:27:27Z</time>
      </trkpt>
      <trkpt lat="45.205" lon="6.26208">
        <ele>1414</ele>
        <time>2014-08-10T08:27:30Z</time>
      </trkpt>
      <trkpt lat="45.20501" lon="6.26195">
        <ele>1414</ele>
        <time>2014-08-10T08:27:35Z</time>
      </trkpt>
      <trkpt lat="45.20506" lon="6.26182">
        <ele>1414</ele>
        <time>2014-08-10T08:27:44Z</time>
      </trkpt>
      <trkpt lat="45.20505" lon="6.26168">
        <ele>1414</ele>
        <time>2014-08-10T08:27:51Z</time>
      </trkpt>
      <trkpt lat="45.20496" lon="6.26157">
        <ele>1416</ele>
        <time>2014-08-10T08:28:00Z</time>
      </trkpt>
      <trkpt lat="45.20503" lon="6.26146">
        <ele>1420</ele>
        <time>2014-08-10T08:28:09Z</time>
      </trkpt>
      <trkpt lat="45.20508" lon="6.26135">
        <ele>1422</ele>
        <time>2014-08-10T08:28:23Z</time>
      </trkpt>
      <trkpt lat="45.20503" lon="6.26123">
        <ele>1424</ele>
        <time>2014-08-10T08:28:34Z</time>
      </trkpt>
      <trkpt lat="45.20499" lon="6.2611">
        <ele>1422</ele>
        <time>2014-08-10T08:28:45Z</time>
      </trkpt>
      <trkpt lat="45.20496" lon="6.26096">
        <ele>1423</ele>
        <time>2014-08-10T08:28:54Z</time>
      </trkpt>
      <trkpt lat="45.20491" lon="6.26084">
        <ele>1424</ele>
        <time>2014-08-10T08:29:06Z</time>
      </trkpt>
      <trkpt lat="45.20488" lon="6.26071">
        <ele>1427</ele>
        <time>2014-08-10T08:29:15Z</time>
      </trkpt>
      <trkpt lat="45.20486" lon="6.26058">
        <ele>1428</ele>
        <time>2014-08-10T08:29:23Z</time>
      </trkpt>
      <trkpt lat="45.20485" lon="6.26044">
        <ele>1430</ele>
        <time>2014-08-10T08:29:32Z</time>
      </trkpt>
      <trkpt lat="45.20483" lon="6.26031">
        <ele>1431</ele>
        <time>2014-08-10T08:29:44Z</time>
      </trkpt>
      <trkpt lat="45.20481" lon="6.26017">
        <ele>1432</ele>
        <time>2014-08-10T08:29:58Z</time>
      </trkpt>
      <trkpt lat="45.20483" lon="6.26004">
        <ele>1434</ele>
        <time>2014-08-10T08:30:15Z</time>
      </trkpt>
      <trkpt lat="45.20484" lon="6.2599">
        <ele>1440</ele>
        <time>2014-08-10T08:30:34Z</time>
      </trkpt>
      <trkpt lat="45.20483" lon="6.25977">
        <ele>1441</ele>
        <time>2014-08-10T08:30:48Z</time>
      </trkpt>
      <trkpt lat="45.20481" lon="6.25963">
        <ele>1442</ele>
        <time>2014-08-10T08:31:03Z</time>
      </trkpt>
      <trkpt lat="45.20479" lon="6.25949">
        <ele>1443</ele>
        <time>2014-08-10T08:31:15Z</time>
      </trkpt>
      <trkpt lat="45.20477" lon="6.25935">
        <ele>1445</ele>
        <time>2014-08-10T08:31:30Z</time>
      </trkpt>
      <trkpt lat="45.20475" lon="6.25921">
        <ele>1446</ele>
        <time>2014-08-10T08:31:45Z</time>
      </trkpt>
      <trkpt lat="45.20474" lon="6.25908">
        <ele>1456</ele>
        <time>2014-08-10T08:31:59Z</time>
      </trkpt>
      <trkpt lat="45.20472" lon="6.25894">
        <ele>1457</ele>
        <time>2014-08-10T08:32:13Z</time>
      </trkpt>
      <trkpt lat="45.20471" lon="6.25881">
        <ele>1458</ele>
        <time>2014-08-10T08:32:31Z</time>
      </trkpt>
      <trkpt lat="45.2047" lon="6.25867">
        <ele>1460</ele>
        <time>2014-08-10T08:32:45Z</time>
      </trkpt>
      <trkpt lat="45.20467" lon="6.25855">
        <ele>1461</ele>
        <time>2014-08-10T08:33:00Z</time>
      </trkpt>
      <trkpt lat="45.20464" lon="6.25842">
        <ele>1462</ele>
        <time>2014-08-10T08:33:20Z</time>
      </trkpt>
      <trkpt lat="45.20463" lon="6.25828">
        <ele>1475</ele>
        <time>2014-08-10T08:33:36Z</time>
      </trkpt>
      <trkpt lat="45.20459" lon="6.25816">
        <ele>1475</ele>
        <time>2014-08-10T08:34:02Z</time>
      </trkpt>
      <trkpt lat="45.20456" lon="6.25802">
        <ele>1477</ele>
        <time>2014-08-10T08:34:22Z</time>
      </trkpt>
      <trkpt lat="45.20456" lon="6.25789">
        <ele>1478</ele>
        <time>2014-08-10T08:34:39Z</time>
      </trkpt>
      <trkpt lat="45.20456" lon="6.25775">
        <ele>1480</ele>
        <time>2014-08-10T08:35:05Z</time>
      </trkpt>
      <trkpt lat="45.20455" lon="6.25762">
        <ele>1481</ele>
        <time>2014-08-10T08:35:27Z</time>
      </trkpt>
      <trkpt lat="45.20452" lon="6.25749">
        <ele>1493</ele>
        <time>2014-08-10T08:35:49Z</time>
      </trkpt>
      <trkpt lat="45.20449" lon="6.25737">
        <ele>1493</ele>
        <time>2014-08-10T08:36:03Z</time>
      </trkpt>
      <trkpt lat="45.20444" lon="6.25725">
        <ele>1494</ele>
        <time>2014-08-10T08:36:19Z</time>
      </trkpt>
      <trkpt lat="45.20439" lon="6.25713">
        <ele>1494</ele>
        <time>2014-08-10T08:36:33Z</time>
      </trkpt>
      <trkpt lat="45.20432" lon="6.25704">
        <ele>1495</ele>
        <time>2014-08-10T08:36:42Z</time>
      </trkpt>
      <trkpt lat="45.20425" lon="6.25693">
        <ele>1495</ele>
        <time>2014-08-10T08:36:52Z</time>
      </trkpt>
      <trkpt lat="45.20418" lon="6.25684">
        <ele>1495</ele>
        <time>2014-08-10T08:36:58Z</time>
      </trkpt>
      <trkpt lat="45.20412" lon="6.25672">
        <ele>1489</ele>
        <time>2014-08-10T08:37:04Z</time>
      </trkpt>
      <trkpt lat="45.20404" lon="6.25663">
        <ele>1493</ele>
        <time>2014-08-10T08:37:11Z</time>
      </trkpt>
      <trkpt lat="45.20397" lon="6.25651">
        <ele>1492</ele>
        <time>2014-08-10T08:37:17Z</time>
      </trkpt>
      <trkpt lat="45.20391" lon="6.25642">
        <ele>1492</ele>
        <time>2014-08-10T08:37:22Z</time>
      </trkpt>
      <trkpt lat="45.20385" lon="6.25631">
        <ele>1493</ele>
        <time>2014-08-10T08:37:27Z</time>
      </trkpt>
      <trkpt lat="45.20378" lon="6.2562">
        <ele>1493</ele>
        <time>2014-08-10T08:37:33Z</time>
      </trkpt>
      <trkpt lat="45.20371" lon="6.25608">
        <ele>1493</ele>
        <time>2014-08-10T08:37:39Z</time>
      </trkpt>
      <trkpt lat="45.20366" lon="6.25597">
        <ele>1493</ele>
        <time>2014-08-10T08:37:45Z</time>
      </trkpt>
      <trkpt lat="45.20361" lon="6.25585">
        <ele>1493</ele>
        <time>2014-08-10T08:37:51Z</time>
      </trkpt>
      <trkpt lat="45.20354" lon="6.25575">
        <ele>1502</ele>
        <time>2014-08-10T08:37:58Z</time>
      </trkpt>
      <trkpt lat="45.2035" lon="6.25563">
        <ele>1503</ele>
        <time>2014-08-10T08:38:07Z</time>
      </trkpt>
      <trkpt lat="45.2036" lon="6.25564">
        <ele>1505</ele>
        <time>2014-08-10T08:38:15Z</time>
      </trkpt>
      <trkpt lat="45.20369" lon="6.2557">
        <ele>1506</ele>
        <time>2014-08-10T08:38:23Z</time>
      </trkpt>
      <trkpt lat="45.20379" lon="6.25575">
        <ele>1507</ele>
        <time>2014-08-10T08:38:31Z</time>
      </trkpt>
      <trkpt lat="45.20388" lon="6.2558">
        <ele>1508</ele>
        <time>2014-08-10T08:38:38Z</time>
      </trkpt>
      <trkpt lat="45.20397" lon="6.25586">
        <ele>1501</ele>
        <time>2014-08-10T08:38:45Z</time>
      </trkpt>
      <trkpt lat="45.20407" lon="6.25591">
        <ele>1503</ele>
        <time>2014-08-10T08:38:52Z</time>
      </trkpt>
      <trkpt lat="45.20416" lon="6.25597">
        <ele>1503</ele>
        <time>2014-08-10T08:38:59Z</time>
      </trkpt>
      <trkpt lat="45.20425" lon="6.25601">
        <ele>1512</ele>
        <time>2014-08-10T08:39:05Z</time>
      </trkpt>
      <trkpt lat="45.20434" lon="6.25607">
        <ele>1512</ele>
        <time>2014-08-10T08:39:12Z</time>
      </trkpt>
      <trkpt lat="45.20443" lon="6.25614">
        <ele>1513</ele>
        <time>2014-08-10T08:39:19Z</time>
      </trkpt>
      <trkpt lat="45.20452" lon="6.25617">
        <ele>1514</ele>
        <time>2014-08-10T08:39:25Z</time>
      </trkpt>
      <trkpt lat="45.20461" lon="6.25625">
        <ele>1514</ele>
        <time>2014-08-10T08:39:32Z</time>
      </trkpt>
      <trkpt lat="45.20471" lon="6.25632">
        <ele>1515</ele>
        <time>2014-08-10T08:39:39Z</time>
      </trkpt>
      <trkpt lat="45.20479" lon="6.25638">
        <ele>1515</ele>
        <time>2014-08-10T08:39:45Z</time>
      </trkpt>
      <trkpt lat="45.20489" lon="6.25644">
        <ele>1516</ele>
        <time>2014-08-10T08:39:53Z</time>
      </trkpt>
      <trkpt lat="45.20498" lon="6.25651">
        <ele>1516</ele>
        <time>2014-08-10T08:40:00Z</time>
      </trkpt>
      <trkpt lat="45.20507" lon="6.25658">
        <ele>1523</ele>
        <time>2014-08-10T08:40:06Z</time>
      </trkpt>
      <trkpt lat="45.20515" lon="6.25663">
        <ele>1525</ele>
        <time>2014-08-10T08:40:12Z</time>
      </trkpt>
      <trkpt lat="45.20525" lon="6.25671">
        <ele>1519</ele>
        <time>2014-08-10T08:40:18Z</time>
      </trkpt>
      <trkpt lat="45.20535" lon="6.25678">
        <ele>1520</ele>
        <time>2014-08-10T08:40:24Z</time>
      </trkpt>
      <trkpt lat="45.20543" lon="6.25686">
        <ele>1520</ele>
        <time>2014-08-10T08:40:30Z</time>
      </trkpt>
      <trkpt lat="45.20552" lon="6.25693">
        <ele>1521</ele>
        <time>2014-08-10T08:40:37Z</time>
      </trkpt>
      <trkpt lat="45.20562" lon="6.25702">
        <ele>1521</ele>
        <time>2014-08-10T08:40:43Z</time>
      </trkpt>
      <trkpt lat="45.20571" lon="6.25707">
        <ele>1521</ele>
        <time>2014-08-10T08:40:50Z</time>
      </trkpt>
      <trkpt lat="45.2058" lon="6.25713">
        <ele>1521</ele>
        <time>2014-08-10T08:40:54Z</time>
      </trkpt>
      <trkpt lat="45.20589" lon="6.2572">
        <ele>1528</ele>
        <time>2014-08-10T08:40:58Z</time>
      </trkpt>
      <trkpt lat="45.20599" lon="6.25728">
        <ele>1527</ele>
        <time>2014-08-10T08:41:01Z</time>
      </trkpt>
      <trkpt lat="45.20607" lon="6.25743">
        <ele>1527</ele>
        <time>2014-08-10T08:41:04Z</time>
      </trkpt>
      <trkpt lat="45.20614" lon="6.25757">
        <ele>1519</ele>
        <time>2014-08-10T08:41:06Z</time>
      </trkpt>
      <trkpt lat="45.20625" lon="6.2577">
        <ele>1518</ele>
        <time>2014-08-10T08:41:08Z</time>
      </trkpt>
      <trkpt lat="45.20639" lon="6.2578">
        <ele>1518</ele>
        <time>2014-08-10T08:41:10Z</time>
      </trkpt>
      <trkpt lat="45.20654" lon="6.25786">
        <ele>1518</ele>
        <time>2014-08-10T08:41:12Z</time>
      </trkpt>
      <trkpt lat="45.20667" lon="6.25788">
        <ele>1514</ele>
        <time>2014-08-10T08:41:14Z</time>
      </trkpt>
      <trkpt lat="45.20677" lon="6.25785">
        <ele>1514</ele>
        <time>2014-08-10T08:41:16Z</time>
      </trkpt>
      <trkpt lat="45.20687" lon="6.25779">
        <ele>1514</ele>
        <time>2014-08-10T08:41:19Z</time>
      </trkpt>
      <trkpt lat="45.20696" lon="6.25769">
        <ele>1513</ele>
        <time>2014-08-10T08:41:23Z</time>
      </trkpt>
      <trkpt lat="45.20705" lon="6.25756">
        <ele>1512</ele>
        <time>2014-08-10T08:41:26Z</time>
      </trkpt>
      <trkpt lat="45.20712" lon="6.25741">
        <ele>1519</ele>
        <time>2014-08-10T08:41:29Z</time>
      </trkpt>
      <trkpt lat="45.20718" lon="6.2573">
        <ele>1519</ele>
        <time>2014-08-10T08:41:33Z</time>
      </trkpt>
      <trkpt lat="45.20725" lon="6.25716">
        <ele>1519</ele>
        <time>2014-08-10T08:41:38Z</time>
      </trkpt>
      <trkpt lat="45.20729" lon="6.25704">
        <ele>1520</ele>
        <time>2014-08-10T08:41:43Z</time>
      </trkpt>
      <trkpt lat="45.20736" lon="6.25691">
        <ele>1520</ele>
        <time>2014-08-10T08:41:49Z</time>
      </trkpt>
      <trkpt lat="45.20743" lon="6.25681">
        <ele>1520</ele>
        <time>2014-08-10T08:41:54Z</time>
      </trkpt>
      <trkpt lat="45.20752" lon="6.25676">
        <ele>1513</ele>
        <time>2014-08-10T08:41:59Z</time>
      </trkpt>
      <trkpt lat="45.20762" lon="6.2567">
        <ele>1511</ele>
        <time>2014-08-10T08:42:03Z</time>
      </trkpt>
      <trkpt lat="45.20774" lon="6.25663">
        <ele>1517</ele>
        <time>2014-08-10T08:42:07Z</time>
      </trkpt>
      <trkpt lat="45.20784" lon="6.25655">
        <ele>1516</ele>
        <time>2014-08-10T08:42:11Z</time>
      </trkpt>
      <trkpt lat="45.20796" lon="6.25648">
        <ele>1515</ele>
        <time>2014-08-10T08:42:14Z</time>
      </trkpt>
      <trkpt lat="45.20809" lon="6.25642">
        <ele>1513</ele>
        <time>2014-08-10T08:42:17Z</time>
      </trkpt>
      <trkpt lat="45.20817" lon="6.25635">
        <ele>1513</ele>
        <time>2014-08-10T08:42:19Z</time>
      </trkpt>
      <trkpt lat="45.20825" lon="6.25628">
        <ele>1514</ele>
        <time>2014-08-10T08:42:21Z</time>
      </trkpt>
      <trkpt lat="45.20833" lon="6.2562">
        <ele>1515</ele>
        <time>2014-08-10T08:42:23Z</time>
      </trkpt>
      <trkpt lat="45.20842" lon="6.25611">
        <ele>1502</ele>
        <time>2014-08-10T08:42:26Z</time>
      </trkpt>
      <trkpt lat="45.20851" lon="6.25606">
        <ele>1502</ele>
        <time>2014-08-10T08:42:29Z</time>
      </trkpt>
      <trkpt lat="45.2086" lon="6.25598">
        <ele>1501</ele>
        <time>2014-08-10T08:42:32Z</time>
      </trkpt>
      <trkpt lat="45.20867" lon="6.25586">
        <ele>1501</ele>
        <time>2014-08-10T08:42:36Z</time>
      </trkpt>
      <trkpt lat="45.20872" lon="6.25575">
        <ele>1513</ele>
        <time>2014-08-10T08:42:39Z</time>
      </trkpt>
      <trkpt lat="45.20883" lon="6.25571">
        <ele>1512</ele>
        <time>2014-08-10T08:42:43Z</time>
      </trkpt>
      <trkpt lat="45.20895" lon="6.25566">
        <ele>1510</ele>
        <time>2014-08-10T08:42:47Z</time>
      </trkpt>
      <trkpt lat="45.20904" lon="6.25558">
        <ele>1510</ele>
        <time>2014-08-10T08:42:51Z</time>
      </trkpt>
      <trkpt lat="45.20912" lon="6.25551">
        <ele>1511</ele>
        <time>2014-08-10T08:42:55Z</time>
      </trkpt>
      <trkpt lat="45.20921" lon="6.25543">
        <ele>1497</ele>
        <time>2014-08-10T08:42:59Z</time>
      </trkpt>
      <trkpt lat="45.20931" lon="6.25532">
        <ele>1499</ele>
        <time>2014-08-10T08:43:03Z</time>
      </trkpt>
      <trkpt lat="45.2094" lon="6.25528">
        <ele>1498</ele>
        <time>2014-08-10T08:43:06Z</time>
      </trkpt>
      <trkpt lat="45.20949" lon="6.25523">
        <ele>1497</ele>
        <time>2014-08-10T08:43:09Z</time>
      </trkpt>
      <trkpt lat="45.20959" lon="6.25514">
        <ele>1496</ele>
        <time>2014-08-10T08:43:12Z</time>
      </trkpt>
      <trkpt lat="45.20964" lon="6.25501">
        <ele>1497</ele>
        <time>2014-08-10T08:43:19Z</time>
      </trkpt>
      <trkpt lat="45.2097" lon="6.25492">
        <ele>1512</ele>
        <time>2014-08-10T08:43:25Z</time>
      </trkpt>
      <trkpt lat="45.20982" lon="6.25489">
        <ele>1508</ele>
        <time>2014-08-10T08:43:33Z</time>
      </trkpt>
      <trkpt lat="45.20991" lon="6.25487">
        <ele>1506</ele>
        <time>2014-08-10T08:43:36Z</time>
      </trkpt>
      <trkpt lat="45.21001" lon="6.25479">
        <ele>1496</ele>
        <time>2014-08-10T08:43:40Z</time>
      </trkpt>
      <trkpt lat="45.2101" lon="6.25473">
        <ele>1497</ele>
        <time>2014-08-10T08:43:44Z</time>
      </trkpt>
      <trkpt lat="45.2102" lon="6.25466">
        <ele>1497</ele>
        <time>2014-08-10T08:43:49Z</time>
      </trkpt>
      <trkpt lat="45.2103" lon="6.25463">
        <ele>1497</ele>
        <time>2014-08-10T08:43:53Z</time>
      </trkpt>
      <trkpt lat="45.2104" lon="6.25457">
        <ele>1496</ele>
        <time>2014-08-10T08:43:57Z</time>
      </trkpt>
      <trkpt lat="45.21042" lon="6.25441">
        <ele>1499</ele>
        <time>2014-08-10T08:44:01Z</time>
      </trkpt>
      <trkpt lat="45.21044" lon="6.25425">
        <ele>1500</ele>
        <time>2014-08-10T08:44:05Z</time>
      </trkpt>
      <trkpt lat="45.21049" lon="6.25413">
        <ele>1516</ele>
        <time>2014-08-10T08:44:11Z</time>
      </trkpt>
      <trkpt lat="45.21056" lon="6.25404">
        <ele>1515</ele>
        <time>2014-08-10T08:44:16Z</time>
      </trkpt>
      <trkpt lat="45.21066" lon="6.25402">
        <ele>1513</ele>
        <time>2014-08-10T08:44:22Z</time>
      </trkpt>
      <trkpt lat="45.21076" lon="6.25396">
        <ele>1512</ele>
        <time>2014-08-10T08:44:30Z</time>
      </trkpt>
      <trkpt lat="45.21084" lon="6.25393">
        <ele>1495</ele>
        <time>2014-08-10T08:44:36Z</time>
      </trkpt>
      <trkpt lat="45.21094" lon="6.25387">
        <ele>1495</ele>
        <time>2014-08-10T08:44:41Z</time>
      </trkpt>
      <trkpt lat="45.21103" lon="6.25379">
        <ele>1494</ele>
        <time>2014-08-10T08:44:47Z</time>
      </trkpt>
      <trkpt lat="45.21112" lon="6.25371">
        <ele>1494</ele>
        <time>2014-08-10T08:44:52Z</time>
      </trkpt>
      <trkpt lat="45.21117" lon="6.2536">
        <ele>1494</ele>
        <time>2014-08-10T08:44:58Z</time>
      </trkpt>
      <trkpt lat="45.21121" lon="6.25346">
        <ele>1495</ele>
        <time>2014-08-10T08:45:05Z</time>
      </trkpt>
      <trkpt lat="45.21125" lon="6.25332">
        <ele>1502</ele>
        <time>2014-08-10T08:45:11Z</time>
      </trkpt>
      <trkpt lat="45.21127" lon="6.25316">
        <ele>1502</ele>
        <time>2014-08-10T08:45:16Z</time>
      </trkpt>
      <trkpt lat="45.21126" lon="6.25299">
        <ele>1503</ele>
        <time>2014-08-10T08:45:20Z</time>
      </trkpt>
      <trkpt lat="45.21126" lon="6.25284">
        <ele>1504</ele>
        <time>2014-08-10T08:45:24Z</time>
      </trkpt>
      <trkpt lat="45.21126" lon="6.25271">
        <ele>1505</ele>
        <time>2014-08-10T08:45:27Z</time>
      </trkpt>
      <trkpt lat="45.21128" lon="6.25255">
        <ele>1505</ele>
        <time>2014-08-10T08:45:30Z</time>
      </trkpt>
      <trkpt lat="45.21128" lon="6.25241">
        <ele>1511</ele>
        <time>2014-08-10T08:45:33Z</time>
      </trkpt>
      <trkpt lat="45.21128" lon="6.25227">
        <ele>1512</ele>
        <time>2014-08-10T08:45:36Z</time>
      </trkpt>
      <trkpt lat="45.21128" lon="6.2521">
        <ele>1512</ele>
        <time>2014-08-10T08:45:39Z</time>
      </trkpt>
      <trkpt lat="45.2113" lon="6.25194">
        <ele>1513</ele>
        <time>2014-08-10T08:45:43Z</time>
      </trkpt>
      <trkpt lat="45.21133" lon="6.25181">
        <ele>1512</ele>
        <time>2014-08-10T08:45:47Z</time>
      </trkpt>
      <trkpt lat="45.21137" lon="6.25166">
        <ele>1515</ele>
        <time>2014-08-10T08:45:52Z</time>
      </trkpt>
      <trkpt lat="45.21134" lon="6.25151">
        <ele>1517</ele>
        <time>2014-08-10T08:45:56Z</time>
      </trkpt>
      <trkpt lat="45.21138" lon="6.25138">
        <ele>1517</ele>
        <time>2014-08-10T08:46:01Z</time>
      </trkpt>
      <trkpt lat="45.21144" lon="6.25126">
        <ele>1516</ele>
        <time>2014-08-10T08:46:06Z</time>
      </trkpt>
      <trkpt lat="45.21149" lon="6.25112">
        <ele>1514</ele>
        <time>2014-08-10T08:46:09Z</time>
      </trkpt>
      <trkpt lat="45.21152" lon="6.25097">
        <ele>1510</ele>
        <time>2014-08-10T08:46:12Z</time>
      </trkpt>
      <trkpt lat="45.21156" lon="6.25082">
        <ele>1509</ele>
        <time>2014-08-10T08:46:16Z</time>
      </trkpt>
      <trkpt lat="45.21157" lon="6.25068">
        <ele>1514</ele>
        <time>2014-08-10T08:46:20Z</time>
      </trkpt>
      <trkpt lat="45.21157" lon="6.25054">
        <ele>1520</ele>
        <time>2014-08-10T08:46:24Z</time>
      </trkpt>
      <trkpt lat="45.21161" lon="6.25041">
        <ele>1522</ele>
        <time>2014-08-10T08:46:28Z</time>
      </trkpt>
      <trkpt lat="45.21163" lon="6.25027">
        <ele>1522</ele>
        <time>2014-08-10T08:46:38Z</time>
      </trkpt>
      <trkpt lat="45.21164" lon="6.25014">
        <ele>1518</ele>
        <time>2014-08-10T08:46:47Z</time>
      </trkpt>
      <trkpt lat="45.21164" lon="6.25">
        <ele>1512</ele>
        <time>2014-08-10T08:46:55Z</time>
      </trkpt>
      <trkpt lat="45.21164" lon="6.24987">
        <ele>1523</ele>
        <time>2014-08-10T08:47:03Z</time>
      </trkpt>
      <trkpt lat="45.2117" lon="6.24973">
        <ele>1507</ele>
        <time>2014-08-10T08:47:08Z</time>
      </trkpt>
      <trkpt lat="45.21175" lon="6.24961">
        <ele>1507</ele>
        <time>2014-08-10T08:47:13Z</time>
      </trkpt>
      <trkpt lat="45.2118" lon="6.24948">
        <ele>1508</ele>
        <time>2014-08-10T08:47:19Z</time>
      </trkpt>
      <trkpt lat="45.21183" lon="6.24936">
        <ele>1510</ele>
        <time>2014-08-10T08:47:24Z</time>
      </trkpt>
      <trkpt lat="45.21192" lon="6.24927">
        <ele>1509</ele>
        <time>2014-08-10T08:47:28Z</time>
      </trkpt>
      <trkpt lat="45.21199" lon="6.24915">
        <ele>1515</ele>
        <time>2014-08-10T08:47:31Z</time>
      </trkpt>
      <trkpt lat="45.21204" lon="6.24902">
        <ele>1513</ele>
        <time>2014-08-10T08:47:35Z</time>
      </trkpt>
      <trkpt lat="45.21212" lon="6.24889">
        <ele>1512</ele>
        <time>2014-08-10T08:47:39Z</time>
      </trkpt>
      <trkpt lat="45.2122" lon="6.24875">
        <ele>1511</ele>
        <time>2014-08-10T08:47:42Z</time>
      </trkpt>
      <trkpt lat="45.21227" lon="6.24863">
        <ele>1510</ele>
        <time>2014-08-10T08:47:45Z</time>
      </trkpt>
      <trkpt lat="45.21236" lon="6.24848">
        <ele>1507</ele>
        <time>2014-08-10T08:47:48Z</time>
      </trkpt>
      <trkpt lat="45.21239" lon="6.24833">
        <ele>1507</ele>
        <time>2014-08-10T08:47:51Z</time>
      </trkpt>
      <trkpt lat="45.21244" lon="6.24819">
        <ele>1510</ele>
        <time>2014-08-10T08:47:53Z</time>
      </trkpt>
      <trkpt lat="45.21248" lon="6.24805">
        <ele>1514</ele>
        <time>2014-08-10T08:47:55Z</time>
      </trkpt>
      <trkpt lat="45.21252" lon="6.24792">
        <ele>1491</ele>
        <time>2014-08-10T08:47:57Z</time>
      </trkpt>
      <trkpt lat="45.21256" lon="6.24777">
        <ele>1493</ele>
        <time>2014-08-10T08:47:59Z</time>
      </trkpt>
      <trkpt lat="45.21262" lon="6.24761">
        <ele>1496</ele>
        <time>2014-08-10T08:48:02Z</time>
      </trkpt>
      <trkpt lat="45.21271" lon="6.24757">
        <ele>1494</ele>
        <time>2014-08-10T08:48:09Z</time>
      </trkpt>
      <trkpt lat="45.21281" lon="6.24761">
        <ele>1490</ele>
        <time>2014-08-10T08:48:12Z</time>
      </trkpt>
      <trkpt lat="45.21292" lon="6.24765">
        <ele>1487</ele>
        <time>2014-08-10T08:48:15Z</time>
      </trkpt>
      <trkpt lat="45.21301" lon="6.24768">
        <ele>1485</ele>
        <time>2014-08-10T08:48:18Z</time>
      </trkpt>
      <trkpt lat="45.2131" lon="6.24777">
        <ele>1483</ele>
        <time>2014-08-10T08:48:22Z</time>
      </trkpt>
      <trkpt lat="45.21318" lon="6.24786">
        <ele>1482</ele>
        <time>2014-08-10T08:48:28Z</time>
      </trkpt>
      <trkpt lat="45.21328" lon="6.24791">
        <ele>1480</ele>
        <time>2014-08-10T08:48:41Z</time>
      </trkpt>
      <trkpt lat="45.21337" lon="6.24785">
        <ele>1468</ele>
        <time>2014-08-10T08:48:52Z</time>
      </trkpt>
      <trkpt lat="45.21348" lon="6.24789">
        <ele>1467</ele>
        <time>2014-08-10T08:48:59Z</time>
      </trkpt>
      <trkpt lat="45.21351" lon="6.24802">
        <ele>1467</ele>
        <time>2014-08-10T08:49:02Z</time>
      </trkpt>
      <trkpt lat="45.21355" lon="6.24816">
        <ele>1466</ele>
        <time>2014-08-10T08:49:06Z</time>
      </trkpt>
      <trkpt lat="45.21363" lon="6.24823">
        <ele>1465</ele>
        <time>2014-08-10T08:49:18Z</time>
      </trkpt>
      <trkpt lat="45.21373" lon="6.24826">
        <ele>1464</ele>
        <time>2014-08-10T08:49:34Z</time>
      </trkpt>
      <trkpt lat="45.21384" lon="6.24829">
        <ele>1463</ele>
        <time>2014-08-10T08:49:43Z</time>
      </trkpt>
      <trkpt lat="45.21375" lon="6.24828">
        <ele>1464</ele>
        <time>2014-08-10T08:50:20Z</time>
      </trkpt>
      <trkpt lat="45.21373" lon="6.24813">
        <ele>1465</ele>
        <time>2014-08-10T08:50:39Z</time>
      </trkpt>
      <trkpt lat="45.21368" lon="6.24802">
        <ele>1466</ele>
        <time>2014-08-10T08:51:05Z</time>
      </trkpt>
      <trkpt lat="45.21368" lon="6.24788">
        <ele>1467</ele>
        <time>2014-08-10T08:51:12Z</time>
      </trkpt>
      <trkpt lat="45.21371" lon="6.24776">
        <ele>1467</ele>
        <time>2014-08-10T08:51:23Z</time>
      </trkpt>
      <trkpt lat="45.21373" lon="6.24763">
        <ele>1468</ele>
        <time>2014-08-10T08:51:41Z</time>
      </trkpt>
      <trkpt lat="45.21367" lon="6.24752">
        <ele>1469</ele>
        <time>2014-08-10T08:52:15Z</time>
      </trkpt>
      <trkpt lat="45.21373" lon="6.24741">
        <ele>1478</ele>
        <time>2014-08-10T08:52:39Z</time>
      </trkpt>
      <trkpt lat="45.21364" lon="6.24734">
        <ele>1479</ele>
        <time>2014-08-10T08:53:05Z</time>
      </trkpt>
      <trkpt lat="45.21359" lon="6.24722">
        <ele>1480</ele>
        <time>2014-08-10T08:53:15Z</time>
      </trkpt>
      <trkpt lat="45.21358" lon="6.24708">
        <ele>1482</ele>
        <time>2014-08-10T08:53:44Z</time>
      </trkpt>
      <trkpt lat="45.21357" lon="6.24695">
        <ele>1483</ele>
        <time>2014-08-10T08:54:18Z</time>
      </trkpt>
      <trkpt lat="45.2135" lon="6.24685">
        <ele>1485</ele>
        <time>2014-08-10T08:54:45Z</time>
      </trkpt>
      <trkpt lat="45.21352" lon="6.24671">
        <ele>1486</ele>
        <time>2014-08-10T08:55:13Z</time>
      </trkpt>
      <trkpt lat="45.21347" lon="6.24659">
        <ele>1497</ele>
        <time>2014-08-10T08:55:29Z</time>
      </trkpt>
      <trkpt lat="45.21355" lon="6.2465">
        <ele>1500</ele>
        <time>2014-08-10T08:55:56Z</time>
      </trkpt>
      <trkpt lat="45.21349" lon="6.24639">
        <ele>1502</ele>
        <time>2014-08-10T08:56:27Z</time>
      </trkpt>
      <trkpt lat="45.21344" lon="6.24628">
        <ele>1504</ele>
        <time>2014-08-10T08:56:39Z</time>
      </trkpt>
      <trkpt lat="45.21348" lon="6.24617">
        <ele>1507</ele>
        <time>2014-08-10T08:57:20Z</time>
      </trkpt>
      <trkpt lat="45.21345" lon="6.24604">
        <ele>1511</ele>
        <time>2014-08-10T08:57:47Z</time>
      </trkpt>
      <trkpt lat="45.21342" lon="6.24591">
        <ele>1515</ele>
        <time>2014-08-10T08:58:13Z</time>
      </trkpt>
      <trkpt lat="45.21342" lon="6.24578">
        <ele>1524</ele>
        <time>2014-08-10T08:58:39Z</time>
      </trkpt>
      <trkpt lat="45.21342" lon="6.24564">
        <ele>1525</ele>
        <time>2014-08-10T08:58:56Z</time>
      </trkpt>
      <trkpt lat="45.21347" lon="6.24551">
        <ele>1527</ele>
        <time>2014-08-10T08:59:13Z</time>
      </trkpt>
      <trkpt lat="45.2135" lon="6.24538">
        <ele>1529</ele>
        <time>2014-08-10T08:59:19Z</time>
      </trkpt>
      <trkpt lat="45.21356" lon="6.24527">
        <ele>1531</ele>
        <time>2014-08-10T08:59:24Z</time>
      </trkpt>
      <trkpt lat="45.21363" lon="6.24516">
        <ele>1531</ele>
        <time>2014-08-10T08:59:28Z</time>
      </trkpt>
      <trkpt lat="45.21369" lon="6.24505">
        <ele>1531</ele>
        <time>2014-08-10T08:59:34Z</time>
      </trkpt>
      <trkpt lat="45.21377" lon="6.24494">
        <ele>1542</ele>
        <time>2014-08-10T08:59:40Z</time>
      </trkpt>
      <trkpt lat="45.21382" lon="6.24478">
        <ele>1542</ele>
        <time>2014-08-10T08:59:43Z</time>
      </trkpt>
      <trkpt lat="45.2139" lon="6.24467">
        <ele>1542</ele>
        <time>2014-08-10T08:59:47Z</time>
      </trkpt>
      <trkpt lat="45.21397" lon="6.24457">
        <ele>1542</ele>
        <time>2014-08-10T08:59:52Z</time>
      </trkpt>
      <trkpt lat="45.21404" lon="6.24445">
        <ele>1542</ele>
        <time>2014-08-10T08:59:58Z</time>
      </trkpt>
      <trkpt lat="45.21412" lon="6.24436">
        <ele>1540</ele>
        <time>2014-08-10T09:00:06Z</time>
      </trkpt>
      <trkpt lat="45.21417" lon="6.24423">
        <ele>1532</ele>
        <time>2014-08-10T09:00:12Z</time>
      </trkpt>
      <trkpt lat="45.21422" lon="6.24411">
        <ele>1533</ele>
        <time>2014-08-10T09:00:17Z</time>
      </trkpt>
      <trkpt lat="45.21429" lon="6.24399">
        <ele>1531</ele>
        <time>2014-08-10T09:00:22Z</time>
      </trkpt>
      <trkpt lat="45.21432" lon="6.24385">
        <ele>1531</ele>
        <time>2014-08-10T09:00:27Z</time>
      </trkpt>
      <trkpt lat="45.2144" lon="6.24375">
        <ele>1531</ele>
        <time>2014-08-10T09:00:31Z</time>
      </trkpt>
      <trkpt lat="45.21448" lon="6.24363">
        <ele>1530</ele>
        <time>2014-08-10T09:00:36Z</time>
      </trkpt>
      <trkpt lat="45.2145" lon="6.24351">
        <ele>1531</ele>
        <time>2014-08-10T09:00:40Z</time>
      </trkpt>
      <trkpt lat="45.21449" lon="6.24337">
        <ele>1533</ele>
        <time>2014-08-10T09:00:47Z</time>
      </trkpt>
      <trkpt lat="45.21457" lon="6.24329">
        <ele>1538</ele>
        <time>2014-08-10T09:01:13Z</time>
      </trkpt>
      <trkpt lat="45.21466" lon="6.24325">
        <ele>1535</ele>
        <time>2014-08-10T09:01:19Z</time>
      </trkpt>
      <trkpt lat="45.21473" lon="6.24316">
        <ele>1533</ele>
        <time>2014-08-10T09:01:28Z</time>
      </trkpt>
      <trkpt lat="45.21481" lon="6.24305">
        <ele>1533</ele>
        <time>2014-08-10T09:01:34Z</time>
      </trkpt>
      <trkpt lat="45.2149" lon="6.24299">
        <ele>1533</ele>
        <time>2014-08-10T09:01:37Z</time>
      </trkpt>
      <trkpt lat="45.21499" lon="6.24293">
        <ele>1532</ele>
        <time>2014-08-10T09:01:40Z</time>
      </trkpt>
      <trkpt lat="45.21509" lon="6.2429">
        <ele>1510</ele>
        <time>2014-08-10T09:01:43Z</time>
      </trkpt>
      <trkpt lat="45.21517" lon="6.24283">
        <ele>1510</ele>
        <time>2014-08-10T09:01:46Z</time>
      </trkpt>
      <trkpt lat="45.21526" lon="6.2428">
        <ele>1509</ele>
        <time>2014-08-10T09:01:50Z</time>
      </trkpt>
      <trkpt lat="45.21535" lon="6.24273">
        <ele>1508</ele>
        <time>2014-08-10T09:01:54Z</time>
      </trkpt>
      <trkpt lat="45.21542" lon="6.24264">
        <ele>1506</ele>
        <time>2014-08-10T09:01:58Z</time>
      </trkpt>
      <trkpt lat="45.2155" lon="6.24256">
        <ele>1505</ele>
        <time>2014-08-10T09:02:07Z</time>
      </trkpt>
      <trkpt lat="45.21559" lon="6.24256">
        <ele>1502</ele>
        <time>2014-08-10T09:02:20Z</time>
      </trkpt>
      <trkpt lat="45.21569" lon="6.24258">
        <ele>1499</ele>
        <time>2014-08-10T09:02:29Z</time>
      </trkpt>
      <trkpt lat="45.21571" lon="6.24244">
        <ele>1503</ele>
        <time>2014-08-10T09:02:36Z</time>
      </trkpt>
      <trkpt lat="45.21577" lon="6.24232">
        <ele>1505</ele>
        <time>2014-08-10T09:02:42Z</time>
      </trkpt>
      <trkpt lat="45.21583" lon="6.24221">
        <ele>1508</ele>
        <time>2014-08-10T09:03:04Z</time>
      </trkpt>
      <trkpt lat="45.21592" lon="6.24214">
        <ele>1492</ele>
        <time>2014-08-10T09:03:11Z</time>
      </trkpt>
      <trkpt lat="45.21598" lon="6.24204">
        <ele>1492</ele>
        <time>2014-08-10T09:03:23Z</time>
      </trkpt>
      <trkpt lat="45.21606" lon="6.24196">
        <ele>1492</ele>
        <time>2014-08-10T09:03:52Z</time>
      </trkpt>
      <trkpt lat="45.21604" lon="6.24183">
        <ele>1494</ele>
        <time>2014-08-10T09:04:24Z</time>
      </trkpt>
      <trkpt lat="45.21602" lon="6.2417">
        <ele>1496</ele>
        <time>2014-08-10T09:05:13Z</time>
      </trkpt>
      <trkpt lat="45.21598" lon="6.24157">
        <ele>1505</ele>
        <time>2014-08-10T09:05:24Z</time>
      </trkpt>
      <trkpt lat="45.21604" lon="6.24146">
        <ele>1506</ele>
        <time>2014-08-10T09:05:50Z</time>
      </trkpt>
      <trkpt lat="45.21605" lon="6.24132">
        <ele>1508</ele>
        <time>2014-08-10T09:06:00Z</time>
      </trkpt>
      <trkpt lat="45.21608" lon="6.2412">
        <ele>1509</ele>
        <time>2014-08-10T09:06:12Z</time>
      </trkpt>
      <trkpt lat="45.21609" lon="6.24105">
        <ele>1512</ele>
        <time>2014-08-10T09:06:23Z</time>
      </trkpt>
      <trkpt lat="45.21615" lon="6.24094">
        <ele>1513</ele>
        <time>2014-08-10T09:06:35Z</time>
      </trkpt>
      <trkpt lat="45.21621" lon="6.24083">
        <ele>1524</ele>
        <time>2014-08-10T09:06:46Z</time>
      </trkpt>
      <trkpt lat="45.21625" lon="6.2407">
        <ele>1523</ele>
        <time>2014-08-10T09:07:03Z</time>
      </trkpt>
      <trkpt lat="45.21622" lon="6.24058">
        <ele>1525</ele>
        <time>2014-08-10T09:07:18Z</time>
      </trkpt>
      <trkpt lat="45.21623" lon="6.24044">
        <ele>1526</ele>
        <time>2014-08-10T09:07:36Z</time>
      </trkpt>
      <trkpt lat="45.21625" lon="6.2403">
        <ele>1527</ele>
        <time>2014-08-10T09:07:49Z</time>
      </trkpt>
      <trkpt lat="45.21633" lon="6.24022">
        <ele>1526</ele>
        <time>2014-08-10T09:08:08Z</time>
      </trkpt>
      <trkpt lat="45.21639" lon="6.24011">
        <ele>1525</ele>
        <time>2014-08-10T09:08:30Z</time>
      </trkpt>
      <trkpt lat="45.21643" lon="6.23998">
        <ele>1534</ele>
        <time>2014-08-10T09:08:48Z</time>
      </trkpt>
      <trkpt lat="45.21647" lon="6.23985">
        <ele>1534</ele>
        <time>2014-08-10T09:08:53Z</time>
      </trkpt>
      <trkpt lat="45.2165" lon="6.23973">
        <ele>1536</ele>
        <time>2014-08-10T09:08:58Z</time>
      </trkpt>
      <trkpt lat="45.21653" lon="6.23959">
        <ele>1538</ele>
        <time>2014-08-10T09:09:04Z</time>
      </trkpt>
      <trkpt lat="45.21652" lon="6.23946">
        <ele>1538</ele>
        <time>2014-08-10T09:09:14Z</time>
      </trkpt>
      <trkpt lat="45.21652" lon="6.23932">
        <ele>1538</ele>
        <time>2014-08-10T09:09:26Z</time>
      </trkpt>
      <trkpt lat="45.21653" lon="6.23919">
        <ele>1536</ele>
        <time>2014-08-10T09:09:39Z</time>
      </trkpt>
      <trkpt lat="45.21655" lon="6.23906">
        <ele>1546</ele>
        <time>2014-08-10T09:09:59Z</time>
      </trkpt>
      <trkpt lat="45.21661" lon="6.23895">
        <ele>1549</ele>
        <time>2014-08-10T09:10:13Z</time>
      </trkpt>
      <trkpt lat="45.21666" lon="6.23884">
        <ele>1553</ele>
        <time>2014-08-10T09:10:24Z</time>
      </trkpt>
      <trkpt lat="45.21671" lon="6.23872">
        <ele>1531</ele>
        <time>2014-08-10T09:10:40Z</time>
      </trkpt>
      <trkpt lat="45.21675" lon="6.23859">
        <ele>1534</ele>
        <time>2014-08-10T09:10:55Z</time>
      </trkpt>
      <trkpt lat="45.21681" lon="6.23847">
        <ele>1538</ele>
        <time>2014-08-10T09:11:08Z</time>
      </trkpt>
      <trkpt lat="45.21683" lon="6.23834">
        <ele>1539</ele>
        <time>2014-08-10T09:11:34Z</time>
      </trkpt>
      <trkpt lat="45.21686" lon="6.23822">
        <ele>1545</ele>
        <time>2014-08-10T09:11:43Z</time>
      </trkpt>
      <trkpt lat="45.21689" lon="6.23806">
        <ele>1544</ele>
        <time>2014-08-10T09:11:53Z</time>
      </trkpt>
      <trkpt lat="45.21689" lon="6.23792">
        <ele>1545</ele>
        <time>2014-08-10T09:11:59Z</time>
      </trkpt>
      <trkpt lat="45.21686" lon="6.23777">
        <ele>1547</ele>
        <time>2014-08-10T09:12:06Z</time>
      </trkpt>
      <trkpt lat="45.21686" lon="6.23763">
        <ele>1551</ele>
        <time>2014-08-10T09:12:17Z</time>
      </trkpt>
      <trkpt lat="45.21691" lon="6.23751">
        <ele>1550</ele>
        <time>2014-08-10T09:12:24Z</time>
      </trkpt>
      <trkpt lat="45.21693" lon="6.23735">
        <ele>1554</ele>
        <time>2014-08-10T09:12:27Z</time>
      </trkpt>
      <trkpt lat="45.21691" lon="6.23721">
        <ele>1554</ele>
        <time>2014-08-10T09:12:31Z</time>
      </trkpt>
      <trkpt lat="45.21691" lon="6.23708">
        <ele>1554</ele>
        <time>2014-08-10T09:12:42Z</time>
      </trkpt>
      <trkpt lat="45.21693" lon="6.23694">
        <ele>1555</ele>
        <time>2014-08-10T09:12:50Z</time>
      </trkpt>
      <trkpt lat="45.21698" lon="6.23681">
        <ele>1554</ele>
        <time>2014-08-10T09:12:57Z</time>
      </trkpt>
      <trkpt lat="45.21698" lon="6.23667">
        <ele>1555</ele>
        <time>2014-08-10T09:13:02Z</time>
      </trkpt>
      <trkpt lat="45.21702" lon="6.23654">
        <ele>1557</ele>
        <time>2014-08-10T09:13:10Z</time>
      </trkpt>
      <trkpt lat="45.217" lon="6.2364">
        <ele>1557</ele>
        <time>2014-08-10T09:13:17Z</time>
      </trkpt>
      <trkpt lat="45.21703" lon="6.23628">
        <ele>1556</ele>
        <time>2014-08-10T09:13:24Z</time>
      </trkpt>
      <trkpt lat="45.21704" lon="6.23614">
        <ele>1557</ele>
        <time>2014-08-10T09:13:33Z</time>
      </trkpt>
      <trkpt lat="45.21698" lon="6.23602">
        <ele>1559</ele>
        <time>2014-08-10T09:13:44Z</time>
      </trkpt>
      <trkpt lat="45.21694" lon="6.2359">
        <ele>1562</ele>
        <time>2014-08-10T09:13:53Z</time>
      </trkpt>
      <trkpt lat="45.21694" lon="6.23576">
        <ele>1563</ele>
        <time>2014-08-10T09:13:58Z</time>
      </trkpt>
      <trkpt lat="45.21696" lon="6.23562">
        <ele>1561</ele>
        <time>2014-08-10T09:14:04Z</time>
      </trkpt>
      <trkpt lat="45.21702" lon="6.23548">
        <ele>1558</ele>
        <time>2014-08-10T09:14:10Z</time>
      </trkpt>
      <trkpt lat="45.21698" lon="6.23534">
        <ele>1559</ele>
        <time>2014-08-10T09:14:17Z</time>
      </trkpt>
      <trkpt lat="45.21695" lon="6.23522">
        <ele>1560</ele>
        <time>2014-08-10T09:14:26Z</time>
      </trkpt>
      <trkpt lat="45.21686" lon="6.23513">
        <ele>1564</ele>
        <time>2014-08-10T09:14:38Z</time>
      </trkpt>
      <trkpt lat="45.2168" lon="6.23503">
        <ele>1568</ele>
        <time>2014-08-10T09:14:50Z</time>
      </trkpt>
      <trkpt lat="45.2168" lon="6.23488">
        <ele>1564</ele>
        <time>2014-08-10T09:15:02Z</time>
      </trkpt>
      <trkpt lat="45.21677" lon="6.23475">
        <ele>1562</ele>
        <time>2014-08-10T09:15:08Z</time>
      </trkpt>
      <trkpt lat="45.21676" lon="6.23461">
        <ele>1560</ele>
        <time>2014-08-10T09:15:12Z</time>
      </trkpt>
      <trkpt lat="45.21674" lon="6.23447">
        <ele>1561</ele>
        <time>2014-08-10T09:15:18Z</time>
      </trkpt>
      <trkpt lat="45.21668" lon="6.23436">
        <ele>1563</ele>
        <time>2014-08-10T09:15:26Z</time>
      </trkpt>
      <trkpt lat="45.21663" lon="6.23425">
        <ele>1584</ele>
        <time>2014-08-10T09:15:37Z</time>
      </trkpt>
      <trkpt lat="45.21661" lon="6.23411">
        <ele>1581</ele>
        <time>2014-08-10T09:15:52Z</time>
      </trkpt>
      <trkpt lat="45.2166" lon="6.23397">
        <ele>1589</ele>
        <time>2014-08-10T09:16:15Z</time>
      </trkpt>
      <trkpt lat="45.21655" lon="6.23384">
        <ele>1593</ele>
        <time>2014-08-10T09:16:29Z</time>
      </trkpt>
      <trkpt lat="45.21647" lon="6.23375">
        <ele>1595</ele>
        <time>2014-08-10T09:16:42Z</time>
      </trkpt>
      <trkpt lat="45.21644" lon="6.23363">
        <ele>1595</ele>
        <time>2014-08-10T09:16:58Z</time>
      </trkpt>
      <trkpt lat="45.21642" lon="6.23348">
        <ele>1593</ele>
        <time>2014-08-10T09:17:10Z</time>
      </trkpt>
      <trkpt lat="45.21637" lon="6.23337">
        <ele>1594</ele>
        <time>2014-08-10T09:17:18Z</time>
      </trkpt>
      <trkpt lat="45.21638" lon="6.23323">
        <ele>1588</ele>
        <time>2014-08-10T09:17:32Z</time>
      </trkpt>
      <trkpt lat="45.21638" lon="6.2331">
        <ele>1589</ele>
        <time>2014-08-10T09:17:47Z</time>
      </trkpt>
      <trkpt lat="45.21631" lon="6.23299">
        <ele>1591</ele>
        <time>2014-08-10T09:17:57Z</time>
      </trkpt>
      <trkpt lat="45.21629" lon="6.23284">
        <ele>1591</ele>
        <time>2014-08-10T09:18:05Z</time>
      </trkpt>
      <trkpt lat="45.21629" lon="6.23266">
        <ele>1590</ele>
        <time>2014-08-10T09:18:10Z</time>
      </trkpt>
      <trkpt lat="45.21627" lon="6.23251">
        <ele>1589</ele>
        <time>2014-08-10T09:18:14Z</time>
      </trkpt>
      <trkpt lat="45.2163" lon="6.23236">
        <ele>1582</ele>
        <time>2014-08-10T09:18:18Z</time>
      </trkpt>
      <trkpt lat="45.21632" lon="6.23219">
        <ele>1581</ele>
        <time>2014-08-10T09:18:22Z</time>
      </trkpt>
      <trkpt lat="45.21634" lon="6.23203">
        <ele>1580</ele>
        <time>2014-08-10T09:18:25Z</time>
      </trkpt>
      <trkpt lat="45.21635" lon="6.23189">
        <ele>1579</ele>
        <time>2014-08-10T09:18:28Z</time>
      </trkpt>
      <trkpt lat="45.21638" lon="6.23171">
        <ele>1577</ele>
        <time>2014-08-10T09:18:33Z</time>
      </trkpt>
      <trkpt lat="45.21643" lon="6.23152">
        <ele>1566</ele>
        <time>2014-08-10T09:18:36Z</time>
      </trkpt>
      <trkpt lat="45.21647" lon="6.23138">
        <ele>1564</ele>
        <time>2014-08-10T09:18:38Z</time>
      </trkpt>
      <trkpt lat="45.21653" lon="6.23126">
        <ele>1562</ele>
        <time>2014-08-10T09:18:40Z</time>
      </trkpt>
      <trkpt lat="45.21662" lon="6.23126">
        <ele>1562</ele>
        <time>2014-08-10T09:18:45Z</time>
      </trkpt>
      <trkpt lat="45.21664" lon="6.23145">
        <ele>1564</ele>
        <time>2014-08-10T09:18:48Z</time>
      </trkpt>
      <trkpt lat="45.21666" lon="6.23158">
        <ele>1565</ele>
        <time>2014-08-10T09:18:50Z</time>
      </trkpt>
      <trkpt lat="45.21669" lon="6.2317">
        <ele>1561</ele>
        <time>2014-08-10T09:18:54Z</time>
      </trkpt>
      <trkpt lat="45.2168" lon="6.23168">
        <ele>1555</ele>
        <time>2014-08-10T09:19:02Z</time>
      </trkpt>
      <trkpt lat="45.21686" lon="6.23156">
        <ele>1549</ele>
        <time>2014-08-10T09:19:07Z</time>
      </trkpt>
      <trkpt lat="45.21693" lon="6.2317">
        <ele>1548</ele>
        <time>2014-08-10T09:19:18Z</time>
      </trkpt>
      <trkpt lat="45.21691" lon="6.23183">
        <ele>1548</ele>
        <time>2014-08-10T09:19:22Z</time>
      </trkpt>
      <trkpt lat="45.21701" lon="6.23174">
        <ele>1545</ele>
        <time>2014-08-10T09:19:29Z</time>
      </trkpt>
      <trkpt lat="45.21709" lon="6.23165">
        <ele>1540</ele>
        <time>2014-08-10T09:19:32Z</time>
      </trkpt>
      <trkpt lat="45.21715" lon="6.23177">
        <ele>1539</ele>
        <time>2014-08-10T09:19:40Z</time>
      </trkpt>
      <trkpt lat="45.21715" lon="6.23191">
        <ele>1540</ele>
        <time>2014-08-10T09:19:44Z</time>
      </trkpt>
      <trkpt lat="45.21717" lon="6.23204">
        <ele>1539</ele>
        <time>2014-08-10T09:19:49Z</time>
      </trkpt>
      <trkpt lat="45.21726" lon="6.23199">
        <ele>1537</ele>
        <time>2014-08-10T09:19:56Z</time>
      </trkpt>
      <trkpt lat="45.21733" lon="6.23189">
        <ele>1534</ele>
        <time>2014-08-10T09:20:00Z</time>
      </trkpt>
      <trkpt lat="45.2174" lon="6.23204">
        <ele>1534</ele>
        <time>2014-08-10T09:20:06Z</time>
      </trkpt>
      <trkpt lat="45.21745" lon="6.23215">
        <ele>1533</ele>
        <time>2014-08-10T09:20:10Z</time>
      </trkpt>
      <trkpt lat="45.21751" lon="6.23228">
        <ele>1511</ele>
        <time>2014-08-10T09:20:23Z</time>
      </trkpt>
      <trkpt lat="45.21757" lon="6.23239">
        <ele>1512</ele>
        <time>2014-08-10T09:20:27Z</time>
      </trkpt>
      <trkpt lat="45.21756" lon="6.23253">
        <ele>1513</ele>
        <time>2014-08-10T09:20:32Z</time>
      </trkpt>
      <trkpt lat="45.21765" lon="6.23248">
        <ele>1511</ele>
        <time>2014-08-10T09:20:45Z</time>
      </trkpt>
      <trkpt lat="45.21771" lon="6.23237">
        <ele>1509</ele>
        <time>2014-08-10T09:20:47Z</time>
      </trkpt>
      <trkpt lat="45.21775" lon="6.23224">
        <ele>1508</ele>
        <time>2014-08-10T09:20:49Z</time>
      </trkpt>
      <trkpt lat="45.21778" lon="6.23212">
        <ele>1508</ele>
        <time>2014-08-10T09:20:51Z</time>
      </trkpt>
      <trkpt lat="45.21781" lon="6.23195">
        <ele>1508</ele>
        <time>2014-08-10T09:20:54Z</time>
      </trkpt>
      <trkpt lat="45.21784" lon="6.23181">
        <ele>1508</ele>
        <time>2014-08-10T09:20:59Z</time>
      </trkpt>
      <trkpt lat="45.21785" lon="6.23166">
        <ele>1509</ele>
        <time>2014-08-10T09:21:06Z</time>
      </trkpt>
      <trkpt lat="45.21789" lon="6.23152">
        <ele>1508</ele>
        <time>2014-08-10T09:21:09Z</time>
      </trkpt>
      <trkpt lat="45.21796" lon="6.23137">
        <ele>1507</ele>
        <time>2014-08-10T09:21:13Z</time>
      </trkpt>
      <trkpt lat="45.21801" lon="6.23124">
        <ele>1506</ele>
        <time>2014-08-10T09:21:16Z</time>
      </trkpt>
      <trkpt lat="45.21808" lon="6.23112">
        <ele>1505</ele>
        <time>2014-08-10T09:21:19Z</time>
      </trkpt>
      <trkpt lat="45.21813" lon="6.23101">
        <ele>1504</ele>
        <time>2014-08-10T09:21:23Z</time>
      </trkpt>
      <trkpt lat="45.21818" lon="6.23089">
        <ele>1502</ele>
        <time>2014-08-10T09:21:28Z</time>
      </trkpt>
      <trkpt lat="45.21821" lon="6.23077">
        <ele>1500</ele>
        <time>2014-08-10T09:21:32Z</time>
      </trkpt>
      <trkpt lat="45.2182" lon="6.23063">
        <ele>1502</ele>
        <time>2014-08-10T09:21:37Z</time>
      </trkpt>
      <trkpt lat="45.2182" lon="6.23049">
        <ele>1502</ele>
        <time>2014-08-10T09:24:28Z</time>
      </trkpt>
      <trkpt lat="45.21811" lon="6.23045">
        <ele>1503</ele>
        <time>2014-08-10T09:25:57Z</time>
      </trkpt>
      <trkpt lat="45.21803" lon="6.23036">
        <ele>1503</ele>
        <time>2014-08-10T09:26:05Z</time>
      </trkpt>
      <trkpt lat="45.21795" lon="6.23027">
        <ele>1503</ele>
        <time>2014-08-10T09:26:11Z</time>
      </trkpt>
      <trkpt lat="45.21789" lon="6.23016">
        <ele>1503</ele>
        <time>2014-08-10T09:26:18Z</time>
      </trkpt>
      <trkpt lat="45.21789" lon="6.23001">
        <ele>1503</ele>
        <time>2014-08-10T09:26:26Z</time>
      </trkpt>
      <trkpt lat="45.21795" lon="6.22991">
        <ele>1502</ele>
        <time>2014-08-10T09:26:32Z</time>
      </trkpt>
      <trkpt lat="45.21802" lon="6.22982">
        <ele>1502</ele>
        <time>2014-08-10T09:26:37Z</time>
      </trkpt>
      <trkpt lat="45.2181" lon="6.22973">
        <ele>1502</ele>
        <time>2014-08-10T09:26:44Z</time>
      </trkpt>
      <trkpt lat="45.21817" lon="6.22962">
        <ele>1502</ele>
        <time>2014-08-10T09:26:50Z</time>
      </trkpt>
      <trkpt lat="45.21824" lon="6.2295">
        <ele>1503</ele>
        <time>2014-08-10T09:26:58Z</time>
      </trkpt>
      <trkpt lat="45.21829" lon="6.22939">
        <ele>1503</ele>
        <time>2014-08-10T09:27:07Z</time>
      </trkpt>
      <trkpt lat="45.21831" lon="6.22925">
        <ele>1504</ele>
        <time>2014-08-10T09:27:17Z</time>
      </trkpt>
      <trkpt lat="45.21829" lon="6.22912">
        <ele>1507</ele>
        <time>2014-08-10T09:27:27Z</time>
      </trkpt>
      <trkpt lat="45.21827" lon="6.22898">
        <ele>1510</ele>
        <time>2014-08-10T09:27:38Z</time>
      </trkpt>
      <trkpt lat="45.2183" lon="6.22885">
        <ele>1512</ele>
        <time>2014-08-10T09:27:51Z</time>
      </trkpt>
      <trkpt lat="45.21835" lon="6.22873">
        <ele>1511</ele>
        <time>2014-08-10T09:28:02Z</time>
      </trkpt>
      <trkpt lat="45.21837" lon="6.2286">
        <ele>1513</ele>
        <time>2014-08-10T09:28:14Z</time>
      </trkpt>
      <trkpt lat="45.21836" lon="6.22847">
        <ele>1515</ele>
        <time>2014-08-10T09:28:29Z</time>
      </trkpt>
      <trkpt lat="45.21839" lon="6.22833">
        <ele>1517</ele>
        <time>2014-08-10T09:28:41Z</time>
      </trkpt>
      <trkpt lat="45.21841" lon="6.22819">
        <ele>1519</ele>
        <time>2014-08-10T09:29:05Z</time>
      </trkpt>
      <trkpt lat="45.21839" lon="6.22806">
        <ele>1520</ele>
        <time>2014-08-10T09:29:30Z</time>
      </trkpt>
      <trkpt lat="45.2184" lon="6.22792">
        <ele>1522</ele>
        <time>2014-08-10T09:29:44Z</time>
      </trkpt>
      <trkpt lat="45.21842" lon="6.22779">
        <ele>1523</ele>
        <time>2014-08-10T09:29:58Z</time>
      </trkpt>
      <trkpt lat="45.21844" lon="6.22765">
        <ele>1525</ele>
        <time>2014-08-10T09:30:21Z</time>
      </trkpt>
      <trkpt lat="45.21844" lon="6.22752">
        <ele>1526</ele>
        <time>2014-08-10T09:30:41Z</time>
      </trkpt>
      <trkpt lat="45.21846" lon="6.22737">
        <ele>1531</ele>
        <time>2014-08-10T09:30:53Z</time>
      </trkpt>
      <trkpt lat="45.2185" lon="6.22724">
        <ele>1532</ele>
        <time>2014-08-10T09:31:03Z</time>
      </trkpt>
      <trkpt lat="45.21853" lon="6.2271">
        <ele>1533</ele>
        <time>2014-08-10T09:31:14Z</time>
      </trkpt>
      <trkpt lat="45.21858" lon="6.22698">
        <ele>1534</ele>
        <time>2014-08-10T09:31:26Z</time>
      </trkpt>
      <trkpt lat="45.21863" lon="6.22685">
        <ele>1535</ele>
        <time>2014-08-10T09:31:33Z</time>
      </trkpt>
      <trkpt lat="45.21867" lon="6.22674">
        <ele>1536</ele>
        <time>2014-08-10T09:31:38Z</time>
      </trkpt>
      <trkpt lat="45.21872" lon="6.22661">
        <ele>1545</ele>
        <time>2014-08-10T09:31:44Z</time>
      </trkpt>
      <trkpt lat="45.2188" lon="6.2265">
        <ele>1545</ele>
        <time>2014-08-10T09:31:51Z</time>
      </trkpt>
      <trkpt lat="45.21888" lon="6.22642">
        <ele>1545</ele>
        <time>2014-08-10T09:31:57Z</time>
      </trkpt>
      <trkpt lat="45.21898" lon="6.22636">
        <ele>1545</ele>
        <time>2014-08-10T09:32:03Z</time>
      </trkpt>
      <trkpt lat="45.21905" lon="6.22627">
        <ele>1545</ele>
        <time>2014-08-10T09:32:10Z</time>
      </trkpt>
      <trkpt lat="45.21912" lon="6.22616">
        <ele>1546</ele>
        <time>2014-08-10T09:32:20Z</time>
      </trkpt>
      <trkpt lat="45.21916" lon="6.22604">
        <ele>1546</ele>
        <time>2014-08-10T09:32:32Z</time>
      </trkpt>
      <trkpt lat="45.21921" lon="6.22592">
        <ele>1543</ele>
        <time>2014-08-10T09:32:47Z</time>
      </trkpt>
      <trkpt lat="45.21925" lon="6.2258">
        <ele>1548</ele>
        <time>2014-08-10T09:33:05Z</time>
      </trkpt>
      <trkpt lat="45.2193" lon="6.22568">
        <ele>1550</ele>
        <time>2014-08-10T09:33:26Z</time>
      </trkpt>
      <trkpt lat="45.21935" lon="6.22556">
        <ele>1552</ele>
        <time>2014-08-10T09:33:44Z</time>
      </trkpt>
      <trkpt lat="45.21938" lon="6.22543">
        <ele>1554</ele>
        <time>2014-08-10T09:34:06Z</time>
      </trkpt>
      <trkpt lat="45.21942" lon="6.22531">
        <ele>1556</ele>
        <time>2014-08-10T09:34:25Z</time>
      </trkpt>
      <trkpt lat="45.21945" lon="6.22518">
        <ele>1557</ele>
        <time>2014-08-10T09:34:40Z</time>
      </trkpt>
      <trkpt lat="45.21947" lon="6.22505">
        <ele>1558</ele>
        <time>2014-08-10T09:35:14Z</time>
      </trkpt>
      <trkpt lat="45.21949" lon="6.22491">
        <ele>1567</ele>
        <time>2014-08-10T09:35:30Z</time>
      </trkpt>
      <trkpt lat="45.2195" lon="6.22478">
        <ele>1567</ele>
        <time>2014-08-10T09:35:47Z</time>
      </trkpt>
      <trkpt lat="45.21953" lon="6.22464">
        <ele>1568</ele>
        <time>2014-08-10T09:36:06Z</time>
      </trkpt>
      <trkpt lat="45.21956" lon="6.22452">
        <ele>1568</ele>
        <time>2014-08-10T09:36:26Z</time>
      </trkpt>
      <trkpt lat="45.21955" lon="6.22438">
        <ele>1569</ele>
        <time>2014-08-10T09:36:46Z</time>
      </trkpt>
      <trkpt lat="45.21949" lon="6.22427">
        <ele>1571</ele>
        <time>2014-08-10T09:37:03Z</time>
      </trkpt>
      <trkpt lat="45.21943" lon="6.22418">
        <ele>1573</ele>
        <time>2014-08-10T09:37:16Z</time>
      </trkpt>
      <trkpt lat="45.21937" lon="6.22408">
        <ele>1579</ele>
        <time>2014-08-10T09:37:27Z</time>
      </trkpt>
      <trkpt lat="45.21931" lon="6.22396">
        <ele>1580</ele>
        <time>2014-08-10T09:37:39Z</time>
      </trkpt>
      <trkpt lat="45.21926" lon="6.22383">
        <ele>1581</ele>
        <time>2014-08-10T09:37:51Z</time>
      </trkpt>
      <trkpt lat="45.21929" lon="6.2237">
        <ele>1581</ele>
        <time>2014-08-10T09:38:01Z</time>
      </trkpt>
      <trkpt lat="45.21932" lon="6.22357">
        <ele>1582</ele>
        <time>2014-08-10T09:38:15Z</time>
      </trkpt>
      <trkpt lat="45.21923" lon="6.22357">
        <ele>1583</ele>
        <time>2014-08-10T09:38:33Z</time>
      </trkpt>
      <trkpt lat="45.21916" lon="6.22367">
        <ele>1593</ele>
        <time>2014-08-10T09:38:40Z</time>
      </trkpt>
      <trkpt lat="45.2191" lon="6.22378">
        <ele>1593</ele>
        <time>2014-08-10T09:38:50Z</time>
      </trkpt>
      <trkpt lat="45.21904" lon="6.2239">
        <ele>1592</ele>
        <time>2014-08-10T09:38:57Z</time>
      </trkpt>
      <trkpt lat="45.219" lon="6.22401">
        <ele>1591</ele>
        <time>2014-08-10T09:39:04Z</time>
      </trkpt>
      <trkpt lat="45.21891" lon="6.2241">
        <ele>1592</ele>
        <time>2014-08-10T09:39:11Z</time>
      </trkpt>
      <trkpt lat="45.21884" lon="6.22422">
        <ele>1587</ele>
        <time>2014-08-10T09:39:19Z</time>
      </trkpt>
      <trkpt lat="45.21879" lon="6.22433">
        <ele>1587</ele>
        <time>2014-08-10T09:39:25Z</time>
      </trkpt>
      <trkpt lat="45.2187" lon="6.22442">
        <ele>1588</ele>
        <time>2014-08-10T09:39:34Z</time>
      </trkpt>
      <trkpt lat="45.2186" lon="6.22447">
        <ele>1589</ele>
        <time>2014-08-10T09:39:42Z</time>
      </trkpt>
      <trkpt lat="45.21852" lon="6.22454">
        <ele>1589</ele>
        <time>2014-08-10T09:39:50Z</time>
      </trkpt>
      <trkpt lat="45.21844" lon="6.22462">
        <ele>1589</ele>
        <time>2014-08-10T09:39:57Z</time>
      </trkpt>
      <trkpt lat="45.21837" lon="6.22471">
        <ele>1589</ele>
        <time>2014-08-10T09:40:05Z</time>
      </trkpt>
      <trkpt lat="45.21832" lon="6.22484">
        <ele>1598</ele>
        <time>2014-08-10T09:40:13Z</time>
      </trkpt>
      <trkpt lat="45.21824" lon="6.22492">
        <ele>1597</ele>
        <time>2014-08-10T09:40:21Z</time>
      </trkpt>
      <trkpt lat="45.21815" lon="6.22496">
        <ele>1599</ele>
        <time>2014-08-10T09:40:29Z</time>
      </trkpt>
      <trkpt lat="45.21806" lon="6.22503">
        <ele>1592</ele>
        <time>2014-08-10T09:40:38Z</time>
      </trkpt>
      <trkpt lat="45.21797" lon="6.22507">
        <ele>1593</ele>
        <time>2014-08-10T09:40:44Z</time>
      </trkpt>
      <trkpt lat="45.21788" lon="6.22512">
        <ele>1594</ele>
        <time>2014-08-10T09:40:50Z</time>
      </trkpt>
      <trkpt lat="45.2178" lon="6.22518">
        <ele>1594</ele>
        <time>2014-08-10T09:41:00Z</time>
      </trkpt>
      <trkpt lat="45.2177" lon="6.22524">
        <ele>1595</ele>
        <time>2014-08-10T09:41:08Z</time>
      </trkpt>
      <trkpt lat="45.21761" lon="6.22529">
        <ele>1595</ele>
        <time>2014-08-10T09:41:14Z</time>
      </trkpt>
      <trkpt lat="45.21749" lon="6.2253">
        <ele>1607</ele>
        <time>2014-08-10T09:41:20Z</time>
      </trkpt>
      <trkpt lat="45.2174" lon="6.22532">
        <ele>1607</ele>
        <time>2014-08-10T09:41:26Z</time>
      </trkpt>
      <trkpt lat="45.2173" lon="6.22528">
        <ele>1608</ele>
        <time>2014-08-10T09:41:35Z</time>
      </trkpt>
      <trkpt lat="45.21721" lon="6.22532">
        <ele>1608</ele>
        <time>2014-08-10T09:41:41Z</time>
      </trkpt>
      <trkpt lat="45.21711" lon="6.22538">
        <ele>1608</ele>
        <time>2014-08-10T09:41:48Z</time>
      </trkpt>
      <trkpt lat="45.21702" lon="6.2254">
        <ele>1609</ele>
        <time>2014-08-10T09:41:53Z</time>
      </trkpt>
      <trkpt lat="45.21692" lon="6.22542">
        <ele>1610</ele>
        <time>2014-08-10T09:41:57Z</time>
      </trkpt>
      <trkpt lat="45.21683" lon="6.22542">
        <ele>1610</ele>
        <time>2014-08-10T09:42:05Z</time>
      </trkpt>
      <trkpt lat="45.21672" lon="6.22542">
        <ele>1611</ele>
        <time>2014-08-10T09:42:13Z</time>
      </trkpt>
      <trkpt lat="45.21662" lon="6.22542">
        <ele>1620</ele>
        <time>2014-08-10T09:42:20Z</time>
      </trkpt>
      <trkpt lat="45.21653" lon="6.22547">
        <ele>1619</ele>
        <time>2014-08-10T09:42:34Z</time>
      </trkpt>
      <trkpt lat="45.21643" lon="6.22548">
        <ele>1620</ele>
        <time>2014-08-10T09:42:41Z</time>
      </trkpt>
      <trkpt lat="45.21633" lon="6.22549">
        <ele>1620</ele>
        <time>2014-08-10T09:42:48Z</time>
      </trkpt>
      <trkpt lat="45.21624" lon="6.22551">
        <ele>1621</ele>
        <time>2014-08-10T09:42:55Z</time>
      </trkpt>
      <trkpt lat="45.21613" lon="6.22553">
        <ele>1621</ele>
        <time>2014-08-10T09:43:03Z</time>
      </trkpt>
      <trkpt lat="45.21603" lon="6.22556">
        <ele>1622</ele>
        <time>2014-08-10T09:43:12Z</time>
      </trkpt>
      <trkpt lat="45.21594" lon="6.22557">
        <ele>1622</ele>
        <time>2014-08-10T09:43:20Z</time>
      </trkpt>
      <trkpt lat="45.21585" lon="6.2255">
        <ele>1623</ele>
        <time>2014-08-10T09:43:29Z</time>
      </trkpt>
      <trkpt lat="45.21578" lon="6.22541">
        <ele>1626</ele>
        <time>2014-08-10T09:43:43Z</time>
      </trkpt>
      <trkpt lat="45.21573" lon="6.22529">
        <ele>1627</ele>
        <time>2014-08-10T09:44:20Z</time>
      </trkpt>
      <trkpt lat="45.2157" lon="6.22515">
        <ele>1629</ele>
        <time>2014-08-10T09:44:40Z</time>
      </trkpt>
      <trkpt lat="45.21564" lon="6.22505">
        <ele>1629</ele>
        <time>2014-08-10T09:44:58Z</time>
      </trkpt>
      <trkpt lat="45.21561" lon="6.22492">
        <ele>1635</ele>
        <time>2014-08-10T09:45:17Z</time>
      </trkpt>
      <trkpt lat="45.21559" lon="6.2248">
        <ele>1636</ele>
        <time>2014-08-10T09:45:37Z</time>
      </trkpt>
      <trkpt lat="45.21557" lon="6.22465">
        <ele>1637</ele>
        <time>2014-08-10T09:45:54Z</time>
      </trkpt>
      <trkpt lat="45.21554" lon="6.22453">
        <ele>1639</ele>
        <time>2014-08-10T09:46:10Z</time>
      </trkpt>
      <trkpt lat="45.21552" lon="6.22439">
        <ele>1640</ele>
        <time>2014-08-10T09:46:26Z</time>
      </trkpt>
      <trkpt lat="45.2155" lon="6.22426">
        <ele>1640</ele>
        <time>2014-08-10T09:46:45Z</time>
      </trkpt>
      <trkpt lat="45.21547" lon="6.22412">
        <ele>1649</ele>
        <time>2014-08-10T09:47:05Z</time>
      </trkpt>
      <trkpt lat="45.21545" lon="6.224">
        <ele>1649</ele>
        <time>2014-08-10T09:47:22Z</time>
      </trkpt>
      <trkpt lat="45.21542" lon="6.22387">
        <ele>1650</ele>
        <time>2014-08-10T09:47:41Z</time>
      </trkpt>
      <trkpt lat="45.21539" lon="6.22374">
        <ele>1651</ele>
        <time>2014-08-10T09:47:58Z</time>
      </trkpt>
      <trkpt lat="45.21538" lon="6.22361">
        <ele>1652</ele>
        <time>2014-08-10T09:48:13Z</time>
      </trkpt>
      <trkpt lat="45.21536" lon="6.22347">
        <ele>1653</ele>
        <time>2014-08-10T09:48:26Z</time>
      </trkpt>
      <trkpt lat="45.21533" lon="6.22335">
        <ele>1654</ele>
        <time>2014-08-10T09:48:40Z</time>
      </trkpt>
      <trkpt lat="45.21531" lon="6.22321">
        <ele>1663</ele>
        <time>2014-08-10T09:48:53Z</time>
      </trkpt>
      <trkpt lat="45.2153" lon="6.22308">
        <ele>1663</ele>
        <time>2014-08-10T09:49:08Z</time>
      </trkpt>
      <trkpt lat="45.21528" lon="6.22294">
        <ele>1665</ele>
        <time>2014-08-10T09:49:20Z</time>
      </trkpt>
      <trkpt lat="45.21526" lon="6.22281">
        <ele>1666</ele>
        <time>2014-08-10T09:49:37Z</time>
      </trkpt>
      <trkpt lat="45.21523" lon="6.22268">
        <ele>1668</ele>
        <time>2014-08-10T09:49:51Z</time>
      </trkpt>
      <trkpt lat="45.21521" lon="6.22254">
        <ele>1669</ele>
        <time>2014-08-10T09:50:09Z</time>
      </trkpt>
      <trkpt lat="45.2152" lon="6.22241">
        <ele>1677</ele>
        <time>2014-08-10T09:50:27Z</time>
      </trkpt>
      <trkpt lat="45.21518" lon="6.22227">
        <ele>1678</ele>
        <time>2014-08-10T09:50:45Z</time>
      </trkpt>
      <trkpt lat="45.21516" lon="6.22214">
        <ele>1680</ele>
        <time>2014-08-10T09:51:03Z</time>
      </trkpt>
      <trkpt lat="45.21514" lon="6.222">
        <ele>1682</ele>
        <time>2014-08-10T09:51:18Z</time>
      </trkpt>
      <trkpt lat="45.21512" lon="6.22188">
        <ele>1684</ele>
        <time>2014-08-10T09:51:36Z</time>
      </trkpt>
      <trkpt lat="45.21509" lon="6.22175">
        <ele>1686</ele>
        <time>2014-08-10T09:51:55Z</time>
      </trkpt>
      <trkpt lat="45.21508" lon="6.22162">
        <ele>1692</ele>
        <time>2014-08-10T09:52:14Z</time>
      </trkpt>
      <trkpt lat="45.21505" lon="6.22148">
        <ele>1693</ele>
        <time>2014-08-10T09:52:31Z</time>
      </trkpt>
      <trkpt lat="45.21503" lon="6.22135">
        <ele>1694</ele>
        <time>2014-08-10T09:52:46Z</time>
      </trkpt>
      <trkpt lat="45.215" lon="6.22122">
        <ele>1703</ele>
        <time>2014-08-10T09:53:03Z</time>
      </trkpt>
      <trkpt lat="45.21493" lon="6.22111">
        <ele>1704</ele>
        <time>2014-08-10T09:53:18Z</time>
      </trkpt>
      <trkpt lat="45.21484" lon="6.22108">
        <ele>1705</ele>
        <time>2014-08-10T09:53:32Z</time>
      </trkpt>
      <trkpt lat="45.21475" lon="6.22105">
        <ele>1706</ele>
        <time>2014-08-10T09:53:54Z</time>
      </trkpt>
      <trkpt lat="45.21465" lon="6.22104">
        <ele>1707</ele>
        <time>2014-08-10T09:54:11Z</time>
      </trkpt>
      <trkpt lat="45.21456" lon="6.22105">
        <ele>1708</ele>
        <time>2014-08-10T09:54:26Z</time>
      </trkpt>
      <trkpt lat="45.21446" lon="6.22107">
        <ele>1709</ele>
        <time>2014-08-10T09:54:40Z</time>
      </trkpt>
      <trkpt lat="45.21437" lon="6.2211">
        <ele>1710</ele>
        <time>2014-08-10T09:54:56Z</time>
      </trkpt>
      <trkpt lat="45.21429" lon="6.22115">
        <ele>1710</ele>
        <time>2014-08-10T09:55:10Z</time>
      </trkpt>
      <trkpt lat="45.21418" lon="6.22118">
        <ele>1710</ele>
        <time>2014-08-10T09:55:22Z</time>
      </trkpt>
      <trkpt lat="45.21409" lon="6.2212">
        <ele>1720</ele>
        <time>2014-08-10T09:55:34Z</time>
      </trkpt>
      <trkpt lat="45.214" lon="6.22125">
        <ele>1720</ele>
        <time>2014-08-10T09:55:48Z</time>
      </trkpt>
      <trkpt lat="45.21391" lon="6.22128">
        <ele>1720</ele>
        <time>2014-08-10T09:56:04Z</time>
      </trkpt>
      <trkpt lat="45.21382" lon="6.22131">
        <ele>1720</ele>
        <time>2014-08-10T09:56:19Z</time>
      </trkpt>
      <trkpt lat="45.21372" lon="6.22133">
        <ele>1721</ele>
        <time>2014-08-10T09:56:33Z</time>
      </trkpt>
      <trkpt lat="45.21362" lon="6.22131">
        <ele>1722</ele>
        <time>2014-08-10T09:56:49Z</time>
      </trkpt>
      <trkpt lat="45.21353" lon="6.22126">
        <ele>1723</ele>
        <time>2014-08-10T09:57:07Z</time>
      </trkpt>
      <trkpt lat="45.21345" lon="6.22118">
        <ele>1725</ele>
        <time>2014-08-10T09:57:22Z</time>
      </trkpt>
      <trkpt lat="45.21337" lon="6.2211">
        <ele>1728</ele>
        <time>2014-08-10T09:57:36Z</time>
      </trkpt>
      <trkpt lat="45.2133" lon="6.221">
        <ele>1737</ele>
        <time>2014-08-10T09:57:50Z</time>
      </trkpt>
      <trkpt lat="45.21323" lon="6.22091">
        <ele>1738</ele>
        <time>2014-08-10T09:58:03Z</time>
      </trkpt>
      <trkpt lat="45.21312" lon="6.22091">
        <ele>1737</ele>
        <time>2014-08-10T09:58:17Z</time>
      </trkpt>
      <trkpt lat="45.21302" lon="6.22094">
        <ele>1737</ele>
        <time>2014-08-10T09:58:24Z</time>
      </trkpt>
      <trkpt lat="45.21292" lon="6.22094">
        <ele>1738</ele>
        <time>2014-08-10T09:58:31Z</time>
      </trkpt>
      <trkpt lat="45.21283" lon="6.22099">
        <ele>1739</ele>
        <time>2014-08-10T09:58:38Z</time>
      </trkpt>
      <trkpt lat="45.21272" lon="6.221">
        <ele>1740</ele>
        <time>2014-08-10T09:58:45Z</time>
      </trkpt>
      <trkpt lat="45.21262" lon="6.22101">
        <ele>1742</ele>
        <time>2014-08-10T09:58:52Z</time>
      </trkpt>
      <trkpt lat="45.21252" lon="6.22103">
        <ele>1743</ele>
        <time>2014-08-10T09:58:59Z</time>
      </trkpt>
      <trkpt lat="45.21242" lon="6.22103">
        <ele>1750</ele>
        <time>2014-08-10T09:59:06Z</time>
      </trkpt>
      <trkpt lat="45.21232" lon="6.22104">
        <ele>1750</ele>
        <time>2014-08-10T09:59:13Z</time>
      </trkpt>
      <trkpt lat="45.21222" lon="6.22105">
        <ele>1750</ele>
        <time>2014-08-10T09:59:21Z</time>
      </trkpt>
      <trkpt lat="45.21212" lon="6.22105">
        <ele>1751</ele>
        <time>2014-08-10T09:59:30Z</time>
      </trkpt>
      <trkpt lat="45.21202" lon="6.22108">
        <ele>1752</ele>
        <time>2014-08-10T09:59:43Z</time>
      </trkpt>
      <trkpt lat="45.21192" lon="6.22109">
        <ele>1754</ele>
        <time>2014-08-10T09:59:53Z</time>
      </trkpt>
      <trkpt lat="45.21183" lon="6.22112">
        <ele>1754</ele>
        <time>2014-08-10T10:00:03Z</time>
      </trkpt>
      <trkpt lat="45.21175" lon="6.22119">
        <ele>1753</ele>
        <time>2014-08-10T10:00:15Z</time>
      </trkpt>
      <trkpt lat="45.21166" lon="6.22125">
        <ele>1771</ele>
        <time>2014-08-10T10:00:25Z</time>
      </trkpt>
      <trkpt lat="45.21159" lon="6.22135">
        <ele>1769</ele>
        <time>2014-08-10T10:00:37Z</time>
      </trkpt>
      <trkpt lat="45.21152" lon="6.22143">
        <ele>1768</ele>
        <time>2014-08-10T10:00:47Z</time>
      </trkpt>
      <trkpt lat="45.21143" lon="6.22149">
        <ele>1769</ele>
        <time>2014-08-10T10:00:58Z</time>
      </trkpt>
      <trkpt lat="45.21133" lon="6.22153">
        <ele>1772</ele>
        <time>2014-08-10T10:01:09Z</time>
      </trkpt>
      <trkpt lat="45.21124" lon="6.22159">
        <ele>1775</ele>
        <time>2014-08-10T10:01:19Z</time>
      </trkpt>
      <trkpt lat="45.21118" lon="6.22169">
        <ele>1760</ele>
        <time>2014-08-10T10:01:27Z</time>
      </trkpt>
      <trkpt lat="45.2111" lon="6.22179">
        <ele>1762</ele>
        <time>2014-08-10T10:01:35Z</time>
      </trkpt>
      <trkpt lat="45.21103" lon="6.22188">
        <ele>1762</ele>
        <time>2014-08-10T10:01:42Z</time>
      </trkpt>
      <trkpt lat="45.21096" lon="6.22197">
        <ele>1761</ele>
        <time>2014-08-10T10:01:48Z</time>
      </trkpt>
      <trkpt lat="45.21087" lon="6.22206">
        <ele>1760</ele>
        <time>2014-08-10T10:01:55Z</time>
      </trkpt>
      <trkpt lat="45.21078" lon="6.22214">
        <ele>1780</ele>
        <time>2014-08-10T10:02:02Z</time>
      </trkpt>
      <trkpt lat="45.2107" lon="6.22223">
        <ele>1778</ele>
        <time>2014-08-10T10:02:09Z</time>
      </trkpt>
      <trkpt lat="45.21061" lon="6.22231">
        <ele>1777</ele>
        <time>2014-08-10T10:02:17Z</time>
      </trkpt>
      <trkpt lat="45.21051" lon="6.22238">
        <ele>1779</ele>
        <time>2014-08-10T10:02:24Z</time>
      </trkpt>
      <trkpt lat="45.21042" lon="6.22242">
        <ele>1781</ele>
        <time>2014-08-10T10:02:31Z</time>
      </trkpt>
      <trkpt lat="45.21033" lon="6.2225">
        <ele>1782</ele>
        <time>2014-08-10T10:02:39Z</time>
      </trkpt>
      <trkpt lat="45.21026" lon="6.22259">
        <ele>1767</ele>
        <time>2014-08-10T10:02:45Z</time>
      </trkpt>
      <trkpt lat="45.2102" lon="6.22268">
        <ele>1767</ele>
        <time>2014-08-10T10:02:52Z</time>
      </trkpt>
      <trkpt lat="45.21011" lon="6.22273">
        <ele>1768</ele>
        <time>2014-08-10T10:02:58Z</time>
      </trkpt>
      <trkpt lat="45.21001" lon="6.22276">
        <ele>1769</ele>
        <time>2014-08-10T10:03:04Z</time>
      </trkpt>
      <trkpt lat="45.2099" lon="6.22274">
        <ele>1779</ele>
        <time>2014-08-10T10:03:12Z</time>
      </trkpt>
      <trkpt lat="45.20981" lon="6.22273">
        <ele>1779</ele>
        <time>2014-08-10T10:03:18Z</time>
      </trkpt>
      <trkpt lat="45.20972" lon="6.22269">
        <ele>1780</ele>
        <time>2014-08-10T10:03:24Z</time>
      </trkpt>
      <trkpt lat="45.20962" lon="6.22267">
        <ele>1780</ele>
        <time>2014-08-10T10:03:31Z</time>
      </trkpt>
      <trkpt lat="45.20952" lon="6.22267">
        <ele>1781</ele>
        <time>2014-08-10T10:03:38Z</time>
      </trkpt>
      <trkpt lat="45.20941" lon="6.22267">
        <ele>1782</ele>
        <time>2014-08-10T10:03:45Z</time>
      </trkpt>
      <trkpt lat="45.20932" lon="6.22262">
        <ele>1784</ele>
        <time>2014-08-10T10:03:51Z</time>
      </trkpt>
      <trkpt lat="45.20924" lon="6.22254">
        <ele>1787</ele>
        <time>2014-08-10T10:03:56Z</time>
      </trkpt>
      <trkpt lat="45.20916" lon="6.22247">
        <ele>1792</ele>
        <time>2014-08-10T10:04:01Z</time>
      </trkpt>
      <trkpt lat="45.20906" lon="6.22242">
        <ele>1795</ele>
        <time>2014-08-10T10:04:06Z</time>
      </trkpt>
      <trkpt lat="45.20896" lon="6.22244">
        <ele>1797</ele>
        <time>2014-08-10T10:04:13Z</time>
      </trkpt>
      <trkpt lat="45.20888" lon="6.22249">
        <ele>1797</ele>
        <time>2014-08-10T10:04:20Z</time>
      </trkpt>
      <trkpt lat="45.20879" lon="6.22252">
        <ele>1784</ele>
        <time>2014-08-10T10:04:26Z</time>
      </trkpt>
      <trkpt lat="45.20868" lon="6.22252">
        <ele>1784</ele>
        <time>2014-08-10T10:04:32Z</time>
      </trkpt>
      <trkpt lat="45.20858" lon="6.22246">
        <ele>1796</ele>
        <time>2014-08-10T10:04:37Z</time>
      </trkpt>
      <trkpt lat="45.20848" lon="6.22238">
        <ele>1796</ele>
        <time>2014-08-10T10:04:42Z</time>
      </trkpt>
      <trkpt lat="45.20839" lon="6.22232">
        <ele>1796</ele>
        <time>2014-08-10T10:04:47Z</time>
      </trkpt>
      <trkpt lat="45.20829" lon="6.22229">
        <ele>1797</ele>
        <time>2014-08-10T10:04:52Z</time>
      </trkpt>
      <trkpt lat="45.20819" lon="6.22231">
        <ele>1798</ele>
        <time>2014-08-10T10:04:58Z</time>
      </trkpt>
      <trkpt lat="45.20811" lon="6.22239">
        <ele>1797</ele>
        <time>2014-08-10T10:05:07Z</time>
      </trkpt>
      <trkpt lat="45.20804" lon="6.2225">
        <ele>1797</ele>
        <time>2014-08-10T10:05:16Z</time>
      </trkpt>
      <trkpt lat="45.20797" lon="6.22259">
        <ele>1786</ele>
        <time>2014-08-10T10:05:25Z</time>
      </trkpt>
      <trkpt lat="45.20789" lon="6.22265">
        <ele>1785</ele>
        <time>2014-08-10T10:05:33Z</time>
      </trkpt>
      <trkpt lat="45.2078" lon="6.2226">
        <ele>1787</ele>
        <time>2014-08-10T10:05:39Z</time>
      </trkpt>
      <trkpt lat="45.20773" lon="6.2225">
        <ele>1788</ele>
        <time>2014-08-10T10:05:44Z</time>
      </trkpt>
      <trkpt lat="45.20766" lon="6.22241">
        <ele>1799</ele>
        <time>2014-08-10T10:05:49Z</time>
      </trkpt>
      <trkpt lat="45.20757" lon="6.22233">
        <ele>1799</ele>
        <time>2014-08-10T10:05:55Z</time>
      </trkpt>
      <trkpt lat="45.20747" lon="6.22231">
        <ele>1799</ele>
        <time>2014-08-10T10:06:02Z</time>
      </trkpt>
      <trkpt lat="45.20738" lon="6.22224">
        <ele>1800</ele>
        <time>2014-08-10T10:06:08Z</time>
      </trkpt>
      <trkpt lat="45.20733" lon="6.22211">
        <ele>1802</ele>
        <time>2014-08-10T10:06:14Z</time>
      </trkpt>
      <trkpt lat="45.20731" lon="6.22197">
        <ele>1804</ele>
        <time>2014-08-10T10:06:20Z</time>
      </trkpt>
      <trkpt lat="45.20726" lon="6.22183">
        <ele>1806</ele>
        <time>2014-08-10T10:06:27Z</time>
      </trkpt>
      <trkpt lat="45.2072" lon="6.22172">
        <ele>1806</ele>
        <time>2014-08-10T10:06:33Z</time>
      </trkpt>
      <trkpt lat="45.20712" lon="6.22163">
        <ele>1822</ele>
        <time>2014-08-10T10:06:39Z</time>
      </trkpt>
      <trkpt lat="45.20703" lon="6.22158">
        <ele>1822</ele>
        <time>2014-08-10T10:06:45Z</time>
      </trkpt>
      <trkpt lat="45.20694" lon="6.22157">
        <ele>1821</ele>
        <time>2014-08-10T10:06:51Z</time>
      </trkpt>
      <trkpt lat="45.20685" lon="6.22162">
        <ele>1818</ele>
        <time>2014-08-10T10:06:58Z</time>
      </trkpt>
      <trkpt lat="45.20676" lon="6.22167">
        <ele>1807</ele>
        <time>2014-08-10T10:07:03Z</time>
      </trkpt>
      <trkpt lat="45.20666" lon="6.22173">
        <ele>1807</ele>
        <time>2014-08-10T10:07:10Z</time>
      </trkpt>
      <trkpt lat="45.20657" lon="6.22178">
        <ele>1805</ele>
        <time>2014-08-10T10:07:16Z</time>
      </trkpt>
      <trkpt lat="45.20646" lon="6.22179">
        <ele>1804</ele>
        <time>2014-08-10T10:07:22Z</time>
      </trkpt>
      <trkpt lat="45.20636" lon="6.22179">
        <ele>1804</ele>
        <time>2014-08-10T10:07:29Z</time>
      </trkpt>
      <trkpt lat="45.20626" lon="6.22177">
        <ele>1804</ele>
        <time>2014-08-10T10:07:35Z</time>
      </trkpt>
      <trkpt lat="45.20616" lon="6.22176">
        <ele>1805</ele>
        <time>2014-08-10T10:07:41Z</time>
      </trkpt>
      <trkpt lat="45.20607" lon="6.22171">
        <ele>1806</ele>
        <time>2014-08-10T10:07:48Z</time>
      </trkpt>
      <trkpt lat="45.20597" lon="6.22169">
        <ele>1808</ele>
        <time>2014-08-10T10:07:55Z</time>
      </trkpt>
      <trkpt lat="45.20587" lon="6.22166">
        <ele>1814</ele>
        <time>2014-08-10T10:08:01Z</time>
      </trkpt>
      <trkpt lat="45.20577" lon="6.22162">
        <ele>1815</ele>
        <time>2014-08-10T10:08:08Z</time>
      </trkpt>
      <trkpt lat="45.20568" lon="6.22157">
        <ele>1818</ele>
        <time>2014-08-10T10:08:16Z</time>
      </trkpt>
      <trkpt lat="45.20559" lon="6.22153">
        <ele>1819</ele>
        <time>2014-08-10T10:08:23Z</time>
      </trkpt>
      <trkpt lat="45.2055" lon="6.22147">
        <ele>1820</ele>
        <time>2014-08-10T10:08:30Z</time>
      </trkpt>
      <trkpt lat="45.20542" lon="6.22141">
        <ele>1821</ele>
        <time>2014-08-10T10:08:40Z</time>
      </trkpt>
      <trkpt lat="45.20533" lon="6.22135">
        <ele>1822</ele>
        <time>2014-08-10T10:08:49Z</time>
      </trkpt>
      <trkpt lat="45.20524" lon="6.22127">
        <ele>1823</ele>
        <time>2014-08-10T10:08:59Z</time>
      </trkpt>
      <trkpt lat="45.20517" lon="6.22118">
        <ele>1824</ele>
        <time>2014-08-10T10:09:08Z</time>
      </trkpt>
      <trkpt lat="45.2051" lon="6.22108">
        <ele>1826</ele>
        <time>2014-08-10T10:09:17Z</time>
      </trkpt>
      <trkpt lat="45.20502" lon="6.221">
        <ele>1828</ele>
        <time>2014-08-10T10:09:26Z</time>
      </trkpt>
      <trkpt lat="45.20493" lon="6.22092">
        <ele>1828</ele>
        <time>2014-08-10T10:09:37Z</time>
      </trkpt>
      <trkpt lat="45.20484" lon="6.22086">
        <ele>1826</ele>
        <time>2014-08-10T10:09:49Z</time>
      </trkpt>
      <trkpt lat="45.20475" lon="6.22082">
        <ele>1839</ele>
        <time>2014-08-10T10:10:00Z</time>
      </trkpt>
      <trkpt lat="45.20467" lon="6.22075">
        <ele>1840</ele>
        <time>2014-08-10T10:10:12Z</time>
      </trkpt>
      <trkpt lat="45.20458" lon="6.22068">
        <ele>1841</ele>
        <time>2014-08-10T10:10:24Z</time>
      </trkpt>
      <trkpt lat="45.20449" lon="6.22062">
        <ele>1842</ele>
        <time>2014-08-10T10:10:36Z</time>
      </trkpt>
      <trkpt lat="45.20441" lon="6.22057">
        <ele>1842</ele>
        <time>2014-08-10T10:10:47Z</time>
      </trkpt>
      <trkpt lat="45.20432" lon="6.22053">
        <ele>1842</ele>
        <time>2014-08-10T10:10:58Z</time>
      </trkpt>
      <trkpt lat="45.20422" lon="6.2205">
        <ele>1842</ele>
        <time>2014-08-10T10:11:11Z</time>
      </trkpt>
      <trkpt lat="45.20413" lon="6.22045">
        <ele>1840</ele>
        <time>2014-08-10T10:11:22Z</time>
      </trkpt>
      <trkpt lat="45.20408" lon="6.22033">
        <ele>1843</ele>
        <time>2014-08-10T10:11:37Z</time>
      </trkpt>
      <trkpt lat="45.20408" lon="6.2202">
        <ele>1846</ele>
        <time>2014-08-10T10:11:55Z</time>
      </trkpt>
      <trkpt lat="45.20413" lon="6.22009">
        <ele>1851</ele>
        <time>2014-08-10T10:12:27Z</time>
      </trkpt>
      <trkpt lat="45.2042" lon="6.21999">
        <ele>1858</ele>
        <time>2014-08-10T10:12:45Z</time>
      </trkpt>
      <trkpt lat="45.20427" lon="6.2199">
        <ele>1862</ele>
        <time>2014-08-10T10:13:00Z</time>
      </trkpt>
      <trkpt lat="45.20437" lon="6.21988">
        <ele>1864</ele>
        <time>2014-08-10T10:13:23Z</time>
      </trkpt>
      <trkpt lat="45.20447" lon="6.21988">
        <ele>1865</ele>
        <time>2014-08-10T10:13:32Z</time>
      </trkpt>
      <trkpt lat="45.20456" lon="6.21987">
        <ele>1866</ele>
        <time>2014-08-10T10:13:42Z</time>
      </trkpt>
      <trkpt lat="45.20466" lon="6.21985">
        <ele>1866</ele>
        <time>2014-08-10T10:13:53Z</time>
      </trkpt>
      <trkpt lat="45.20475" lon="6.21985">
        <ele>1866</ele>
        <time>2014-08-10T10:14:03Z</time>
      </trkpt>
      <trkpt lat="45.20485" lon="6.21983">
        <ele>1866</ele>
        <time>2014-08-10T10:14:13Z</time>
      </trkpt>
      <trkpt lat="45.20494" lon="6.21979">
        <ele>1866</ele>
        <time>2014-08-10T10:14:23Z</time>
      </trkpt>
      <trkpt lat="45.20503" lon="6.21977">
        <ele>1869</ele>
        <time>2014-08-10T10:14:33Z</time>
      </trkpt>
      <trkpt lat="45.20513" lon="6.21975">
        <ele>1870</ele>
        <time>2014-08-10T10:14:41Z</time>
      </trkpt>
      <trkpt lat="45.20522" lon="6.21969">
        <ele>1872</ele>
        <time>2014-08-10T10:14:52Z</time>
      </trkpt>
      <trkpt lat="45.20531" lon="6.21968">
        <ele>1873</ele>
        <time>2014-08-10T10:15:01Z</time>
      </trkpt>
      <trkpt lat="45.2054" lon="6.21964">
        <ele>1873</ele>
        <time>2014-08-10T10:15:11Z</time>
      </trkpt>
      <trkpt lat="45.2055" lon="6.21959">
        <ele>1874</ele>
        <time>2014-08-10T10:15:21Z</time>
      </trkpt>
      <trkpt lat="45.20559" lon="6.21955">
        <ele>1875</ele>
        <time>2014-08-10T10:15:29Z</time>
      </trkpt>
      <trkpt lat="45.20568" lon="6.2195">
        <ele>1876</ele>
        <time>2014-08-10T10:15:38Z</time>
      </trkpt>
      <trkpt lat="45.20578" lon="6.21947">
        <ele>1877</ele>
        <time>2014-08-10T10:15:47Z</time>
      </trkpt>
      <trkpt lat="45.20588" lon="6.21943">
        <ele>1880</ele>
        <time>2014-08-10T10:15:57Z</time>
      </trkpt>
      <trkpt lat="45.20596" lon="6.21937">
        <ele>1881</ele>
        <time>2014-08-10T10:16:06Z</time>
      </trkpt>
      <trkpt lat="45.20605" lon="6.21932">
        <ele>1881</ele>
        <time>2014-08-10T10:16:15Z</time>
      </trkpt>
      <trkpt lat="45.20613" lon="6.21926">
        <ele>1881</ele>
        <time>2014-08-10T10:16:23Z</time>
      </trkpt>
      <trkpt lat="45.20622" lon="6.2192">
        <ele>1881</ele>
        <time>2014-08-10T10:16:32Z</time>
      </trkpt>
      <trkpt lat="45.2063" lon="6.21912">
        <ele>1893</ele>
        <time>2014-08-10T10:16:41Z</time>
      </trkpt>
      <trkpt lat="45.20639" lon="6.21906">
        <ele>1893</ele>
        <time>2014-08-10T10:16:49Z</time>
      </trkpt>
      <trkpt lat="45.20647" lon="6.21898">
        <ele>1893</ele>
        <time>2014-08-10T10:16:57Z</time>
      </trkpt>
      <trkpt lat="45.20656" lon="6.2189">
        <ele>1893</ele>
        <time>2014-08-10T10:17:06Z</time>
      </trkpt>
      <trkpt lat="45.20664" lon="6.21884">
        <ele>1894</ele>
        <time>2014-08-10T10:17:13Z</time>
      </trkpt>
      <trkpt lat="45.20672" lon="6.21876">
        <ele>1896</ele>
        <time>2014-08-10T10:17:23Z</time>
      </trkpt>
      <trkpt lat="45.20681" lon="6.2187">
        <ele>1897</ele>
        <time>2014-08-10T10:17:32Z</time>
      </trkpt>
      <trkpt lat="45.20689" lon="6.21863">
        <ele>1897</ele>
        <time>2014-08-10T10:17:41Z</time>
      </trkpt>
      <trkpt lat="45.20699" lon="6.2186">
        <ele>1898</ele>
        <time>2014-08-10T10:17:50Z</time>
      </trkpt>
      <trkpt lat="45.20708" lon="6.21854">
        <ele>1898</ele>
        <time>2014-08-10T10:17:59Z</time>
      </trkpt>
      <trkpt lat="45.20717" lon="6.21849">
        <ele>1899</ele>
        <time>2014-08-10T10:18:07Z</time>
      </trkpt>
      <trkpt lat="45.20726" lon="6.21843">
        <ele>1900</ele>
        <time>2014-08-10T10:18:15Z</time>
      </trkpt>
      <trkpt lat="45.20735" lon="6.21834">
        <ele>1901</ele>
        <time>2014-08-10T10:18:23Z</time>
      </trkpt>
      <trkpt lat="45.20742" lon="6.21826">
        <ele>1908</ele>
        <time>2014-08-10T10:18:30Z</time>
      </trkpt>
      <trkpt lat="45.20749" lon="6.21817">
        <ele>1909</ele>
        <time>2014-08-10T10:18:37Z</time>
      </trkpt>
      <trkpt lat="45.20757" lon="6.21808">
        <ele>1912</ele>
        <time>2014-08-10T10:18:45Z</time>
      </trkpt>
      <trkpt lat="45.20764" lon="6.21798">
        <ele>1913</ele>
        <time>2014-08-10T10:18:54Z</time>
      </trkpt>
      <trkpt lat="45.2077" lon="6.21788">
        <ele>1914</ele>
        <time>2014-08-10T10:19:03Z</time>
      </trkpt>
      <trkpt lat="45.20777" lon="6.21777">
        <ele>1915</ele>
        <time>2014-08-10T10:19:12Z</time>
      </trkpt>
      <trkpt lat="45.20783" lon="6.21766">
        <ele>1916</ele>
        <time>2014-08-10T10:19:21Z</time>
      </trkpt>
      <trkpt lat="45.2079" lon="6.21757">
        <ele>1917</ele>
        <time>2014-08-10T10:19:29Z</time>
      </trkpt>
      <trkpt lat="45.20797" lon="6.21748">
        <ele>1927</ele>
        <time>2014-08-10T10:19:38Z</time>
      </trkpt>
      <trkpt lat="45.20804" lon="6.21738">
        <ele>1928</ele>
        <time>2014-08-10T10:19:48Z</time>
      </trkpt>
      <trkpt lat="45.20811" lon="6.21729">
        <ele>1928</ele>
        <time>2014-08-10T10:19:57Z</time>
      </trkpt>
      <trkpt lat="45.20819" lon="6.21722">
        <ele>1929</ele>
        <time>2014-08-10T10:20:06Z</time>
      </trkpt>
      <trkpt lat="45.20829" lon="6.21723">
        <ele>1928</ele>
        <time>2014-08-10T10:20:19Z</time>
      </trkpt>
      <trkpt lat="45.20832" lon="6.2171">
        <ele>1931</ele>
        <time>2014-08-10T10:20:39Z</time>
      </trkpt>
      <trkpt lat="45.20823" lon="6.21702">
        <ele>1932</ele>
        <time>2014-08-10T10:20:47Z</time>
      </trkpt>
      <trkpt lat="45.20814" lon="6.21695">
        <ele>1933</ele>
        <time>2014-08-10T10:20:53Z</time>
      </trkpt>
      <trkpt lat="45.20804" lon="6.21693">
        <ele>1933</ele>
        <time>2014-08-10T10:21:00Z</time>
      </trkpt>
      <trkpt lat="45.20795" lon="6.21693">
        <ele>1933</ele>
        <time>2014-08-10T10:21:09Z</time>
      </trkpt>
      <trkpt lat="45.20785" lon="6.21694">
        <ele>1933</ele>
        <time>2014-08-10T10:21:18Z</time>
      </trkpt>
      <trkpt lat="45.20775" lon="6.21694">
        <ele>1934</ele>
        <time>2014-08-10T10:21:26Z</time>
      </trkpt>
      <trkpt lat="45.20765" lon="6.21695">
        <ele>1934</ele>
        <time>2014-08-10T10:21:36Z</time>
      </trkpt>
      <trkpt lat="45.20755" lon="6.21697">
        <ele>1934</ele>
        <time>2014-08-10T10:21:44Z</time>
      </trkpt>
      <trkpt lat="45.20745" lon="6.21698">
        <ele>1936</ele>
        <time>2014-08-10T10:21:53Z</time>
      </trkpt>
      <trkpt lat="45.20736" lon="6.21701">
        <ele>1935</ele>
        <time>2014-08-10T10:22:03Z</time>
      </trkpt>
      <trkpt lat="45.20726" lon="6.21702">
        <ele>1935</ele>
        <time>2014-08-10T10:22:12Z</time>
      </trkpt>
      <trkpt lat="45.20716" lon="6.21701">
        <ele>1935</ele>
        <time>2014-08-10T10:22:19Z</time>
      </trkpt>
      <trkpt lat="45.20706" lon="6.21701">
        <ele>1935</ele>
        <time>2014-08-10T10:22:28Z</time>
      </trkpt>
      <trkpt lat="45.20696" lon="6.21698">
        <ele>1936</ele>
        <time>2014-08-10T10:22:38Z</time>
      </trkpt>
      <trkpt lat="45.20686" lon="6.21696">
        <ele>1936</ele>
        <time>2014-08-10T10:22:47Z</time>
      </trkpt>
      <trkpt lat="45.20676" lon="6.21693">
        <ele>1937</ele>
        <time>2014-08-10T10:22:57Z</time>
      </trkpt>
      <trkpt lat="45.20667" lon="6.21688">
        <ele>1938</ele>
        <time>2014-08-10T10:23:08Z</time>
      </trkpt>
      <trkpt lat="45.20658" lon="6.21684">
        <ele>1939</ele>
        <time>2014-08-10T10:23:19Z</time>
      </trkpt>
      <trkpt lat="45.20649" lon="6.21676">
        <ele>1939</ele>
        <time>2014-08-10T10:23:30Z</time>
      </trkpt>
      <trkpt lat="45.20644" lon="6.21664">
        <ele>1950</ele>
        <time>2014-08-10T10:23:39Z</time>
      </trkpt>
      <trkpt lat="45.20648" lon="6.21652">
        <ele>1950</ele>
        <time>2014-08-10T10:23:48Z</time>
      </trkpt>
      <trkpt lat="45.20656" lon="6.21645">
        <ele>1951</ele>
        <time>2014-08-10T10:23:59Z</time>
      </trkpt>
      <trkpt lat="45.20666" lon="6.21641">
        <ele>1952</ele>
        <time>2014-08-10T10:24:08Z</time>
      </trkpt>
      <trkpt lat="45.20675" lon="6.21638">
        <ele>1955</ele>
        <time>2014-08-10T10:24:18Z</time>
      </trkpt>
      <trkpt lat="45.20684" lon="6.21632">
        <ele>1956</ele>
        <time>2014-08-10T10:24:27Z</time>
      </trkpt>
      <trkpt lat="45.20693" lon="6.21627">
        <ele>1957</ele>
        <time>2014-08-10T10:24:37Z</time>
      </trkpt>
      <trkpt lat="45.20703" lon="6.21623">
        <ele>1957</ele>
        <time>2014-08-10T10:24:46Z</time>
      </trkpt>
      <trkpt lat="45.20712" lon="6.21619">
        <ele>1958</ele>
        <time>2014-08-10T10:24:55Z</time>
      </trkpt>
      <trkpt lat="45.20722" lon="6.21616">
        <ele>1958</ele>
        <time>2014-08-10T10:25:05Z</time>
      </trkpt>
      <trkpt lat="45.20731" lon="6.21612">
        <ele>1959</ele>
        <time>2014-08-10T10:25:14Z</time>
      </trkpt>
      <trkpt lat="45.20741" lon="6.21608">
        <ele>1960</ele>
        <time>2014-08-10T10:25:24Z</time>
      </trkpt>
      <trkpt lat="45.2075" lon="6.21603">
        <ele>1962</ele>
        <time>2014-08-10T10:25:32Z</time>
      </trkpt>
      <trkpt lat="45.2076" lon="6.21597">
        <ele>1961</ele>
        <time>2014-08-10T10:25:39Z</time>
      </trkpt>
      <trkpt lat="45.20769" lon="6.21594">
        <ele>1960</ele>
        <time>2014-08-10T10:25:47Z</time>
      </trkpt>
      <trkpt lat="45.20778" lon="6.21589">
        <ele>1959</ele>
        <time>2014-08-10T10:25:55Z</time>
      </trkpt>
      <trkpt lat="45.20786" lon="6.21582">
        <ele>1973</ele>
        <time>2014-08-10T10:26:03Z</time>
      </trkpt>
      <trkpt lat="45.20786" lon="6.21569">
        <ele>1974</ele>
        <time>2014-08-10T10:26:13Z</time>
      </trkpt>
      <trkpt lat="45.2078" lon="6.21558">
        <ele>1975</ele>
        <time>2014-08-10T10:26:22Z</time>
      </trkpt>
      <trkpt lat="45.20771" lon="6.21554">
        <ele>1976</ele>
        <time>2014-08-10T10:26:31Z</time>
      </trkpt>
      <trkpt lat="45.20761" lon="6.21552">
        <ele>1976</ele>
        <time>2014-08-10T10:26:39Z</time>
      </trkpt>
      <trkpt lat="45.20751" lon="6.21553">
        <ele>1976</ele>
        <time>2014-08-10T10:26:50Z</time>
      </trkpt>
      <trkpt lat="45.20742" lon="6.21553">
        <ele>1977</ele>
        <time>2014-08-10T10:27:01Z</time>
      </trkpt>
      <trkpt lat="45.20732" lon="6.21553">
        <ele>1977</ele>
        <time>2014-08-10T10:27:11Z</time>
      </trkpt>
      <trkpt lat="45.20722" lon="6.21551">
        <ele>1978</ele>
        <time>2014-08-10T10:27:22Z</time>
      </trkpt>
      <trkpt lat="45.20713" lon="6.21547">
        <ele>1978</ele>
        <time>2014-08-10T10:27:31Z</time>
      </trkpt>
      <trkpt lat="45.20703" lon="6.21543">
        <ele>1979</ele>
        <time>2014-08-10T10:27:39Z</time>
      </trkpt>
      <trkpt lat="45.20696" lon="6.21535">
        <ele>1980</ele>
        <time>2014-08-10T10:27:52Z</time>
      </trkpt>
      <trkpt lat="45.20698" lon="6.21522">
        <ele>1982</ele>
        <time>2014-08-10T10:28:02Z</time>
      </trkpt>
      <trkpt lat="45.20707" lon="6.21517">
        <ele>1982</ele>
        <time>2014-08-10T10:28:11Z</time>
      </trkpt>
      <trkpt lat="45.20716" lon="6.2151">
        <ele>1983</ele>
        <time>2014-08-10T10:28:21Z</time>
      </trkpt>
      <trkpt lat="45.20724" lon="6.21505">
        <ele>1984</ele>
        <time>2014-08-10T10:28:31Z</time>
      </trkpt>
      <trkpt lat="45.20733" lon="6.21497">
        <ele>1995</ele>
        <time>2014-08-10T10:28:41Z</time>
      </trkpt>
      <trkpt lat="45.20741" lon="6.2149">
        <ele>1995</ele>
        <time>2014-08-10T10:28:50Z</time>
      </trkpt>
      <trkpt lat="45.2075" lon="6.21484">
        <ele>1995</ele>
        <time>2014-08-10T10:28:58Z</time>
      </trkpt>
      <trkpt lat="45.20759" lon="6.2148">
        <ele>1996</ele>
        <time>2014-08-10T10:29:06Z</time>
      </trkpt>
      <trkpt lat="45.20768" lon="6.21475">
        <ele>1997</ele>
        <time>2014-08-10T10:29:16Z</time>
      </trkpt>
      <trkpt lat="45.20769" lon="6.21461">
        <ele>1999</ele>
        <time>2014-08-10T10:29:26Z</time>
      </trkpt>
      <trkpt lat="45.2076" lon="6.21452">
        <ele>2001</ele>
        <time>2014-08-10T10:29:36Z</time>
      </trkpt>
      <trkpt lat="45.2075" lon="6.21449">
        <ele>2001</ele>
        <time>2014-08-10T10:29:44Z</time>
      </trkpt>
      <trkpt lat="45.20741" lon="6.21448">
        <ele>2002</ele>
        <time>2014-08-10T10:29:53Z</time>
      </trkpt>
      <trkpt lat="45.20731" lon="6.21445">
        <ele>2002</ele>
        <time>2014-08-10T10:30:02Z</time>
      </trkpt>
      <trkpt lat="45.20722" lon="6.21441">
        <ele>2002</ele>
        <time>2014-08-10T10:30:11Z</time>
      </trkpt>
      <trkpt lat="45.20713" lon="6.21437">
        <ele>2002</ele>
        <time>2014-08-10T10:30:19Z</time>
      </trkpt>
      <trkpt lat="45.20704" lon="6.21434">
        <ele>2002</ele>
        <time>2014-08-10T10:30:26Z</time>
      </trkpt>
      <trkpt lat="45.20695" lon="6.21429">
        <ele>2003</ele>
        <time>2014-08-10T10:30:35Z</time>
      </trkpt>
      <trkpt lat="45.20685" lon="6.21426">
        <ele>2004</ele>
        <time>2014-08-10T10:30:43Z</time>
      </trkpt>
      <trkpt lat="45.2068" lon="6.21413">
        <ele>2014</ele>
        <time>2014-08-10T10:30:52Z</time>
      </trkpt>
      <trkpt lat="45.20689" lon="6.21409">
        <ele>2016</ele>
        <time>2014-08-10T10:31:04Z</time>
      </trkpt>
      <trkpt lat="45.20699" lon="6.21407">
        <ele>2017</ele>
        <time>2014-08-10T10:31:13Z</time>
      </trkpt>
      <trkpt lat="45.20708" lon="6.21402">
        <ele>2018</ele>
        <time>2014-08-10T10:31:22Z</time>
      </trkpt>
      <trkpt lat="45.20718" lon="6.21401">
        <ele>2019</ele>
        <time>2014-08-10T10:31:33Z</time>
      </trkpt>
      <trkpt lat="45.20727" lon="6.21395">
        <ele>2019</ele>
        <time>2014-08-10T10:31:43Z</time>
      </trkpt>
      <trkpt lat="45.20736" lon="6.21391">
        <ele>2019</ele>
        <time>2014-08-10T10:31:52Z</time>
      </trkpt>
      <trkpt lat="45.20745" lon="6.21385">
        <ele>2020</ele>
        <time>2014-08-10T10:32:02Z</time>
      </trkpt>
      <trkpt lat="45.20753" lon="6.21379">
        <ele>2022</ele>
        <time>2014-08-10T10:32:10Z</time>
      </trkpt>
      <trkpt lat="45.2076" lon="6.2137">
        <ele>2024</ele>
        <time>2014-08-10T10:32:18Z</time>
      </trkpt>
      <trkpt lat="45.20761" lon="6.21357">
        <ele>2027</ele>
        <time>2014-08-10T10:32:28Z</time>
      </trkpt>
      <trkpt lat="45.20754" lon="6.21349">
        <ele>2030</ele>
        <time>2014-08-10T10:32:38Z</time>
      </trkpt>
      <trkpt lat="45.20744" lon="6.21345">
        <ele>2030</ele>
        <time>2014-08-10T10:32:50Z</time>
      </trkpt>
      <trkpt lat="45.20735" lon="6.21342">
        <ele>2029</ele>
        <time>2014-08-10T10:32:58Z</time>
      </trkpt>
      <trkpt lat="45.20726" lon="6.21338">
        <ele>2028</ele>
        <time>2014-08-10T10:33:06Z</time>
      </trkpt>
      <trkpt lat="45.20717" lon="6.21333">
        <ele>2041</ele>
        <time>2014-08-10T10:33:16Z</time>
      </trkpt>
      <trkpt lat="45.20707" lon="6.21328">
        <ele>2042</ele>
        <time>2014-08-10T10:33:26Z</time>
      </trkpt>
      <trkpt lat="45.20698" lon="6.21324">
        <ele>2041</ele>
        <time>2014-08-10T10:33:36Z</time>
      </trkpt>
      <trkpt lat="45.2069" lon="6.21318">
        <ele>2041</ele>
        <time>2014-08-10T10:33:44Z</time>
      </trkpt>
      <trkpt lat="45.20681" lon="6.21313">
        <ele>2041</ele>
        <time>2014-08-10T10:33:54Z</time>
      </trkpt>
      <trkpt lat="45.20674" lon="6.21304">
        <ele>2042</ele>
        <time>2014-08-10T10:34:03Z</time>
      </trkpt>
      <trkpt lat="45.20677" lon="6.21291">
        <ele>2045</ele>
        <time>2014-08-10T10:34:12Z</time>
      </trkpt>
      <trkpt lat="45.20688" lon="6.21287">
        <ele>2046</ele>
        <time>2014-08-10T10:34:21Z</time>
      </trkpt>
      <trkpt lat="45.20698" lon="6.21286">
        <ele>2046</ele>
        <time>2014-08-10T10:34:31Z</time>
      </trkpt>
      <trkpt lat="45.20709" lon="6.21283">
        <ele>2047</ele>
        <time>2014-08-10T10:34:41Z</time>
      </trkpt>
      <trkpt lat="45.20717" lon="6.21277">
        <ele>2048</ele>
        <time>2014-08-10T10:34:50Z</time>
      </trkpt>
      <trkpt lat="45.20726" lon="6.21276">
        <ele>2049</ele>
        <time>2014-08-10T10:35:00Z</time>
      </trkpt>
      <trkpt lat="45.20736" lon="6.21273">
        <ele>2050</ele>
        <time>2014-08-10T10:35:11Z</time>
      </trkpt>
      <trkpt lat="45.20744" lon="6.21265">
        <ele>2053</ele>
        <time>2014-08-10T10:35:20Z</time>
      </trkpt>
      <trkpt lat="45.20745" lon="6.21252">
        <ele>2057</ele>
        <time>2014-08-10T10:35:28Z</time>
      </trkpt>
      <trkpt lat="45.20738" lon="6.21243">
        <ele>2064</ele>
        <time>2014-08-10T10:35:36Z</time>
      </trkpt>
      <trkpt lat="45.20728" lon="6.21239">
        <ele>2065</ele>
        <time>2014-08-10T10:35:43Z</time>
      </trkpt>
      <trkpt lat="45.20717" lon="6.21235">
        <ele>2065</ele>
        <time>2014-08-10T10:35:50Z</time>
      </trkpt>
      <trkpt lat="45.20708" lon="6.21232">
        <ele>2065</ele>
        <time>2014-08-10T10:35:58Z</time>
      </trkpt>
      <trkpt lat="45.20698" lon="6.21228">
        <ele>2065</ele>
        <time>2014-08-10T10:36:07Z</time>
      </trkpt>
      <trkpt lat="45.20689" lon="6.21225">
        <ele>2065</ele>
        <time>2014-08-10T10:36:16Z</time>
      </trkpt>
      <trkpt lat="45.2068" lon="6.21221">
        <ele>2065</ele>
        <time>2014-08-10T10:36:24Z</time>
      </trkpt>
      <trkpt lat="45.20672" lon="6.21214">
        <ele>2066</ele>
        <time>2014-08-10T10:36:33Z</time>
      </trkpt>
      <trkpt lat="45.20667" lon="6.21202">
        <ele>2065</ele>
        <time>2014-08-10T10:36:45Z</time>
      </trkpt>
      <trkpt lat="45.2067" lon="6.2119">
        <ele>2071</ele>
        <time>2014-08-10T10:36:58Z</time>
      </trkpt>
      <trkpt lat="45.20679" lon="6.21185">
        <ele>2071</ele>
        <time>2014-08-10T10:37:09Z</time>
      </trkpt>
      <trkpt lat="45.20689" lon="6.21187">
        <ele>2071</ele>
        <time>2014-08-10T10:37:20Z</time>
      </trkpt>
      <trkpt lat="45.20699" lon="6.21188">
        <ele>2071</ele>
        <time>2014-08-10T10:37:31Z</time>
      </trkpt>
      <trkpt lat="45.20709" lon="6.21186">
        <ele>2072</ele>
        <time>2014-08-10T10:37:42Z</time>
      </trkpt>
      <trkpt lat="45.20719" lon="6.21185">
        <ele>2073</ele>
        <time>2014-08-10T10:37:55Z</time>
      </trkpt>
      <trkpt lat="45.20729" lon="6.21181">
        <ele>2074</ele>
        <time>2014-08-10T10:38:06Z</time>
      </trkpt>
      <trkpt lat="45.20738" lon="6.21177">
        <ele>2077</ele>
        <time>2014-08-10T10:38:15Z</time>
      </trkpt>
      <trkpt lat="45.20747" lon="6.21173">
        <ele>2081</ele>
        <time>2014-08-10T10:38:25Z</time>
      </trkpt>
      <trkpt lat="45.20756" lon="6.21169">
        <ele>2084</ele>
        <time>2014-08-10T10:38:34Z</time>
      </trkpt>
      <trkpt lat="45.20765" lon="6.21165">
        <ele>2092</ele>
        <time>2014-08-10T10:38:44Z</time>
      </trkpt>
      <trkpt lat="45.20775" lon="6.21164">
        <ele>2095</ele>
        <time>2014-08-10T10:38:55Z</time>
      </trkpt>
      <trkpt lat="45.20785" lon="6.21162">
        <ele>2096</ele>
        <time>2014-08-10T10:39:04Z</time>
      </trkpt>
      <trkpt lat="45.20794" lon="6.21161">
        <ele>2097</ele>
        <time>2014-08-10T10:39:16Z</time>
      </trkpt>
      <trkpt lat="45.20804" lon="6.2116">
        <ele>2098</ele>
        <time>2014-08-10T10:39:26Z</time>
      </trkpt>
      <trkpt lat="45.20815" lon="6.21158">
        <ele>2098</ele>
        <time>2014-08-10T10:39:37Z</time>
      </trkpt>
      <trkpt lat="45.20824" lon="6.21157">
        <ele>2097</ele>
        <time>2014-08-10T10:39:47Z</time>
      </trkpt>
      <trkpt lat="45.20834" lon="6.21155">
        <ele>2100</ele>
        <time>2014-08-10T10:39:57Z</time>
      </trkpt>
      <trkpt lat="45.20843" lon="6.21149">
        <ele>2102</ele>
        <time>2014-08-10T10:40:07Z</time>
      </trkpt>
      <trkpt lat="45.20847" lon="6.21136">
        <ele>2105</ele>
        <time>2014-08-10T10:40:17Z</time>
      </trkpt>
      <trkpt lat="45.20844" lon="6.21123">
        <ele>2108</ele>
        <time>2014-08-10T10:40:27Z</time>
      </trkpt>
      <trkpt lat="45.20838" lon="6.21111">
        <ele>2109</ele>
        <time>2014-08-10T10:40:37Z</time>
      </trkpt>
      <trkpt lat="45.2083" lon="6.21102">
        <ele>2107</ele>
        <time>2014-08-10T10:40:49Z</time>
      </trkpt>
      <trkpt lat="45.20823" lon="6.21093">
        <ele>2109</ele>
        <time>2014-08-10T10:41:00Z</time>
      </trkpt>
      <trkpt lat="45.20814" lon="6.21087">
        <ele>2108</ele>
        <time>2014-08-10T10:41:08Z</time>
      </trkpt>
      <trkpt lat="45.20804" lon="6.21084">
        <ele>2106</ele>
        <time>2014-08-10T10:41:17Z</time>
      </trkpt>
      <trkpt lat="45.20794" lon="6.2108">
        <ele>2119</ele>
        <time>2014-08-10T10:41:27Z</time>
      </trkpt>
      <trkpt lat="45.20785" lon="6.21076">
        <ele>2118</ele>
        <time>2014-08-10T10:41:38Z</time>
      </trkpt>
      <trkpt lat="45.20776" lon="6.21072">
        <ele>2118</ele>
        <time>2014-08-10T10:41:48Z</time>
      </trkpt>
      <trkpt lat="45.20767" lon="6.21066">
        <ele>2117</ele>
        <time>2014-08-10T10:41:58Z</time>
      </trkpt>
      <trkpt lat="45.20758" lon="6.21062">
        <ele>2117</ele>
        <time>2014-08-10T10:42:06Z</time>
      </trkpt>
      <trkpt lat="45.20749" lon="6.21054">
        <ele>2114</ele>
        <time>2014-08-10T10:42:16Z</time>
      </trkpt>
      <trkpt lat="45.20742" lon="6.21045">
        <ele>2115</ele>
        <time>2014-08-10T10:42:24Z</time>
      </trkpt>
      <trkpt lat="45.20735" lon="6.21036">
        <ele>2116</ele>
        <time>2014-08-10T10:42:32Z</time>
      </trkpt>
      <trkpt lat="45.20729" lon="6.21024">
        <ele>2118</ele>
        <time>2014-08-10T10:42:40Z</time>
      </trkpt>
      <trkpt lat="45.20732" lon="6.21011">
        <ele>2121</ele>
        <time>2014-08-10T10:42:51Z</time>
      </trkpt>
      <trkpt lat="45.20736" lon="6.20997">
        <ele>2132</ele>
        <time>2014-08-10T10:43:02Z</time>
      </trkpt>
      <trkpt lat="45.20744" lon="6.20988">
        <ele>2132</ele>
        <time>2014-08-10T10:43:11Z</time>
      </trkpt>
      <trkpt lat="45.20754" lon="6.20986">
        <ele>2136</ele>
        <time>2014-08-10T10:43:21Z</time>
      </trkpt>
      <trkpt lat="45.20764" lon="6.20985">
        <ele>2138</ele>
        <time>2014-08-10T10:43:36Z</time>
      </trkpt>
      <trkpt lat="45.20773" lon="6.20983">
        <ele>2140</ele>
        <time>2014-08-10T10:43:50Z</time>
      </trkpt>
      <trkpt lat="45.20783" lon="6.20981">
        <ele>2141</ele>
        <time>2014-08-10T10:44:04Z</time>
      </trkpt>
      <trkpt lat="45.20792" lon="6.20978">
        <ele>2142</ele>
        <time>2014-08-10T10:44:18Z</time>
      </trkpt>
      <trkpt lat="45.20802" lon="6.20977">
        <ele>2143</ele>
        <time>2014-08-10T10:44:28Z</time>
      </trkpt>
      <trkpt lat="45.20811" lon="6.20979">
        <ele>2142</ele>
        <time>2014-08-10T10:44:46Z</time>
      </trkpt>
      <trkpt lat="45.20822" lon="6.20977">
        <ele>2142</ele>
        <time>2014-08-10T10:44:55Z</time>
      </trkpt>
      <trkpt lat="45.20832" lon="6.20975">
        <ele>2143</ele>
        <time>2014-08-10T10:45:06Z</time>
      </trkpt>
      <trkpt lat="45.20843" lon="6.20974">
        <ele>2142</ele>
        <time>2014-08-10T10:45:21Z</time>
      </trkpt>
      <trkpt lat="45.20852" lon="6.20969">
        <ele>2142</ele>
        <time>2014-08-10T10:45:35Z</time>
      </trkpt>
      <trkpt lat="45.2086" lon="6.20963">
        <ele>2143</ele>
        <time>2014-08-10T10:45:46Z</time>
      </trkpt>
      <trkpt lat="45.20868" lon="6.20955">
        <ele>2144</ele>
        <time>2014-08-10T10:45:57Z</time>
      </trkpt>
      <trkpt lat="45.20876" lon="6.20947">
        <ele>2144</ele>
        <time>2014-08-10T10:46:09Z</time>
      </trkpt>
      <trkpt lat="45.2087" lon="6.20936">
        <ele>2145</ele>
        <time>2014-08-10T10:46:28Z</time>
      </trkpt>
      <trkpt lat="45.20861" lon="6.20931">
        <ele>2147</ele>
        <time>2014-08-10T10:46:36Z</time>
      </trkpt>
      <trkpt lat="45.20852" lon="6.20927">
        <ele>2150</ele>
        <time>2014-08-10T10:46:45Z</time>
      </trkpt>
      <trkpt lat="45.20843" lon="6.20924">
        <ele>2153</ele>
        <time>2014-08-10T10:46:54Z</time>
      </trkpt>
      <trkpt lat="45.20834" lon="6.2092">
        <ele>2158</ele>
        <time>2014-08-10T10:47:04Z</time>
      </trkpt>
      <trkpt lat="45.20824" lon="6.20915">
        <ele>2160</ele>
        <time>2014-08-10T10:47:15Z</time>
      </trkpt>
      <trkpt lat="45.20816" lon="6.20906">
        <ele>2160</ele>
        <time>2014-08-10T10:47:24Z</time>
      </trkpt>
      <trkpt lat="45.20809" lon="6.20897">
        <ele>2160</ele>
        <time>2014-08-10T10:47:33Z</time>
      </trkpt>
      <trkpt lat="45.208" lon="6.2089">
        <ele>2160</ele>
        <time>2014-08-10T10:47:43Z</time>
      </trkpt>
      <trkpt lat="45.20791" lon="6.20883">
        <ele>2160</ele>
        <time>2014-08-10T10:47:51Z</time>
      </trkpt>
      <trkpt lat="45.20782" lon="6.20879">
        <ele>2160</ele>
        <time>2014-08-10T10:47:58Z</time>
      </trkpt>
      <trkpt lat="45.20773" lon="6.20875">
        <ele>2161</ele>
        <time>2014-08-10T10:48:06Z</time>
      </trkpt>
      <trkpt lat="45.20764" lon="6.2087">
        <ele>2162</ele>
        <time>2014-08-10T10:48:14Z</time>
      </trkpt>
      <trkpt lat="45.20754" lon="6.20865">
        <ele>2163</ele>
        <time>2014-08-10T10:48:23Z</time>
      </trkpt>
      <trkpt lat="45.20745" lon="6.2086">
        <ele>2163</ele>
        <time>2014-08-10T10:48:30Z</time>
      </trkpt>
      <trkpt lat="45.20736" lon="6.20854">
        <ele>2164</ele>
        <time>2014-08-10T10:48:38Z</time>
      </trkpt>
      <trkpt lat="45.20726" lon="6.20848">
        <ele>2164</ele>
        <time>2014-08-10T10:48:48Z</time>
      </trkpt>
      <trkpt lat="45.20717" lon="6.20844">
        <ele>2163</ele>
        <time>2014-08-10T10:48:55Z</time>
      </trkpt>
      <trkpt lat="45.20709" lon="6.20837">
        <ele>2163</ele>
        <time>2014-08-10T10:49:04Z</time>
      </trkpt>
      <trkpt lat="45.20701" lon="6.20829">
        <ele>2168</ele>
        <time>2014-08-10T10:49:09Z</time>
      </trkpt>
      <trkpt lat="45.20695" lon="6.20819">
        <ele>2168</ele>
        <time>2014-08-10T10:49:16Z</time>
      </trkpt>
      <trkpt lat="45.20689" lon="6.20809">
        <ele>2168</ele>
        <time>2014-08-10T10:49:22Z</time>
      </trkpt>
      <trkpt lat="45.2068" lon="6.208">
        <ele>2168</ele>
        <time>2014-08-10T10:49:29Z</time>
      </trkpt>
      <trkpt lat="45.20676" lon="6.20785">
        <ele>2168</ele>
        <time>2014-08-10T10:49:33Z</time>
      </trkpt>
      <trkpt lat="45.20669" lon="6.20773">
        <ele>2170</ele>
        <time>2014-08-10T10:49:37Z</time>
      </trkpt>
      <trkpt lat="45.20658" lon="6.20759">
        <ele>2174</ele>
        <time>2014-08-10T10:49:40Z</time>
      </trkpt>
      <trkpt lat="45.20649" lon="6.20749">
        <ele>2171</ele>
        <time>2014-08-10T10:49:42Z</time>
      </trkpt>
      <trkpt lat="45.20642" lon="6.20739">
        <ele>2170</ele>
        <time>2014-08-10T10:49:44Z</time>
      </trkpt>
      <trkpt lat="45.20635" lon="6.20727">
        <ele>2169</ele>
        <time>2014-08-10T10:49:46Z</time>
      </trkpt>
      <trkpt lat="45.20627" lon="6.20713">
        <ele>2168</ele>
        <time>2014-08-10T10:49:48Z</time>
      </trkpt>
      <trkpt lat="45.20619" lon="6.20698">
        <ele>2167</ele>
        <time>2014-08-10T10:49:50Z</time>
      </trkpt>
      <trkpt lat="45.20609" lon="6.20682">
        <ele>2167</ele>
        <time>2014-08-10T10:49:52Z</time>
      </trkpt>
      <trkpt lat="45.20599" lon="6.20664">
        <ele>2153</ele>
        <time>2014-08-10T10:49:54Z</time>
      </trkpt>
      <trkpt lat="45.20588" lon="6.20646">
        <ele>2149</ele>
        <time>2014-08-10T10:49:56Z</time>
      </trkpt>
      <trkpt lat="45.20576" lon="6.20631">
        <ele>2159</ele>
        <time>2014-08-10T10:49:58Z</time>
      </trkpt>
      <trkpt lat="45.20564" lon="6.20619">
        <ele>2157</ele>
        <time>2014-08-10T10:50:00Z</time>
      </trkpt>
      <trkpt lat="45.20553" lon="6.20609">
        <ele>2156</ele>
        <time>2014-08-10T10:50:02Z</time>
      </trkpt>
      <trkpt lat="45.2054" lon="6.20599">
        <ele>2158</ele>
        <time>2014-08-10T10:50:04Z</time>
      </trkpt>
      <trkpt lat="45.20526" lon="6.20589">
        <ele>2159</ele>
        <time>2014-08-10T10:50:06Z</time>
      </trkpt>
      <trkpt lat="45.20514" lon="6.20581">
        <ele>2148</ele>
        <time>2014-08-10T10:50:08Z</time>
      </trkpt>
      <trkpt lat="45.20503" lon="6.20571">
        <ele>2148</ele>
        <time>2014-08-10T10:50:10Z</time>
      </trkpt>
      <trkpt lat="45.20491" lon="6.2056">
        <ele>2152</ele>
        <time>2014-08-10T10:50:12Z</time>
      </trkpt>
      <trkpt lat="45.2048" lon="6.20551">
        <ele>2150</ele>
        <time>2014-08-10T10:50:14Z</time>
      </trkpt>
      <trkpt lat="45.2047" lon="6.20542">
        <ele>2148</ele>
        <time>2014-08-10T10:50:16Z</time>
      </trkpt>
      <trkpt lat="45.20459" lon="6.20532">
        <ele>2147</ele>
        <time>2014-08-10T10:50:18Z</time>
      </trkpt>
      <trkpt lat="45.20448" lon="6.20522">
        <ele>2145</ele>
        <time>2014-08-10T10:50:20Z</time>
      </trkpt>
      <trkpt lat="45.20433" lon="6.20514">
        <ele>2144</ele>
        <time>2014-08-10T10:50:22Z</time>
      </trkpt>
      <trkpt lat="45.20418" lon="6.20508">
        <ele>2141</ele>
        <time>2014-08-10T10:50:24Z</time>
      </trkpt>
      <trkpt lat="45.20402" lon="6.20504">
        <ele>2144</ele>
        <time>2014-08-10T10:50:26Z</time>
      </trkpt>
      <trkpt lat="45.20386" lon="6.20502">
        <ele>2146</ele>
        <time>2014-08-10T10:50:28Z</time>
      </trkpt>
      <trkpt lat="45.20371" lon="6.20501">
        <ele>2146</ele>
        <time>2014-08-10T10:50:30Z</time>
      </trkpt>
      <trkpt lat="45.20357" lon="6.20497">
        <ele>2131</ele>
        <time>2014-08-10T10:50:32Z</time>
      </trkpt>
      <trkpt lat="45.20346" lon="6.20492">
        <ele>2132</ele>
        <time>2014-08-10T10:50:34Z</time>
      </trkpt>
      <trkpt lat="45.20334" lon="6.20483">
        <ele>2131</ele>
        <time>2014-08-10T10:50:37Z</time>
      </trkpt>
      <trkpt lat="45.20326" lon="6.20476">
        <ele>2130</ele>
        <time>2014-08-10T10:50:39Z</time>
      </trkpt>
      <trkpt lat="45.20313" lon="6.20465">
        <ele>2127</ele>
        <time>2014-08-10T10:50:42Z</time>
      </trkpt>
      <trkpt lat="45.20303" lon="6.20455">
        <ele>2126</ele>
        <time>2014-08-10T10:50:44Z</time>
      </trkpt>
      <trkpt lat="45.20296" lon="6.20446">
        <ele>2124</ele>
        <time>2014-08-10T10:50:46Z</time>
      </trkpt>
      <trkpt lat="45.20285" lon="6.20435">
        <ele>2123</ele>
        <time>2014-08-10T10:50:49Z</time>
      </trkpt>
      <trkpt lat="45.20277" lon="6.20427">
        <ele>2122</ele>
        <time>2014-08-10T10:50:51Z</time>
      </trkpt>
      <trkpt lat="45.20267" lon="6.20417">
        <ele>2119</ele>
        <time>2014-08-10T10:50:53Z</time>
      </trkpt>
      <trkpt lat="45.20253" lon="6.20408">
        <ele>2109</ele>
        <time>2014-08-10T10:50:55Z</time>
      </trkpt>
      <trkpt lat="45.20239" lon="6.204">
        <ele>2109</ele>
        <time>2014-08-10T10:50:57Z</time>
      </trkpt>
      <trkpt lat="45.20225" lon="6.20391">
        <ele>2107</ele>
        <time>2014-08-10T10:50:59Z</time>
      </trkpt>
      <trkpt lat="45.20214" lon="6.2038">
        <ele>2106</ele>
        <time>2014-08-10T10:51:01Z</time>
      </trkpt>
      <trkpt lat="45.20203" lon="6.2037">
        <ele>2105</ele>
        <time>2014-08-10T10:51:03Z</time>
      </trkpt>
      <trkpt lat="45.20192" lon="6.20361">
        <ele>2104</ele>
        <time>2014-08-10T10:51:05Z</time>
      </trkpt>
      <trkpt lat="45.20183" lon="6.20349">
        <ele>2102</ele>
        <time>2014-08-10T10:51:07Z</time>
      </trkpt>
      <trkpt lat="45.20176" lon="6.20334">
        <ele>2099</ele>
        <time>2014-08-10T10:51:09Z</time>
      </trkpt>
      <trkpt lat="45.20168" lon="6.20322">
        <ele>2092</ele>
        <time>2014-08-10T10:51:11Z</time>
      </trkpt>
      <trkpt lat="45.2016" lon="6.20312">
        <ele>2094</ele>
        <time>2014-08-10T10:51:13Z</time>
      </trkpt>
      <trkpt lat="45.20151" lon="6.20301">
        <ele>2093</ele>
        <time>2014-08-10T10:51:15Z</time>
      </trkpt>
      <trkpt lat="45.2014" lon="6.20292">
        <ele>2092</ele>
        <time>2014-08-10T10:51:17Z</time>
      </trkpt>
      <trkpt lat="45.20127" lon="6.20283">
        <ele>2092</ele>
        <time>2014-08-10T10:51:19Z</time>
      </trkpt>
      <trkpt lat="45.20115" lon="6.20273">
        <ele>2091</ele>
        <time>2014-08-10T10:51:21Z</time>
      </trkpt>
      <trkpt lat="45.20103" lon="6.20262">
        <ele>2090</ele>
        <time>2014-08-10T10:51:23Z</time>
      </trkpt>
      <trkpt lat="45.20091" lon="6.20245">
        <ele>2085</ele>
        <time>2014-08-10T10:51:25Z</time>
      </trkpt>
      <trkpt lat="45.20079" lon="6.20228">
        <ele>2087</ele>
        <time>2014-08-10T10:51:27Z</time>
      </trkpt>
      <trkpt lat="45.20067" lon="6.20211">
        <ele>2088</ele>
        <time>2014-08-10T10:51:29Z</time>
      </trkpt>
      <trkpt lat="45.20059" lon="6.20197">
        <ele>2088</ele>
        <time>2014-08-10T10:51:31Z</time>
      </trkpt>
      <trkpt lat="45.20053" lon="6.20187">
        <ele>2087</ele>
        <time>2014-08-10T10:51:33Z</time>
      </trkpt>
      <trkpt lat="45.20046" lon="6.20175">
        <ele>2088</ele>
        <time>2014-08-10T10:51:37Z</time>
      </trkpt>
      <trkpt lat="45.20041" lon="6.20163">
        <ele>2088</ele>
        <time>2014-08-10T10:51:45Z</time>
      </trkpt>
      <trkpt lat="45.20039" lon="6.20149">
        <ele>2089</ele>
        <time>2014-08-10T10:51:53Z</time>
      </trkpt>
      <trkpt lat="45.20037" lon="6.20136">
        <ele>2089</ele>
        <time>2014-08-10T10:52:00Z</time>
      </trkpt>
      <trkpt lat="45.20036" lon="6.20122">
        <ele>2090</ele>
        <time>2014-08-10T10:52:09Z</time>
      </trkpt>
      <trkpt lat="45.20042" lon="6.20112">
        <ele>2090</ele>
        <time>2014-08-10T10:52:17Z</time>
      </trkpt>
      <trkpt lat="45.2005" lon="6.20103">
        <ele>2091</ele>
        <time>2014-08-10T10:52:26Z</time>
      </trkpt>
      <trkpt lat="45.20058" lon="6.20096">
        <ele>2091</ele>
        <time>2014-08-10T10:52:36Z</time>
      </trkpt>
      <trkpt lat="45.20067" lon="6.20089">
        <ele>2092</ele>
        <time>2014-08-10T10:52:47Z</time>
      </trkpt>
      <trkpt lat="45.20076" lon="6.20083">
        <ele>2096</ele>
        <time>2014-08-10T10:52:57Z</time>
      </trkpt>
      <trkpt lat="45.20084" lon="6.20076">
        <ele>2096</ele>
        <time>2014-08-10T10:53:07Z</time>
      </trkpt>
      <trkpt lat="45.20093" lon="6.20072">
        <ele>2098</ele>
        <time>2014-08-10T10:53:16Z</time>
      </trkpt>
      <trkpt lat="45.20103" lon="6.2007">
        <ele>2099</ele>
        <time>2014-08-10T10:53:26Z</time>
      </trkpt>
      <trkpt lat="45.20112" lon="6.20065">
        <ele>2100</ele>
        <time>2014-08-10T10:53:39Z</time>
      </trkpt>
      <trkpt lat="45.2012" lon="6.20058">
        <ele>2101</ele>
        <time>2014-08-10T10:53:50Z</time>
      </trkpt>
      <trkpt lat="45.20128" lon="6.2005">
        <ele>2102</ele>
        <time>2014-08-10T10:54:00Z</time>
      </trkpt>
      <trkpt lat="45.20137" lon="6.20046">
        <ele>2102</ele>
        <time>2014-08-10T10:54:10Z</time>
      </trkpt>
      <trkpt lat="45.20146" lon="6.20041">
        <ele>2103</ele>
        <time>2014-08-10T10:54:20Z</time>
      </trkpt>
      <trkpt lat="45.20155" lon="6.20037">
        <ele>2104</ele>
        <time>2014-08-10T10:54:30Z</time>
      </trkpt>
      <trkpt lat="45.20164" lon="6.20032">
        <ele>2105</ele>
        <time>2014-08-10T10:54:41Z</time>
      </trkpt>
      <trkpt lat="45.20172" lon="6.20024">
        <ele>2104</ele>
        <time>2014-08-10T10:54:51Z</time>
      </trkpt>
      <trkpt lat="45.2018" lon="6.20016">
        <ele>2105</ele>
        <time>2014-08-10T10:54:59Z</time>
      </trkpt>
      <trkpt lat="45.20187" lon="6.20006">
        <ele>2105</ele>
        <time>2014-08-10T10:55:09Z</time>
      </trkpt>
      <trkpt lat="45.20195" lon="6.19998">
        <ele>2114</ele>
        <time>2014-08-10T10:55:19Z</time>
      </trkpt>
      <trkpt lat="45.20202" lon="6.19989">
        <ele>2114</ele>
        <time>2014-08-10T10:55:28Z</time>
      </trkpt>
      <trkpt lat="45.20209" lon="6.1998">
        <ele>2114</ele>
        <time>2014-08-10T10:55:37Z</time>
      </trkpt>
      <trkpt lat="45.20214" lon="6.19968">
        <ele>2115</ele>
        <time>2014-08-10T10:55:45Z</time>
      </trkpt>
      <trkpt lat="45.2022" lon="6.19957">
        <ele>2115</ele>
        <time>2014-08-10T10:55:59Z</time>
      </trkpt>
      <trkpt lat="45.20225" lon="6.19945">
        <ele>2116</ele>
        <time>2014-08-10T10:56:12Z</time>
      </trkpt>
      <trkpt lat="45.20225" lon="6.19932">
        <ele>2117</ele>
        <time>2014-08-10T10:56:43Z</time>
      </trkpt>
      <trkpt lat="45.20227" lon="6.19918">
        <ele>2118</ele>
        <time>2014-08-10T10:57:02Z</time>
      </trkpt>
      <trkpt lat="45.20227" lon="6.19905">
        <ele>2126</ele>
        <time>2014-08-10T10:57:21Z</time>
      </trkpt>
      <trkpt lat="45.20228" lon="6.19891">
        <ele>2128</ele>
        <time>2014-08-10T10:57:34Z</time>
      </trkpt>
      <trkpt lat="45.2023" lon="6.19877">
        <ele>2129</ele>
        <time>2014-08-10T10:57:45Z</time>
      </trkpt>
      <trkpt lat="45.20234" lon="6.19864">
        <ele>2131</ele>
        <time>2014-08-10T10:58:00Z</time>
      </trkpt>
      <trkpt lat="45.20235" lon="6.19849">
        <ele>2132</ele>
        <time>2014-08-10T10:58:17Z</time>
      </trkpt>
      <trkpt lat="45.20239" lon="6.19837">
        <ele>2133</ele>
        <time>2014-08-10T10:58:33Z</time>
      </trkpt>
      <trkpt lat="45.20241" lon="6.19824">
        <ele>2138</ele>
        <time>2014-08-10T10:58:46Z</time>
      </trkpt>
      <trkpt lat="45.20243" lon="6.19811">
        <ele>2140</ele>
        <time>2014-08-10T10:59:16Z</time>
      </trkpt>
      <trkpt lat="45.20244" lon="6.19797">
        <ele>2143</ele>
        <time>2014-08-10T10:59:32Z</time>
      </trkpt>
      <trkpt lat="45.20247" lon="6.19785">
        <ele>2144</ele>
        <time>2014-08-10T10:59:46Z</time>
      </trkpt>
      <trkpt lat="45.20246" lon="6.19771">
        <ele>2146</ele>
        <time>2014-08-10T11:00:03Z</time>
      </trkpt>
      <trkpt lat="45.20247" lon="6.19758">
        <ele>2149</ele>
        <time>2014-08-10T11:00:18Z</time>
      </trkpt>
      <trkpt lat="45.20248" lon="6.19744">
        <ele>2152</ele>
        <time>2014-08-10T11:00:35Z</time>
      </trkpt>
      <trkpt lat="45.20247" lon="6.19731">
        <ele>2155</ele>
        <time>2014-08-10T11:00:53Z</time>
      </trkpt>
      <trkpt lat="45.20245" lon="6.19717">
        <ele>2157</ele>
        <time>2014-08-10T11:01:10Z</time>
      </trkpt>
      <trkpt lat="45.20241" lon="6.19705">
        <ele>2159</ele>
        <time>2014-08-10T11:01:23Z</time>
      </trkpt>
      <trkpt lat="45.20237" lon="6.19693">
        <ele>2160</ele>
        <time>2014-08-10T11:01:37Z</time>
      </trkpt>
      <trkpt lat="45.20233" lon="6.1968">
        <ele>2162</ele>
        <time>2014-08-10T11:01:56Z</time>
      </trkpt>
      <trkpt lat="45.2023" lon="6.19668">
        <ele>2163</ele>
        <time>2014-08-10T11:02:11Z</time>
      </trkpt>
      <trkpt lat="45.20235" lon="6.19657">
        <ele>2169</ele>
        <time>2014-08-10T11:02:35Z</time>
      </trkpt>
      <trkpt lat="45.20244" lon="6.19653">
        <ele>2170</ele>
        <time>2014-08-10T11:02:48Z</time>
      </trkpt>
      <trkpt lat="45.20253" lon="6.19659">
        <ele>2174</ele>
        <time>2014-08-10T11:03:01Z</time>
      </trkpt>
      <trkpt lat="45.20262" lon="6.19662">
        <ele>2176</ele>
        <time>2014-08-10T11:03:10Z</time>
      </trkpt>
      <trkpt lat="45.20271" lon="6.19666">
        <ele>2178</ele>
        <time>2014-08-10T11:03:18Z</time>
      </trkpt>
      <trkpt lat="45.2028" lon="6.19669">
        <ele>2171</ele>
        <time>2014-08-10T11:03:26Z</time>
      </trkpt>
      <trkpt lat="45.20289" lon="6.19673">
        <ele>2172</ele>
        <time>2014-08-10T11:03:36Z</time>
      </trkpt>
      <trkpt lat="45.20298" lon="6.19679">
        <ele>2173</ele>
        <time>2014-08-10T11:03:49Z</time>
      </trkpt>
      <trkpt lat="45.20306" lon="6.19686">
        <ele>2174</ele>
        <time>2014-08-10T11:04:06Z</time>
      </trkpt>
      <trkpt lat="45.20315" lon="6.1969">
        <ele>2174</ele>
        <time>2014-08-10T11:04:18Z</time>
      </trkpt>
      <trkpt lat="45.20324" lon="6.19697">
        <ele>2174</ele>
        <time>2014-08-10T11:04:28Z</time>
      </trkpt>
      <trkpt lat="45.20333" lon="6.19701">
        <ele>2173</ele>
        <time>2014-08-10T11:04:37Z</time>
      </trkpt>
      <trkpt lat="45.20341" lon="6.19705">
        <ele>2183</ele>
        <time>2014-08-10T11:04:47Z</time>
      </trkpt>
      <trkpt lat="45.2035" lon="6.19708">
        <ele>2183</ele>
        <time>2014-08-10T11:04:57Z</time>
      </trkpt>
      <trkpt lat="45.20359" lon="6.19715">
        <ele>2182</ele>
        <time>2014-08-10T11:05:07Z</time>
      </trkpt>
      <trkpt lat="45.20369" lon="6.19718">
        <ele>2183</ele>
        <time>2014-08-10T11:05:23Z</time>
      </trkpt>
      <trkpt lat="45.20378" lon="6.19721">
        <ele>2184</ele>
        <time>2014-08-10T11:05:30Z</time>
      </trkpt>
      <trkpt lat="45.20388" lon="6.19724">
        <ele>2184</ele>
        <time>2014-08-10T11:05:38Z</time>
      </trkpt>
      <trkpt lat="45.20398" lon="6.19724">
        <ele>2185</ele>
        <time>2014-08-10T11:05:48Z</time>
      </trkpt>
      <trkpt lat="45.20408" lon="6.19728">
        <ele>2185</ele>
        <time>2014-08-10T11:05:58Z</time>
      </trkpt>
      <trkpt lat="45.20418" lon="6.19726">
        <ele>2190</ele>
        <time>2014-08-10T11:06:06Z</time>
      </trkpt>
      <trkpt lat="45.20428" lon="6.19725">
        <ele>2190</ele>
        <time>2014-08-10T11:06:14Z</time>
      </trkpt>
      <trkpt lat="45.20437" lon="6.19727">
        <ele>2191</ele>
        <time>2014-08-10T11:06:23Z</time>
      </trkpt>
      <trkpt lat="45.20447" lon="6.19724">
        <ele>2191</ele>
        <time>2014-08-10T11:06:32Z</time>
      </trkpt>
      <trkpt lat="45.20456" lon="6.19717">
        <ele>2192</ele>
        <time>2014-08-10T11:06:40Z</time>
      </trkpt>
      <trkpt lat="45.20465" lon="6.1971">
        <ele>2193</ele>
        <time>2014-08-10T11:06:47Z</time>
      </trkpt>
      <trkpt lat="45.20471" lon="6.19699">
        <ele>2194</ele>
        <time>2014-08-10T11:06:55Z</time>
      </trkpt>
      <trkpt lat="45.20475" lon="6.19686">
        <ele>2196</ele>
        <time>2014-08-10T11:07:03Z</time>
      </trkpt>
      <trkpt lat="45.20479" lon="6.19671">
        <ele>2197</ele>
        <time>2014-08-10T11:07:09Z</time>
      </trkpt>
      <trkpt lat="45.20484" lon="6.19658">
        <ele>2203</ele>
        <time>2014-08-10T11:07:15Z</time>
      </trkpt>
      <trkpt lat="45.20491" lon="6.19646">
        <ele>2204</ele>
        <time>2014-08-10T11:07:20Z</time>
      </trkpt>
      <trkpt lat="45.20496" lon="6.19635">
        <ele>2204</ele>
        <time>2014-08-10T11:07:26Z</time>
      </trkpt>
      <trkpt lat="45.205" lon="6.19621">
        <ele>2208</ele>
        <time>2014-08-10T11:07:32Z</time>
      </trkpt>
      <trkpt lat="45.20502" lon="6.19608">
        <ele>2208</ele>
        <time>2014-08-10T11:07:40Z</time>
      </trkpt>
      <trkpt lat="45.20506" lon="6.19594">
        <ele>2208</ele>
        <time>2014-08-10T11:07:48Z</time>
      </trkpt>
      <trkpt lat="45.20514" lon="6.19585">
        <ele>2208</ele>
        <time>2014-08-10T11:07:55Z</time>
      </trkpt>
      <trkpt lat="45.20521" lon="6.19576">
        <ele>2211</ele>
        <time>2014-08-10T11:08:02Z</time>
      </trkpt>
      <trkpt lat="45.20532" lon="6.19573">
        <ele>2213</ele>
        <time>2014-08-10T11:08:25Z</time>
      </trkpt>
      <trkpt lat="45.20542" lon="6.19574">
        <ele>2214</ele>
        <time>2014-08-10T11:08:41Z</time>
      </trkpt>
      <trkpt lat="45.2055" lon="6.19581">
        <ele>2215</ele>
        <time>2014-08-10T11:09:07Z</time>
      </trkpt>
      <trkpt lat="45.20559" lon="6.19585">
        <ele>2213</ele>
        <time>2014-08-10T11:09:24Z</time>
      </trkpt>
      <trkpt lat="45.20568" lon="6.19584">
        <ele>2215</ele>
        <time>2014-08-10T11:09:50Z</time>
      </trkpt>
      <trkpt lat="45.20578" lon="6.19582">
        <ele>2218</ele>
        <time>2014-08-10T11:10:05Z</time>
      </trkpt>
      <trkpt lat="45.20587" lon="6.19582">
        <ele>2220</ele>
        <time>2014-08-10T11:10:17Z</time>
      </trkpt>
      <trkpt lat="45.20596" lon="6.19585">
        <ele>2219</ele>
        <time>2014-08-10T11:10:37Z</time>
      </trkpt>
      <trkpt lat="45.20605" lon="6.1959">
        <ele>2219</ele>
        <time>2014-08-10T11:10:50Z</time>
      </trkpt>
      <trkpt lat="45.20615" lon="6.19595">
        <ele>2219</ele>
        <time>2014-08-10T11:11:02Z</time>
      </trkpt>
      <trkpt lat="45.20625" lon="6.196">
        <ele>2220</ele>
        <time>2014-08-10T11:11:35Z</time>
      </trkpt>
      <trkpt lat="45.20634" lon="6.19606">
        <ele>2220</ele>
        <time>2014-08-10T11:11:39Z</time>
      </trkpt>
      <trkpt lat="45.20643" lon="6.1961">
        <ele>2220</ele>
        <time>2014-08-10T11:11:42Z</time>
      </trkpt>
      <trkpt lat="45.20655" lon="6.19615">
        <ele>2220</ele>
        <time>2014-08-10T11:11:45Z</time>
      </trkpt>
      <trkpt lat="45.20667" lon="6.19617">
        <ele>2221</ele>
        <time>2014-08-10T11:11:48Z</time>
      </trkpt>
      <trkpt lat="45.20677" lon="6.19619">
        <ele>2221</ele>
        <time>2014-08-10T11:11:50Z</time>
      </trkpt>
      <trkpt lat="45.20692" lon="6.19623">
        <ele>2221</ele>
        <time>2014-08-10T11:11:52Z</time>
      </trkpt>
      <trkpt lat="45.20707" lon="6.19626">
        <ele>2221</ele>
        <time>2014-08-10T11:11:54Z</time>
      </trkpt>
      <trkpt lat="45.20719" lon="6.19629">
        <ele>2221</ele>
        <time>2014-08-10T11:11:56Z</time>
      </trkpt>
      <trkpt lat="45.20733" lon="6.19634">
        <ele>2220</ele>
        <time>2014-08-10T11:11:58Z</time>
      </trkpt>
      <trkpt lat="45.20745" lon="6.1964">
        <ele>2220</ele>
        <time>2014-08-10T11:12:00Z</time>
      </trkpt>
      <trkpt lat="45.20761" lon="6.19647">
        <ele>2217</ele>
        <time>2014-08-10T11:12:02Z</time>
      </trkpt>
      <trkpt lat="45.20779" lon="6.19653">
        <ele>2216</ele>
        <time>2014-08-10T11:12:04Z</time>
      </trkpt>
      <trkpt lat="45.20789" lon="6.19654">
        <ele>2215</ele>
        <time>2014-08-10T11:12:05Z</time>
      </trkpt>
      <trkpt lat="45.20798" lon="6.19656">
        <ele>2215</ele>
        <time>2014-08-10T11:12:06Z</time>
      </trkpt>
      <trkpt lat="45.20808" lon="6.19659">
        <ele>2214</ele>
        <time>2014-08-10T11:12:07Z</time>
      </trkpt>
      <trkpt lat="45.20824" lon="6.1966">
        <ele>2212</ele>
        <time>2014-08-10T11:12:09Z</time>
      </trkpt>
      <trkpt lat="45.20839" lon="6.19655">
        <ele>2209</ele>
        <time>2014-08-10T11:12:11Z</time>
      </trkpt>
      <trkpt lat="45.20851" lon="6.19645">
        <ele>2208</ele>
        <time>2014-08-10T11:12:13Z</time>
      </trkpt>
      <trkpt lat="45.2086" lon="6.19638">
        <ele>2208</ele>
        <time>2014-08-10T11:12:15Z</time>
      </trkpt>
      <trkpt lat="45.2087" lon="6.19633">
        <ele>2208</ele>
        <time>2014-08-10T11:12:17Z</time>
      </trkpt>
      <trkpt lat="45.20881" lon="6.19627">
        <ele>2208</ele>
        <time>2014-08-10T11:12:19Z</time>
      </trkpt>
      <trkpt lat="45.2089" lon="6.19624">
        <ele>2207</ele>
        <time>2014-08-10T11:12:21Z</time>
      </trkpt>
      <trkpt lat="45.20903" lon="6.1962">
        <ele>2207</ele>
        <time>2014-08-10T11:12:24Z</time>
      </trkpt>
      <trkpt lat="45.20915" lon="6.1962">
        <ele>2207</ele>
        <time>2014-08-10T11:12:27Z</time>
      </trkpt>
      <trkpt lat="45.20926" lon="6.19624">
        <ele>2202</ele>
        <time>2014-08-10T11:12:30Z</time>
      </trkpt>
      <trkpt lat="45.2094" lon="6.19626">
        <ele>2202</ele>
        <time>2014-08-10T11:12:33Z</time>
      </trkpt>
      <trkpt lat="45.20949" lon="6.19626">
        <ele>2201</ele>
        <time>2014-08-10T11:12:35Z</time>
      </trkpt>
      <trkpt lat="45.20962" lon="6.19629">
        <ele>2200</ele>
        <time>2014-08-10T11:12:37Z</time>
      </trkpt>
      <trkpt lat="45.20977" lon="6.19639">
        <ele>2198</ele>
        <time>2014-08-10T11:12:39Z</time>
      </trkpt>
      <trkpt lat="45.20985" lon="6.19646">
        <ele>2196</ele>
        <time>2014-08-10T11:12:40Z</time>
      </trkpt>
      <trkpt lat="45.20998" lon="6.1966">
        <ele>2191</ele>
        <time>2014-08-10T11:12:42Z</time>
      </trkpt>
      <trkpt lat="45.21009" lon="6.19669">
        <ele>2185</ele>
        <time>2014-08-10T11:12:44Z</time>
      </trkpt>
      <trkpt lat="45.2102" lon="6.1967">
        <ele>2184</ele>
        <time>2014-08-10T11:12:46Z</time>
      </trkpt>
      <trkpt lat="45.2103" lon="6.19664">
        <ele>2190</ele>
        <time>2014-08-10T11:12:49Z</time>
      </trkpt>
      <trkpt lat="45.21037" lon="6.19656">
        <ele>2191</ele>
        <time>2014-08-10T11:12:52Z</time>
      </trkpt>
      <trkpt lat="45.21046" lon="6.1965">
        <ele>2191</ele>
        <time>2014-08-10T11:12:55Z</time>
      </trkpt>
      <trkpt lat="45.21057" lon="6.19643">
        <ele>2191</ele>
        <time>2014-08-10T11:12:58Z</time>
      </trkpt>
      <trkpt lat="45.21067" lon="6.1964">
        <ele>2190</ele>
        <time>2014-08-10T11:13:00Z</time>
      </trkpt>
      <trkpt lat="45.21079" lon="6.19636">
        <ele>2190</ele>
        <time>2014-08-10T11:13:03Z</time>
      </trkpt>
      <trkpt lat="45.21091" lon="6.19632">
        <ele>2184</ele>
        <time>2014-08-10T11:13:06Z</time>
      </trkpt>
      <trkpt lat="45.21105" lon="6.19631">
        <ele>2184</ele>
        <time>2014-08-10T11:13:09Z</time>
      </trkpt>
      <trkpt lat="45.21117" lon="6.19631">
        <ele>2183</ele>
        <time>2014-08-10T11:13:12Z</time>
      </trkpt>
      <trkpt lat="45.21128" lon="6.19635">
        <ele>2182</ele>
        <time>2014-08-10T11:13:15Z</time>
      </trkpt>
      <trkpt lat="45.21135" lon="6.19644">
        <ele>2180</ele>
        <time>2014-08-10T11:13:18Z</time>
      </trkpt>
      <trkpt lat="45.21149" lon="6.19646">
        <ele>2178</ele>
        <time>2014-08-10T11:13:22Z</time>
      </trkpt>
      <trkpt lat="45.21161" lon="6.19646">
        <ele>2177</ele>
        <time>2014-08-10T11:13:26Z</time>
      </trkpt>
      <trkpt lat="45.21174" lon="6.19643">
        <ele>2171</ele>
        <time>2014-08-10T11:13:29Z</time>
      </trkpt>
      <trkpt lat="45.21185" lon="6.19636">
        <ele>2171</ele>
        <time>2014-08-10T11:13:31Z</time>
      </trkpt>
      <trkpt lat="45.21195" lon="6.19626">
        <ele>2172</ele>
        <time>2014-08-10T11:13:33Z</time>
      </trkpt>
      <trkpt lat="45.21204" lon="6.19621">
        <ele>2172</ele>
        <time>2014-08-10T11:13:35Z</time>
      </trkpt>
      <trkpt lat="45.21218" lon="6.19619">
        <ele>2171</ele>
        <time>2014-08-10T11:13:38Z</time>
      </trkpt>
      <trkpt lat="45.21229" lon="6.19618">
        <ele>2171</ele>
        <time>2014-08-10T11:13:40Z</time>
      </trkpt>
      <trkpt lat="45.21239" lon="6.19611">
        <ele>2172</ele>
        <time>2014-08-10T11:13:42Z</time>
      </trkpt>
      <trkpt lat="45.2125" lon="6.19603">
        <ele>2173</ele>
        <time>2014-08-10T11:13:44Z</time>
      </trkpt>
      <trkpt lat="45.21258" lon="6.19598">
        <ele>2173</ele>
        <time>2014-08-10T11:13:46Z</time>
      </trkpt>
      <trkpt lat="45.21271" lon="6.196">
        <ele>2173</ele>
        <time>2014-08-10T11:13:49Z</time>
      </trkpt>
      <trkpt lat="45.21282" lon="6.19613">
        <ele>2172</ele>
        <time>2014-08-10T11:13:52Z</time>
      </trkpt>
      <trkpt lat="45.21291" lon="6.19622">
        <ele>2171</ele>
        <time>2014-08-10T11:13:54Z</time>
      </trkpt>
      <trkpt lat="45.213" lon="6.19629">
        <ele>2171</ele>
        <time>2014-08-10T11:13:56Z</time>
      </trkpt>
      <trkpt lat="45.21307" lon="6.19639">
        <ele>2169</ele>
        <time>2014-08-10T11:13:58Z</time>
      </trkpt>
      <trkpt lat="45.21312" lon="6.19653">
        <ele>2167</ele>
        <time>2014-08-10T11:14:01Z</time>
      </trkpt>
      <trkpt lat="45.21318" lon="6.1967">
        <ele>2156</ele>
        <time>2014-08-10T11:14:04Z</time>
      </trkpt>
      <trkpt lat="45.21324" lon="6.19684">
        <ele>2155</ele>
        <time>2014-08-10T11:14:07Z</time>
      </trkpt>
      <trkpt lat="45.2133" lon="6.19697">
        <ele>2152</ele>
        <time>2014-08-10T11:14:10Z</time>
      </trkpt>
      <trkpt lat="45.21337" lon="6.19712">
        <ele>2156</ele>
        <time>2014-08-10T11:14:13Z</time>
      </trkpt>
      <trkpt lat="45.21341" lon="6.19725">
        <ele>2153</ele>
        <time>2014-08-10T11:14:16Z</time>
      </trkpt>
      <trkpt lat="45.2134" lon="6.19743">
        <ele>2146</ele>
        <time>2014-08-10T11:14:19Z</time>
      </trkpt>
      <trkpt lat="45.21338" lon="6.19757">
        <ele>2139</ele>
        <time>2014-08-10T11:14:22Z</time>
      </trkpt>
      <trkpt lat="45.2134" lon="6.19773">
        <ele>2138</ele>
        <time>2014-08-10T11:14:25Z</time>
      </trkpt>
      <trkpt lat="45.21349" lon="6.1979">
        <ele>2136</ele>
        <time>2014-08-10T11:14:28Z</time>
      </trkpt>
      <trkpt lat="45.21356" lon="6.198">
        <ele>2135</ele>
        <time>2014-08-10T11:14:30Z</time>
      </trkpt>
      <trkpt lat="45.21366" lon="6.19807">
        <ele>2135</ele>
        <time>2014-08-10T11:14:32Z</time>
      </trkpt>
      <trkpt lat="45.21378" lon="6.19812">
        <ele>2136</ele>
        <time>2014-08-10T11:14:34Z</time>
      </trkpt>
      <trkpt lat="45.2139" lon="6.19817">
        <ele>2136</ele>
        <time>2014-08-10T11:14:36Z</time>
      </trkpt>
      <trkpt lat="45.21401" lon="6.19822">
        <ele>2136</ele>
        <time>2014-08-10T11:14:38Z</time>
      </trkpt>
      <trkpt lat="45.2141" lon="6.19826">
        <ele>2135</ele>
        <time>2014-08-10T11:14:40Z</time>
      </trkpt>
      <trkpt lat="45.21422" lon="6.1983">
        <ele>2138</ele>
        <time>2014-08-10T11:14:43Z</time>
      </trkpt>
      <trkpt lat="45.21431" lon="6.1984">
        <ele>2133</ele>
        <time>2014-08-10T11:14:46Z</time>
      </trkpt>
      <trkpt lat="45.21437" lon="6.19853">
        <ele>2133</ele>
        <time>2014-08-10T11:14:48Z</time>
      </trkpt>
      <trkpt lat="45.21444" lon="6.1987">
        <ele>2132</ele>
        <time>2014-08-10T11:14:50Z</time>
      </trkpt>
      <trkpt lat="45.21451" lon="6.19891">
        <ele>2131</ele>
        <time>2014-08-10T11:14:52Z</time>
      </trkpt>
      <trkpt lat="45.21457" lon="6.19912">
        <ele>2130</ele>
        <time>2014-08-10T11:14:54Z</time>
      </trkpt>
      <trkpt lat="45.2146" lon="6.19929">
        <ele>2120</ele>
        <time>2014-08-10T11:14:56Z</time>
      </trkpt>
      <trkpt lat="45.21464" lon="6.19942">
        <ele>2119</ele>
        <time>2014-08-10T11:14:58Z</time>
      </trkpt>
      <trkpt lat="45.21467" lon="6.19955">
        <ele>2118</ele>
        <time>2014-08-10T11:15:00Z</time>
      </trkpt>
      <trkpt lat="45.21471" lon="6.19971">
        <ele>2117</ele>
        <time>2014-08-10T11:15:03Z</time>
      </trkpt>
      <trkpt lat="45.21477" lon="6.19983">
        <ele>2117</ele>
        <time>2014-08-10T11:15:06Z</time>
      </trkpt>
      <trkpt lat="45.21483" lon="6.19995">
        <ele>2117</ele>
        <time>2014-08-10T11:15:09Z</time>
      </trkpt>
      <trkpt lat="45.21485" lon="6.20007">
        <ele>2110</ele>
        <time>2014-08-10T11:15:11Z</time>
      </trkpt>
      <trkpt lat="45.21488" lon="6.2002">
        <ele>2108</ele>
        <time>2014-08-10T11:15:13Z</time>
      </trkpt>
      <trkpt lat="45.21491" lon="6.20033">
        <ele>2106</ele>
        <time>2014-08-10T11:15:15Z</time>
      </trkpt>
      <trkpt lat="45.21494" lon="6.20046">
        <ele>2104</ele>
        <time>2014-08-10T11:15:17Z</time>
      </trkpt>
      <trkpt lat="45.21498" lon="6.2006">
        <ele>2102</ele>
        <time>2014-08-10T11:15:19Z</time>
      </trkpt>
      <trkpt lat="45.21503" lon="6.20074">
        <ele>2104</ele>
        <time>2014-08-10T11:15:21Z</time>
      </trkpt>
      <trkpt lat="45.21511" lon="6.20087">
        <ele>2099</ele>
        <time>2014-08-10T11:15:23Z</time>
      </trkpt>
      <trkpt lat="45.21521" lon="6.20099">
        <ele>2098</ele>
        <time>2014-08-10T11:15:25Z</time>
      </trkpt>
      <trkpt lat="45.21533" lon="6.20112">
        <ele>2098</ele>
        <time>2014-08-10T11:15:27Z</time>
      </trkpt>
      <trkpt lat="45.21542" lon="6.20125">
        <ele>2097</ele>
        <time>2014-08-10T11:15:29Z</time>
      </trkpt>
      <trkpt lat="45.21548" lon="6.20138">
        <ele>2097</ele>
        <time>2014-08-10T11:15:31Z</time>
      </trkpt>
      <trkpt lat="45.21552" lon="6.20152">
        <ele>2096</ele>
        <time>2014-08-10T11:15:33Z</time>
      </trkpt>
      <trkpt lat="45.21558" lon="6.20167">
        <ele>2089</ele>
        <time>2014-08-10T11:15:35Z</time>
      </trkpt>
      <trkpt lat="45.21563" lon="6.20184">
        <ele>2088</ele>
        <time>2014-08-10T11:15:37Z</time>
      </trkpt>
      <trkpt lat="45.21569" lon="6.20201">
        <ele>2086</ele>
        <time>2014-08-10T11:15:39Z</time>
      </trkpt>
      <trkpt lat="45.21575" lon="6.20218">
        <ele>2085</ele>
        <time>2014-08-10T11:15:41Z</time>
      </trkpt>
      <trkpt lat="45.21584" lon="6.20231">
        <ele>2087</ele>
        <time>2014-08-10T11:15:43Z</time>
      </trkpt>
      <trkpt lat="45.21593" lon="6.20245">
        <ele>2086</ele>
        <time>2014-08-10T11:15:45Z</time>
      </trkpt>
      <trkpt lat="45.21601" lon="6.20259">
        <ele>2080</ele>
        <time>2014-08-10T11:15:47Z</time>
      </trkpt>
      <trkpt lat="45.2161" lon="6.20271">
        <ele>2079</ele>
        <time>2014-08-10T11:15:49Z</time>
      </trkpt>
      <trkpt lat="45.21618" lon="6.2028">
        <ele>2079</ele>
        <time>2014-08-10T11:15:51Z</time>
      </trkpt>
      <trkpt lat="45.21627" lon="6.20287">
        <ele>2078</ele>
        <time>2014-08-10T11:15:53Z</time>
      </trkpt>
      <trkpt lat="45.21638" lon="6.20289">
        <ele>2079</ele>
        <time>2014-08-10T11:15:56Z</time>
      </trkpt>
      <trkpt lat="45.21649" lon="6.20284">
        <ele>2079</ele>
        <time>2014-08-10T11:16:00Z</time>
      </trkpt>
      <trkpt lat="45.21658" lon="6.20279">
        <ele>2080</ele>
        <time>2014-08-10T11:16:03Z</time>
      </trkpt>
      <trkpt lat="45.21667" lon="6.2027">
        <ele>2085</ele>
        <time>2014-08-10T11:16:06Z</time>
      </trkpt>
      <trkpt lat="45.21676" lon="6.20263">
        <ele>2085</ele>
        <time>2014-08-10T11:16:10Z</time>
      </trkpt>
      <trkpt lat="45.21684" lon="6.20259">
        <ele>2085</ele>
        <time>2014-08-10T11:16:15Z</time>
      </trkpt>
      <trkpt lat="45.21694" lon="6.20257">
        <ele>2086</ele>
        <time>2014-08-10T11:16:19Z</time>
      </trkpt>
      <trkpt lat="45.21704" lon="6.20256">
        <ele>2086</ele>
        <time>2014-08-10T11:16:23Z</time>
      </trkpt>
      <trkpt lat="45.21714" lon="6.20257">
        <ele>2087</ele>
        <time>2014-08-10T11:16:27Z</time>
      </trkpt>
      <trkpt lat="45.21724" lon="6.20259">
        <ele>2087</ele>
        <time>2014-08-10T11:16:31Z</time>
      </trkpt>
      <trkpt lat="45.21733" lon="6.20262">
        <ele>2088</ele>
        <time>2014-08-10T11:16:35Z</time>
      </trkpt>
      <trkpt lat="45.21742" lon="6.2027">
        <ele>2088</ele>
        <time>2014-08-10T11:16:39Z</time>
      </trkpt>
      <trkpt lat="45.21751" lon="6.20277">
        <ele>2089</ele>
        <time>2014-08-10T11:16:43Z</time>
      </trkpt>
      <trkpt lat="45.2176" lon="6.20287">
        <ele>2088</ele>
        <time>2014-08-10T11:16:47Z</time>
      </trkpt>
      <trkpt lat="45.2177" lon="6.20292">
        <ele>2088</ele>
        <time>2014-08-10T11:16:51Z</time>
      </trkpt>
      <trkpt lat="45.21779" lon="6.20302">
        <ele>2087</ele>
        <time>2014-08-10T11:16:55Z</time>
      </trkpt>
      <trkpt lat="45.21787" lon="6.20315">
        <ele>2087</ele>
        <time>2014-08-10T11:16:58Z</time>
      </trkpt>
      <trkpt lat="45.21795" lon="6.20322">
        <ele>2086</ele>
        <time>2014-08-10T11:17:01Z</time>
      </trkpt>
      <trkpt lat="45.21804" lon="6.20326">
        <ele>2086</ele>
        <time>2014-08-10T11:17:04Z</time>
      </trkpt>
      <trkpt lat="45.21815" lon="6.20329">
        <ele>2085</ele>
        <time>2014-08-10T11:17:07Z</time>
      </trkpt>
      <trkpt lat="45.21824" lon="6.20326">
        <ele>2084</ele>
        <time>2014-08-10T11:17:09Z</time>
      </trkpt>
      <trkpt lat="45.21833" lon="6.20319">
        <ele>2085</ele>
        <time>2014-08-10T11:17:11Z</time>
      </trkpt>
      <trkpt lat="45.21842" lon="6.2031">
        <ele>2083</ele>
        <time>2014-08-10T11:17:13Z</time>
      </trkpt>
      <trkpt lat="45.21851" lon="6.20301">
        <ele>2083</ele>
        <time>2014-08-10T11:17:15Z</time>
      </trkpt>
      <trkpt lat="45.2186" lon="6.20295">
        <ele>2083</ele>
        <time>2014-08-10T11:17:17Z</time>
      </trkpt>
      <trkpt lat="45.21872" lon="6.20289">
        <ele>2083</ele>
        <time>2014-08-10T11:17:20Z</time>
      </trkpt>
      <trkpt lat="45.21884" lon="6.20285">
        <ele>2082</ele>
        <time>2014-08-10T11:17:23Z</time>
      </trkpt>
      <trkpt lat="45.21895" lon="6.2028">
        <ele>2082</ele>
        <time>2014-08-10T11:17:26Z</time>
      </trkpt>
      <trkpt lat="45.21904" lon="6.20271">
        <ele>2082</ele>
        <time>2014-08-10T11:17:28Z</time>
      </trkpt>
      <trkpt lat="45.21911" lon="6.20258">
        <ele>2083</ele>
        <time>2014-08-10T11:17:30Z</time>
      </trkpt>
      <trkpt lat="45.21919" lon="6.20245">
        <ele>2083</ele>
        <time>2014-08-10T11:17:32Z</time>
      </trkpt>
      <trkpt lat="45.21928" lon="6.20234">
        <ele>2083</ele>
        <time>2014-08-10T11:17:34Z</time>
      </trkpt>
      <trkpt lat="45.21935" lon="6.20222">
        <ele>2084</ele>
        <time>2014-08-10T11:17:36Z</time>
      </trkpt>
      <trkpt lat="45.21944" lon="6.20209">
        <ele>2084</ele>
        <time>2014-08-10T11:17:38Z</time>
      </trkpt>
      <trkpt lat="45.21954" lon="6.202">
        <ele>2084</ele>
        <time>2014-08-10T11:17:40Z</time>
      </trkpt>
      <trkpt lat="45.21966" lon="6.20194">
        <ele>2084</ele>
        <time>2014-08-10T11:17:42Z</time>
      </trkpt>
      <trkpt lat="45.21977" lon="6.2019">
        <ele>2084</ele>
        <time>2014-08-10T11:17:44Z</time>
      </trkpt>
      <trkpt lat="45.21988" lon="6.20185">
        <ele>2084</ele>
        <time>2014-08-10T11:17:46Z</time>
      </trkpt>
      <trkpt lat="45.22001" lon="6.20181">
        <ele>2082</ele>
        <time>2014-08-10T11:17:48Z</time>
      </trkpt>
      <trkpt lat="45.22014" lon="6.20178">
        <ele>2082</ele>
        <time>2014-08-10T11:17:50Z</time>
      </trkpt>
      <trkpt lat="45.22027" lon="6.20178">
        <ele>2080</ele>
        <time>2014-08-10T11:17:52Z</time>
      </trkpt>
      <trkpt lat="45.22037" lon="6.20182">
        <ele>2080</ele>
        <time>2014-08-10T11:17:54Z</time>
      </trkpt>
      <trkpt lat="45.22046" lon="6.20185">
        <ele>2079</ele>
        <time>2014-08-10T11:17:56Z</time>
      </trkpt>
      <trkpt lat="45.22058" lon="6.20191">
        <ele>2079</ele>
        <time>2014-08-10T11:17:59Z</time>
      </trkpt>
      <trkpt lat="45.22072" lon="6.20194">
        <ele>2079</ele>
        <time>2014-08-10T11:18:02Z</time>
      </trkpt>
      <trkpt lat="45.22082" lon="6.20199">
        <ele>2078</ele>
        <time>2014-08-10T11:18:04Z</time>
      </trkpt>
      <trkpt lat="45.22093" lon="6.20204">
        <ele>2078</ele>
        <time>2014-08-10T11:18:06Z</time>
      </trkpt>
      <trkpt lat="45.22104" lon="6.20209">
        <ele>2078</ele>
        <time>2014-08-10T11:18:08Z</time>
      </trkpt>
      <trkpt lat="45.22117" lon="6.2021">
        <ele>2078</ele>
        <time>2014-08-10T11:18:10Z</time>
      </trkpt>
      <trkpt lat="45.22128" lon="6.20211">
        <ele>2078</ele>
        <time>2014-08-10T11:18:12Z</time>
      </trkpt>
      <trkpt lat="45.22139" lon="6.20215">
        <ele>2078</ele>
        <time>2014-08-10T11:18:14Z</time>
      </trkpt>
      <trkpt lat="45.22152" lon="6.20218">
        <ele>2078</ele>
        <time>2014-08-10T11:18:17Z</time>
      </trkpt>
      <trkpt lat="45.22162" lon="6.2022">
        <ele>2077</ele>
        <time>2014-08-10T11:18:20Z</time>
      </trkpt>
      <trkpt lat="45.22171" lon="6.20224">
        <ele>2079</ele>
        <time>2014-08-10T11:18:23Z</time>
      </trkpt>
      <trkpt lat="45.22182" lon="6.20226">
        <ele>2079</ele>
        <time>2014-08-10T11:18:26Z</time>
      </trkpt>
      <trkpt lat="45.22195" lon="6.20229">
        <ele>2080</ele>
        <time>2014-08-10T11:18:29Z</time>
      </trkpt>
      <trkpt lat="45.22205" lon="6.20233">
        <ele>2080</ele>
        <time>2014-08-10T11:18:31Z</time>
      </trkpt>
      <trkpt lat="45.22217" lon="6.20236">
        <ele>2079</ele>
        <time>2014-08-10T11:18:33Z</time>
      </trkpt>
      <trkpt lat="45.2223" lon="6.20241">
        <ele>2078</ele>
        <time>2014-08-10T11:18:35Z</time>
      </trkpt>
      <trkpt lat="45.22244" lon="6.20246">
        <ele>2075</ele>
        <time>2014-08-10T11:18:37Z</time>
      </trkpt>
      <trkpt lat="45.22256" lon="6.20254">
        <ele>2070</ele>
        <time>2014-08-10T11:18:39Z</time>
      </trkpt>
      <trkpt lat="45.22267" lon="6.20262">
        <ele>2067</ele>
        <time>2014-08-10T11:18:41Z</time>
      </trkpt>
      <trkpt lat="45.22277" lon="6.20269">
        <ele>2065</ele>
        <time>2014-08-10T11:18:43Z</time>
      </trkpt>
      <trkpt lat="45.22286" lon="6.20276">
        <ele>2063</ele>
        <time>2014-08-10T11:18:45Z</time>
      </trkpt>
      <trkpt lat="45.22298" lon="6.20281">
        <ele>2062</ele>
        <time>2014-08-10T11:18:47Z</time>
      </trkpt>
      <trkpt lat="45.22311" lon="6.20282">
        <ele>2062</ele>
        <time>2014-08-10T11:18:49Z</time>
      </trkpt>
      <trkpt lat="45.22322" lon="6.2028">
        <ele>2061</ele>
        <time>2014-08-10T11:18:51Z</time>
      </trkpt>
      <trkpt lat="45.2233" lon="6.20273">
        <ele>2062</ele>
        <time>2014-08-10T11:18:53Z</time>
      </trkpt>
      <trkpt lat="45.22338" lon="6.20264">
        <ele>2056</ele>
        <time>2014-08-10T11:18:55Z</time>
      </trkpt>
      <trkpt lat="45.22346" lon="6.20252">
        <ele>2057</ele>
        <time>2014-08-10T11:18:57Z</time>
      </trkpt>
      <trkpt lat="45.22354" lon="6.20238">
        <ele>2066</ele>
        <time>2014-08-10T11:18:59Z</time>
      </trkpt>
      <trkpt lat="45.22362" lon="6.20227">
        <ele>2067</ele>
        <time>2014-08-10T11:19:01Z</time>
      </trkpt>
      <trkpt lat="45.22371" lon="6.20218">
        <ele>2068</ele>
        <time>2014-08-10T11:19:03Z</time>
      </trkpt>
      <trkpt lat="45.2238" lon="6.20213">
        <ele>2067</ele>
        <time>2014-08-10T11:19:05Z</time>
      </trkpt>
      <trkpt lat="45.22389" lon="6.20206">
        <ele>2067</ele>
        <time>2014-08-10T11:19:07Z</time>
      </trkpt>
      <trkpt lat="45.22399" lon="6.20194">
        <ele>2068</ele>
        <time>2014-08-10T11:19:10Z</time>
      </trkpt>
      <trkpt lat="45.2241" lon="6.20184">
        <ele>2068</ele>
        <time>2014-08-10T11:19:13Z</time>
      </trkpt>
      <trkpt lat="45.22419" lon="6.2018">
        <ele>2061</ele>
        <time>2014-08-10T11:19:16Z</time>
      </trkpt>
      <trkpt lat="45.22429" lon="6.20173">
        <ele>2061</ele>
        <time>2014-08-10T11:19:20Z</time>
      </trkpt>
      <trkpt lat="45.22438" lon="6.20161">
        <ele>2073</ele>
        <time>2014-08-10T11:19:24Z</time>
      </trkpt>
      <trkpt lat="45.22446" lon="6.20153">
        <ele>2074</ele>
        <time>2014-08-10T11:19:28Z</time>
      </trkpt>
      <trkpt lat="45.22456" lon="6.20144">
        <ele>2075</ele>
        <time>2014-08-10T11:19:32Z</time>
      </trkpt>
      <trkpt lat="45.22465" lon="6.20135">
        <ele>2075</ele>
        <time>2014-08-10T11:19:36Z</time>
      </trkpt>
      <trkpt lat="45.22476" lon="6.20128">
        <ele>2075</ele>
        <time>2014-08-10T11:19:40Z</time>
      </trkpt>
      <trkpt lat="45.22487" lon="6.20121">
        <ele>2076</ele>
        <time>2014-08-10T11:19:43Z</time>
      </trkpt>
      <trkpt lat="45.22497" lon="6.20115">
        <ele>2077</ele>
        <time>2014-08-10T11:19:45Z</time>
      </trkpt>
      <trkpt lat="45.22509" lon="6.20109">
        <ele>2069</ele>
        <time>2014-08-10T11:19:47Z</time>
      </trkpt>
      <trkpt lat="45.22522" lon="6.20101">
        <ele>2070</ele>
        <time>2014-08-10T11:19:49Z</time>
      </trkpt>
      <trkpt lat="45.22534" lon="6.20095">
        <ele>2069</ele>
        <time>2014-08-10T11:19:51Z</time>
      </trkpt>
      <trkpt lat="45.22545" lon="6.20093">
        <ele>2068</ele>
        <time>2014-08-10T11:19:53Z</time>
      </trkpt>
      <trkpt lat="45.22558" lon="6.20091">
        <ele>2067</ele>
        <time>2014-08-10T11:19:56Z</time>
      </trkpt>
      <trkpt lat="45.2257" lon="6.20092">
        <ele>2067</ele>
        <time>2014-08-10T11:19:59Z</time>
      </trkpt>
      <trkpt lat="45.2258" lon="6.20093">
        <ele>2067</ele>
        <time>2014-08-10T11:20:01Z</time>
      </trkpt>
      <trkpt lat="45.22593" lon="6.20094">
        <ele>2067</ele>
        <time>2014-08-10T11:20:04Z</time>
      </trkpt>
      <trkpt lat="45.22605" lon="6.20095">
        <ele>2066</ele>
        <time>2014-08-10T11:20:07Z</time>
      </trkpt>
      <trkpt lat="45.22617" lon="6.20101">
        <ele>2065</ele>
        <time>2014-08-10T11:20:10Z</time>
      </trkpt>
      <trkpt lat="45.22628" lon="6.20109">
        <ele>2065</ele>
        <time>2014-08-10T11:20:13Z</time>
      </trkpt>
      <trkpt lat="45.22641" lon="6.20112">
        <ele>2065</ele>
        <time>2014-08-10T11:20:16Z</time>
      </trkpt>
      <trkpt lat="45.22653" lon="6.20105">
        <ele>2065</ele>
        <time>2014-08-10T11:20:19Z</time>
      </trkpt>
      <trkpt lat="45.22662" lon="6.20098">
        <ele>2065</ele>
        <time>2014-08-10T11:20:23Z</time>
      </trkpt>
      <trkpt lat="45.22672" lon="6.20099">
        <ele>2061</ele>
        <time>2014-08-10T11:20:28Z</time>
      </trkpt>
      <trkpt lat="45.22681" lon="6.20095">
        <ele>2060</ele>
        <time>2014-08-10T11:21:36Z</time>
      </trkpt>
      <trkpt lat="45.22673" lon="6.20087">
        <ele>2063</ele>
        <time>2014-08-10T11:22:34Z</time>
      </trkpt>
      <trkpt lat="45.22681" lon="6.20081">
        <ele>2062</ele>
        <time>2014-08-10T11:22:56Z</time>
      </trkpt>
      <trkpt lat="45.2268" lon="6.20095">
        <ele>2060</ele>
        <time>2014-08-10T11:23:41Z</time>
      </trkpt>
      <trkpt lat="45.22674" lon="6.20104">
        <ele>2060</ele>
        <time>2014-08-10T11:24:23Z</time>
      </trkpt>
      <trkpt lat="45.22679" lon="6.20093">
        <ele>2061</ele>
        <time>2014-08-10T11:24:40Z</time>
      </trkpt>
      <trkpt lat="45.22684" lon="6.20082">
        <ele>2062</ele>
        <time>2014-08-10T11:27:55Z</time>
      </trkpt>
      <trkpt lat="45.22688" lon="6.20068">
        <ele>2061</ele>
        <time>2014-08-10T11:28:02Z</time>
      </trkpt>
      <trkpt lat="45.22691" lon="6.20056">
        <ele>2060</ele>
        <time>2014-08-10T11:28:10Z</time>
      </trkpt>
      <trkpt lat="45.22694" lon="6.20043">
        <ele>2061</ele>
        <time>2014-08-10T11:28:19Z</time>
      </trkpt>
      <trkpt lat="45.22695" lon="6.2003">
        <ele>2061</ele>
        <time>2014-08-10T11:28:28Z</time>
      </trkpt>
      <trkpt lat="45.22696" lon="6.20015">
        <ele>2063</ele>
        <time>2014-08-10T11:28:38Z</time>
      </trkpt>
      <trkpt lat="45.22698" lon="6.20002">
        <ele>2063</ele>
        <time>2014-08-10T11:28:47Z</time>
      </trkpt>
      <trkpt lat="45.22701" lon="6.19989">
        <ele>2069</ele>
        <time>2014-08-10T11:28:57Z</time>
      </trkpt>
      <trkpt lat="45.22702" lon="6.19974">
        <ele>2069</ele>
        <time>2014-08-10T11:29:05Z</time>
      </trkpt>
      <trkpt lat="45.22702" lon="6.19961">
        <ele>2070</ele>
        <time>2014-08-10T11:29:12Z</time>
      </trkpt>
      <trkpt lat="45.22702" lon="6.19947">
        <ele>2071</ele>
        <time>2014-08-10T11:29:18Z</time>
      </trkpt>
      <trkpt lat="45.22704" lon="6.19935">
        <ele>2072</ele>
        <time>2014-08-10T11:29:22Z</time>
      </trkpt>
      <trkpt lat="45.22708" lon="6.1992">
        <ele>2071</ele>
        <time>2014-08-10T11:29:26Z</time>
      </trkpt>
      <trkpt lat="45.22712" lon="6.19909">
        <ele>2081</ele>
        <time>2014-08-10T11:29:29Z</time>
      </trkpt>
      <trkpt lat="45.22717" lon="6.19893">
        <ele>2081</ele>
        <time>2014-08-10T11:29:33Z</time>
      </trkpt>
      <trkpt lat="45.22723" lon="6.19879">
        <ele>2082</ele>
        <time>2014-08-10T11:29:37Z</time>
      </trkpt>
      <trkpt lat="45.22729" lon="6.19865">
        <ele>2082</ele>
        <time>2014-08-10T11:29:41Z</time>
      </trkpt>
      <trkpt lat="45.22736" lon="6.19852">
        <ele>2081</ele>
        <time>2014-08-10T11:29:45Z</time>
      </trkpt>
      <trkpt lat="45.22743" lon="6.19838">
        <ele>2078</ele>
        <time>2014-08-10T11:29:49Z</time>
      </trkpt>
      <trkpt lat="45.22748" lon="6.19827">
        <ele>2081</ele>
        <time>2014-08-10T11:29:52Z</time>
      </trkpt>
      <trkpt lat="45.22753" lon="6.19814">
        <ele>2068</ele>
        <time>2014-08-10T11:29:55Z</time>
      </trkpt>
      <trkpt lat="45.22759" lon="6.198">
        <ele>2068</ele>
        <time>2014-08-10T11:29:59Z</time>
      </trkpt>
      <trkpt lat="45.22763" lon="6.19785">
        <ele>2069</ele>
        <time>2014-08-10T11:30:02Z</time>
      </trkpt>
      <trkpt lat="45.22769" lon="6.19771">
        <ele>2071</ele>
        <time>2014-08-10T11:30:05Z</time>
      </trkpt>
      <trkpt lat="45.22775" lon="6.19759">
        <ele>2071</ele>
        <time>2014-08-10T11:30:08Z</time>
      </trkpt>
      <trkpt lat="45.22781" lon="6.19748">
        <ele>2077</ele>
        <time>2014-08-10T11:30:12Z</time>
      </trkpt>
      <trkpt lat="45.22786" lon="6.19733">
        <ele>2076</ele>
        <time>2014-08-10T11:30:16Z</time>
      </trkpt>
      <trkpt lat="45.22789" lon="6.19718">
        <ele>2075</ele>
        <time>2014-08-10T11:30:21Z</time>
      </trkpt>
      <trkpt lat="45.22792" lon="6.19702">
        <ele>2076</ele>
        <time>2014-08-10T11:30:26Z</time>
      </trkpt>
      <trkpt lat="45.22798" lon="6.19691">
        <ele>2074</ele>
        <time>2014-08-10T11:30:33Z</time>
      </trkpt>
      <trkpt lat="45.22801" lon="6.19676">
        <ele>2074</ele>
        <time>2014-08-10T11:30:38Z</time>
      </trkpt>
      <trkpt lat="45.22803" lon="6.19662">
        <ele>2074</ele>
        <time>2014-08-10T11:30:43Z</time>
      </trkpt>
      <trkpt lat="45.22802" lon="6.19645">
        <ele>2075</ele>
        <time>2014-08-10T11:30:47Z</time>
      </trkpt>
      <trkpt lat="45.22804" lon="6.19631">
        <ele>2074</ele>
        <time>2014-08-10T11:30:51Z</time>
      </trkpt>
      <trkpt lat="45.22808" lon="6.19615">
        <ele>2072</ele>
        <time>2014-08-10T11:30:55Z</time>
      </trkpt>
      <trkpt lat="45.22808" lon="6.196">
        <ele>2070</ele>
        <time>2014-08-10T11:30:58Z</time>
      </trkpt>
      <trkpt lat="45.22806" lon="6.19581">
        <ele>2064</ele>
        <time>2014-08-10T11:31:01Z</time>
      </trkpt>
      <trkpt lat="45.22803" lon="6.19568">
        <ele>2066</ele>
        <time>2014-08-10T11:31:03Z</time>
      </trkpt>
      <trkpt lat="45.22799" lon="6.19556">
        <ele>2067</ele>
        <time>2014-08-10T11:31:05Z</time>
      </trkpt>
      <trkpt lat="45.22795" lon="6.19537">
        <ele>2067</ele>
        <time>2014-08-10T11:31:08Z</time>
      </trkpt>
      <trkpt lat="45.2279" lon="6.19521">
        <ele>2067</ele>
        <time>2014-08-10T11:31:10Z</time>
      </trkpt>
      <trkpt lat="45.22785" lon="6.19509">
        <ele>2068</ele>
        <time>2014-08-10T11:31:12Z</time>
      </trkpt>
      <trkpt lat="45.22778" lon="6.19493">
        <ele>2062</ele>
        <time>2014-08-10T11:31:15Z</time>
      </trkpt>
      <trkpt lat="45.22769" lon="6.19481">
        <ele>2063</ele>
        <time>2014-08-10T11:31:18Z</time>
      </trkpt>
      <trkpt lat="45.22761" lon="6.1947">
        <ele>2062</ele>
        <time>2014-08-10T11:31:21Z</time>
      </trkpt>
      <trkpt lat="45.22751" lon="6.19458">
        <ele>2060</ele>
        <time>2014-08-10T11:31:24Z</time>
      </trkpt>
      <trkpt lat="45.22741" lon="6.19447">
        <ele>2077</ele>
        <time>2014-08-10T11:31:27Z</time>
      </trkpt>
      <trkpt lat="45.22729" lon="6.19438">
        <ele>2076</ele>
        <time>2014-08-10T11:31:30Z</time>
      </trkpt>
      <trkpt lat="45.22719" lon="6.19425">
        <ele>2077</ele>
        <time>2014-08-10T11:31:33Z</time>
      </trkpt>
      <trkpt lat="45.2271" lon="6.19415">
        <ele>2072</ele>
        <time>2014-08-10T11:31:35Z</time>
      </trkpt>
      <trkpt lat="45.22702" lon="6.19404">
        <ele>2074</ele>
        <time>2014-08-10T11:31:37Z</time>
      </trkpt>
      <trkpt lat="45.22695" lon="6.19393">
        <ele>2075</ele>
        <time>2014-08-10T11:31:39Z</time>
      </trkpt>
      <trkpt lat="45.22689" lon="6.19382">
        <ele>2075</ele>
        <time>2014-08-10T11:31:41Z</time>
      </trkpt>
      <trkpt lat="45.22684" lon="6.19368">
        <ele>2075</ele>
        <time>2014-08-10T11:31:44Z</time>
      </trkpt>
      <trkpt lat="45.22681" lon="6.19354">
        <ele>2076</ele>
        <time>2014-08-10T11:31:47Z</time>
      </trkpt>
      <trkpt lat="45.22681" lon="6.19341">
        <ele>2077</ele>
        <time>2014-08-10T11:31:52Z</time>
      </trkpt>
      <trkpt lat="45.22686" lon="6.19328">
        <ele>2079</ele>
        <time>2014-08-10T11:31:56Z</time>
      </trkpt>
      <trkpt lat="45.22694" lon="6.19319">
        <ele>2078</ele>
        <time>2014-08-10T11:32:02Z</time>
      </trkpt>
      <trkpt lat="45.22705" lon="6.19319">
        <ele>2077</ele>
        <time>2014-08-10T11:32:09Z</time>
      </trkpt>
      <trkpt lat="45.22714" lon="6.19314">
        <ele>2076</ele>
        <time>2014-08-10T11:32:16Z</time>
      </trkpt>
      <trkpt lat="45.22721" lon="6.19306">
        <ele>2076</ele>
        <time>2014-08-10T11:32:23Z</time>
      </trkpt>
      <trkpt lat="45.22728" lon="6.19295">
        <ele>2076</ele>
        <time>2014-08-10T11:32:32Z</time>
      </trkpt>
      <trkpt lat="45.22734" lon="6.19285">
        <ele>2077</ele>
        <time>2014-08-10T11:32:44Z</time>
      </trkpt>
      <trkpt lat="45.22742" lon="6.19276">
        <ele>2077</ele>
        <time>2014-08-10T11:32:55Z</time>
      </trkpt>
      <trkpt lat="45.22748" lon="6.19265">
        <ele>2077</ele>
        <time>2014-08-10T11:33:06Z</time>
      </trkpt>
      <trkpt lat="45.22753" lon="6.19254">
        <ele>2073</ele>
        <time>2014-08-10T11:33:15Z</time>
      </trkpt>
      <trkpt lat="45.22753" lon="6.1924">
        <ele>2072</ele>
        <time>2014-08-10T11:33:25Z</time>
      </trkpt>
      <trkpt lat="45.22749" lon="6.19228">
        <ele>2082</ele>
        <time>2014-08-10T11:33:36Z</time>
      </trkpt>
      <trkpt lat="45.22744" lon="6.19216">
        <ele>2084</ele>
        <time>2014-08-10T11:33:46Z</time>
      </trkpt>
      <trkpt lat="45.22738" lon="6.19205">
        <ele>2084</ele>
        <time>2014-08-10T11:33:56Z</time>
      </trkpt>
      <trkpt lat="45.22732" lon="6.19195">
        <ele>2084</ele>
        <time>2014-08-10T11:34:06Z</time>
      </trkpt>
      <trkpt lat="45.22725" lon="6.19185">
        <ele>2085</ele>
        <time>2014-08-10T11:34:18Z</time>
      </trkpt>
      <trkpt lat="45.22718" lon="6.19176">
        <ele>2086</ele>
        <time>2014-08-10T11:34:29Z</time>
      </trkpt>
      <trkpt lat="45.22711" lon="6.19167">
        <ele>2087</ele>
        <time>2014-08-10T11:34:41Z</time>
      </trkpt>
      <trkpt lat="45.22703" lon="6.19158">
        <ele>2089</ele>
        <time>2014-08-10T11:34:50Z</time>
      </trkpt>
      <trkpt lat="45.22698" lon="6.19146">
        <ele>2090</ele>
        <time>2014-08-10T11:35:01Z</time>
      </trkpt>
      <trkpt lat="45.22693" lon="6.19134">
        <ele>2091</ele>
        <time>2014-08-10T11:35:11Z</time>
      </trkpt>
      <trkpt lat="45.22694" lon="6.19121">
        <ele>2090</ele>
        <time>2014-08-10T11:35:23Z</time>
      </trkpt>
      <trkpt lat="45.22691" lon="6.19108">
        <ele>2091</ele>
        <time>2014-08-10T11:35:32Z</time>
      </trkpt>
      <trkpt lat="45.22688" lon="6.19096">
        <ele>2093</ele>
        <time>2014-08-10T11:35:42Z</time>
      </trkpt>
      <trkpt lat="45.22684" lon="6.19083">
        <ele>2094</ele>
        <time>2014-08-10T11:35:55Z</time>
      </trkpt>
      <trkpt lat="45.22677" lon="6.19072">
        <ele>2095</ele>
        <time>2014-08-10T11:36:07Z</time>
      </trkpt>
      <trkpt lat="45.2267" lon="6.19064">
        <ele>2094</ele>
        <time>2014-08-10T11:36:17Z</time>
      </trkpt>
      <trkpt lat="45.22663" lon="6.19054">
        <ele>2110</ele>
        <time>2014-08-10T11:36:31Z</time>
      </trkpt>
      <trkpt lat="45.22658" lon="6.19043">
        <ele>2110</ele>
        <time>2014-08-10T11:36:42Z</time>
      </trkpt>
      <trkpt lat="45.22649" lon="6.19043">
        <ele>2111</ele>
        <time>2014-08-10T11:36:55Z</time>
      </trkpt>
      <trkpt lat="45.22644" lon="6.19054">
        <ele>2112</ele>
        <time>2014-08-10T11:37:07Z</time>
      </trkpt>
      <trkpt lat="45.22648" lon="6.19068">
        <ele>2111</ele>
        <time>2014-08-10T11:37:22Z</time>
      </trkpt>
      <trkpt lat="45.22646" lon="6.19081">
        <ele>2111</ele>
        <time>2014-08-10T11:37:36Z</time>
      </trkpt>
      <trkpt lat="45.22644" lon="6.19096">
        <ele>2114</ele>
        <time>2014-08-10T11:37:44Z</time>
      </trkpt>
      <trkpt lat="45.22641" lon="6.1911">
        <ele>2115</ele>
        <time>2014-08-10T11:37:54Z</time>
      </trkpt>
      <trkpt lat="45.22637" lon="6.19122">
        <ele>2116</ele>
        <time>2014-08-10T11:38:05Z</time>
      </trkpt>
      <trkpt lat="45.22637" lon="6.19135">
        <ele>2116</ele>
        <time>2014-08-10T11:38:15Z</time>
      </trkpt>
      <trkpt lat="45.22635" lon="6.19149">
        <ele>2116</ele>
        <time>2014-08-10T11:38:26Z</time>
      </trkpt>
      <trkpt lat="45.22628" lon="6.19158">
        <ele>2117</ele>
        <time>2014-08-10T11:38:36Z</time>
      </trkpt>
      <trkpt lat="45.2262" lon="6.19165">
        <ele>2119</ele>
        <time>2014-08-10T11:38:48Z</time>
      </trkpt>
      <trkpt lat="45.2261" lon="6.19162">
        <ele>2121</ele>
        <time>2014-08-10T11:38:58Z</time>
      </trkpt>
      <trkpt lat="45.226" lon="6.19164">
        <ele>2123</ele>
        <time>2014-08-10T11:39:11Z</time>
      </trkpt>
      <trkpt lat="45.22591" lon="6.19168">
        <ele>2124</ele>
        <time>2014-08-10T11:39:22Z</time>
      </trkpt>
      <trkpt lat="45.22581" lon="6.19169">
        <ele>2130</ele>
        <time>2014-08-10T11:39:33Z</time>
      </trkpt>
      <trkpt lat="45.22571" lon="6.19171">
        <ele>2134</ele>
        <time>2014-08-10T11:39:44Z</time>
      </trkpt>
      <trkpt lat="45.22563" lon="6.19179">
        <ele>2137</ele>
        <time>2014-08-10T11:39:53Z</time>
      </trkpt>
      <trkpt lat="45.22555" lon="6.19172">
        <ele>2139</ele>
        <time>2014-08-10T11:40:01Z</time>
      </trkpt>
      <trkpt lat="45.22561" lon="6.1916">
        <ele>2140</ele>
        <time>2014-08-10T11:40:18Z</time>
      </trkpt>
      <trkpt lat="45.22569" lon="6.19154">
        <ele>2138</ele>
        <time>2014-08-10T11:40:28Z</time>
      </trkpt>
      <trkpt lat="45.22577" lon="6.19145">
        <ele>2139</ele>
        <time>2014-08-10T11:40:38Z</time>
      </trkpt>
      <trkpt lat="45.22578" lon="6.19132">
        <ele>2141</ele>
        <time>2014-08-10T11:40:48Z</time>
      </trkpt>
      <trkpt lat="45.22575" lon="6.19119">
        <ele>2143</ele>
        <time>2014-08-10T11:40:58Z</time>
      </trkpt>
      <trkpt lat="45.22567" lon="6.19111">
        <ele>2144</ele>
        <time>2014-08-10T11:41:10Z</time>
      </trkpt>
      <trkpt lat="45.22559" lon="6.19103">
        <ele>2145</ele>
        <time>2014-08-10T11:41:20Z</time>
      </trkpt>
      <trkpt lat="45.2255" lon="6.19101">
        <ele>2147</ele>
        <time>2014-08-10T11:41:29Z</time>
      </trkpt>
      <trkpt lat="45.22543" lon="6.19112">
        <ele>2148</ele>
        <time>2014-08-10T11:41:41Z</time>
      </trkpt>
      <trkpt lat="45.22535" lon="6.1912">
        <ele>2149</ele>
        <time>2014-08-10T11:41:55Z</time>
      </trkpt>
      <trkpt lat="45.22526" lon="6.19117">
        <ele>2150</ele>
        <time>2014-08-10T11:42:11Z</time>
      </trkpt>
      <trkpt lat="45.22523" lon="6.19104">
        <ele>2152</ele>
        <time>2014-08-10T11:42:26Z</time>
      </trkpt>
      <trkpt lat="45.22521" lon="6.19089">
        <ele>2155</ele>
        <time>2014-08-10T11:42:37Z</time>
      </trkpt>
      <trkpt lat="45.2251" lon="6.19089">
        <ele>2158</ele>
        <time>2014-08-10T11:42:47Z</time>
      </trkpt>
      <trkpt lat="45.22504" lon="6.19099">
        <ele>2157</ele>
        <time>2014-08-10T11:42:57Z</time>
      </trkpt>
      <trkpt lat="45.22502" lon="6.19112">
        <ele>2154</ele>
        <time>2014-08-10T11:43:10Z</time>
      </trkpt>
      <trkpt lat="45.22497" lon="6.19099">
        <ele>2172</ele>
        <time>2014-08-10T11:43:20Z</time>
      </trkpt>
      <trkpt lat="45.22495" lon="6.19087">
        <ele>2169</ele>
        <time>2014-08-10T11:43:34Z</time>
      </trkpt>
      <trkpt lat="45.22492" lon="6.19073">
        <ele>2170</ele>
        <time>2014-08-10T11:43:43Z</time>
      </trkpt>
      <trkpt lat="45.22485" lon="6.19064">
        <ele>2173</ele>
        <time>2014-08-10T11:43:56Z</time>
      </trkpt>
      <trkpt lat="45.22476" lon="6.19061">
        <ele>2175</ele>
        <time>2014-08-10T11:44:10Z</time>
      </trkpt>
      <trkpt lat="45.22472" lon="6.19073">
        <ele>2175</ele>
        <time>2014-08-10T11:44:21Z</time>
      </trkpt>
      <trkpt lat="45.22467" lon="6.19085">
        <ele>2179</ele>
        <time>2014-08-10T11:44:36Z</time>
      </trkpt>
      <trkpt lat="45.22458" lon="6.19088">
        <ele>2181</ele>
        <time>2014-08-10T11:44:51Z</time>
      </trkpt>
      <trkpt lat="45.2245" lon="6.1908">
        <ele>2181</ele>
        <time>2014-08-10T11:45:03Z</time>
      </trkpt>
      <trkpt lat="45.22447" lon="6.19068">
        <ele>2182</ele>
        <time>2014-08-10T11:45:15Z</time>
      </trkpt>
      <trkpt lat="45.22437" lon="6.19071">
        <ele>2185</ele>
        <time>2014-08-10T11:45:35Z</time>
      </trkpt>
      <trkpt lat="45.22436" lon="6.19085">
        <ele>2188</ele>
        <time>2014-08-10T11:45:46Z</time>
      </trkpt>
      <trkpt lat="45.22427" lon="6.19093">
        <ele>2190</ele>
        <time>2014-08-10T11:46:00Z</time>
      </trkpt>
      <trkpt lat="45.22419" lon="6.19085">
        <ele>2195</ele>
        <time>2014-08-10T11:46:12Z</time>
      </trkpt>
      <trkpt lat="45.22414" lon="6.19073">
        <ele>2202</ele>
        <time>2014-08-10T11:46:25Z</time>
      </trkpt>
      <trkpt lat="45.2241" lon="6.19061">
        <ele>2205</ele>
        <time>2014-08-10T11:46:35Z</time>
      </trkpt>
      <trkpt lat="45.2241" lon="6.19047">
        <ele>2207</ele>
        <time>2014-08-10T11:46:49Z</time>
      </trkpt>
      <trkpt lat="45.22411" lon="6.19033">
        <ele>2206</ele>
        <time>2014-08-10T11:47:04Z</time>
      </trkpt>
      <trkpt lat="45.22416" lon="6.19021">
        <ele>2204</ele>
        <time>2014-08-10T11:47:14Z</time>
      </trkpt>
      <trkpt lat="45.22421" lon="6.19009">
        <ele>2189</ele>
        <time>2014-08-10T11:47:24Z</time>
      </trkpt>
      <trkpt lat="45.2242" lon="6.18996">
        <ele>2189</ele>
        <time>2014-08-10T11:47:37Z</time>
      </trkpt>
      <trkpt lat="45.22416" lon="6.18983">
        <ele>2197</ele>
        <time>2014-08-10T11:47:47Z</time>
      </trkpt>
      <trkpt lat="45.22408" lon="6.18975">
        <ele>2198</ele>
        <time>2014-08-10T11:47:58Z</time>
      </trkpt>
      <trkpt lat="45.224" lon="6.18966">
        <ele>2199</ele>
        <time>2014-08-10T11:48:10Z</time>
      </trkpt>
      <trkpt lat="45.22392" lon="6.1896">
        <ele>2200</ele>
        <time>2014-08-10T11:48:21Z</time>
      </trkpt>
      <trkpt lat="45.22383" lon="6.18955">
        <ele>2201</ele>
        <time>2014-08-10T11:48:32Z</time>
      </trkpt>
      <trkpt lat="45.22373" lon="6.18949">
        <ele>2203</ele>
        <time>2014-08-10T11:48:43Z</time>
      </trkpt>
      <trkpt lat="45.22364" lon="6.18942">
        <ele>2205</ele>
        <time>2014-08-10T11:48:57Z</time>
      </trkpt>
      <trkpt lat="45.22357" lon="6.18931">
        <ele>2207</ele>
        <time>2014-08-10T11:49:08Z</time>
      </trkpt>
      <trkpt lat="45.2235" lon="6.18922">
        <ele>2210</ele>
        <time>2014-08-10T11:49:21Z</time>
      </trkpt>
      <trkpt lat="45.22348" lon="6.18935">
        <ele>2209</ele>
        <time>2014-08-10T11:49:32Z</time>
      </trkpt>
      <trkpt lat="45.2235" lon="6.18949">
        <ele>2209</ele>
        <time>2014-08-10T11:49:41Z</time>
      </trkpt>
      <trkpt lat="45.22357" lon="6.1896">
        <ele>2208</ele>
        <time>2014-08-10T11:49:50Z</time>
      </trkpt>
      <trkpt lat="45.22357" lon="6.18973">
        <ele>2210</ele>
        <time>2014-08-10T11:50:00Z</time>
      </trkpt>
      <trkpt lat="45.22348" lon="6.18971">
        <ele>2212</ele>
        <time>2014-08-10T11:50:11Z</time>
      </trkpt>
      <trkpt lat="45.22343" lon="6.18958">
        <ele>2211</ele>
        <time>2014-08-10T11:50:20Z</time>
      </trkpt>
      <trkpt lat="45.22336" lon="6.18948">
        <ele>2211</ele>
        <time>2014-08-10T11:50:33Z</time>
      </trkpt>
      <trkpt lat="45.22328" lon="6.18942">
        <ele>2230</ele>
        <time>2014-08-10T11:50:44Z</time>
      </trkpt>
      <trkpt lat="45.22321" lon="6.18934">
        <ele>2229</ele>
        <time>2014-08-10T11:50:54Z</time>
      </trkpt>
      <trkpt lat="45.22312" lon="6.18928">
        <ele>2230</ele>
        <time>2014-08-10T11:51:02Z</time>
      </trkpt>
      <trkpt lat="45.22303" lon="6.18922">
        <ele>2232</ele>
        <time>2014-08-10T11:51:10Z</time>
      </trkpt>
      <trkpt lat="45.22293" lon="6.1892">
        <ele>2235</ele>
        <time>2014-08-10T11:51:24Z</time>
      </trkpt>
      <trkpt lat="45.22284" lon="6.18913">
        <ele>2229</ele>
        <time>2014-08-10T11:51:40Z</time>
      </trkpt>
      <trkpt lat="45.22278" lon="6.18903">
        <ele>2230</ele>
        <time>2014-08-10T11:51:50Z</time>
      </trkpt>
      <trkpt lat="45.22271" lon="6.18913">
        <ele>2233</ele>
        <time>2014-08-10T11:52:06Z</time>
      </trkpt>
      <trkpt lat="45.22277" lon="6.18923">
        <ele>2239</ele>
        <time>2014-08-10T11:52:14Z</time>
      </trkpt>
      <trkpt lat="45.22283" lon="6.18935">
        <ele>2238</ele>
        <time>2014-08-10T11:52:23Z</time>
      </trkpt>
      <trkpt lat="45.22288" lon="6.18947">
        <ele>2237</ele>
        <time>2014-08-10T11:52:32Z</time>
      </trkpt>
      <trkpt lat="45.22289" lon="6.18962">
        <ele>2238</ele>
        <time>2014-08-10T11:52:42Z</time>
      </trkpt>
      <trkpt lat="45.22279" lon="6.18964">
        <ele>2239</ele>
        <time>2014-08-10T11:52:53Z</time>
      </trkpt>
      <trkpt lat="45.22272" lon="6.18953">
        <ele>2240</ele>
        <time>2014-08-10T11:53:06Z</time>
      </trkpt>
      <trkpt lat="45.22263" lon="6.18945">
        <ele>2241</ele>
        <time>2014-08-10T11:53:16Z</time>
      </trkpt>
      <trkpt lat="45.22255" lon="6.18937">
        <ele>2242</ele>
        <time>2014-08-10T11:53:26Z</time>
      </trkpt>
      <trkpt lat="45.22246" lon="6.18933">
        <ele>2252</ele>
        <time>2014-08-10T11:53:36Z</time>
      </trkpt>
      <trkpt lat="45.22237" lon="6.18934">
        <ele>2253</ele>
        <time>2014-08-10T11:53:49Z</time>
      </trkpt>
      <trkpt lat="45.22234" lon="6.18946">
        <ele>2255</ele>
        <time>2014-08-10T11:54:02Z</time>
      </trkpt>
      <trkpt lat="45.22234" lon="6.18961">
        <ele>2256</ele>
        <time>2014-08-10T11:54:13Z</time>
      </trkpt>
      <trkpt lat="45.22223" lon="6.18964">
        <ele>2257</ele>
        <time>2014-08-10T11:54:23Z</time>
      </trkpt>
      <trkpt lat="45.22214" lon="6.18963">
        <ele>2258</ele>
        <time>2014-08-10T11:54:34Z</time>
      </trkpt>
      <trkpt lat="45.22204" lon="6.18961">
        <ele>2259</ele>
        <time>2014-08-10T11:54:44Z</time>
      </trkpt>
      <trkpt lat="45.22194" lon="6.18957">
        <ele>2260</ele>
        <time>2014-08-10T11:54:53Z</time>
      </trkpt>
      <trkpt lat="45.22184" lon="6.18957">
        <ele>2261</ele>
        <time>2014-08-10T11:55:01Z</time>
      </trkpt>
      <trkpt lat="45.22175" lon="6.18954">
        <ele>2261</ele>
        <time>2014-08-10T11:55:09Z</time>
      </trkpt>
      <trkpt lat="45.22164" lon="6.18953">
        <ele>2271</ele>
        <time>2014-08-10T11:55:16Z</time>
      </trkpt>
      <trkpt lat="45.22155" lon="6.18949">
        <ele>2271</ele>
        <time>2014-08-10T11:55:23Z</time>
      </trkpt>
      <trkpt lat="45.22146" lon="6.18943">
        <ele>2271</ele>
        <time>2014-08-10T11:55:29Z</time>
      </trkpt>
      <trkpt lat="45.22137" lon="6.18933">
        <ele>2271</ele>
        <time>2014-08-10T11:55:34Z</time>
      </trkpt>
      <trkpt lat="45.22125" lon="6.18925">
        <ele>2272</ele>
        <time>2014-08-10T11:55:37Z</time>
      </trkpt>
      <trkpt lat="45.22116" lon="6.18921">
        <ele>2272</ele>
        <time>2014-08-10T11:55:39Z</time>
      </trkpt>
      <trkpt lat="45.22108" lon="6.18914">
        <ele>2269</ele>
        <time>2014-08-10T11:55:41Z</time>
      </trkpt>
      <trkpt lat="45.22102" lon="6.18903">
        <ele>2269</ele>
        <time>2014-08-10T11:55:43Z</time>
      </trkpt>
      <trkpt lat="45.22102" lon="6.18885">
        <ele>2268</ele>
        <time>2014-08-10T11:55:46Z</time>
      </trkpt>
      <trkpt lat="45.22107" lon="6.18871">
        <ele>2268</ele>
        <time>2014-08-10T11:55:50Z</time>
      </trkpt>
      <trkpt lat="45.22116" lon="6.18863">
        <ele>2267</ele>
        <time>2014-08-10T11:55:57Z</time>
      </trkpt>
      <trkpt lat="45.22126" lon="6.18858">
        <ele>2266</ele>
        <time>2014-08-10T11:56:06Z</time>
      </trkpt>
      <trkpt lat="45.22135" lon="6.18861">
        <ele>2265</ele>
        <time>2014-08-10T11:56:15Z</time>
      </trkpt>
      <trkpt lat="45.22143" lon="6.18855">
        <ele>2264</ele>
        <time>2014-08-10T11:56:25Z</time>
      </trkpt>
      <trkpt lat="45.22136" lon="6.18845">
        <ele>2265</ele>
        <time>2014-08-10T11:56:35Z</time>
      </trkpt>
      <trkpt lat="45.22128" lon="6.18839">
        <ele>2266</ele>
        <time>2014-08-10T11:56:45Z</time>
      </trkpt>
      <trkpt lat="45.22121" lon="6.1883">
        <ele>2265</ele>
        <time>2014-08-10T11:56:53Z</time>
      </trkpt>
      <trkpt lat="45.22112" lon="6.18822">
        <ele>2266</ele>
        <time>2014-08-10T11:57:04Z</time>
      </trkpt>
      <trkpt lat="45.22104" lon="6.18813">
        <ele>2267</ele>
        <time>2014-08-10T11:57:14Z</time>
      </trkpt>
      <trkpt lat="45.22096" lon="6.18804">
        <ele>2267</ele>
        <time>2014-08-10T11:57:25Z</time>
      </trkpt>
      <trkpt lat="45.22088" lon="6.18797">
        <ele>2267</ele>
        <time>2014-08-10T11:57:36Z</time>
      </trkpt>
      <trkpt lat="45.22078" lon="6.1879">
        <ele>2279</ele>
        <time>2014-08-10T11:57:46Z</time>
      </trkpt>
      <trkpt lat="45.22069" lon="6.18784">
        <ele>2279</ele>
        <time>2014-08-10T11:57:55Z</time>
      </trkpt>
      <trkpt lat="45.2206" lon="6.18778">
        <ele>2280</ele>
        <time>2014-08-10T11:58:05Z</time>
      </trkpt>
      <trkpt lat="45.22053" lon="6.1877">
        <ele>2280</ele>
        <time>2014-08-10T11:58:16Z</time>
      </trkpt>
      <trkpt lat="45.22045" lon="6.18762">
        <ele>2282</ele>
        <time>2014-08-10T11:58:25Z</time>
      </trkpt>
      <trkpt lat="45.22037" lon="6.18753">
        <ele>2283</ele>
        <time>2014-08-10T11:58:34Z</time>
      </trkpt>
      <trkpt lat="45.22031" lon="6.18743">
        <ele>2285</ele>
        <time>2014-08-10T11:58:43Z</time>
      </trkpt>
      <trkpt lat="45.22024" lon="6.18734">
        <ele>2286</ele>
        <time>2014-08-10T11:58:51Z</time>
      </trkpt>
      <trkpt lat="45.2202" lon="6.18722">
        <ele>2286</ele>
        <time>2014-08-10T11:59:02Z</time>
      </trkpt>
      <trkpt lat="45.2202" lon="6.18708">
        <ele>2286</ele>
        <time>2014-08-10T11:59:16Z</time>
      </trkpt>
      <trkpt lat="45.22013" lon="6.18699">
        <ele>2286</ele>
        <time>2014-08-10T11:59:26Z</time>
      </trkpt>
      <trkpt lat="45.22006" lon="6.18689">
        <ele>2288</ele>
        <time>2014-08-10T11:59:37Z</time>
      </trkpt>
      <trkpt lat="45.21999" lon="6.18681">
        <ele>2299</ele>
        <time>2014-08-10T11:59:48Z</time>
      </trkpt>
      <trkpt lat="45.21992" lon="6.1867">
        <ele>2298</ele>
        <time>2014-08-10T12:00:01Z</time>
      </trkpt>
      <trkpt lat="45.21984" lon="6.18661">
        <ele>2300</ele>
        <time>2014-08-10T12:00:12Z</time>
      </trkpt>
      <trkpt lat="45.21977" lon="6.18652">
        <ele>2302</ele>
        <time>2014-08-10T12:00:23Z</time>
      </trkpt>
      <trkpt lat="45.2197" lon="6.18642">
        <ele>2304</ele>
        <time>2014-08-10T12:00:32Z</time>
      </trkpt>
      <trkpt lat="45.21962" lon="6.18636">
        <ele>2305</ele>
        <time>2014-08-10T12:00:44Z</time>
      </trkpt>
      <trkpt lat="45.21954" lon="6.18628">
        <ele>2306</ele>
        <time>2014-08-10T12:00:55Z</time>
      </trkpt>
      <trkpt lat="45.21945" lon="6.18621">
        <ele>2307</ele>
        <time>2014-08-10T12:01:05Z</time>
      </trkpt>
      <trkpt lat="45.21937" lon="6.18613">
        <ele>2309</ele>
        <time>2014-08-10T12:01:14Z</time>
      </trkpt>
      <trkpt lat="45.21929" lon="6.18604">
        <ele>2310</ele>
        <time>2014-08-10T12:01:25Z</time>
      </trkpt>
      <trkpt lat="45.21919" lon="6.18602">
        <ele>2312</ele>
        <time>2014-08-10T12:01:38Z</time>
      </trkpt>
      <trkpt lat="45.2191" lon="6.18594">
        <ele>2320</ele>
        <time>2014-08-10T12:01:51Z</time>
      </trkpt>
      <trkpt lat="45.219" lon="6.18595">
        <ele>2321</ele>
        <time>2014-08-10T12:02:01Z</time>
      </trkpt>
      <trkpt lat="45.21891" lon="6.18592">
        <ele>2322</ele>
        <time>2014-08-10T12:02:14Z</time>
      </trkpt>
      <trkpt lat="45.21881" lon="6.1859">
        <ele>2323</ele>
        <time>2014-08-10T12:02:23Z</time>
      </trkpt>
      <trkpt lat="45.21873" lon="6.18583">
        <ele>2326</ele>
        <time>2014-08-10T12:02:36Z</time>
      </trkpt>
      <trkpt lat="45.21864" lon="6.18579">
        <ele>2327</ele>
        <time>2014-08-10T12:02:47Z</time>
      </trkpt>
      <trkpt lat="45.21854" lon="6.18577">
        <ele>2329</ele>
        <time>2014-08-10T12:02:56Z</time>
      </trkpt>
      <trkpt lat="45.21845" lon="6.18574">
        <ele>2330</ele>
        <time>2014-08-10T12:03:07Z</time>
      </trkpt>
      <trkpt lat="45.21836" lon="6.1857">
        <ele>2330</ele>
        <time>2014-08-10T12:03:16Z</time>
      </trkpt>
      <trkpt lat="45.21827" lon="6.18568">
        <ele>2334</ele>
        <time>2014-08-10T12:03:28Z</time>
      </trkpt>
      <trkpt lat="45.21817" lon="6.18566">
        <ele>2335</ele>
        <time>2014-08-10T12:03:39Z</time>
      </trkpt>
      <trkpt lat="45.21807" lon="6.18564">
        <ele>2335</ele>
        <time>2014-08-10T12:03:50Z</time>
      </trkpt>
      <trkpt lat="45.21798" lon="6.1856">
        <ele>2336</ele>
        <time>2014-08-10T12:04:03Z</time>
      </trkpt>
      <trkpt lat="45.21789" lon="6.18554">
        <ele>2336</ele>
        <time>2014-08-10T12:04:13Z</time>
      </trkpt>
      <trkpt lat="45.21781" lon="6.18546">
        <ele>2337</ele>
        <time>2014-08-10T12:04:24Z</time>
      </trkpt>
      <trkpt lat="45.21773" lon="6.18539">
        <ele>2337</ele>
        <time>2014-08-10T12:04:35Z</time>
      </trkpt>
      <trkpt lat="45.21763" lon="6.18538">
        <ele>2338</ele>
        <time>2014-08-10T12:04:48Z</time>
      </trkpt>
      <trkpt lat="45.21752" lon="6.18532">
        <ele>2339</ele>
        <time>2014-08-10T12:04:59Z</time>
      </trkpt>
      <trkpt lat="45.21745" lon="6.18522">
        <ele>2342</ele>
        <time>2014-08-10T12:05:09Z</time>
      </trkpt>
      <trkpt lat="45.21736" lon="6.18517">
        <ele>2343</ele>
        <time>2014-08-10T12:05:16Z</time>
      </trkpt>
      <trkpt lat="45.21728" lon="6.1851">
        <ele>2343</ele>
        <time>2014-08-10T12:05:23Z</time>
      </trkpt>
      <trkpt lat="45.21719" lon="6.18504">
        <ele>2343</ele>
        <time>2014-08-10T12:05:30Z</time>
      </trkpt>
      <trkpt lat="45.21711" lon="6.18496">
        <ele>2353</ele>
        <time>2014-08-10T12:05:44Z</time>
      </trkpt>
      <trkpt lat="45.21707" lon="6.18485">
        <ele>2354</ele>
        <time>2014-08-10T12:05:54Z</time>
      </trkpt>
      <trkpt lat="45.21702" lon="6.18472">
        <ele>2355</ele>
        <time>2014-08-10T12:06:07Z</time>
      </trkpt>
      <trkpt lat="45.21695" lon="6.18462">
        <ele>2356</ele>
        <time>2014-08-10T12:06:17Z</time>
      </trkpt>
      <trkpt lat="45.21688" lon="6.18454">
        <ele>2357</ele>
        <time>2014-08-10T12:06:26Z</time>
      </trkpt>
      <trkpt lat="45.21679" lon="6.18447">
        <ele>2359</ele>
        <time>2014-08-10T12:06:36Z</time>
      </trkpt>
      <trkpt lat="45.2167" lon="6.18442">
        <ele>2360</ele>
        <time>2014-08-10T12:06:48Z</time>
      </trkpt>
      <trkpt lat="45.21661" lon="6.18443">
        <ele>2361</ele>
        <time>2014-08-10T12:06:56Z</time>
      </trkpt>
      <trkpt lat="45.2165" lon="6.18442">
        <ele>2361</ele>
        <time>2014-08-10T12:07:07Z</time>
      </trkpt>
      <trkpt lat="45.21639" lon="6.18438">
        <ele>2361</ele>
        <time>2014-08-10T12:07:19Z</time>
      </trkpt>
      <trkpt lat="45.21629" lon="6.18436">
        <ele>2361</ele>
        <time>2014-08-10T12:07:30Z</time>
      </trkpt>
      <trkpt lat="45.2162" lon="6.18439">
        <ele>2361</ele>
        <time>2014-08-10T12:07:38Z</time>
      </trkpt>
      <trkpt lat="45.21611" lon="6.18434">
        <ele>2362</ele>
        <time>2014-08-10T12:07:45Z</time>
      </trkpt>
      <trkpt lat="45.21601" lon="6.18428">
        <ele>2364</ele>
        <time>2014-08-10T12:07:53Z</time>
      </trkpt>
      <trkpt lat="45.21592" lon="6.18422">
        <ele>2367</ele>
        <time>2014-08-10T12:08:03Z</time>
      </trkpt>
      <trkpt lat="45.21582" lon="6.1842">
        <ele>2371</ele>
        <time>2014-08-10T12:08:11Z</time>
      </trkpt>
      <trkpt lat="45.21573" lon="6.18413">
        <ele>2376</ele>
        <time>2014-08-10T12:08:20Z</time>
      </trkpt>
      <trkpt lat="45.21564" lon="6.18407">
        <ele>2378</ele>
        <time>2014-08-10T12:08:32Z</time>
      </trkpt>
      <trkpt lat="45.21555" lon="6.18405">
        <ele>2380</ele>
        <time>2014-08-10T12:08:40Z</time>
      </trkpt>
      <trkpt lat="45.21545" lon="6.18403">
        <ele>2380</ele>
        <time>2014-08-10T12:08:49Z</time>
      </trkpt>
      <trkpt lat="45.21536" lon="6.18399">
        <ele>2381</ele>
        <time>2014-08-10T12:09:00Z</time>
      </trkpt>
      <trkpt lat="45.21526" lon="6.18396">
        <ele>2381</ele>
        <time>2014-08-10T12:09:10Z</time>
      </trkpt>
      <trkpt lat="45.21517" lon="6.18388">
        <ele>2382</ele>
        <time>2014-08-10T12:09:21Z</time>
      </trkpt>
      <trkpt lat="45.21509" lon="6.1838">
        <ele>2383</ele>
        <time>2014-08-10T12:09:33Z</time>
      </trkpt>
      <trkpt lat="45.21509" lon="6.18366">
        <ele>2386</ele>
        <time>2014-08-10T12:09:44Z</time>
      </trkpt>
      <trkpt lat="45.21503" lon="6.18354">
        <ele>2389</ele>
        <time>2014-08-10T12:09:54Z</time>
      </trkpt>
      <trkpt lat="45.21495" lon="6.18347">
        <ele>2396</ele>
        <time>2014-08-10T12:10:03Z</time>
      </trkpt>
      <trkpt lat="45.21486" lon="6.18355">
        <ele>2395</ele>
        <time>2014-08-10T12:10:20Z</time>
      </trkpt>
      <trkpt lat="45.21477" lon="6.18362">
        <ele>2395</ele>
        <time>2014-08-10T12:10:34Z</time>
      </trkpt>
      <trkpt lat="45.21468" lon="6.18359">
        <ele>2396</ele>
        <time>2014-08-10T12:10:43Z</time>
      </trkpt>
      <trkpt lat="45.21458" lon="6.18358">
        <ele>2398</ele>
        <time>2014-08-10T12:10:54Z</time>
      </trkpt>
      <trkpt lat="45.21449" lon="6.18357">
        <ele>2399</ele>
        <time>2014-08-10T12:11:04Z</time>
      </trkpt>
      <trkpt lat="45.21439" lon="6.18355">
        <ele>2401</ele>
        <time>2014-08-10T12:11:14Z</time>
      </trkpt>
      <trkpt lat="45.2143" lon="6.18349">
        <ele>2404</ele>
        <time>2014-08-10T12:11:25Z</time>
      </trkpt>
      <trkpt lat="45.21422" lon="6.18343">
        <ele>2408</ele>
        <time>2014-08-10T12:11:34Z</time>
      </trkpt>
      <trkpt lat="45.21412" lon="6.18342">
        <ele>2418</ele>
        <time>2014-08-10T12:11:44Z</time>
      </trkpt>
      <trkpt lat="45.21402" lon="6.18345">
        <ele>2420</ele>
        <time>2014-08-10T12:11:54Z</time>
      </trkpt>
      <trkpt lat="45.21403" lon="6.18331">
        <ele>2423</ele>
        <time>2014-08-10T12:12:16Z</time>
      </trkpt>
      <trkpt lat="45.21411" lon="6.18326">
        <ele>2421</ele>
        <time>2014-08-10T12:12:28Z</time>
      </trkpt>
      <trkpt lat="45.21421" lon="6.18321">
        <ele>2417</ele>
        <time>2014-08-10T12:12:42Z</time>
      </trkpt>
      <trkpt lat="45.21427" lon="6.1831">
        <ele>2418</ele>
        <time>2014-08-10T12:12:57Z</time>
      </trkpt>
      <trkpt lat="45.21418" lon="6.18307">
        <ele>2419</ele>
        <time>2014-08-10T12:13:09Z</time>
      </trkpt>
      <trkpt lat="45.21408" lon="6.18308">
        <ele>2427</ele>
        <time>2014-08-10T12:13:21Z</time>
      </trkpt>
      <trkpt lat="45.21399" lon="6.18305">
        <ele>2428</ele>
        <time>2014-08-10T12:13:32Z</time>
      </trkpt>
      <trkpt lat="45.2139" lon="6.18299">
        <ele>2430</ele>
        <time>2014-08-10T12:13:44Z</time>
      </trkpt>
      <trkpt lat="45.21382" lon="6.18292">
        <ele>2432</ele>
        <time>2014-08-10T12:13:52Z</time>
      </trkpt>
      <trkpt lat="45.21372" lon="6.18292">
        <ele>2433</ele>
        <time>2014-08-10T12:14:02Z</time>
      </trkpt>
      <trkpt lat="45.21362" lon="6.18292">
        <ele>2434</ele>
        <time>2014-08-10T12:14:11Z</time>
      </trkpt>
      <trkpt lat="45.21353" lon="6.18298">
        <ele>2434</ele>
        <time>2014-08-10T12:14:20Z</time>
      </trkpt>
      <trkpt lat="45.21344" lon="6.18303">
        <ele>2435</ele>
        <time>2014-08-10T12:14:32Z</time>
      </trkpt>
      <trkpt lat="45.21335" lon="6.18303">
        <ele>2435</ele>
        <time>2014-08-10T12:14:44Z</time>
      </trkpt>
      <trkpt lat="45.21325" lon="6.18302">
        <ele>2450</ele>
        <time>2014-08-10T12:14:56Z</time>
      </trkpt>
      <trkpt lat="45.21317" lon="6.18294">
        <ele>2452</ele>
        <time>2014-08-10T12:15:09Z</time>
      </trkpt>
      <trkpt lat="45.21323" lon="6.18283">
        <ele>2451</ele>
        <time>2014-08-10T12:15:18Z</time>
      </trkpt>
      <trkpt lat="45.21332" lon="6.18277">
        <ele>2450</ele>
        <time>2014-08-10T12:15:28Z</time>
      </trkpt>
      <trkpt lat="45.21342" lon="6.18274">
        <ele>2437</ele>
        <time>2014-08-10T12:15:41Z</time>
      </trkpt>
      <trkpt lat="45.2135" lon="6.18266">
        <ele>2437</ele>
        <time>2014-08-10T12:15:53Z</time>
      </trkpt>
      <trkpt lat="45.21351" lon="6.18252">
        <ele>2438</ele>
        <time>2014-08-10T12:16:03Z</time>
      </trkpt>
      <trkpt lat="45.21347" lon="6.1824">
        <ele>2446</ele>
        <time>2014-08-10T12:16:15Z</time>
      </trkpt>
      <trkpt lat="45.2134" lon="6.1823">
        <ele>2447</ele>
        <time>2014-08-10T12:16:26Z</time>
      </trkpt>
      <trkpt lat="45.21333" lon="6.1822">
        <ele>2455</ele>
        <time>2014-08-10T12:16:37Z</time>
      </trkpt>
      <trkpt lat="45.21329" lon="6.18208">
        <ele>2458</ele>
        <time>2014-08-10T12:16:48Z</time>
      </trkpt>
      <trkpt lat="45.2133" lon="6.18195">
        <ele>2459</ele>
        <time>2014-08-10T12:16:59Z</time>
      </trkpt>
      <trkpt lat="45.21335" lon="6.18184">
        <ele>2455</ele>
        <time>2014-08-10T12:17:08Z</time>
      </trkpt>
      <trkpt lat="45.21328" lon="6.18175">
        <ele>2460</ele>
        <time>2014-08-10T12:17:19Z</time>
      </trkpt>
      <trkpt lat="45.21319" lon="6.18169">
        <ele>2461</ele>
        <time>2014-08-10T12:17:30Z</time>
      </trkpt>
      <trkpt lat="45.21309" lon="6.18169">
        <ele>2461</ele>
        <time>2014-08-10T12:17:40Z</time>
      </trkpt>
      <trkpt lat="45.21301" lon="6.18177">
        <ele>2462</ele>
        <time>2014-08-10T12:17:52Z</time>
      </trkpt>
      <trkpt lat="45.21297" lon="6.18188">
        <ele>2462</ele>
        <time>2014-08-10T12:18:02Z</time>
      </trkpt>
      <trkpt lat="45.21293" lon="6.18202">
        <ele>2461</ele>
        <time>2014-08-10T12:18:14Z</time>
      </trkpt>
      <trkpt lat="45.21289" lon="6.18213">
        <ele>2461</ele>
        <time>2014-08-10T12:18:26Z</time>
      </trkpt>
      <trkpt lat="45.2128" lon="6.18208">
        <ele>2462</ele>
        <time>2014-08-10T12:18:45Z</time>
      </trkpt>
      <trkpt lat="45.21274" lon="6.18197">
        <ele>2464</ele>
        <time>2014-08-10T12:18:54Z</time>
      </trkpt>
      <trkpt lat="45.21268" lon="6.18187">
        <ele>2466</ele>
        <time>2014-08-10T12:19:06Z</time>
      </trkpt>
      <trkpt lat="45.21264" lon="6.18175">
        <ele>2468</ele>
        <time>2014-08-10T12:19:18Z</time>
      </trkpt>
      <trkpt lat="45.21254" lon="6.18176">
        <ele>2470</ele>
        <time>2014-08-10T12:19:31Z</time>
      </trkpt>
      <trkpt lat="45.21248" lon="6.18186">
        <ele>2481</ele>
        <time>2014-08-10T12:19:41Z</time>
      </trkpt>
      <trkpt lat="45.2124" lon="6.18195">
        <ele>2483</ele>
        <time>2014-08-10T12:19:56Z</time>
      </trkpt>
      <trkpt lat="45.21232" lon="6.18188">
        <ele>2484</ele>
        <time>2014-08-10T12:20:12Z</time>
      </trkpt>
      <trkpt lat="45.21233" lon="6.18175">
        <ele>2482</ele>
        <time>2014-08-10T12:20:22Z</time>
      </trkpt>
      <trkpt lat="45.21232" lon="6.1816">
        <ele>2485</ele>
        <time>2014-08-10T12:20:34Z</time>
      </trkpt>
      <trkpt lat="45.21233" lon="6.18146">
        <ele>2487</ele>
        <time>2014-08-10T12:20:46Z</time>
      </trkpt>
      <trkpt lat="45.21232" lon="6.18133">
        <ele>2490</ele>
        <time>2014-08-10T12:20:57Z</time>
      </trkpt>
      <trkpt lat="45.21232" lon="6.18118">
        <ele>2491</ele>
        <time>2014-08-10T12:21:08Z</time>
      </trkpt>
      <trkpt lat="45.21225" lon="6.1811">
        <ele>2492</ele>
        <time>2014-08-10T12:21:22Z</time>
      </trkpt>
      <trkpt lat="45.21218" lon="6.18119">
        <ele>2493</ele>
        <time>2014-08-10T12:21:31Z</time>
      </trkpt>
      <trkpt lat="45.21212" lon="6.1813">
        <ele>2493</ele>
        <time>2014-08-10T12:21:40Z</time>
      </trkpt>
      <trkpt lat="45.21205" lon="6.18142">
        <ele>2494</ele>
        <time>2014-08-10T12:21:52Z</time>
      </trkpt>
      <trkpt lat="45.21198" lon="6.18151">
        <ele>2495</ele>
        <time>2014-08-10T12:22:02Z</time>
      </trkpt>
      <trkpt lat="45.21191" lon="6.18141">
        <ele>2496</ele>
        <time>2014-08-10T12:22:23Z</time>
      </trkpt>
      <trkpt lat="45.2119" lon="6.18126">
        <ele>2497</ele>
        <time>2014-08-10T12:22:33Z</time>
      </trkpt>
      <trkpt lat="45.21187" lon="6.18112">
        <ele>2498</ele>
        <time>2014-08-10T12:22:45Z</time>
      </trkpt>
      <trkpt lat="45.21187" lon="6.18098">
        <ele>2500</ele>
        <time>2014-08-10T12:22:55Z</time>
      </trkpt>
      <trkpt lat="45.21185" lon="6.18085">
        <ele>2501</ele>
        <time>2014-08-10T12:23:04Z</time>
      </trkpt>
      <trkpt lat="45.21182" lon="6.18072">
        <ele>2506</ele>
        <time>2014-08-10T12:23:17Z</time>
      </trkpt>
      <trkpt lat="45.21182" lon="6.18058">
        <ele>2506</ele>
        <time>2014-08-10T12:23:26Z</time>
      </trkpt>
      <trkpt lat="45.21182" lon="6.18044">
        <ele>2507</ele>
        <time>2014-08-10T12:23:37Z</time>
      </trkpt>
      <trkpt lat="45.21185" lon="6.18031">
        <ele>2508</ele>
        <time>2014-08-10T12:23:46Z</time>
      </trkpt>
      <trkpt lat="45.2119" lon="6.18019">
        <ele>2508</ele>
        <time>2014-08-10T12:23:56Z</time>
      </trkpt>
      <trkpt lat="45.21196" lon="6.18009">
        <ele>2508</ele>
        <time>2014-08-10T12:24:05Z</time>
      </trkpt>
      <trkpt lat="45.21204" lon="6.18">
        <ele>2515</ele>
        <time>2014-08-10T12:24:14Z</time>
      </trkpt>
      <trkpt lat="45.21211" lon="6.1799">
        <ele>2514</ele>
        <time>2014-08-10T12:24:24Z</time>
      </trkpt>
      <trkpt lat="45.21215" lon="6.17977">
        <ele>2515</ele>
        <time>2014-08-10T12:24:33Z</time>
      </trkpt>
      <trkpt lat="45.21217" lon="6.17963">
        <ele>2516</ele>
        <time>2014-08-10T12:24:42Z</time>
      </trkpt>
      <trkpt lat="45.21213" lon="6.1795">
        <ele>2517</ele>
        <time>2014-08-10T12:24:52Z</time>
      </trkpt>
      <trkpt lat="45.2121" lon="6.17938">
        <ele>2518</ele>
        <time>2014-08-10T12:25:01Z</time>
      </trkpt>
      <trkpt lat="45.21201" lon="6.17929">
        <ele>2519</ele>
        <time>2014-08-10T12:25:10Z</time>
      </trkpt>
      <trkpt lat="45.21191" lon="6.17926">
        <ele>2520</ele>
        <time>2014-08-10T12:25:18Z</time>
      </trkpt>
      <trkpt lat="45.2118" lon="6.17926">
        <ele>2521</ele>
        <time>2014-08-10T12:25:25Z</time>
      </trkpt>
      <trkpt lat="45.21171" lon="6.17926">
        <ele>2522</ele>
        <time>2014-08-10T12:25:31Z</time>
      </trkpt>
      <trkpt lat="45.21161" lon="6.17927">
        <ele>2525</ele>
        <time>2014-08-10T12:25:38Z</time>
      </trkpt>
      <trkpt lat="45.2115" lon="6.17927">
        <ele>2525</ele>
        <time>2014-08-10T12:25:45Z</time>
      </trkpt>
      <trkpt lat="45.21142" lon="6.17922">
        <ele>2525</ele>
        <time>2014-08-10T12:25:49Z</time>
      </trkpt>
      <trkpt lat="45.21133" lon="6.17914">
        <ele>2525</ele>
        <time>2014-08-10T12:25:53Z</time>
      </trkpt>
      <trkpt lat="45.21123" lon="6.17908">
        <ele>2525</ele>
        <time>2014-08-10T12:25:57Z</time>
      </trkpt>
      <trkpt lat="45.21114" lon="6.17904">
        <ele>2526</ele>
        <time>2014-08-10T12:26:01Z</time>
      </trkpt>
      <trkpt lat="45.21102" lon="6.179">
        <ele>2526</ele>
        <time>2014-08-10T12:26:05Z</time>
      </trkpt>
      <trkpt lat="45.21091" lon="6.17895">
        <ele>2526</ele>
        <time>2014-08-10T12:26:09Z</time>
      </trkpt>
      <trkpt lat="45.21081" lon="6.17889">
        <ele>2526</ele>
        <time>2014-08-10T12:26:13Z</time>
      </trkpt>
      <trkpt lat="45.21072" lon="6.17885">
        <ele>2526</ele>
        <time>2014-08-10T12:26:16Z</time>
      </trkpt>
      <trkpt lat="45.21063" lon="6.17878">
        <ele>2525</ele>
        <time>2014-08-10T12:26:19Z</time>
      </trkpt>
      <trkpt lat="45.21053" lon="6.17873">
        <ele>2525</ele>
        <time>2014-08-10T12:26:22Z</time>
      </trkpt>
      <trkpt lat="45.21043" lon="6.17868">
        <ele>2525</ele>
        <time>2014-08-10T12:26:25Z</time>
      </trkpt>
      <trkpt lat="45.21033" lon="6.17863">
        <ele>2525</ele>
        <time>2014-08-10T12:26:28Z</time>
      </trkpt>
      <trkpt lat="45.21023" lon="6.1786">
        <ele>2524</ele>
        <time>2014-08-10T12:26:31Z</time>
      </trkpt>
      <trkpt lat="45.21013" lon="6.17859">
        <ele>2524</ele>
        <time>2014-08-10T12:26:34Z</time>
      </trkpt>
      <trkpt lat="45.21001" lon="6.17859">
        <ele>2524</ele>
        <time>2014-08-10T12:26:37Z</time>
      </trkpt>
      <trkpt lat="45.20989" lon="6.17861">
        <ele>2523</ele>
        <time>2014-08-10T12:26:40Z</time>
      </trkpt>
      <trkpt lat="45.20975" lon="6.17862">
        <ele>2523</ele>
        <time>2014-08-10T12:26:43Z</time>
      </trkpt>
      <trkpt lat="45.20965" lon="6.17861">
        <ele>2523</ele>
        <time>2014-08-10T12:26:45Z</time>
      </trkpt>
      <trkpt lat="45.20955" lon="6.17859">
        <ele>2523</ele>
        <time>2014-08-10T12:26:47Z</time>
      </trkpt>
      <trkpt lat="45.20944" lon="6.17858">
        <ele>2522</ele>
        <time>2014-08-10T12:26:49Z</time>
      </trkpt>
      <trkpt lat="45.20933" lon="6.17857">
        <ele>2522</ele>
        <time>2014-08-10T12:26:51Z</time>
      </trkpt>
      <trkpt lat="45.20923" lon="6.17858">
        <ele>2521</ele>
        <time>2014-08-10T12:26:53Z</time>
      </trkpt>
      <trkpt lat="45.20912" lon="6.1786">
        <ele>2518</ele>
        <time>2014-08-10T12:26:55Z</time>
      </trkpt>
      <trkpt lat="45.20902" lon="6.17861">
        <ele>2518</ele>
        <time>2014-08-10T12:26:57Z</time>
      </trkpt>
      <trkpt lat="45.2089" lon="6.17861">
        <ele>2518</ele>
        <time>2014-08-10T12:26:59Z</time>
      </trkpt>
      <trkpt lat="45.20878" lon="6.17861">
        <ele>2518</ele>
        <time>2014-08-10T12:27:01Z</time>
      </trkpt>
      <trkpt lat="45.20865" lon="6.17861">
        <ele>2517</ele>
        <time>2014-08-10T12:27:03Z</time>
      </trkpt>
      <trkpt lat="45.20851" lon="6.17861">
        <ele>2516</ele>
        <time>2014-08-10T12:27:05Z</time>
      </trkpt>
      <trkpt lat="45.20837" lon="6.1786">
        <ele>2516</ele>
        <time>2014-08-10T12:27:07Z</time>
      </trkpt>
      <trkpt lat="45.20824" lon="6.17862">
        <ele>2511</ele>
        <time>2014-08-10T12:27:09Z</time>
      </trkpt>
      <trkpt lat="45.20813" lon="6.17869">
        <ele>2511</ele>
        <time>2014-08-10T12:27:11Z</time>
      </trkpt>
      <trkpt lat="45.208" lon="6.17875">
        <ele>2511</ele>
        <time>2014-08-10T12:27:13Z</time>
      </trkpt>
      <trkpt lat="45.20784" lon="6.17876">
        <ele>2511</ele>
        <time>2014-08-10T12:27:15Z</time>
      </trkpt>
      <trkpt lat="45.20768" lon="6.17878">
        <ele>2510</ele>
        <time>2014-08-10T12:27:17Z</time>
      </trkpt>
      <trkpt lat="45.20751" lon="6.17879">
        <ele>2510</ele>
        <time>2014-08-10T12:27:19Z</time>
      </trkpt>
      <trkpt lat="45.20735" lon="6.17877">
        <ele>2508</ele>
        <time>2014-08-10T12:27:21Z</time>
      </trkpt>
      <trkpt lat="45.20719" lon="6.17873">
        <ele>2507</ele>
        <time>2014-08-10T12:27:23Z</time>
      </trkpt>
      <trkpt lat="45.20702" lon="6.17869">
        <ele>2507</ele>
        <time>2014-08-10T12:27:25Z</time>
      </trkpt>
      <trkpt lat="45.20686" lon="6.17867">
        <ele>2507</ele>
        <time>2014-08-10T12:27:27Z</time>
      </trkpt>
      <trkpt lat="45.20671" lon="6.1786">
        <ele>2505</ele>
        <time>2014-08-10T12:27:29Z</time>
      </trkpt>
      <trkpt lat="45.20658" lon="6.17851">
        <ele>2505</ele>
        <time>2014-08-10T12:27:31Z</time>
      </trkpt>
      <trkpt lat="45.20644" lon="6.17843">
        <ele>2505</ele>
        <time>2014-08-10T12:27:33Z</time>
      </trkpt>
      <trkpt lat="45.20629" lon="6.17838">
        <ele>2506</ele>
        <time>2014-08-10T12:27:35Z</time>
      </trkpt>
      <trkpt lat="45.20613" lon="6.17831">
        <ele>2490</ele>
        <time>2014-08-10T12:27:37Z</time>
      </trkpt>
      <trkpt lat="45.20597" lon="6.17824">
        <ele>2492</ele>
        <time>2014-08-10T12:27:39Z</time>
      </trkpt>
      <trkpt lat="45.20581" lon="6.17817">
        <ele>2492</ele>
        <time>2014-08-10T12:27:41Z</time>
      </trkpt>
      <trkpt lat="45.20564" lon="6.17813">
        <ele>2489</ele>
        <time>2014-08-10T12:27:43Z</time>
      </trkpt>
      <trkpt lat="45.20548" lon="6.17806">
        <ele>2487</ele>
        <time>2014-08-10T12:27:45Z</time>
      </trkpt>
      <trkpt lat="45.20535" lon="6.17796">
        <ele>2485</ele>
        <time>2014-08-10T12:27:47Z</time>
      </trkpt>
      <trkpt lat="45.20522" lon="6.17789">
        <ele>2484</ele>
        <time>2014-08-10T12:27:49Z</time>
      </trkpt>
      <trkpt lat="45.20509" lon="6.17785">
        <ele>2484</ele>
        <time>2014-08-10T12:27:51Z</time>
      </trkpt>
      <trkpt lat="45.20495" lon="6.17788">
        <ele>2482</ele>
        <time>2014-08-10T12:27:53Z</time>
      </trkpt>
      <trkpt lat="45.20483" lon="6.17795">
        <ele>2483</ele>
        <time>2014-08-10T12:27:55Z</time>
      </trkpt>
      <trkpt lat="45.20472" lon="6.17799">
        <ele>2483</ele>
        <time>2014-08-10T12:27:57Z</time>
      </trkpt>
      <trkpt lat="45.20462" lon="6.17799">
        <ele>2482</ele>
        <time>2014-08-10T12:27:59Z</time>
      </trkpt>
      <trkpt lat="45.20451" lon="6.17796">
        <ele>2481</ele>
        <time>2014-08-10T12:28:01Z</time>
      </trkpt>
      <trkpt lat="45.20442" lon="6.17785">
        <ele>2480</ele>
        <time>2014-08-10T12:28:03Z</time>
      </trkpt>
      <trkpt lat="45.20434" lon="6.17771">
        <ele>2478</ele>
        <time>2014-08-10T12:28:05Z</time>
      </trkpt>
      <trkpt lat="45.20425" lon="6.17762">
        <ele>2476</ele>
        <time>2014-08-10T12:28:07Z</time>
      </trkpt>
      <trkpt lat="45.20414" lon="6.1776">
        <ele>2473</ele>
        <time>2014-08-10T12:28:09Z</time>
      </trkpt>
      <trkpt lat="45.20402" lon="6.17762">
        <ele>2473</ele>
        <time>2014-08-10T12:28:11Z</time>
      </trkpt>
      <trkpt lat="45.20391" lon="6.17767">
        <ele>2474</ele>
        <time>2014-08-10T12:28:13Z</time>
      </trkpt>
      <trkpt lat="45.20381" lon="6.17766">
        <ele>2473</ele>
        <time>2014-08-10T12:28:15Z</time>
      </trkpt>
      <trkpt lat="45.20375" lon="6.17749">
        <ele>2463</ele>
        <time>2014-08-10T12:28:18Z</time>
      </trkpt>
      <trkpt lat="45.20375" lon="6.17734">
        <ele>2463</ele>
        <time>2014-08-10T12:28:20Z</time>
      </trkpt>
      <trkpt lat="45.20371" lon="6.17717">
        <ele>2461</ele>
        <time>2014-08-10T12:28:22Z</time>
      </trkpt>
      <trkpt lat="45.20366" lon="6.17701">
        <ele>2460</ele>
        <time>2014-08-10T12:28:24Z</time>
      </trkpt>
      <trkpt lat="45.20365" lon="6.17687">
        <ele>2459</ele>
        <time>2014-08-10T12:28:26Z</time>
      </trkpt>
      <trkpt lat="45.20373" lon="6.17676">
        <ele>2458</ele>
        <time>2014-08-10T12:28:29Z</time>
      </trkpt>
      <trkpt lat="45.20385" lon="6.17674">
        <ele>2458</ele>
        <time>2014-08-10T12:28:31Z</time>
      </trkpt>
      <trkpt lat="45.20398" lon="6.17672">
        <ele>2457</ele>
        <time>2014-08-10T12:28:33Z</time>
      </trkpt>
      <trkpt lat="45.20412" lon="6.17667">
        <ele>2455</ele>
        <time>2014-08-10T12:28:35Z</time>
      </trkpt>
      <trkpt lat="45.20425" lon="6.17663">
        <ele>2451</ele>
        <time>2014-08-10T12:28:37Z</time>
      </trkpt>
      <trkpt lat="45.20437" lon="6.1766">
        <ele>2449</ele>
        <time>2014-08-10T12:28:39Z</time>
      </trkpt>
      <trkpt lat="45.20447" lon="6.17648">
        <ele>2447</ele>
        <time>2014-08-10T12:28:42Z</time>
      </trkpt>
      <trkpt lat="45.20448" lon="6.17631">
        <ele>2445</ele>
        <time>2014-08-10T12:28:45Z</time>
      </trkpt>
      <trkpt lat="45.2044" lon="6.17622">
        <ele>2444</ele>
        <time>2014-08-10T12:28:48Z</time>
      </trkpt>
      <trkpt lat="45.2043" lon="6.17621">
        <ele>2445</ele>
        <time>2014-08-10T12:28:50Z</time>
      </trkpt>
      <trkpt lat="45.2042" lon="6.1762">
        <ele>2445</ele>
        <time>2014-08-10T12:28:52Z</time>
      </trkpt>
      <trkpt lat="45.20411" lon="6.17617">
        <ele>2447</ele>
        <time>2014-08-10T12:28:54Z</time>
      </trkpt>
      <trkpt lat="45.20398" lon="6.17612">
        <ele>2447</ele>
        <time>2014-08-10T12:28:57Z</time>
      </trkpt>
      <trkpt lat="45.20386" lon="6.17611">
        <ele>2447</ele>
        <time>2014-08-10T12:29:00Z</time>
      </trkpt>
      <trkpt lat="45.20377" lon="6.17605">
        <ele>2447</ele>
        <time>2014-08-10T12:29:03Z</time>
      </trkpt>
      <trkpt lat="45.20383" lon="6.17592">
        <ele>2446</ele>
        <time>2014-08-10T12:29:06Z</time>
      </trkpt>
      <trkpt lat="45.20394" lon="6.17588">
        <ele>2445</ele>
        <time>2014-08-10T12:29:08Z</time>
      </trkpt>
      <trkpt lat="45.20408" lon="6.17588">
        <ele>2443</ele>
        <time>2014-08-10T12:29:10Z</time>
      </trkpt>
      <trkpt lat="45.2042" lon="6.1759">
        <ele>2442</ele>
        <time>2014-08-10T12:29:12Z</time>
      </trkpt>
      <trkpt lat="45.20434" lon="6.17587">
        <ele>2442</ele>
        <time>2014-08-10T12:29:15Z</time>
      </trkpt>
      <trkpt lat="45.20442" lon="6.17581">
        <ele>2430</ele>
        <time>2014-08-10T12:29:17Z</time>
      </trkpt>
      <trkpt lat="45.20447" lon="6.17568">
        <ele>2428</ele>
        <time>2014-08-10T12:29:20Z</time>
      </trkpt>
      <trkpt lat="45.20438" lon="6.17559">
        <ele>2428</ele>
        <time>2014-08-10T12:29:23Z</time>
      </trkpt>
      <trkpt lat="45.20428" lon="6.17562">
        <ele>2430</ele>
        <time>2014-08-10T12:29:25Z</time>
      </trkpt>
      <trkpt lat="45.20418" lon="6.17563">
        <ele>2432</ele>
        <time>2014-08-10T12:29:27Z</time>
      </trkpt>
      <trkpt lat="45.20408" lon="6.1756">
        <ele>2438</ele>
        <time>2014-08-10T12:29:30Z</time>
      </trkpt>
      <trkpt lat="45.20399" lon="6.17557">
        <ele>2438</ele>
        <time>2014-08-10T12:29:35Z</time>
      </trkpt>
      <trkpt lat="45.20388" lon="6.17552">
        <ele>2438</ele>
        <time>2014-08-10T12:29:40Z</time>
      </trkpt>
      <trkpt lat="45.20378" lon="6.1755">
        <ele>2438</ele>
        <time>2014-08-10T12:34:04Z</time>
      </trkpt>
      <trkpt lat="45.20369" lon="6.17545">
        <ele>2438</ele>
        <time>2014-08-10T12:34:14Z</time>
      </trkpt>
      <trkpt lat="45.2036" lon="6.17539">
        <ele>2438</ele>
        <time>2014-08-10T12:34:23Z</time>
      </trkpt>
      <trkpt lat="45.20354" lon="6.17527">
        <ele>2437</ele>
        <time>2014-08-10T12:34:27Z</time>
      </trkpt>
      <trkpt lat="45.20348" lon="6.17514">
        <ele>2437</ele>
        <time>2014-08-10T12:34:31Z</time>
      </trkpt>
      <trkpt lat="45.20342" lon="6.17501">
        <ele>2436</ele>
        <time>2014-08-10T12:34:35Z</time>
      </trkpt>
      <trkpt lat="45.20333" lon="6.17494">
        <ele>2437</ele>
        <time>2014-08-10T12:34:40Z</time>
      </trkpt>
      <trkpt lat="45.20322" lon="6.17494">
        <ele>2438</ele>
        <time>2014-08-10T12:35:12Z</time>
      </trkpt>
      <trkpt lat="45.20312" lon="6.17494">
        <ele>2440</ele>
        <time>2014-08-10T12:35:29Z</time>
      </trkpt>
      <trkpt lat="45.20303" lon="6.17489">
        <ele>2441</ele>
        <time>2014-08-10T12:35:52Z</time>
      </trkpt>
      <trkpt lat="45.20299" lon="6.17477">
        <ele>2441</ele>
        <time>2014-08-10T12:36:03Z</time>
      </trkpt>
      <trkpt lat="45.20294" lon="6.17465">
        <ele>2441</ele>
        <time>2014-08-10T12:36:17Z</time>
      </trkpt>
      <trkpt lat="45.20285" lon="6.1746">
        <ele>2442</ele>
        <time>2014-08-10T12:36:30Z</time>
      </trkpt>
      <trkpt lat="45.20277" lon="6.17453">
        <ele>2443</ele>
        <time>2014-08-10T12:36:40Z</time>
      </trkpt>
      <trkpt lat="45.20267" lon="6.17448">
        <ele>2444</ele>
        <time>2014-08-10T12:36:50Z</time>
      </trkpt>
      <trkpt lat="45.20261" lon="6.17438">
        <ele>2445</ele>
        <time>2014-08-10T12:38:07Z</time>
      </trkpt>
      <trkpt lat="45.20253" lon="6.1743">
        <ele>2446</ele>
        <time>2014-08-10T12:38:17Z</time>
      </trkpt>
      <trkpt lat="45.20244" lon="6.17424">
        <ele>2450</ele>
        <time>2014-08-10T12:38:26Z</time>
      </trkpt>
      <trkpt lat="45.20236" lon="6.17417">
        <ele>2449</ele>
        <time>2014-08-10T12:38:38Z</time>
      </trkpt>
      <trkpt lat="45.20227" lon="6.1741">
        <ele>2449</ele>
        <time>2014-08-10T12:38:58Z</time>
      </trkpt>
      <trkpt lat="45.20218" lon="6.17406">
        <ele>2449</ele>
        <time>2014-08-10T12:39:05Z</time>
      </trkpt>
      <trkpt lat="45.20207" lon="6.17403">
        <ele>2450</ele>
        <time>2014-08-10T12:39:14Z</time>
      </trkpt>
      <trkpt lat="45.20198" lon="6.17403">
        <ele>2451</ele>
        <time>2014-08-10T12:39:21Z</time>
      </trkpt>
      <trkpt lat="45.20188" lon="6.17403">
        <ele>2452</ele>
        <time>2014-08-10T12:39:28Z</time>
      </trkpt>
      <trkpt lat="45.2018" lon="6.17411">
        <ele>2453</ele>
        <time>2014-08-10T12:39:37Z</time>
      </trkpt>
      <trkpt lat="45.20171" lon="6.17403">
        <ele>2454</ele>
        <time>2014-08-10T12:39:44Z</time>
      </trkpt>
      <trkpt lat="45.20164" lon="6.17393">
        <ele>2454</ele>
        <time>2014-08-10T12:39:48Z</time>
      </trkpt>
      <trkpt lat="45.20156" lon="6.17384">
        <ele>2453</ele>
        <time>2014-08-10T12:39:55Z</time>
      </trkpt>
      <trkpt lat="45.20152" lon="6.17372">
        <ele>2453</ele>
        <time>2014-08-10T12:40:20Z</time>
      </trkpt>
      <trkpt lat="45.20143" lon="6.17365">
        <ele>2453</ele>
        <time>2014-08-10T12:40:29Z</time>
      </trkpt>
      <trkpt lat="45.20133" lon="6.17363">
        <ele>2452</ele>
        <time>2014-08-10T12:40:34Z</time>
      </trkpt>
      <trkpt lat="45.20124" lon="6.17355">
        <ele>2452</ele>
        <time>2014-08-10T12:40:37Z</time>
      </trkpt>
      <trkpt lat="45.20117" lon="6.17347">
        <ele>2451</ele>
        <time>2014-08-10T12:40:40Z</time>
      </trkpt>
      <trkpt lat="45.20108" lon="6.17338">
        <ele>2451</ele>
        <time>2014-08-10T12:40:48Z</time>
      </trkpt>
      <trkpt lat="45.20101" lon="6.17328">
        <ele>2446</ele>
        <time>2014-08-10T12:40:59Z</time>
      </trkpt>
      <trkpt lat="45.20093" lon="6.17333">
        <ele>2447</ele>
        <time>2014-08-10T12:41:19Z</time>
      </trkpt>
      <trkpt lat="45.20082" lon="6.17337">
        <ele>2448</ele>
        <time>2014-08-10T12:41:33Z</time>
      </trkpt>
      <trkpt lat="45.20072" lon="6.17338">
        <ele>2449</ele>
        <time>2014-08-10T12:41:38Z</time>
      </trkpt>
      <trkpt lat="45.20062" lon="6.17339">
        <ele>2449</ele>
        <time>2014-08-10T12:41:42Z</time>
      </trkpt>
      <trkpt lat="45.20053" lon="6.17342">
        <ele>2450</ele>
        <time>2014-08-10T12:41:46Z</time>
      </trkpt>
      <trkpt lat="45.20042" lon="6.17342">
        <ele>2450</ele>
        <time>2014-08-10T12:41:51Z</time>
      </trkpt>
      <trkpt lat="45.20032" lon="6.17339">
        <ele>2451</ele>
        <time>2014-08-10T12:42:05Z</time>
      </trkpt>
      <trkpt lat="45.20022" lon="6.17337">
        <ele>2451</ele>
        <time>2014-08-10T12:42:25Z</time>
      </trkpt>
      <trkpt lat="45.20011" lon="6.17335">
        <ele>2452</ele>
        <time>2014-08-10T12:42:32Z</time>
      </trkpt>
      <trkpt lat="45.20004" lon="6.17345">
        <ele>2452</ele>
        <time>2014-08-10T12:42:40Z</time>
      </trkpt>
      <trkpt lat="45.19999" lon="6.17358">
        <ele>2454</ele>
        <time>2014-08-10T12:42:47Z</time>
      </trkpt>
      <trkpt lat="45.2" lon="6.17373">
        <ele>2451</ele>
        <time>2014-08-10T12:42:54Z</time>
      </trkpt>
      <trkpt lat="45.20002" lon="6.17386">
        <ele>2451</ele>
        <time>2014-08-10T12:42:58Z</time>
      </trkpt>
      <trkpt lat="45.19995" lon="6.17396">
        <ele>2453</ele>
        <time>2014-08-10T12:43:04Z</time>
      </trkpt>
      <trkpt lat="45.19985" lon="6.17396">
        <ele>2453</ele>
        <time>2014-08-10T12:43:11Z</time>
      </trkpt>
      <trkpt lat="45.19975" lon="6.17395">
        <ele>2453</ele>
        <time>2014-08-10T12:43:16Z</time>
      </trkpt>
      <trkpt lat="45.19964" lon="6.17391">
        <ele>2454</ele>
        <time>2014-08-10T12:43:21Z</time>
      </trkpt>
      <trkpt lat="45.19955" lon="6.17384">
        <ele>2454</ele>
        <time>2014-08-10T12:43:24Z</time>
      </trkpt>
      <trkpt lat="45.19944" lon="6.1738">
        <ele>2455</ele>
        <time>2014-08-10T12:43:27Z</time>
      </trkpt>
      <trkpt lat="45.19931" lon="6.1738">
        <ele>2455</ele>
        <time>2014-08-10T12:43:30Z</time>
      </trkpt>
      <trkpt lat="45.19922" lon="6.17381">
        <ele>2455</ele>
        <time>2014-08-10T12:43:32Z</time>
      </trkpt>
      <trkpt lat="45.19908" lon="6.17375">
        <ele>2456</ele>
        <time>2014-08-10T12:43:35Z</time>
      </trkpt>
      <trkpt lat="45.19898" lon="6.17374">
        <ele>2456</ele>
        <time>2014-08-10T12:43:38Z</time>
      </trkpt>
      <trkpt lat="45.19888" lon="6.17372">
        <ele>2456</ele>
        <time>2014-08-10T12:43:44Z</time>
      </trkpt>
      <trkpt lat="45.19879" lon="6.17375">
        <ele>2456</ele>
        <time>2014-08-10T12:43:49Z</time>
      </trkpt>
      <trkpt lat="45.19869" lon="6.17374">
        <ele>2456</ele>
        <time>2014-08-10T12:43:56Z</time>
      </trkpt>
      <trkpt lat="45.19859" lon="6.17366">
        <ele>2457</ele>
        <time>2014-08-10T12:44:02Z</time>
      </trkpt>
      <trkpt lat="45.19852" lon="6.17356">
        <ele>2457</ele>
        <time>2014-08-10T12:44:07Z</time>
      </trkpt>
      <trkpt lat="45.19842" lon="6.17348">
        <ele>2458</ele>
        <time>2014-08-10T12:44:10Z</time>
      </trkpt>
      <trkpt lat="45.19832" lon="6.1734">
        <ele>2459</ele>
        <time>2014-08-10T12:44:13Z</time>
      </trkpt>
      <trkpt lat="45.19821" lon="6.17334">
        <ele>2458</ele>
        <time>2014-08-10T12:44:17Z</time>
      </trkpt>
      <trkpt lat="45.19812" lon="6.17325">
        <ele>2464</ele>
        <time>2014-08-10T12:44:21Z</time>
      </trkpt>
      <trkpt lat="45.19804" lon="6.17316">
        <ele>2464</ele>
        <time>2014-08-10T12:44:24Z</time>
      </trkpt>
      <trkpt lat="45.19791" lon="6.17311">
        <ele>2464</ele>
        <time>2014-08-10T12:44:27Z</time>
      </trkpt>
      <trkpt lat="45.1978" lon="6.17307">
        <ele>2464</ele>
        <time>2014-08-10T12:44:30Z</time>
      </trkpt>
      <trkpt lat="45.19767" lon="6.17306">
        <ele>2463</ele>
        <time>2014-08-10T12:44:33Z</time>
      </trkpt>
      <trkpt lat="45.19755" lon="6.17309">
        <ele>2462</ele>
        <time>2014-08-10T12:44:36Z</time>
      </trkpt>
      <trkpt lat="45.19744" lon="6.17311">
        <ele>2464</ele>
        <time>2014-08-10T12:44:40Z</time>
      </trkpt>
      <trkpt lat="45.19734" lon="6.17315">
        <ele>2464</ele>
        <time>2014-08-10T12:44:45Z</time>
      </trkpt>
      <trkpt lat="45.19727" lon="6.17325">
        <ele>2464</ele>
        <time>2014-08-10T12:44:52Z</time>
      </trkpt>
      <trkpt lat="45.19722" lon="6.17337">
        <ele>2458</ele>
        <time>2014-08-10T12:44:57Z</time>
      </trkpt>
      <trkpt lat="45.19717" lon="6.1735">
        <ele>2458</ele>
        <time>2014-08-10T12:45:04Z</time>
      </trkpt>
      <trkpt lat="45.19717" lon="6.17365">
        <ele>2458</ele>
        <time>2014-08-10T12:45:11Z</time>
      </trkpt>
      <trkpt lat="45.19713" lon="6.17377">
        <ele>2458</ele>
        <time>2014-08-10T12:45:29Z</time>
      </trkpt>
      <trkpt lat="45.19706" lon="6.17386">
        <ele>2458</ele>
        <time>2014-08-10T12:45:40Z</time>
      </trkpt>
      <trkpt lat="45.19697" lon="6.17393">
        <ele>2458</ele>
        <time>2014-08-10T12:45:52Z</time>
      </trkpt>
      <trkpt lat="45.19687" lon="6.17396">
        <ele>2459</ele>
        <time>2014-08-10T12:46:08Z</time>
      </trkpt>
      <trkpt lat="45.19678" lon="6.17394">
        <ele>2459</ele>
        <time>2014-08-10T12:46:20Z</time>
      </trkpt>
      <trkpt lat="45.19668" lon="6.17397">
        <ele>2459</ele>
        <time>2014-08-10T12:46:30Z</time>
      </trkpt>
      <trkpt lat="45.1966" lon="6.17405">
        <ele>2464</ele>
        <time>2014-08-10T12:46:46Z</time>
      </trkpt>
      <trkpt lat="45.19651" lon="6.1741">
        <ele>2465</ele>
        <time>2014-08-10T12:46:54Z</time>
      </trkpt>
      <trkpt lat="45.19642" lon="6.17415">
        <ele>2466</ele>
        <time>2014-08-10T12:47:02Z</time>
      </trkpt>
      <trkpt lat="45.19633" lon="6.17416">
        <ele>2467</ele>
        <time>2014-08-10T12:47:10Z</time>
      </trkpt>
      <trkpt lat="45.19623" lon="6.17417">
        <ele>2468</ele>
        <time>2014-08-10T12:47:20Z</time>
      </trkpt>
      <trkpt lat="45.19614" lon="6.17412">
        <ele>2469</ele>
        <time>2014-08-10T12:47:28Z</time>
      </trkpt>
      <trkpt lat="45.19604" lon="6.17406">
        <ele>2469</ele>
        <time>2014-08-10T12:47:37Z</time>
      </trkpt>
      <trkpt lat="45.19595" lon="6.17406">
        <ele>2469</ele>
        <time>2014-08-10T12:47:44Z</time>
      </trkpt>
      <trkpt lat="45.19584" lon="6.17402">
        <ele>2469</ele>
        <time>2014-08-10T12:47:51Z</time>
      </trkpt>
      <trkpt lat="45.19574" lon="6.174">
        <ele>2473</ele>
        <time>2014-08-10T12:47:57Z</time>
      </trkpt>
      <trkpt lat="45.19565" lon="6.174">
        <ele>2474</ele>
        <time>2014-08-10T12:48:05Z</time>
      </trkpt>
      <trkpt lat="45.19555" lon="6.17396">
        <ele>2475</ele>
        <time>2014-08-10T12:48:13Z</time>
      </trkpt>
      <trkpt lat="45.19546" lon="6.1739">
        <ele>2476</ele>
        <time>2014-08-10T12:48:23Z</time>
      </trkpt>
      <trkpt lat="45.19536" lon="6.17387">
        <ele>2476</ele>
        <time>2014-08-10T12:48:32Z</time>
      </trkpt>
      <trkpt lat="45.19526" lon="6.17388">
        <ele>2476</ele>
        <time>2014-08-10T12:48:42Z</time>
      </trkpt>
      <trkpt lat="45.19516" lon="6.1739">
        <ele>2476</ele>
        <time>2014-08-10T12:48:49Z</time>
      </trkpt>
      <trkpt lat="45.19506" lon="6.17388">
        <ele>2476</ele>
        <time>2014-08-10T12:49:03Z</time>
      </trkpt>
      <trkpt lat="45.19497" lon="6.17383">
        <ele>2478</ele>
        <time>2014-08-10T12:49:13Z</time>
      </trkpt>
      <trkpt lat="45.19487" lon="6.1738">
        <ele>2478</ele>
        <time>2014-08-10T12:49:21Z</time>
      </trkpt>
      <trkpt lat="45.19478" lon="6.17375">
        <ele>2479</ele>
        <time>2014-08-10T12:49:27Z</time>
      </trkpt>
      <trkpt lat="45.19469" lon="6.17371">
        <ele>2480</ele>
        <time>2014-08-10T12:49:33Z</time>
      </trkpt>
      <trkpt lat="45.1946" lon="6.17367">
        <ele>2480</ele>
        <time>2014-08-10T12:49:38Z</time>
      </trkpt>
      <trkpt lat="45.1945" lon="6.17363">
        <ele>2480</ele>
        <time>2014-08-10T12:49:45Z</time>
      </trkpt>
      <trkpt lat="45.1944" lon="6.17359">
        <ele>2481</ele>
        <time>2014-08-10T12:49:50Z</time>
      </trkpt>
      <trkpt lat="45.19431" lon="6.17357">
        <ele>2481</ele>
        <time>2014-08-10T12:49:55Z</time>
      </trkpt>
      <trkpt lat="45.19421" lon="6.17355">
        <ele>2482</ele>
        <time>2014-08-10T12:49:59Z</time>
      </trkpt>
      <trkpt lat="45.19411" lon="6.17352">
        <ele>2480</ele>
        <time>2014-08-10T12:50:08Z</time>
      </trkpt>
      <trkpt lat="45.19402" lon="6.17348">
        <ele>2479</ele>
        <time>2014-08-10T12:50:18Z</time>
      </trkpt>
      <trkpt lat="45.19393" lon="6.17343">
        <ele>2478</ele>
        <time>2014-08-10T12:50:28Z</time>
      </trkpt>
      <trkpt lat="45.19383" lon="6.1734">
        <ele>2477</ele>
        <time>2014-08-10T12:50:39Z</time>
      </trkpt>
      <trkpt lat="45.19373" lon="6.17342">
        <ele>2476</ele>
        <time>2014-08-10T12:50:51Z</time>
      </trkpt>
      <trkpt lat="45.19367" lon="6.17331">
        <ele>2490</ele>
        <time>2014-08-10T12:51:04Z</time>
      </trkpt>
      <trkpt lat="45.19357" lon="6.17334">
        <ele>2474</ele>
        <time>2014-08-10T12:51:13Z</time>
      </trkpt>
      <trkpt lat="45.19348" lon="6.1733">
        <ele>2483</ele>
        <time>2014-08-10T12:51:21Z</time>
      </trkpt>
      <trkpt lat="45.19338" lon="6.17329">
        <ele>2478</ele>
        <time>2014-08-10T12:51:33Z</time>
      </trkpt>
      <trkpt lat="45.19329" lon="6.17323">
        <ele>2479</ele>
        <time>2014-08-10T12:51:46Z</time>
      </trkpt>
      <trkpt lat="45.19319" lon="6.17315">
        <ele>2484</ele>
        <time>2014-08-10T12:51:57Z</time>
      </trkpt>
      <trkpt lat="45.19309" lon="6.17316">
        <ele>2485</ele>
        <time>2014-08-10T12:52:08Z</time>
      </trkpt>
      <trkpt lat="45.19299" lon="6.17317">
        <ele>2486</ele>
        <time>2014-08-10T12:52:17Z</time>
      </trkpt>
      <trkpt lat="45.1929" lon="6.17314">
        <ele>2487</ele>
        <time>2014-08-10T12:52:26Z</time>
      </trkpt>
      <trkpt lat="45.19282" lon="6.17305">
        <ele>2488</ele>
        <time>2014-08-10T12:52:38Z</time>
      </trkpt>
      <trkpt lat="45.19273" lon="6.17301">
        <ele>2489</ele>
        <time>2014-08-10T12:52:49Z</time>
      </trkpt>
      <trkpt lat="45.19264" lon="6.17299">
        <ele>2489</ele>
        <time>2014-08-10T12:53:00Z</time>
      </trkpt>
      <trkpt lat="45.19254" lon="6.17297">
        <ele>2489</ele>
        <time>2014-08-10T12:53:10Z</time>
      </trkpt>
      <trkpt lat="45.19245" lon="6.17291">
        <ele>2483</ele>
        <time>2014-08-10T12:53:20Z</time>
      </trkpt>
      <trkpt lat="45.19236" lon="6.17287">
        <ele>2483</ele>
        <time>2014-08-10T12:53:28Z</time>
      </trkpt>
      <trkpt lat="45.19227" lon="6.17286">
        <ele>2482</ele>
        <time>2014-08-10T12:53:39Z</time>
      </trkpt>
      <trkpt lat="45.19219" lon="6.1728">
        <ele>2481</ele>
        <time>2014-08-10T12:53:49Z</time>
      </trkpt>
      <trkpt lat="45.1921" lon="6.17272">
        <ele>2481</ele>
        <time>2014-08-10T12:54:01Z</time>
      </trkpt>
      <trkpt lat="45.19203" lon="6.17262">
        <ele>2480</ele>
        <time>2014-08-10T12:54:10Z</time>
      </trkpt>
      <trkpt lat="45.19196" lon="6.17254">
        <ele>2478</ele>
        <time>2014-08-10T12:54:20Z</time>
      </trkpt>
      <trkpt lat="45.19189" lon="6.17245">
        <ele>2488</ele>
        <time>2014-08-10T12:54:28Z</time>
      </trkpt>
      <trkpt lat="45.19179" lon="6.1724">
        <ele>2485</ele>
        <time>2014-08-10T12:54:37Z</time>
      </trkpt>
      <trkpt lat="45.19169" lon="6.1724">
        <ele>2481</ele>
        <time>2014-08-10T12:54:45Z</time>
      </trkpt>
      <trkpt lat="45.19159" lon="6.17237">
        <ele>2480</ele>
        <time>2014-08-10T12:54:54Z</time>
      </trkpt>
      <trkpt lat="45.1915" lon="6.17232">
        <ele>2484</ele>
        <time>2014-08-10T12:55:02Z</time>
      </trkpt>
      <trkpt lat="45.1914" lon="6.17228">
        <ele>2486</ele>
        <time>2014-08-10T12:55:13Z</time>
      </trkpt>
      <trkpt lat="45.19131" lon="6.17226">
        <ele>2488</ele>
        <time>2014-08-10T12:55:22Z</time>
      </trkpt>
      <trkpt lat="45.19121" lon="6.17224">
        <ele>2488</ele>
        <time>2014-08-10T12:55:33Z</time>
      </trkpt>
      <trkpt lat="45.19111" lon="6.17226">
        <ele>2488</ele>
        <time>2014-08-10T12:55:45Z</time>
      </trkpt>
      <trkpt lat="45.19102" lon="6.17232">
        <ele>2487</ele>
        <time>2014-08-10T12:56:01Z</time>
      </trkpt>
      <trkpt lat="45.19093" lon="6.17237">
        <ele>2486</ele>
        <time>2014-08-10T12:56:10Z</time>
      </trkpt>
      <trkpt lat="45.19085" lon="6.17241">
        <ele>2484</ele>
        <time>2014-08-10T12:56:19Z</time>
      </trkpt>
      <trkpt lat="45.19076" lon="6.17244">
        <ele>2487</ele>
        <time>2014-08-10T12:56:27Z</time>
      </trkpt>
      <trkpt lat="45.19066" lon="6.17247">
        <ele>2490</ele>
        <time>2014-08-10T12:56:39Z</time>
      </trkpt>
      <trkpt lat="45.19057" lon="6.17249">
        <ele>2492</ele>
        <time>2014-08-10T12:56:53Z</time>
      </trkpt>
      <trkpt lat="45.19047" lon="6.17253">
        <ele>2483</ele>
        <time>2014-08-10T12:57:03Z</time>
      </trkpt>
      <trkpt lat="45.19037" lon="6.17255">
        <ele>2483</ele>
        <time>2014-08-10T12:57:15Z</time>
      </trkpt>
      <trkpt lat="45.19027" lon="6.17254">
        <ele>2485</ele>
        <time>2014-08-10T12:57:25Z</time>
      </trkpt>
      <trkpt lat="45.19018" lon="6.17253">
        <ele>2486</ele>
        <time>2014-08-10T12:57:42Z</time>
      </trkpt>
      <trkpt lat="45.19008" lon="6.17252">
        <ele>2488</ele>
        <time>2014-08-10T12:58:00Z</time>
      </trkpt>
      <trkpt lat="45.18999" lon="6.17249">
        <ele>2493</ele>
        <time>2014-08-10T12:58:16Z</time>
      </trkpt>
      <trkpt lat="45.18991" lon="6.17241">
        <ele>2501</ele>
        <time>2014-08-10T12:58:30Z</time>
      </trkpt>
      <trkpt lat="45.18982" lon="6.17235">
        <ele>2506</ele>
        <time>2014-08-10T12:58:39Z</time>
      </trkpt>
      <trkpt lat="45.18972" lon="6.17233">
        <ele>2509</ele>
        <time>2014-08-10T12:58:50Z</time>
      </trkpt>
      <trkpt lat="45.18963" lon="6.17234">
        <ele>2511</ele>
        <time>2014-08-10T12:59:03Z</time>
      </trkpt>
      <trkpt lat="45.18954" lon="6.17241">
        <ele>2511</ele>
        <time>2014-08-10T12:59:16Z</time>
      </trkpt>
      <trkpt lat="45.18945" lon="6.1724">
        <ele>2513</ele>
        <time>2014-08-10T12:59:29Z</time>
      </trkpt>
      <trkpt lat="45.18936" lon="6.17244">
        <ele>2513</ele>
        <time>2014-08-10T12:59:47Z</time>
      </trkpt>
      <trkpt lat="45.18926" lon="6.17246">
        <ele>2513</ele>
        <time>2014-08-10T13:00:03Z</time>
      </trkpt>
      <trkpt lat="45.18917" lon="6.17243">
        <ele>2514</ele>
        <time>2014-08-10T13:00:26Z</time>
      </trkpt>
      <trkpt lat="45.18907" lon="6.17243">
        <ele>2518</ele>
        <time>2014-08-10T13:00:39Z</time>
      </trkpt>
      <trkpt lat="45.18898" lon="6.17243">
        <ele>2520</ele>
        <time>2014-08-10T13:00:52Z</time>
      </trkpt>
      <trkpt lat="45.18888" lon="6.17243">
        <ele>2522</ele>
        <time>2014-08-10T13:01:05Z</time>
      </trkpt>
      <trkpt lat="45.18879" lon="6.17247">
        <ele>2522</ele>
        <time>2014-08-10T13:01:15Z</time>
      </trkpt>
      <trkpt lat="45.1887" lon="6.17252">
        <ele>2514</ele>
        <time>2014-08-10T13:01:24Z</time>
      </trkpt>
      <trkpt lat="45.18862" lon="6.17259">
        <ele>2514</ele>
        <time>2014-08-10T13:01:35Z</time>
      </trkpt>
      <trkpt lat="45.18852" lon="6.1726">
        <ele>2515</ele>
        <time>2014-08-10T13:01:44Z</time>
      </trkpt>
      <trkpt lat="45.18843" lon="6.17264">
        <ele>2515</ele>
        <time>2014-08-10T13:02:21Z</time>
      </trkpt>
      <trkpt lat="45.18832" lon="6.17266">
        <ele>2517</ele>
        <time>2014-08-10T13:02:26Z</time>
      </trkpt>
      <trkpt lat="45.18823" lon="6.17268">
        <ele>2516</ele>
        <time>2014-08-10T13:02:30Z</time>
      </trkpt>
      <trkpt lat="45.18812" lon="6.1727">
        <ele>2516</ele>
        <time>2014-08-10T13:02:34Z</time>
      </trkpt>
      <trkpt lat="45.18802" lon="6.17266">
        <ele>2516</ele>
        <time>2014-08-10T13:02:39Z</time>
      </trkpt>
      <trkpt lat="45.18794" lon="6.17272">
        <ele>2516</ele>
        <time>2014-08-10T13:02:43Z</time>
      </trkpt>
      <trkpt lat="45.18795" lon="6.17287">
        <ele>2515</ele>
        <time>2014-08-10T13:02:49Z</time>
      </trkpt>
      <trkpt lat="45.18805" lon="6.17289">
        <ele>2515</ele>
        <time>2014-08-10T13:02:54Z</time>
      </trkpt>
      <trkpt lat="45.18815" lon="6.17292">
        <ele>2515</ele>
        <time>2014-08-10T13:02:58Z</time>
      </trkpt>
      <trkpt lat="45.18824" lon="6.17298">
        <ele>2515</ele>
        <time>2014-08-10T13:03:02Z</time>
      </trkpt>
      <trkpt lat="45.1883" lon="6.17309">
        <ele>2514</ele>
        <time>2014-08-10T13:03:06Z</time>
      </trkpt>
      <trkpt lat="45.18837" lon="6.17321">
        <ele>2512</ele>
        <time>2014-08-10T13:03:12Z</time>
      </trkpt>
      <trkpt lat="45.18843" lon="6.17331">
        <ele>2511</ele>
        <time>2014-08-10T13:03:17Z</time>
      </trkpt>
      <trkpt lat="45.18851" lon="6.17339">
        <ele>2510</ele>
        <time>2014-08-10T13:03:22Z</time>
      </trkpt>
      <trkpt lat="45.18858" lon="6.17348">
        <ele>2510</ele>
        <time>2014-08-10T13:03:27Z</time>
      </trkpt>
      <trkpt lat="45.18865" lon="6.17356">
        <ele>2510</ele>
        <time>2014-08-10T13:03:32Z</time>
      </trkpt>
      <trkpt lat="45.1887" lon="6.17369">
        <ele>2510</ele>
        <time>2014-08-10T13:03:38Z</time>
      </trkpt>
      <trkpt lat="45.18874" lon="6.17384">
        <ele>2510</ele>
        <time>2014-08-10T13:03:42Z</time>
      </trkpt>
      <trkpt lat="45.18874" lon="6.174">
        <ele>2510</ele>
        <time>2014-08-10T13:03:46Z</time>
      </trkpt>
      <trkpt lat="45.18877" lon="6.17416">
        <ele>2510</ele>
        <time>2014-08-10T13:03:51Z</time>
      </trkpt>
      <trkpt lat="45.18884" lon="6.17427">
        <ele>2512</ele>
        <time>2014-08-10T13:03:56Z</time>
      </trkpt>
      <trkpt lat="45.18893" lon="6.17433">
        <ele>2511</ele>
        <time>2014-08-10T13:04:01Z</time>
      </trkpt>
      <trkpt lat="45.18901" lon="6.17441">
        <ele>2511</ele>
        <time>2014-08-10T13:04:13Z</time>
      </trkpt>
      <trkpt lat="45.1891" lon="6.17447">
        <ele>2511</ele>
        <time>2014-08-10T13:04:22Z</time>
      </trkpt>
      <trkpt lat="45.18914" lon="6.17459">
        <ele>2512</ele>
        <time>2014-08-10T13:04:32Z</time>
      </trkpt>
      <trkpt lat="45.18919" lon="6.17471">
        <ele>2502</ele>
        <time>2014-08-10T13:04:44Z</time>
      </trkpt>
      <trkpt lat="45.18928" lon="6.17475">
        <ele>2502</ele>
        <time>2014-08-10T13:04:53Z</time>
      </trkpt>
      <trkpt lat="45.18937" lon="6.17479">
        <ele>2502</ele>
        <time>2014-08-10T13:04:59Z</time>
      </trkpt>
      <trkpt lat="45.18944" lon="6.17487">
        <ele>2501</ele>
        <time>2014-08-10T13:05:09Z</time>
      </trkpt>
      <trkpt lat="45.18954" lon="6.17492">
        <ele>2499</ele>
        <time>2014-08-10T13:05:20Z</time>
      </trkpt>
      <trkpt lat="45.18963" lon="6.17499">
        <ele>2498</ele>
        <time>2014-08-10T13:05:23Z</time>
      </trkpt>
      <trkpt lat="45.18972" lon="6.17505">
        <ele>2502</ele>
        <time>2014-08-10T13:05:26Z</time>
      </trkpt>
      <trkpt lat="45.18983" lon="6.17512">
        <ele>2500</ele>
        <time>2014-08-10T13:05:30Z</time>
      </trkpt>
      <trkpt lat="45.18992" lon="6.17522">
        <ele>2500</ele>
        <time>2014-08-10T13:05:35Z</time>
      </trkpt>
      <trkpt lat="45.19" lon="6.17534">
        <ele>2502</ele>
        <time>2014-08-10T13:05:38Z</time>
      </trkpt>
      <trkpt lat="45.19004" lon="6.17547">
        <ele>2494</ele>
        <time>2014-08-10T13:05:48Z</time>
      </trkpt>
      <trkpt lat="45.19015" lon="6.17548">
        <ele>2494</ele>
        <time>2014-08-10T13:05:58Z</time>
      </trkpt>
      <trkpt lat="45.19024" lon="6.17553">
        <ele>2494</ele>
        <time>2014-08-10T13:06:09Z</time>
      </trkpt>
      <trkpt lat="45.19032" lon="6.17559">
        <ele>2493</ele>
        <time>2014-08-10T13:06:13Z</time>
      </trkpt>
      <trkpt lat="45.19041" lon="6.17568">
        <ele>2493</ele>
        <time>2014-08-10T13:06:16Z</time>
      </trkpt>
      <trkpt lat="45.1905" lon="6.17574">
        <ele>2492</ele>
        <time>2014-08-10T13:06:22Z</time>
      </trkpt>
      <trkpt lat="45.19058" lon="6.17584">
        <ele>2501</ele>
        <time>2014-08-10T13:06:29Z</time>
      </trkpt>
      <trkpt lat="45.19067" lon="6.1759">
        <ele>2499</ele>
        <time>2014-08-10T13:06:37Z</time>
      </trkpt>
      <trkpt lat="45.19076" lon="6.17597">
        <ele>2499</ele>
        <time>2014-08-10T13:06:41Z</time>
      </trkpt>
      <trkpt lat="45.19085" lon="6.17604">
        <ele>2495</ele>
        <time>2014-08-10T13:06:46Z</time>
      </trkpt>
      <trkpt lat="45.19095" lon="6.17614">
        <ele>2497</ele>
        <time>2014-08-10T13:06:51Z</time>
      </trkpt>
      <trkpt lat="45.19102" lon="6.17622">
        <ele>2498</ele>
        <time>2014-08-10T13:07:02Z</time>
      </trkpt>
      <trkpt lat="45.19111" lon="6.17627">
        <ele>2498</ele>
        <time>2014-08-10T13:07:12Z</time>
      </trkpt>
      <trkpt lat="45.19121" lon="6.1763">
        <ele>2498</ele>
        <time>2014-08-10T13:07:26Z</time>
      </trkpt>
      <trkpt lat="45.19131" lon="6.17634">
        <ele>2498</ele>
        <time>2014-08-10T13:07:30Z</time>
      </trkpt>
      <trkpt lat="45.19141" lon="6.17636">
        <ele>2498</ele>
        <time>2014-08-10T13:07:34Z</time>
      </trkpt>
      <trkpt lat="45.19151" lon="6.17639">
        <ele>2498</ele>
        <time>2014-08-10T13:07:38Z</time>
      </trkpt>
      <trkpt lat="45.1916" lon="6.17642">
        <ele>2498</ele>
        <time>2014-08-10T13:07:42Z</time>
      </trkpt>
      <trkpt lat="45.1917" lon="6.17645">
        <ele>2495</ele>
        <time>2014-08-10T13:07:48Z</time>
      </trkpt>
      <trkpt lat="45.1918" lon="6.17647">
        <ele>2494</ele>
        <time>2014-08-10T13:07:53Z</time>
      </trkpt>
      <trkpt lat="45.19189" lon="6.17653">
        <ele>2494</ele>
        <time>2014-08-10T13:08:00Z</time>
      </trkpt>
      <trkpt lat="45.19196" lon="6.17661">
        <ele>2494</ele>
        <time>2014-08-10T13:08:10Z</time>
      </trkpt>
      <trkpt lat="45.19206" lon="6.17657">
        <ele>2493</ele>
        <time>2014-08-10T13:08:23Z</time>
      </trkpt>
      <trkpt lat="45.19217" lon="6.17654">
        <ele>2492</ele>
        <time>2014-08-10T13:08:30Z</time>
      </trkpt>
      <trkpt lat="45.19227" lon="6.17653">
        <ele>2492</ele>
        <time>2014-08-10T13:08:33Z</time>
      </trkpt>
      <trkpt lat="45.19238" lon="6.17649">
        <ele>2492</ele>
        <time>2014-08-10T13:08:36Z</time>
      </trkpt>
      <trkpt lat="45.1925" lon="6.17644">
        <ele>2491</ele>
        <time>2014-08-10T13:08:40Z</time>
      </trkpt>
      <trkpt lat="45.19259" lon="6.1764">
        <ele>2489</ele>
        <time>2014-08-10T13:08:43Z</time>
      </trkpt>
      <trkpt lat="45.19269" lon="6.17638">
        <ele>2488</ele>
        <time>2014-08-10T13:08:47Z</time>
      </trkpt>
      <trkpt lat="45.19279" lon="6.17634">
        <ele>2487</ele>
        <time>2014-08-10T13:08:56Z</time>
      </trkpt>
      <trkpt lat="45.19288" lon="6.1763">
        <ele>2487</ele>
        <time>2014-08-10T13:09:00Z</time>
      </trkpt>
      <trkpt lat="45.19299" lon="6.17624">
        <ele>2486</ele>
        <time>2014-08-10T13:09:04Z</time>
      </trkpt>
      <trkpt lat="45.19309" lon="6.17625">
        <ele>2487</ele>
        <time>2014-08-10T13:09:08Z</time>
      </trkpt>
      <trkpt lat="45.1932" lon="6.17622">
        <ele>2486</ele>
        <time>2014-08-10T13:09:13Z</time>
      </trkpt>
      <trkpt lat="45.1933" lon="6.17617">
        <ele>2486</ele>
        <time>2014-08-10T13:09:17Z</time>
      </trkpt>
      <trkpt lat="45.1934" lon="6.17613">
        <ele>2483</ele>
        <time>2014-08-10T13:09:20Z</time>
      </trkpt>
      <trkpt lat="45.19351" lon="6.17615">
        <ele>2484</ele>
        <time>2014-08-10T13:09:23Z</time>
      </trkpt>
      <trkpt lat="45.19361" lon="6.17617">
        <ele>2483</ele>
        <time>2014-08-10T13:09:27Z</time>
      </trkpt>
      <trkpt lat="45.19371" lon="6.17623">
        <ele>2484</ele>
        <time>2014-08-10T13:09:30Z</time>
      </trkpt>
      <trkpt lat="45.19381" lon="6.17633">
        <ele>2484</ele>
        <time>2014-08-10T13:09:34Z</time>
      </trkpt>
      <trkpt lat="45.19389" lon="6.17639">
        <ele>2484</ele>
        <time>2014-08-10T13:09:37Z</time>
      </trkpt>
      <trkpt lat="45.19398" lon="6.17646">
        <ele>2484</ele>
        <time>2014-08-10T13:09:41Z</time>
      </trkpt>
      <trkpt lat="45.19407" lon="6.17656">
        <ele>2485</ele>
        <time>2014-08-10T13:09:44Z</time>
      </trkpt>
      <trkpt lat="45.19417" lon="6.17663">
        <ele>2484</ele>
        <time>2014-08-10T13:09:49Z</time>
      </trkpt>
      <trkpt lat="45.19426" lon="6.17674">
        <ele>2484</ele>
        <time>2014-08-10T13:09:52Z</time>
      </trkpt>
      <trkpt lat="45.19436" lon="6.17682">
        <ele>2483</ele>
        <time>2014-08-10T13:09:55Z</time>
      </trkpt>
      <trkpt lat="45.19447" lon="6.17693">
        <ele>2483</ele>
        <time>2014-08-10T13:09:58Z</time>
      </trkpt>
      <trkpt lat="45.19453" lon="6.17704">
        <ele>2482</ele>
        <time>2014-08-10T13:10:01Z</time>
      </trkpt>
      <trkpt lat="45.19463" lon="6.17709">
        <ele>2482</ele>
        <time>2014-08-10T13:10:05Z</time>
      </trkpt>
      <trkpt lat="45.19469" lon="6.17719">
        <ele>2482</ele>
        <time>2014-08-10T13:10:08Z</time>
      </trkpt>
      <trkpt lat="45.19479" lon="6.17719">
        <ele>2482</ele>
        <time>2014-08-10T13:10:12Z</time>
      </trkpt>
      <trkpt lat="45.19485" lon="6.17705">
        <ele>2480</ele>
        <time>2014-08-10T13:10:16Z</time>
      </trkpt>
      <trkpt lat="45.19491" lon="6.17693">
        <ele>2479</ele>
        <time>2014-08-10T13:10:21Z</time>
      </trkpt>
      <trkpt lat="45.19496" lon="6.17681">
        <ele>2476</ele>
        <time>2014-08-10T13:10:27Z</time>
      </trkpt>
      <trkpt lat="45.19503" lon="6.17666">
        <ele>2473</ele>
        <time>2014-08-10T13:10:32Z</time>
      </trkpt>
      <trkpt lat="45.19509" lon="6.17653">
        <ele>2478</ele>
        <time>2014-08-10T13:10:36Z</time>
      </trkpt>
      <trkpt lat="45.19515" lon="6.17639">
        <ele>2480</ele>
        <time>2014-08-10T13:10:40Z</time>
      </trkpt>
      <trkpt lat="45.19519" lon="6.17622">
        <ele>2481</ele>
        <time>2014-08-10T13:10:44Z</time>
      </trkpt>
      <trkpt lat="45.19525" lon="6.17609">
        <ele>2481</ele>
        <time>2014-08-10T13:10:47Z</time>
      </trkpt>
      <trkpt lat="45.1953" lon="6.17597">
        <ele>2482</ele>
        <time>2014-08-10T13:10:51Z</time>
      </trkpt>
      <trkpt lat="45.19534" lon="6.17583">
        <ele>2477</ele>
        <time>2014-08-10T13:10:55Z</time>
      </trkpt>
      <trkpt lat="45.19538" lon="6.17569">
        <ele>2478</ele>
        <time>2014-08-10T13:10:59Z</time>
      </trkpt>
      <trkpt lat="45.19542" lon="6.17557">
        <ele>2478</ele>
        <time>2014-08-10T13:11:03Z</time>
      </trkpt>
      <trkpt lat="45.19547" lon="6.17544">
        <ele>2477</ele>
        <time>2014-08-10T13:11:09Z</time>
      </trkpt>
      <trkpt lat="45.19555" lon="6.17534">
        <ele>2477</ele>
        <time>2014-08-10T13:11:14Z</time>
      </trkpt>
      <trkpt lat="45.19565" lon="6.17529">
        <ele>2477</ele>
        <time>2014-08-10T13:11:19Z</time>
      </trkpt>
      <trkpt lat="45.19576" lon="6.17522">
        <ele>2476</ele>
        <time>2014-08-10T13:11:23Z</time>
      </trkpt>
      <trkpt lat="45.19586" lon="6.17519">
        <ele>2477</ele>
        <time>2014-08-10T13:11:27Z</time>
      </trkpt>
      <trkpt lat="45.19595" lon="6.17513">
        <ele>2476</ele>
        <time>2014-08-10T13:11:31Z</time>
      </trkpt>
      <trkpt lat="45.19607" lon="6.17514">
        <ele>2476</ele>
        <time>2014-08-10T13:11:35Z</time>
      </trkpt>
      <trkpt lat="45.19617" lon="6.17514">
        <ele>2476</ele>
        <time>2014-08-10T13:11:38Z</time>
      </trkpt>
      <trkpt lat="45.1963" lon="6.17516">
        <ele>2476</ele>
        <time>2014-08-10T13:11:41Z</time>
      </trkpt>
      <trkpt lat="45.1964" lon="6.17522">
        <ele>2475</ele>
        <time>2014-08-10T13:11:45Z</time>
      </trkpt>
      <trkpt lat="45.1965" lon="6.17527">
        <ele>2475</ele>
        <time>2014-08-10T13:11:49Z</time>
      </trkpt>
      <trkpt lat="45.1966" lon="6.17532">
        <ele>2476</ele>
        <time>2014-08-10T13:11:53Z</time>
      </trkpt>
      <trkpt lat="45.19669" lon="6.17539">
        <ele>2469</ele>
        <time>2014-08-10T13:11:59Z</time>
      </trkpt>
      <trkpt lat="45.19677" lon="6.17548">
        <ele>2470</ele>
        <time>2014-08-10T13:12:02Z</time>
      </trkpt>
      <trkpt lat="45.19686" lon="6.17557">
        <ele>2471</ele>
        <time>2014-08-10T13:12:05Z</time>
      </trkpt>
      <trkpt lat="45.19695" lon="6.17563">
        <ele>2470</ele>
        <time>2014-08-10T13:12:08Z</time>
      </trkpt>
      <trkpt lat="45.19704" lon="6.17568">
        <ele>2469</ele>
        <time>2014-08-10T13:12:11Z</time>
      </trkpt>
      <trkpt lat="45.19714" lon="6.17574">
        <ele>2467</ele>
        <time>2014-08-10T13:12:14Z</time>
      </trkpt>
      <trkpt lat="45.19724" lon="6.17581">
        <ele>2465</ele>
        <time>2014-08-10T13:12:17Z</time>
      </trkpt>
      <trkpt lat="45.19731" lon="6.17589">
        <ele>2475</ele>
        <time>2014-08-10T13:12:21Z</time>
      </trkpt>
      <trkpt lat="45.19739" lon="6.17597">
        <ele>2474</ele>
        <time>2014-08-10T13:12:24Z</time>
      </trkpt>
      <trkpt lat="45.19746" lon="6.17609">
        <ele>2477</ele>
        <time>2014-08-10T13:12:27Z</time>
      </trkpt>
      <trkpt lat="45.19753" lon="6.17621">
        <ele>2465</ele>
        <time>2014-08-10T13:12:31Z</time>
      </trkpt>
      <trkpt lat="45.19761" lon="6.17633">
        <ele>2467</ele>
        <time>2014-08-10T13:12:34Z</time>
      </trkpt>
      <trkpt lat="45.1977" lon="6.17644">
        <ele>2468</ele>
        <time>2014-08-10T13:12:38Z</time>
      </trkpt>
      <trkpt lat="45.19779" lon="6.17652">
        <ele>2467</ele>
        <time>2014-08-10T13:12:44Z</time>
      </trkpt>
      <trkpt lat="45.19788" lon="6.17657">
        <ele>2465</ele>
        <time>2014-08-10T13:12:51Z</time>
      </trkpt>
      <trkpt lat="45.19795" lon="6.17665">
        <ele>2464</ele>
        <time>2014-08-10T13:12:56Z</time>
      </trkpt>
      <trkpt lat="45.19802" lon="6.17678">
        <ele>2477</ele>
        <time>2014-08-10T13:13:06Z</time>
      </trkpt>
      <trkpt lat="45.19807" lon="6.17689">
        <ele>2478</ele>
        <time>2014-08-10T13:13:21Z</time>
      </trkpt>
      <trkpt lat="45.19814" lon="6.17699">
        <ele>2479</ele>
        <time>2014-08-10T13:13:28Z</time>
      </trkpt>
      <trkpt lat="45.19821" lon="6.17707">
        <ele>2479</ele>
        <time>2014-08-10T13:13:32Z</time>
      </trkpt>
      <trkpt lat="45.1983" lon="6.17718">
        <ele>2481</ele>
        <time>2014-08-10T13:13:37Z</time>
      </trkpt>
      <trkpt lat="45.19837" lon="6.17729">
        <ele>2468</ele>
        <time>2014-08-10T13:13:41Z</time>
      </trkpt>
      <trkpt lat="45.19845" lon="6.17738">
        <ele>2469</ele>
        <time>2014-08-10T13:13:45Z</time>
      </trkpt>
      <trkpt lat="45.19854" lon="6.17747">
        <ele>2468</ele>
        <time>2014-08-10T13:13:49Z</time>
      </trkpt>
      <trkpt lat="45.19861" lon="6.17757">
        <ele>2482</ele>
        <time>2014-08-10T13:13:52Z</time>
      </trkpt>
      <trkpt lat="45.19868" lon="6.17765">
        <ele>2483</ele>
        <time>2014-08-10T13:13:55Z</time>
      </trkpt>
      <trkpt lat="45.19875" lon="6.17776">
        <ele>2483</ele>
        <time>2014-08-10T13:13:59Z</time>
      </trkpt>
      <trkpt lat="45.19884" lon="6.17785">
        <ele>2484</ele>
        <time>2014-08-10T13:14:04Z</time>
      </trkpt>
      <trkpt lat="45.19892" lon="6.17791">
        <ele>2485</ele>
        <time>2014-08-10T13:14:08Z</time>
      </trkpt>
      <trkpt lat="45.19903" lon="6.17796">
        <ele>2485</ele>
        <time>2014-08-10T13:14:11Z</time>
      </trkpt>
      <trkpt lat="45.19913" lon="6.17799">
        <ele>2485</ele>
        <time>2014-08-10T13:14:13Z</time>
      </trkpt>
      <trkpt lat="45.19922" lon="6.17803">
        <ele>2475</ele>
        <time>2014-08-10T13:14:15Z</time>
      </trkpt>
      <trkpt lat="45.19932" lon="6.17814">
        <ele>2478</ele>
        <time>2014-08-10T13:14:18Z</time>
      </trkpt>
      <trkpt lat="45.19938" lon="6.17824">
        <ele>2479</ele>
        <time>2014-08-10T13:14:30Z</time>
      </trkpt>
      <trkpt lat="45.19946" lon="6.17831">
        <ele>2477</ele>
        <time>2014-08-10T13:14:40Z</time>
      </trkpt>
      <trkpt lat="45.19955" lon="6.17837">
        <ele>2500</ele>
        <time>2014-08-10T13:14:52Z</time>
      </trkpt>
      <trkpt lat="45.19964" lon="6.17842">
        <ele>2499</ele>
        <time>2014-08-10T13:15:04Z</time>
      </trkpt>
      <trkpt lat="45.19974" lon="6.17847">
        <ele>2497</ele>
        <time>2014-08-10T13:15:15Z</time>
      </trkpt>
      <trkpt lat="45.19983" lon="6.17851">
        <ele>2494</ele>
        <time>2014-08-10T13:15:25Z</time>
      </trkpt>
      <trkpt lat="45.19993" lon="6.17853">
        <ele>2493</ele>
        <time>2014-08-10T13:15:33Z</time>
      </trkpt>
      <trkpt lat="45.20002" lon="6.17859">
        <ele>2483</ele>
        <time>2014-08-10T13:15:42Z</time>
      </trkpt>
      <trkpt lat="45.20011" lon="6.17863">
        <ele>2484</ele>
        <time>2014-08-10T13:15:52Z</time>
      </trkpt>
      <trkpt lat="45.20021" lon="6.17867">
        <ele>2484</ele>
        <time>2014-08-10T13:16:03Z</time>
      </trkpt>
      <trkpt lat="45.20028" lon="6.17875">
        <ele>2486</ele>
        <time>2014-08-10T13:16:13Z</time>
      </trkpt>
      <trkpt lat="45.20039" lon="6.17878">
        <ele>2486</ele>
        <time>2014-08-10T13:16:23Z</time>
      </trkpt>
      <trkpt lat="45.20048" lon="6.17882">
        <ele>2486</ele>
        <time>2014-08-10T13:16:34Z</time>
      </trkpt>
      <trkpt lat="45.20058" lon="6.17883">
        <ele>2485</ele>
        <time>2014-08-10T13:16:40Z</time>
      </trkpt>
      <trkpt lat="45.20067" lon="6.17888">
        <ele>2486</ele>
        <time>2014-08-10T13:16:49Z</time>
      </trkpt>
      <trkpt lat="45.20077" lon="6.17889">
        <ele>2486</ele>
        <time>2014-08-10T13:16:57Z</time>
      </trkpt>
      <trkpt lat="45.20086" lon="6.17895">
        <ele>2482</ele>
        <time>2014-08-10T13:17:08Z</time>
      </trkpt>
      <trkpt lat="45.20094" lon="6.179">
        <ele>2483</ele>
        <time>2014-08-10T13:17:18Z</time>
      </trkpt>
      <trkpt lat="45.20103" lon="6.17904">
        <ele>2482</ele>
        <time>2014-08-10T13:17:24Z</time>
      </trkpt>
      <trkpt lat="45.20112" lon="6.1791">
        <ele>2481</ele>
        <time>2014-08-10T13:17:29Z</time>
      </trkpt>
      <trkpt lat="45.20121" lon="6.1791">
        <ele>2480</ele>
        <time>2014-08-10T13:17:37Z</time>
      </trkpt>
      <trkpt lat="45.2013" lon="6.17913">
        <ele>2480</ele>
        <time>2014-08-10T13:17:46Z</time>
      </trkpt>
      <trkpt lat="45.20138" lon="6.1792">
        <ele>2502</ele>
        <time>2014-08-10T13:17:57Z</time>
      </trkpt>
      <trkpt lat="45.20148" lon="6.17923">
        <ele>2501</ele>
        <time>2014-08-10T13:18:11Z</time>
      </trkpt>
      <trkpt lat="45.20157" lon="6.17927">
        <ele>2500</ele>
        <time>2014-08-10T13:18:25Z</time>
      </trkpt>
      <trkpt lat="45.20167" lon="6.1793">
        <ele>2504</ele>
        <time>2014-08-10T13:18:32Z</time>
      </trkpt>
      <trkpt lat="45.20176" lon="6.17924">
        <ele>2503</ele>
        <time>2014-08-10T13:18:41Z</time>
      </trkpt>
      <trkpt lat="45.20185" lon="6.17929">
        <ele>2508</ele>
        <time>2014-08-10T13:18:54Z</time>
      </trkpt>
      <trkpt lat="45.20195" lon="6.17931">
        <ele>2511</ele>
        <time>2014-08-10T13:19:05Z</time>
      </trkpt>
      <trkpt lat="45.20204" lon="6.17933">
        <ele>2513</ele>
        <time>2014-08-10T13:19:13Z</time>
      </trkpt>
      <trkpt lat="45.20214" lon="6.17936">
        <ele>2514</ele>
        <time>2014-08-10T13:19:22Z</time>
      </trkpt>
      <trkpt lat="45.20223" lon="6.1794">
        <ele>2515</ele>
        <time>2014-08-10T13:19:31Z</time>
      </trkpt>
      <trkpt lat="45.20231" lon="6.17947">
        <ele>2517</ele>
        <time>2014-08-10T13:19:39Z</time>
      </trkpt>
      <trkpt lat="45.2024" lon="6.17951">
        <ele>2518</ele>
        <time>2014-08-10T13:19:47Z</time>
      </trkpt>
      <trkpt lat="45.20249" lon="6.1795">
        <ele>2518</ele>
        <time>2014-08-10T13:19:55Z</time>
      </trkpt>
      <trkpt lat="45.20259" lon="6.17951">
        <ele>2519</ele>
        <time>2014-08-10T13:20:04Z</time>
      </trkpt>
      <trkpt lat="45.20268" lon="6.17953">
        <ele>2520</ele>
        <time>2014-08-10T13:20:15Z</time>
      </trkpt>
      <trkpt lat="45.20277" lon="6.1796">
        <ele>2522</ele>
        <time>2014-08-10T13:20:28Z</time>
      </trkpt>
      <trkpt lat="45.20286" lon="6.17966">
        <ele>2523</ele>
        <time>2014-08-10T13:20:39Z</time>
      </trkpt>
      <trkpt lat="45.20293" lon="6.17956">
        <ele>2521</ele>
        <time>2014-08-10T13:20:47Z</time>
      </trkpt>
      <trkpt lat="45.20301" lon="6.17952">
        <ele>2520</ele>
        <time>2014-08-10T13:20:57Z</time>
      </trkpt>
      <trkpt lat="45.2031" lon="6.17957">
        <ele>2521</ele>
        <time>2014-08-10T13:21:05Z</time>
      </trkpt>
      <trkpt lat="45.2032" lon="6.17955">
        <ele>2520</ele>
        <time>2014-08-10T13:21:19Z</time>
      </trkpt>
      <trkpt lat="45.20329" lon="6.17957">
        <ele>2521</ele>
        <time>2014-08-10T13:21:28Z</time>
      </trkpt>
      <trkpt lat="45.20339" lon="6.17962">
        <ele>2519</ele>
        <time>2014-08-10T13:21:37Z</time>
      </trkpt>
      <trkpt lat="45.20348" lon="6.17966">
        <ele>2520</ele>
        <time>2014-08-10T13:21:44Z</time>
      </trkpt>
      <trkpt lat="45.20356" lon="6.17973">
        <ele>2521</ele>
        <time>2014-08-10T13:21:56Z</time>
      </trkpt>
      <trkpt lat="45.20365" lon="6.17977">
        <ele>2521</ele>
        <time>2014-08-10T13:22:04Z</time>
      </trkpt>
      <trkpt lat="45.20374" lon="6.17983">
        <ele>2521</ele>
        <time>2014-08-10T13:22:14Z</time>
      </trkpt>
      <trkpt lat="45.20382" lon="6.17992">
        <ele>2521</ele>
        <time>2014-08-10T13:22:31Z</time>
      </trkpt>
      <trkpt lat="45.20391" lon="6.17997">
        <ele>2522</ele>
        <time>2014-08-10T13:22:45Z</time>
      </trkpt>
      <trkpt lat="45.204" lon="6.18003">
        <ele>2529</ele>
        <time>2014-08-10T13:22:55Z</time>
      </trkpt>
      <trkpt lat="45.20409" lon="6.18007">
        <ele>2529</ele>
        <time>2014-08-10T13:23:04Z</time>
      </trkpt>
      <trkpt lat="45.20419" lon="6.18007">
        <ele>2529</ele>
        <time>2014-08-10T13:23:13Z</time>
      </trkpt>
      <trkpt lat="45.20428" lon="6.18012">
        <ele>2530</ele>
        <time>2014-08-10T13:23:23Z</time>
      </trkpt>
      <trkpt lat="45.20437" lon="6.18015">
        <ele>2531</ele>
        <time>2014-08-10T13:23:30Z</time>
      </trkpt>
      <trkpt lat="45.20446" lon="6.18019">
        <ele>2532</ele>
        <time>2014-08-10T13:23:38Z</time>
      </trkpt>
      <trkpt lat="45.20455" lon="6.18025">
        <ele>2532</ele>
        <time>2014-08-10T13:23:45Z</time>
      </trkpt>
      <trkpt lat="45.20463" lon="6.18032">
        <ele>2533</ele>
        <time>2014-08-10T13:23:53Z</time>
      </trkpt>
      <trkpt lat="45.20472" lon="6.18038">
        <ele>2533</ele>
        <time>2014-08-10T13:24:01Z</time>
      </trkpt>
      <trkpt lat="45.20475" lon="6.18051">
        <ele>2534</ele>
        <time>2014-08-10T13:24:37Z</time>
      </trkpt>
      <trkpt lat="45.20481" lon="6.18064">
        <ele>2535</ele>
        <time>2014-08-10T13:24:41Z</time>
      </trkpt>
      <trkpt lat="45.20487" lon="6.18077">
        <ele>2537</ele>
        <time>2014-08-10T13:24:44Z</time>
      </trkpt>
      <trkpt lat="45.20489" lon="6.18091">
        <ele>2536</ele>
        <time>2014-08-10T13:24:47Z</time>
      </trkpt>
      <trkpt lat="45.20485" lon="6.18109">
        <ele>2534</ele>
        <time>2014-08-10T13:24:50Z</time>
      </trkpt>
      <trkpt lat="45.20482" lon="6.18125">
        <ele>2532</ele>
        <time>2014-08-10T13:24:53Z</time>
      </trkpt>
      <trkpt lat="45.20479" lon="6.18141">
        <ele>2531</ele>
        <time>2014-08-10T13:24:58Z</time>
      </trkpt>
      <trkpt lat="45.20475" lon="6.18153">
        <ele>2530</ele>
        <time>2014-08-10T13:25:01Z</time>
      </trkpt>
      <trkpt lat="45.20473" lon="6.18167">
        <ele>2521</ele>
        <time>2014-08-10T13:25:04Z</time>
      </trkpt>
      <trkpt lat="45.2047" lon="6.18179">
        <ele>2519</ele>
        <time>2014-08-10T13:25:07Z</time>
      </trkpt>
      <trkpt lat="45.20465" lon="6.18195">
        <ele>2517</ele>
        <time>2014-08-10T13:25:11Z</time>
      </trkpt>
      <trkpt lat="45.20463" lon="6.18213">
        <ele>2515</ele>
        <time>2014-08-10T13:25:15Z</time>
      </trkpt>
      <trkpt lat="45.20463" lon="6.18227">
        <ele>2513</ele>
        <time>2014-08-10T13:25:18Z</time>
      </trkpt>
      <trkpt lat="45.20463" lon="6.18244">
        <ele>2513</ele>
        <time>2014-08-10T13:25:22Z</time>
      </trkpt>
      <trkpt lat="45.20462" lon="6.18258">
        <ele>2501</ele>
        <time>2014-08-10T13:25:26Z</time>
      </trkpt>
      <trkpt lat="45.20465" lon="6.18271">
        <ele>2501</ele>
        <time>2014-08-10T13:25:30Z</time>
      </trkpt>
      <trkpt lat="45.20471" lon="6.18284">
        <ele>2501</ele>
        <time>2014-08-10T13:25:35Z</time>
      </trkpt>
      <trkpt lat="45.20473" lon="6.18298">
        <ele>2500</ele>
        <time>2014-08-10T13:25:39Z</time>
      </trkpt>
      <trkpt lat="45.2047" lon="6.18313">
        <ele>2498</ele>
        <time>2014-08-10T13:25:44Z</time>
      </trkpt>
      <trkpt lat="45.20467" lon="6.18328">
        <ele>2497</ele>
        <time>2014-08-10T13:25:48Z</time>
      </trkpt>
      <trkpt lat="45.20461" lon="6.18344">
        <ele>2489</ele>
        <time>2014-08-10T13:25:52Z</time>
      </trkpt>
      <trkpt lat="45.20454" lon="6.18356">
        <ele>2486</ele>
        <time>2014-08-10T13:25:56Z</time>
      </trkpt>
      <trkpt lat="45.20447" lon="6.18369">
        <ele>2484</ele>
        <time>2014-08-10T13:25:59Z</time>
      </trkpt>
      <trkpt lat="45.20441" lon="6.18381">
        <ele>2482</ele>
        <time>2014-08-10T13:26:02Z</time>
      </trkpt>
      <trkpt lat="45.20435" lon="6.18394">
        <ele>2479</ele>
        <time>2014-08-10T13:26:05Z</time>
      </trkpt>
      <trkpt lat="45.20428" lon="6.18404">
        <ele>2474</ele>
        <time>2014-08-10T13:26:08Z</time>
      </trkpt>
      <trkpt lat="45.2042" lon="6.18414">
        <ele>2465</ele>
        <time>2014-08-10T13:26:11Z</time>
      </trkpt>
      <trkpt lat="45.20413" lon="6.18424">
        <ele>2459</ele>
        <time>2014-08-10T13:26:14Z</time>
      </trkpt>
      <trkpt lat="45.20405" lon="6.18434">
        <ele>2457</ele>
        <time>2014-08-10T13:26:18Z</time>
      </trkpt>
      <trkpt lat="45.20397" lon="6.18447">
        <ele>2456</ele>
        <time>2014-08-10T13:26:22Z</time>
      </trkpt>
      <trkpt lat="45.20391" lon="6.18458">
        <ele>2455</ele>
        <time>2014-08-10T13:26:25Z</time>
      </trkpt>
      <trkpt lat="45.20388" lon="6.18474">
        <ele>2454</ele>
        <time>2014-08-10T13:26:28Z</time>
      </trkpt>
      <trkpt lat="45.20387" lon="6.1849">
        <ele>2454</ele>
        <time>2014-08-10T13:26:31Z</time>
      </trkpt>
      <trkpt lat="45.20385" lon="6.18506">
        <ele>2444</ele>
        <time>2014-08-10T13:26:35Z</time>
      </trkpt>
      <trkpt lat="45.20382" lon="6.18522">
        <ele>2442</ele>
        <time>2014-08-10T13:26:39Z</time>
      </trkpt>
      <trkpt lat="45.2038" lon="6.1854">
        <ele>2439</ele>
        <time>2014-08-10T13:26:43Z</time>
      </trkpt>
      <trkpt lat="45.20381" lon="6.18556">
        <ele>2438</ele>
        <time>2014-08-10T13:26:47Z</time>
      </trkpt>
      <trkpt lat="45.20381" lon="6.18572">
        <ele>2436</ele>
        <time>2014-08-10T13:26:51Z</time>
      </trkpt>
      <trkpt lat="45.20384" lon="6.18587">
        <ele>2423</ele>
        <time>2014-08-10T13:26:55Z</time>
      </trkpt>
      <trkpt lat="45.20387" lon="6.186">
        <ele>2422</ele>
        <time>2014-08-10T13:26:58Z</time>
      </trkpt>
      <trkpt lat="45.20392" lon="6.18612">
        <ele>2420</ele>
        <time>2014-08-10T13:27:02Z</time>
      </trkpt>
      <trkpt lat="45.20394" lon="6.18626">
        <ele>2418</ele>
        <time>2014-08-10T13:27:06Z</time>
      </trkpt>
      <trkpt lat="45.20395" lon="6.1864">
        <ele>2415</ele>
        <time>2014-08-10T13:27:10Z</time>
      </trkpt>
      <trkpt lat="45.20393" lon="6.18655">
        <ele>2413</ele>
        <time>2014-08-10T13:27:15Z</time>
      </trkpt>
      <trkpt lat="45.20388" lon="6.18667">
        <ele>2400</ele>
        <time>2014-08-10T13:27:19Z</time>
      </trkpt>
      <trkpt lat="45.20388" lon="6.18681">
        <ele>2399</ele>
        <time>2014-08-10T13:27:23Z</time>
      </trkpt>
      <trkpt lat="45.20395" lon="6.18694">
        <ele>2397</ele>
        <time>2014-08-10T13:27:27Z</time>
      </trkpt>
      <trkpt lat="45.20399" lon="6.18708">
        <ele>2395</ele>
        <time>2014-08-10T13:27:31Z</time>
      </trkpt>
      <trkpt lat="45.20402" lon="6.18722">
        <ele>2392</ele>
        <time>2014-08-10T13:27:36Z</time>
      </trkpt>
      <trkpt lat="45.20406" lon="6.18734">
        <ele>2388</ele>
        <time>2014-08-10T13:27:42Z</time>
      </trkpt>
      <trkpt lat="45.2041" lon="6.18748">
        <ele>2384</ele>
        <time>2014-08-10T13:27:47Z</time>
      </trkpt>
      <trkpt lat="45.20415" lon="6.18761">
        <ele>2378</ele>
        <time>2014-08-10T13:27:52Z</time>
      </trkpt>
      <trkpt lat="45.20421" lon="6.18776">
        <ele>2374</ele>
        <time>2014-08-10T13:27:57Z</time>
      </trkpt>
      <trkpt lat="45.20423" lon="6.1879">
        <ele>2371</ele>
        <time>2014-08-10T13:28:01Z</time>
      </trkpt>
      <trkpt lat="45.20428" lon="6.18805">
        <ele>2369</ele>
        <time>2014-08-10T13:28:05Z</time>
      </trkpt>
      <trkpt lat="45.20431" lon="6.18819">
        <ele>2367</ele>
        <time>2014-08-10T13:28:09Z</time>
      </trkpt>
      <trkpt lat="45.2043" lon="6.18833">
        <ele>2365</ele>
        <time>2014-08-10T13:28:14Z</time>
      </trkpt>
      <trkpt lat="45.20429" lon="6.18847">
        <ele>2355</ele>
        <time>2014-08-10T13:28:18Z</time>
      </trkpt>
      <trkpt lat="45.20431" lon="6.1886">
        <ele>2353</ele>
        <time>2014-08-10T13:28:22Z</time>
      </trkpt>
      <trkpt lat="45.20432" lon="6.18875">
        <ele>2350</ele>
        <time>2014-08-10T13:28:25Z</time>
      </trkpt>
      <trkpt lat="45.20436" lon="6.18889">
        <ele>2348</ele>
        <time>2014-08-10T13:28:28Z</time>
      </trkpt>
      <trkpt lat="45.20444" lon="6.18903">
        <ele>2346</ele>
        <time>2014-08-10T13:28:31Z</time>
      </trkpt>
      <trkpt lat="45.20453" lon="6.18917">
        <ele>2334</ele>
        <time>2014-08-10T13:28:34Z</time>
      </trkpt>
      <trkpt lat="45.2046" lon="6.1893">
        <ele>2333</ele>
        <time>2014-08-10T13:28:37Z</time>
      </trkpt>
      <trkpt lat="45.20468" lon="6.18943">
        <ele>2332</ele>
        <time>2014-08-10T13:28:40Z</time>
      </trkpt>
      <trkpt lat="45.20476" lon="6.18956">
        <ele>2330</ele>
        <time>2014-08-10T13:28:43Z</time>
      </trkpt>
      <trkpt lat="45.20485" lon="6.18966">
        <ele>2329</ele>
        <time>2014-08-10T13:28:46Z</time>
      </trkpt>
      <trkpt lat="45.20494" lon="6.18976">
        <ele>2327</ele>
        <time>2014-08-10T13:28:49Z</time>
      </trkpt>
      <trkpt lat="45.20505" lon="6.18981">
        <ele>2324</ele>
        <time>2014-08-10T13:28:52Z</time>
      </trkpt>
      <trkpt lat="45.20515" lon="6.1898">
        <ele>2325</ele>
        <time>2014-08-10T13:28:55Z</time>
      </trkpt>
      <trkpt lat="45.20526" lon="6.18979">
        <ele>2325</ele>
        <time>2014-08-10T13:28:58Z</time>
      </trkpt>
      <trkpt lat="45.20535" lon="6.18988">
        <ele>2324</ele>
        <time>2014-08-10T13:29:01Z</time>
      </trkpt>
      <trkpt lat="45.20542" lon="6.19001">
        <ele>2311</ele>
        <time>2014-08-10T13:29:04Z</time>
      </trkpt>
      <trkpt lat="45.20548" lon="6.19012">
        <ele>2310</ele>
        <time>2014-08-10T13:29:07Z</time>
      </trkpt>
      <trkpt lat="45.20553" lon="6.19024">
        <ele>2309</ele>
        <time>2014-08-10T13:29:10Z</time>
      </trkpt>
      <trkpt lat="45.2056" lon="6.19037">
        <ele>2307</ele>
        <time>2014-08-10T13:29:14Z</time>
      </trkpt>
      <trkpt lat="45.20567" lon="6.19048">
        <ele>2305</ele>
        <time>2014-08-10T13:29:19Z</time>
      </trkpt>
      <trkpt lat="45.20571" lon="6.19061">
        <ele>2302</ele>
        <time>2014-08-10T13:29:24Z</time>
      </trkpt>
      <trkpt lat="45.20577" lon="6.19074">
        <ele>2298</ele>
        <time>2014-08-10T13:29:30Z</time>
      </trkpt>
      <trkpt lat="45.2058" lon="6.19089">
        <ele>2291</ele>
        <time>2014-08-10T13:29:37Z</time>
      </trkpt>
      <trkpt lat="45.20585" lon="6.19102">
        <ele>2289</ele>
        <time>2014-08-10T13:29:41Z</time>
      </trkpt>
      <trkpt lat="45.20588" lon="6.19115">
        <ele>2287</ele>
        <time>2014-08-10T13:29:45Z</time>
      </trkpt>
      <trkpt lat="45.20592" lon="6.1913">
        <ele>2284</ele>
        <time>2014-08-10T13:29:49Z</time>
      </trkpt>
      <trkpt lat="45.20597" lon="6.19145">
        <ele>2281</ele>
        <time>2014-08-10T13:29:53Z</time>
      </trkpt>
      <trkpt lat="45.20602" lon="6.19156">
        <ele>2280</ele>
        <time>2014-08-10T13:29:57Z</time>
      </trkpt>
      <trkpt lat="45.20608" lon="6.1917">
        <ele>2269</ele>
        <time>2014-08-10T13:30:01Z</time>
      </trkpt>
      <trkpt lat="45.2061" lon="6.19183">
        <ele>2269</ele>
        <time>2014-08-10T13:30:05Z</time>
      </trkpt>
      <trkpt lat="45.20606" lon="6.19197">
        <ele>2267</ele>
        <time>2014-08-10T13:30:11Z</time>
      </trkpt>
      <trkpt lat="45.20604" lon="6.19212">
        <ele>2265</ele>
        <time>2014-08-10T13:30:16Z</time>
      </trkpt>
      <trkpt lat="45.20605" lon="6.19229">
        <ele>2262</ele>
        <time>2014-08-10T13:30:20Z</time>
      </trkpt>
      <trkpt lat="45.20606" lon="6.19244">
        <ele>2260</ele>
        <time>2014-08-10T13:30:24Z</time>
      </trkpt>
      <trkpt lat="45.20604" lon="6.19259">
        <ele>2250</ele>
        <time>2014-08-10T13:30:28Z</time>
      </trkpt>
      <trkpt lat="45.20602" lon="6.19276">
        <ele>2249</ele>
        <time>2014-08-10T13:30:32Z</time>
      </trkpt>
      <trkpt lat="45.20597" lon="6.19291">
        <ele>2247</ele>
        <time>2014-08-10T13:30:36Z</time>
      </trkpt>
      <trkpt lat="45.20587" lon="6.19296">
        <ele>2246</ele>
        <time>2014-08-10T13:30:40Z</time>
      </trkpt>
      <trkpt lat="45.2058" lon="6.19306">
        <ele>2238</ele>
        <time>2014-08-10T13:30:44Z</time>
      </trkpt>
      <trkpt lat="45.20573" lon="6.19318">
        <ele>2236</ele>
        <time>2014-08-10T13:30:48Z</time>
      </trkpt>
      <trkpt lat="45.20567" lon="6.19331">
        <ele>2235</ele>
        <time>2014-08-10T13:30:52Z</time>
      </trkpt>
      <trkpt lat="45.20564" lon="6.19344">
        <ele>2228</ele>
        <time>2014-08-10T13:30:55Z</time>
      </trkpt>
      <trkpt lat="45.20558" lon="6.19361">
        <ele>2226</ele>
        <time>2014-08-10T13:30:58Z</time>
      </trkpt>
      <trkpt lat="45.20554" lon="6.19377">
        <ele>2225</ele>
        <time>2014-08-10T13:31:00Z</time>
      </trkpt>
      <trkpt lat="45.20553" lon="6.19395">
        <ele>2224</ele>
        <time>2014-08-10T13:31:03Z</time>
      </trkpt>
      <trkpt lat="45.20553" lon="6.19409">
        <ele>2224</ele>
        <time>2014-08-10T13:31:06Z</time>
      </trkpt>
      <trkpt lat="45.20551" lon="6.19428">
        <ele>2220</ele>
        <time>2014-08-10T13:31:09Z</time>
      </trkpt>
      <trkpt lat="45.20547" lon="6.19444">
        <ele>2219</ele>
        <time>2014-08-10T13:31:11Z</time>
      </trkpt>
      <trkpt lat="45.20542" lon="6.19457">
        <ele>2219</ele>
        <time>2014-08-10T13:31:13Z</time>
      </trkpt>
      <trkpt lat="45.20535" lon="6.1947">
        <ele>2218</ele>
        <time>2014-08-10T13:31:15Z</time>
      </trkpt>
      <trkpt lat="45.20528" lon="6.19482">
        <ele>2217</ele>
        <time>2014-08-10T13:31:17Z</time>
      </trkpt>
      <trkpt lat="45.20522" lon="6.19494">
        <ele>2216</ele>
        <time>2014-08-10T13:31:19Z</time>
      </trkpt>
      <trkpt lat="45.20518" lon="6.19508">
        <ele>2214</ele>
        <time>2014-08-10T13:31:21Z</time>
      </trkpt>
      <trkpt lat="45.20515" lon="6.19523">
        <ele>2214</ele>
        <time>2014-08-10T13:31:23Z</time>
      </trkpt>
      <trkpt lat="45.20513" lon="6.19543">
        <ele>2213</ele>
        <time>2014-08-10T13:31:25Z</time>
      </trkpt>
      <trkpt lat="45.20509" lon="6.19565">
        <ele>2211</ele>
        <time>2014-08-10T13:31:27Z</time>
      </trkpt>
      <trkpt lat="45.20505" lon="6.19588">
        <ele>2207</ele>
        <time>2014-08-10T13:31:29Z</time>
      </trkpt>
      <trkpt lat="45.20501" lon="6.1961">
        <ele>2208</ele>
        <time>2014-08-10T13:31:31Z</time>
      </trkpt>
      <trkpt lat="45.20498" lon="6.19631">
        <ele>2204</ele>
        <time>2014-08-10T13:31:33Z</time>
      </trkpt>
      <trkpt lat="45.2049" lon="6.19649">
        <ele>2203</ele>
        <time>2014-08-10T13:31:35Z</time>
      </trkpt>
      <trkpt lat="45.20482" lon="6.19664">
        <ele>2203</ele>
        <time>2014-08-10T13:31:37Z</time>
      </trkpt>
      <trkpt lat="45.20477" lon="6.19681">
        <ele>2196</ele>
        <time>2014-08-10T13:31:39Z</time>
      </trkpt>
      <trkpt lat="45.20471" lon="6.19698">
        <ele>2194</ele>
        <time>2014-08-10T13:31:41Z</time>
      </trkpt>
      <trkpt lat="45.20463" lon="6.19712">
        <ele>2193</ele>
        <time>2014-08-10T13:31:43Z</time>
      </trkpt>
      <trkpt lat="45.20455" lon="6.19721">
        <ele>2192</ele>
        <time>2014-08-10T13:31:45Z</time>
      </trkpt>
      <trkpt lat="45.20444" lon="6.19726">
        <ele>2191</ele>
        <time>2014-08-10T13:31:47Z</time>
      </trkpt>
      <trkpt lat="45.20434" lon="6.19727">
        <ele>2190</ele>
        <time>2014-08-10T13:31:49Z</time>
      </trkpt>
      <trkpt lat="45.20421" lon="6.19727">
        <ele>2190</ele>
        <time>2014-08-10T13:31:51Z</time>
      </trkpt>
      <trkpt lat="45.2041" lon="6.19726">
        <ele>2185</ele>
        <time>2014-08-10T13:31:53Z</time>
      </trkpt>
      <trkpt lat="45.20399" lon="6.19724">
        <ele>2185</ele>
        <time>2014-08-10T13:31:55Z</time>
      </trkpt>
      <trkpt lat="45.20388" lon="6.19723">
        <ele>2184</ele>
        <time>2014-08-10T13:31:57Z</time>
      </trkpt>
      <trkpt lat="45.20376" lon="6.1972">
        <ele>2184</ele>
        <time>2014-08-10T13:31:59Z</time>
      </trkpt>
      <trkpt lat="45.20364" lon="6.19717">
        <ele>2183</ele>
        <time>2014-08-10T13:32:01Z</time>
      </trkpt>
      <trkpt lat="45.20354" lon="6.19715">
        <ele>2182</ele>
        <time>2014-08-10T13:32:03Z</time>
      </trkpt>
      <trkpt lat="45.20343" lon="6.19712">
        <ele>2182</ele>
        <time>2014-08-10T13:32:05Z</time>
      </trkpt>
      <trkpt lat="45.20333" lon="6.19708">
        <ele>2172</ele>
        <time>2014-08-10T13:32:07Z</time>
      </trkpt>
      <trkpt lat="45.20323" lon="6.19705">
        <ele>2172</ele>
        <time>2014-08-10T13:32:09Z</time>
      </trkpt>
      <trkpt lat="45.20314" lon="6.19701">
        <ele>2172</ele>
        <time>2014-08-10T13:32:11Z</time>
      </trkpt>
      <trkpt lat="45.20301" lon="6.19695">
        <ele>2171</ele>
        <time>2014-08-10T13:32:14Z</time>
      </trkpt>
      <trkpt lat="45.20291" lon="6.19687">
        <ele>2171</ele>
        <time>2014-08-10T13:32:17Z</time>
      </trkpt>
      <trkpt lat="45.20282" lon="6.19679">
        <ele>2170</ele>
        <time>2014-08-10T13:32:20Z</time>
      </trkpt>
      <trkpt lat="45.20274" lon="6.19669">
        <ele>2170</ele>
        <time>2014-08-10T13:32:23Z</time>
      </trkpt>
      <trkpt lat="45.20264" lon="6.19661">
        <ele>2177</ele>
        <time>2014-08-10T13:32:26Z</time>
      </trkpt>
      <trkpt lat="45.20252" lon="6.19658">
        <ele>2174</ele>
        <time>2014-08-10T13:32:29Z</time>
      </trkpt>
      <trkpt lat="45.2024" lon="6.19655">
        <ele>2170</ele>
        <time>2014-08-10T13:32:33Z</time>
      </trkpt>
      <trkpt lat="45.20231" lon="6.19661">
        <ele>2169</ele>
        <time>2014-08-10T13:32:38Z</time>
      </trkpt>
      <trkpt lat="45.20231" lon="6.19678">
        <ele>2162</ele>
        <time>2014-08-10T13:32:43Z</time>
      </trkpt>
      <trkpt lat="45.20236" lon="6.19695">
        <ele>2160</ele>
        <time>2014-08-10T13:32:47Z</time>
      </trkpt>
      <trkpt lat="45.20241" lon="6.19706">
        <ele>2158</ele>
        <time>2014-08-10T13:32:49Z</time>
      </trkpt>
      <trkpt lat="45.20244" lon="6.19719">
        <ele>2157</ele>
        <time>2014-08-10T13:32:51Z</time>
      </trkpt>
      <trkpt lat="45.20247" lon="6.19732">
        <ele>2155</ele>
        <time>2014-08-10T13:32:53Z</time>
      </trkpt>
      <trkpt lat="45.20249" lon="6.1975">
        <ele>2151</ele>
        <time>2014-08-10T13:32:56Z</time>
      </trkpt>
      <trkpt lat="45.20247" lon="6.19769">
        <ele>2147</ele>
        <time>2014-08-10T13:32:59Z</time>
      </trkpt>
      <trkpt lat="45.20246" lon="6.19788">
        <ele>2144</ele>
        <time>2014-08-10T13:33:02Z</time>
      </trkpt>
      <trkpt lat="45.20244" lon="6.19803">
        <ele>2142</ele>
        <time>2014-08-10T13:33:04Z</time>
      </trkpt>
      <trkpt lat="45.2024" lon="6.19817">
        <ele>2139</ele>
        <time>2014-08-10T13:33:06Z</time>
      </trkpt>
      <trkpt lat="45.20239" lon="6.1983">
        <ele>2138</ele>
        <time>2014-08-10T13:33:08Z</time>
      </trkpt>
      <trkpt lat="45.20236" lon="6.19847">
        <ele>2132</ele>
        <time>2014-08-10T13:33:11Z</time>
      </trkpt>
      <trkpt lat="45.20232" lon="6.19865">
        <ele>2131</ele>
        <time>2014-08-10T13:33:14Z</time>
      </trkpt>
      <trkpt lat="45.2023" lon="6.19877">
        <ele>2129</ele>
        <time>2014-08-10T13:33:16Z</time>
      </trkpt>
      <trkpt lat="45.20226" lon="6.19894">
        <ele>2128</ele>
        <time>2014-08-10T13:33:19Z</time>
      </trkpt>
      <trkpt lat="45.20225" lon="6.19909">
        <ele>2126</ele>
        <time>2014-08-10T13:33:23Z</time>
      </trkpt>
      <trkpt lat="45.20227" lon="6.19925">
        <ele>2117</ele>
        <time>2014-08-10T13:33:28Z</time>
      </trkpt>
      <trkpt lat="45.20225" lon="6.19937">
        <ele>2117</ele>
        <time>2014-08-10T13:33:31Z</time>
      </trkpt>
      <trkpt lat="45.2022" lon="6.19953">
        <ele>2116</ele>
        <time>2014-08-10T13:33:34Z</time>
      </trkpt>
      <trkpt lat="45.20214" lon="6.1997">
        <ele>2115</ele>
        <time>2014-08-10T13:33:37Z</time>
      </trkpt>
      <trkpt lat="45.20207" lon="6.19981">
        <ele>2114</ele>
        <time>2014-08-10T13:33:40Z</time>
      </trkpt>
      <trkpt lat="45.20198" lon="6.19994">
        <ele>2114</ele>
        <time>2014-08-10T13:33:43Z</time>
      </trkpt>
      <trkpt lat="45.20191" lon="6.20004">
        <ele>2105</ele>
        <time>2014-08-10T13:33:45Z</time>
      </trkpt>
      <trkpt lat="45.20181" lon="6.20011">
        <ele>2106</ele>
        <time>2014-08-10T13:33:47Z</time>
      </trkpt>
      <trkpt lat="45.20174" lon="6.20019">
        <ele>2105</ele>
        <time>2014-08-10T13:33:49Z</time>
      </trkpt>
      <trkpt lat="45.20164" lon="6.20031">
        <ele>2105</ele>
        <time>2014-08-10T13:33:52Z</time>
      </trkpt>
      <trkpt lat="45.20152" lon="6.2004">
        <ele>2103</ele>
        <time>2014-08-10T13:33:55Z</time>
      </trkpt>
      <trkpt lat="45.2014" lon="6.20044">
        <ele>2102</ele>
        <time>2014-08-10T13:33:57Z</time>
      </trkpt>
      <trkpt lat="45.20127" lon="6.2005">
        <ele>2102</ele>
        <time>2014-08-10T13:33:59Z</time>
      </trkpt>
      <trkpt lat="45.20118" lon="6.20057">
        <ele>2101</ele>
        <time>2014-08-10T13:34:01Z</time>
      </trkpt>
      <trkpt lat="45.20108" lon="6.20066">
        <ele>2100</ele>
        <time>2014-08-10T13:34:03Z</time>
      </trkpt>
      <trkpt lat="45.20098" lon="6.20072">
        <ele>2098</ele>
        <time>2014-08-10T13:34:05Z</time>
      </trkpt>
      <trkpt lat="45.20086" lon="6.20076">
        <ele>2096</ele>
        <time>2014-08-10T13:34:07Z</time>
      </trkpt>
      <trkpt lat="45.20073" lon="6.20084">
        <ele>2093</ele>
        <time>2014-08-10T13:34:09Z</time>
      </trkpt>
      <trkpt lat="45.20063" lon="6.20094">
        <ele>2091</ele>
        <time>2014-08-10T13:34:11Z</time>
      </trkpt>
      <trkpt lat="45.20054" lon="6.20101">
        <ele>2091</ele>
        <time>2014-08-10T13:34:13Z</time>
      </trkpt>
      <trkpt lat="45.20043" lon="6.20112">
        <ele>2090</ele>
        <time>2014-08-10T13:34:16Z</time>
      </trkpt>
      <trkpt lat="45.20037" lon="6.20123">
        <ele>2090</ele>
        <time>2014-08-10T13:34:18Z</time>
      </trkpt>
      <trkpt lat="45.20035" lon="6.20137">
        <ele>2089</ele>
        <time>2014-08-10T13:34:20Z</time>
      </trkpt>
      <trkpt lat="45.20039" lon="6.20153">
        <ele>2089</ele>
        <time>2014-08-10T13:34:22Z</time>
      </trkpt>
      <trkpt lat="45.20042" lon="6.20165">
        <ele>2088</ele>
        <time>2014-08-10T13:34:24Z</time>
      </trkpt>
      <trkpt lat="45.20046" lon="6.20179">
        <ele>2088</ele>
        <time>2014-08-10T13:34:28Z</time>
      </trkpt>
      <trkpt lat="45.20039" lon="6.20187">
        <ele>2088</ele>
        <time>2014-08-10T13:34:36Z</time>
      </trkpt>
      <trkpt lat="45.20029" lon="6.20186">
        <ele>2089</ele>
        <time>2014-08-10T13:34:45Z</time>
      </trkpt>
      <trkpt lat="45.20019" lon="6.20186">
        <ele>2089</ele>
        <time>2014-08-10T13:34:53Z</time>
      </trkpt>
      <trkpt lat="45.2001" lon="6.20188">
        <ele>2089</ele>
        <time>2014-08-10T13:35:02Z</time>
      </trkpt>
      <trkpt lat="45.20001" lon="6.20183">
        <ele>2089</ele>
        <time>2014-08-10T13:35:18Z</time>
      </trkpt>
      <trkpt lat="45.19992" lon="6.20176">
        <ele>2092</ele>
        <time>2014-08-10T13:35:29Z</time>
      </trkpt>
      <trkpt lat="45.19983" lon="6.2017">
        <ele>2092</ele>
        <time>2014-08-10T13:35:40Z</time>
      </trkpt>
      <trkpt lat="45.19974" lon="6.20165">
        <ele>2090</ele>
        <time>2014-08-10T13:35:47Z</time>
      </trkpt>
      <trkpt lat="45.19965" lon="6.20161">
        <ele>2090</ele>
        <time>2014-08-10T13:35:57Z</time>
      </trkpt>
      <trkpt lat="45.19957" lon="6.20153">
        <ele>2090</ele>
        <time>2014-08-10T13:36:08Z</time>
      </trkpt>
      <trkpt lat="45.19947" lon="6.20151">
        <ele>2090</ele>
        <time>2014-08-10T13:36:20Z</time>
      </trkpt>
      <trkpt lat="45.19938" lon="6.2015">
        <ele>2091</ele>
        <time>2014-08-10T13:36:27Z</time>
      </trkpt>
      <trkpt lat="45.19927" lon="6.20148">
        <ele>2091</ele>
        <time>2014-08-10T13:36:33Z</time>
      </trkpt>
      <trkpt lat="45.19917" lon="6.20146">
        <ele>2091</ele>
        <time>2014-08-10T13:36:37Z</time>
      </trkpt>
      <trkpt lat="45.19907" lon="6.20144">
        <ele>2083</ele>
        <time>2014-08-10T13:36:41Z</time>
      </trkpt>
      <trkpt lat="45.19895" lon="6.20143">
        <ele>2081</ele>
        <time>2014-08-10T13:36:45Z</time>
      </trkpt>
      <trkpt lat="45.19884" lon="6.2014">
        <ele>2079</ele>
        <time>2014-08-10T13:36:48Z</time>
      </trkpt>
      <trkpt lat="45.19875" lon="6.20133">
        <ele>2077</ele>
        <time>2014-08-10T13:36:51Z</time>
      </trkpt>
      <trkpt lat="45.19866" lon="6.20138">
        <ele>2075</ele>
        <time>2014-08-10T13:37:02Z</time>
      </trkpt>
      <trkpt lat="45.1986" lon="6.20128">
        <ele>2074</ele>
        <time>2014-08-10T13:37:20Z</time>
      </trkpt>
      <trkpt lat="45.19858" lon="6.20114">
        <ele>2073</ele>
        <time>2014-08-10T13:37:36Z</time>
      </trkpt>
      <trkpt lat="45.19851" lon="6.20105">
        <ele>2071</ele>
        <time>2014-08-10T13:37:53Z</time>
      </trkpt>
      <trkpt lat="45.1985" lon="6.20091">
        <ele>2069</ele>
        <time>2014-08-10T13:38:30Z</time>
      </trkpt>
      <trkpt lat="45.19852" lon="6.20077">
        <ele>2069</ele>
        <time>2014-08-10T13:38:39Z</time>
      </trkpt>
      <trkpt lat="45.19856" lon="6.20062">
        <ele>2070</ele>
        <time>2014-08-10T13:38:47Z</time>
      </trkpt>
      <trkpt lat="45.19859" lon="6.20049">
        <ele>2071</ele>
        <time>2014-08-10T13:38:54Z</time>
      </trkpt>
      <trkpt lat="45.19855" lon="6.20036">
        <ele>2071</ele>
        <time>2014-08-10T13:39:06Z</time>
      </trkpt>
      <trkpt lat="45.19854" lon="6.20019">
        <ele>2070</ele>
        <time>2014-08-10T13:39:16Z</time>
      </trkpt>
      <trkpt lat="45.19858" lon="6.20005">
        <ele>2070</ele>
        <time>2014-08-10T13:39:20Z</time>
      </trkpt>
      <trkpt lat="45.19848" lon="6.20008">
        <ele>2067</ele>
        <time>2014-08-10T13:39:39Z</time>
      </trkpt>
      <trkpt lat="45.19839" lon="6.20014">
        <ele>2067</ele>
        <time>2014-08-10T13:39:59Z</time>
      </trkpt>
      <trkpt lat="45.19832" lon="6.20023">
        <ele>2051</ele>
        <time>2014-08-10T13:40:04Z</time>
      </trkpt>
      <trkpt lat="45.19825" lon="6.20032">
        <ele>2049</ele>
        <time>2014-08-10T13:40:11Z</time>
      </trkpt>
      <trkpt lat="45.19818" lon="6.20041">
        <ele>2047</ele>
        <time>2014-08-10T13:40:17Z</time>
      </trkpt>
      <trkpt lat="45.19809" lon="6.20036">
        <ele>2046</ele>
        <time>2014-08-10T13:40:36Z</time>
      </trkpt>
      <trkpt lat="45.19806" lon="6.20023">
        <ele>2046</ele>
        <time>2014-08-10T13:40:45Z</time>
      </trkpt>
      <trkpt lat="45.19797" lon="6.20026">
        <ele>2044</ele>
        <time>2014-08-10T13:40:58Z</time>
      </trkpt>
      <trkpt lat="45.19788" lon="6.20023">
        <ele>2042</ele>
        <time>2014-08-10T13:41:15Z</time>
      </trkpt>
      <trkpt lat="45.19779" lon="6.20023">
        <ele>2039</ele>
        <time>2014-08-10T13:41:27Z</time>
      </trkpt>
      <trkpt lat="45.19771" lon="6.20031">
        <ele>2038</ele>
        <time>2014-08-10T13:41:38Z</time>
      </trkpt>
      <trkpt lat="45.19769" lon="6.20045">
        <ele>2037</ele>
        <time>2014-08-10T13:41:52Z</time>
      </trkpt>
      <trkpt lat="45.19764" lon="6.20057">
        <ele>2034</ele>
        <time>2014-08-10T13:42:06Z</time>
      </trkpt>
      <trkpt lat="45.19758" lon="6.20068">
        <ele>2029</ele>
        <time>2014-08-10T13:42:17Z</time>
      </trkpt>
      <trkpt lat="45.19754" lon="6.2008">
        <ele>2021</ele>
        <time>2014-08-10T13:42:33Z</time>
      </trkpt>
      <trkpt lat="45.19748" lon="6.20092">
        <ele>2010</ele>
        <time>2014-08-10T13:42:52Z</time>
      </trkpt>
      <trkpt lat="45.1974" lon="6.20098">
        <ele>2006</ele>
        <time>2014-08-10T13:43:14Z</time>
      </trkpt>
      <trkpt lat="45.19736" lon="6.2011">
        <ele>2003</ele>
        <time>2014-08-10T13:43:31Z</time>
      </trkpt>
      <trkpt lat="45.19727" lon="6.20113">
        <ele>2000</ele>
        <time>2014-08-10T13:43:52Z</time>
      </trkpt>
      <trkpt lat="45.1972" lon="6.20124">
        <ele>1998</ele>
        <time>2014-08-10T13:44:03Z</time>
      </trkpt>
      <trkpt lat="45.19714" lon="6.20136">
        <ele>1996</ele>
        <time>2014-08-10T13:44:17Z</time>
      </trkpt>
      <trkpt lat="45.19706" lon="6.20144">
        <ele>1993</ele>
        <time>2014-08-10T13:44:26Z</time>
      </trkpt>
      <trkpt lat="45.197" lon="6.20154">
        <ele>1990</ele>
        <time>2014-08-10T13:44:30Z</time>
      </trkpt>
      <trkpt lat="45.19694" lon="6.20167">
        <ele>1982</ele>
        <time>2014-08-10T13:44:35Z</time>
      </trkpt>
      <trkpt lat="45.19689" lon="6.20179">
        <ele>1980</ele>
        <time>2014-08-10T13:44:40Z</time>
      </trkpt>
      <trkpt lat="45.19683" lon="6.20191">
        <ele>1980</ele>
        <time>2014-08-10T13:44:44Z</time>
      </trkpt>
      <trkpt lat="45.19677" lon="6.20202">
        <ele>1980</ele>
        <time>2014-08-10T13:44:48Z</time>
      </trkpt>
      <trkpt lat="45.1967" lon="6.20213">
        <ele>1979</ele>
        <time>2014-08-10T13:44:52Z</time>
      </trkpt>
      <trkpt lat="45.19661" lon="6.20225">
        <ele>1954</ele>
        <time>2014-08-10T13:44:56Z</time>
      </trkpt>
      <trkpt lat="45.19654" lon="6.2024">
        <ele>1956</ele>
        <time>2014-08-10T13:45:00Z</time>
      </trkpt>
      <trkpt lat="45.19647" lon="6.20251">
        <ele>1952</ele>
        <time>2014-08-10T13:45:04Z</time>
      </trkpt>
      <trkpt lat="45.1964" lon="6.20262">
        <ele>1949</ele>
        <time>2014-08-10T13:45:09Z</time>
      </trkpt>
      <trkpt lat="45.19633" lon="6.20272">
        <ele>1946</ele>
        <time>2014-08-10T13:45:14Z</time>
      </trkpt>
      <trkpt lat="45.19627" lon="6.20283">
        <ele>1944</ele>
        <time>2014-08-10T13:45:18Z</time>
      </trkpt>
      <trkpt lat="45.19619" lon="6.20292">
        <ele>1942</ele>
        <time>2014-08-10T13:45:22Z</time>
      </trkpt>
      <trkpt lat="45.1961" lon="6.20304">
        <ele>1939</ele>
        <time>2014-08-10T13:45:26Z</time>
      </trkpt>
      <trkpt lat="45.19602" lon="6.20315">
        <ele>1936</ele>
        <time>2014-08-10T13:45:30Z</time>
      </trkpt>
      <trkpt lat="45.19595" lon="6.20325">
        <ele>1931</ele>
        <time>2014-08-10T13:45:33Z</time>
      </trkpt>
      <trkpt lat="45.19589" lon="6.20336">
        <ele>1926</ele>
        <time>2014-08-10T13:45:36Z</time>
      </trkpt>
      <trkpt lat="45.19581" lon="6.20347">
        <ele>1913</ele>
        <time>2014-08-10T13:45:39Z</time>
      </trkpt>
      <trkpt lat="45.19572" lon="6.20357">
        <ele>1909</ele>
        <time>2014-08-10T13:45:42Z</time>
      </trkpt>
      <trkpt lat="45.1956" lon="6.20365">
        <ele>1906</ele>
        <time>2014-08-10T13:45:45Z</time>
      </trkpt>
      <trkpt lat="45.19552" lon="6.20371">
        <ele>1904</ele>
        <time>2014-08-10T13:45:47Z</time>
      </trkpt>
      <trkpt lat="45.19541" lon="6.20379">
        <ele>1902</ele>
        <time>2014-08-10T13:45:50Z</time>
      </trkpt>
      <trkpt lat="45.19533" lon="6.20389">
        <ele>1899</ele>
        <time>2014-08-10T13:45:53Z</time>
      </trkpt>
      <trkpt lat="45.19527" lon="6.20401">
        <ele>1897</ele>
        <time>2014-08-10T13:45:56Z</time>
      </trkpt>
      <trkpt lat="45.1952" lon="6.20412">
        <ele>1893</ele>
        <time>2014-08-10T13:45:59Z</time>
      </trkpt>
      <trkpt lat="45.19513" lon="6.20422">
        <ele>1891</ele>
        <time>2014-08-10T13:46:04Z</time>
      </trkpt>
      <trkpt lat="45.19504" lon="6.20417">
        <ele>1885</ele>
        <time>2014-08-10T13:46:10Z</time>
      </trkpt>
      <trkpt lat="45.19503" lon="6.2043">
        <ele>1891</ele>
        <time>2014-08-10T13:46:15Z</time>
      </trkpt>
      <trkpt lat="45.19502" lon="6.20445">
        <ele>1896</ele>
        <time>2014-08-10T13:46:20Z</time>
      </trkpt>
      <trkpt lat="45.19511" lon="6.2045">
        <ele>1898</ele>
        <time>2014-08-10T13:46:30Z</time>
      </trkpt>
      <trkpt lat="45.19505" lon="6.20461">
        <ele>1898</ele>
        <time>2014-08-10T13:46:48Z</time>
      </trkpt>
      <trkpt lat="45.19496" lon="6.20468">
        <ele>1874</ele>
        <time>2014-08-10T13:46:58Z</time>
      </trkpt>
      <trkpt lat="45.19487" lon="6.20474">
        <ele>1873</ele>
        <time>2014-08-10T13:47:09Z</time>
      </trkpt>
      <trkpt lat="45.19478" lon="6.20479">
        <ele>1872</ele>
        <time>2014-08-10T13:47:16Z</time>
      </trkpt>
      <trkpt lat="45.19472" lon="6.2049">
        <ele>1872</ele>
        <time>2014-08-10T13:47:29Z</time>
      </trkpt>
      <trkpt lat="45.19476" lon="6.20505">
        <ele>1883</ele>
        <time>2014-08-10T13:47:44Z</time>
      </trkpt>
      <trkpt lat="45.19474" lon="6.20519">
        <ele>1882</ele>
        <time>2014-08-10T13:47:48Z</time>
      </trkpt>
      <trkpt lat="45.19469" lon="6.2053">
        <ele>1882</ele>
        <time>2014-08-10T13:47:50Z</time>
      </trkpt>
      <trkpt lat="45.19464" lon="6.20543">
        <ele>1882</ele>
        <time>2014-08-10T13:47:52Z</time>
      </trkpt>
      <trkpt lat="45.19457" lon="6.20554">
        <ele>1881</ele>
        <time>2014-08-10T13:47:54Z</time>
      </trkpt>
      <trkpt lat="45.1945" lon="6.20563">
        <ele>1880</ele>
        <time>2014-08-10T13:47:56Z</time>
      </trkpt>
      <trkpt lat="45.19443" lon="6.20577">
        <ele>1880</ele>
        <time>2014-08-10T13:47:59Z</time>
      </trkpt>
      <trkpt lat="45.19436" lon="6.20591">
        <ele>1885</ele>
        <time>2014-08-10T13:48:03Z</time>
      </trkpt>
      <trkpt lat="45.19432" lon="6.20607">
        <ele>1887</ele>
        <time>2014-08-10T13:48:06Z</time>
      </trkpt>
      <trkpt lat="45.19431" lon="6.20621">
        <ele>1889</ele>
        <time>2014-08-10T13:48:09Z</time>
      </trkpt>
      <trkpt lat="45.19424" lon="6.20636">
        <ele>1889</ele>
        <time>2014-08-10T13:48:14Z</time>
      </trkpt>
      <trkpt lat="45.19422" lon="6.20649">
        <ele>1887</ele>
        <time>2014-08-10T13:48:16Z</time>
      </trkpt>
      <trkpt lat="45.1942" lon="6.20668">
        <ele>1883</ele>
        <time>2014-08-10T13:48:18Z</time>
      </trkpt>
      <trkpt lat="45.19414" lon="6.20687">
        <ele>1869</ele>
        <time>2014-08-10T13:48:20Z</time>
      </trkpt>
      <trkpt lat="45.19408" lon="6.20704">
        <ele>1866</ele>
        <time>2014-08-10T13:48:22Z</time>
      </trkpt>
      <trkpt lat="45.19403" lon="6.20722">
        <ele>1866</ele>
        <time>2014-08-10T13:48:24Z</time>
      </trkpt>
      <trkpt lat="45.19404" lon="6.2074">
        <ele>1871</ele>
        <time>2014-08-10T13:48:26Z</time>
      </trkpt>
      <trkpt lat="45.19403" lon="6.20757">
        <ele>1873</ele>
        <time>2014-08-10T13:48:28Z</time>
      </trkpt>
      <trkpt lat="45.19406" lon="6.20773">
        <ele>1871</ele>
        <time>2014-08-10T13:48:31Z</time>
      </trkpt>
      <trkpt lat="45.19407" lon="6.20786">
        <ele>1869</ele>
        <time>2014-08-10T13:48:35Z</time>
      </trkpt>
      <trkpt lat="45.19403" lon="6.208">
        <ele>1869</ele>
        <time>2014-08-10T13:48:38Z</time>
      </trkpt>
      <trkpt lat="45.194" lon="6.20812">
        <ele>1870</ele>
        <time>2014-08-10T13:49:05Z</time>
      </trkpt>
      <trkpt lat="45.19399" lon="6.20826">
        <ele>1872</ele>
        <time>2014-08-10T13:49:30Z</time>
      </trkpt>
      <trkpt lat="45.19396" lon="6.20838">
        <ele>1874</ele>
        <time>2014-08-10T13:49:38Z</time>
      </trkpt>
      <trkpt lat="45.19392" lon="6.20851">
        <ele>1872</ele>
        <time>2014-08-10T13:49:54Z</time>
      </trkpt>
      <trkpt lat="45.19389" lon="6.20864">
        <ele>1871</ele>
        <time>2014-08-10T13:50:05Z</time>
      </trkpt>
      <trkpt lat="45.19389" lon="6.20878">
        <ele>1872</ele>
        <time>2014-08-10T13:50:11Z</time>
      </trkpt>
      <trkpt lat="45.19391" lon="6.20891">
        <ele>1873</ele>
        <time>2014-08-10T13:50:24Z</time>
      </trkpt>
      <trkpt lat="45.19391" lon="6.20906">
        <ele>1874</ele>
        <time>2014-08-10T13:50:37Z</time>
      </trkpt>
      <trkpt lat="45.19389" lon="6.20919">
        <ele>1873</ele>
        <time>2014-08-10T13:50:51Z</time>
      </trkpt>
      <trkpt lat="45.19387" lon="6.20933">
        <ele>1871</ele>
        <time>2014-08-10T13:51:02Z</time>
      </trkpt>
      <trkpt lat="45.19384" lon="6.20945">
        <ele>1869</ele>
        <time>2014-08-10T13:51:10Z</time>
      </trkpt>
      <trkpt lat="45.19384" lon="6.2096">
        <ele>1868</ele>
        <time>2014-08-10T13:51:17Z</time>
      </trkpt>
      <trkpt lat="45.19391" lon="6.20969">
        <ele>1869</ele>
        <time>2014-08-10T13:51:28Z</time>
      </trkpt>
      <trkpt lat="45.19398" lon="6.20981">
        <ele>1870</ele>
        <time>2014-08-10T13:51:32Z</time>
      </trkpt>
      <trkpt lat="45.19404" lon="6.20992">
        <ele>1873</ele>
        <time>2014-08-10T13:51:34Z</time>
      </trkpt>
      <trkpt lat="45.19411" lon="6.21001">
        <ele>1873</ele>
        <time>2014-08-10T13:51:37Z</time>
      </trkpt>
      <trkpt lat="45.19419" lon="6.21009">
        <ele>1882</ele>
        <time>2014-08-10T13:51:47Z</time>
      </trkpt>
      <trkpt lat="45.19422" lon="6.21022">
        <ele>1884</ele>
        <time>2014-08-10T13:51:58Z</time>
      </trkpt>
      <trkpt lat="45.19427" lon="6.21033">
        <ele>1885</ele>
        <time>2014-08-10T13:52:06Z</time>
      </trkpt>
      <trkpt lat="45.19431" lon="6.21045">
        <ele>1884</ele>
        <time>2014-08-10T13:52:19Z</time>
      </trkpt>
      <trkpt lat="45.19431" lon="6.21059">
        <ele>1881</ele>
        <time>2014-08-10T13:52:27Z</time>
      </trkpt>
      <trkpt lat="45.19434" lon="6.21073">
        <ele>1878</ele>
        <time>2014-08-10T13:52:36Z</time>
      </trkpt>
      <trkpt lat="45.19436" lon="6.21086">
        <ele>1870</ele>
        <time>2014-08-10T13:52:51Z</time>
      </trkpt>
      <trkpt lat="45.1944" lon="6.21101">
        <ele>1871</ele>
        <time>2014-08-10T13:52:58Z</time>
      </trkpt>
      <trkpt lat="45.19447" lon="6.2111">
        <ele>1873</ele>
        <time>2014-08-10T13:53:02Z</time>
      </trkpt>
      <trkpt lat="45.19452" lon="6.21121">
        <ele>1874</ele>
        <time>2014-08-10T13:53:05Z</time>
      </trkpt>
      <trkpt lat="45.19455" lon="6.21136">
        <ele>1873</ele>
        <time>2014-08-10T13:53:07Z</time>
      </trkpt>
      <trkpt lat="45.19459" lon="6.2115">
        <ele>1873</ele>
        <time>2014-08-10T13:53:11Z</time>
      </trkpt>
      <trkpt lat="45.19462" lon="6.21166">
        <ele>1873</ele>
        <time>2014-08-10T13:53:16Z</time>
      </trkpt>
      <trkpt lat="45.19466" lon="6.2118">
        <ele>1864</ele>
        <time>2014-08-10T13:53:23Z</time>
      </trkpt>
      <trkpt lat="45.19472" lon="6.2119">
        <ele>1864</ele>
        <time>2014-08-10T13:53:27Z</time>
      </trkpt>
      <trkpt lat="45.1947" lon="6.21205">
        <ele>1862</ele>
        <time>2014-08-10T13:53:29Z</time>
      </trkpt>
      <trkpt lat="45.19469" lon="6.21225">
        <ele>1860</ele>
        <time>2014-08-10T13:53:31Z</time>
      </trkpt>
      <trkpt lat="45.19468" lon="6.21243">
        <ele>1860</ele>
        <time>2014-08-10T13:53:33Z</time>
      </trkpt>
      <trkpt lat="45.1947" lon="6.21258">
        <ele>1852</ele>
        <time>2014-08-10T13:53:37Z</time>
      </trkpt>
      <trkpt lat="45.1947" lon="6.21272">
        <ele>1851</ele>
        <time>2014-08-10T13:53:43Z</time>
      </trkpt>
      <trkpt lat="45.19469" lon="6.21286">
        <ele>1849</ele>
        <time>2014-08-10T13:53:49Z</time>
      </trkpt>
      <trkpt lat="45.19469" lon="6.21299">
        <ele>1848</ele>
        <time>2014-08-10T13:53:54Z</time>
      </trkpt>
      <trkpt lat="45.19474" lon="6.21314">
        <ele>1850</ele>
        <time>2014-08-10T13:54:01Z</time>
      </trkpt>
      <trkpt lat="45.19483" lon="6.21321">
        <ele>1854</ele>
        <time>2014-08-10T13:54:04Z</time>
      </trkpt>
      <trkpt lat="45.19494" lon="6.21327">
        <ele>1860</ele>
        <time>2014-08-10T13:54:07Z</time>
      </trkpt>
      <trkpt lat="45.19501" lon="6.21338">
        <ele>1867</ele>
        <time>2014-08-10T13:54:10Z</time>
      </trkpt>
      <trkpt lat="45.19506" lon="6.21351">
        <ele>1868</ele>
        <time>2014-08-10T13:54:14Z</time>
      </trkpt>
      <trkpt lat="45.19509" lon="6.21365">
        <ele>1867</ele>
        <time>2014-08-10T13:54:20Z</time>
      </trkpt>
      <trkpt lat="45.19516" lon="6.21376">
        <ele>1866</ele>
        <time>2014-08-10T13:54:26Z</time>
      </trkpt>
      <trkpt lat="45.19523" lon="6.21388">
        <ele>1865</ele>
        <time>2014-08-10T13:54:33Z</time>
      </trkpt>
      <trkpt lat="45.19524" lon="6.21402">
        <ele>1862</ele>
        <time>2014-08-10T13:54:40Z</time>
      </trkpt>
      <trkpt lat="45.19527" lon="6.21419">
        <ele>1851</ele>
        <time>2014-08-10T13:54:44Z</time>
      </trkpt>
      <trkpt lat="45.19534" lon="6.21429">
        <ele>1852</ele>
        <time>2014-08-10T13:54:47Z</time>
      </trkpt>
      <trkpt lat="45.1954" lon="6.21442">
        <ele>1853</ele>
        <time>2014-08-10T13:54:50Z</time>
      </trkpt>
      <trkpt lat="45.19547" lon="6.21455">
        <ele>1853</ele>
        <time>2014-08-10T13:54:53Z</time>
      </trkpt>
      <trkpt lat="45.19555" lon="6.21472">
        <ele>1853</ele>
        <time>2014-08-10T13:54:57Z</time>
      </trkpt>
      <trkpt lat="45.19562" lon="6.21482">
        <ele>1854</ele>
        <time>2014-08-10T13:54:59Z</time>
      </trkpt>
      <trkpt lat="45.19572" lon="6.21489">
        <ele>1855</ele>
        <time>2014-08-10T13:55:01Z</time>
      </trkpt>
      <trkpt lat="45.1958" lon="6.21501">
        <ele>1855</ele>
        <time>2014-08-10T13:55:04Z</time>
      </trkpt>
      <trkpt lat="45.19586" lon="6.21519">
        <ele>1859</ele>
        <time>2014-08-10T13:55:07Z</time>
      </trkpt>
      <trkpt lat="45.19593" lon="6.21532">
        <ele>1859</ele>
        <time>2014-08-10T13:55:09Z</time>
      </trkpt>
      <trkpt lat="45.19598" lon="6.21543">
        <ele>1858</ele>
        <time>2014-08-10T13:55:11Z</time>
      </trkpt>
      <trkpt lat="45.19605" lon="6.21554">
        <ele>1857</ele>
        <time>2014-08-10T13:55:13Z</time>
      </trkpt>
      <trkpt lat="45.19612" lon="6.21564">
        <ele>1857</ele>
        <time>2014-08-10T13:55:15Z</time>
      </trkpt>
      <trkpt lat="45.19621" lon="6.21569">
        <ele>1858</ele>
        <time>2014-08-10T13:55:21Z</time>
      </trkpt>
      <trkpt lat="45.19623" lon="6.21582">
        <ele>1857</ele>
        <time>2014-08-10T13:55:33Z</time>
      </trkpt>
      <trkpt lat="45.19628" lon="6.21593">
        <ele>1847</ele>
        <time>2014-08-10T13:55:43Z</time>
      </trkpt>
      <trkpt lat="45.1963" lon="6.21606">
        <ele>1846</ele>
        <time>2014-08-10T13:55:46Z</time>
      </trkpt>
      <trkpt lat="45.19635" lon="6.21622">
        <ele>1845</ele>
        <time>2014-08-10T13:55:50Z</time>
      </trkpt>
      <trkpt lat="45.19638" lon="6.21638">
        <ele>1844</ele>
        <time>2014-08-10T13:55:53Z</time>
      </trkpt>
      <trkpt lat="45.19645" lon="6.21649">
        <ele>1844</ele>
        <time>2014-08-10T13:55:55Z</time>
      </trkpt>
      <trkpt lat="45.19654" lon="6.21661">
        <ele>1844</ele>
        <time>2014-08-10T13:55:57Z</time>
      </trkpt>
      <trkpt lat="45.19663" lon="6.21673">
        <ele>1841</ele>
        <time>2014-08-10T13:55:59Z</time>
      </trkpt>
      <trkpt lat="45.1967" lon="6.21685">
        <ele>1843</ele>
        <time>2014-08-10T13:56:01Z</time>
      </trkpt>
      <trkpt lat="45.19675" lon="6.21698">
        <ele>1842</ele>
        <time>2014-08-10T13:56:03Z</time>
      </trkpt>
      <trkpt lat="45.19683" lon="6.21707">
        <ele>1841</ele>
        <time>2014-08-10T13:56:05Z</time>
      </trkpt>
      <trkpt lat="45.1969" lon="6.21719">
        <ele>1839</ele>
        <time>2014-08-10T13:56:08Z</time>
      </trkpt>
      <trkpt lat="45.197" lon="6.21728">
        <ele>1839</ele>
        <time>2014-08-10T13:56:10Z</time>
      </trkpt>
      <trkpt lat="45.19709" lon="6.21736">
        <ele>1839</ele>
        <time>2014-08-10T13:56:12Z</time>
      </trkpt>
      <trkpt lat="45.19718" lon="6.21739">
        <ele>1839</ele>
        <time>2014-08-10T13:56:14Z</time>
      </trkpt>
      <trkpt lat="45.19729" lon="6.21742">
        <ele>1839</ele>
        <time>2014-08-10T13:56:16Z</time>
      </trkpt>
      <trkpt lat="45.19743" lon="6.21747">
        <ele>1838</ele>
        <time>2014-08-10T13:56:18Z</time>
      </trkpt>
      <trkpt lat="45.19755" lon="6.21752">
        <ele>1836</ele>
        <time>2014-08-10T13:56:20Z</time>
      </trkpt>
      <trkpt lat="45.19763" lon="6.2176">
        <ele>1837</ele>
        <time>2014-08-10T13:56:22Z</time>
      </trkpt>
      <trkpt lat="45.1977" lon="6.2177">
        <ele>1837</ele>
        <time>2014-08-10T13:56:26Z</time>
      </trkpt>
      <trkpt lat="45.19776" lon="6.2178">
        <ele>1838</ele>
        <time>2014-08-10T13:56:34Z</time>
      </trkpt>
      <trkpt lat="45.19786" lon="6.21786">
        <ele>1838</ele>
        <time>2014-08-10T13:56:44Z</time>
      </trkpt>
      <trkpt lat="45.19794" lon="6.21792">
        <ele>1838</ele>
        <time>2014-08-10T13:56:51Z</time>
      </trkpt>
      <trkpt lat="45.198" lon="6.21803">
        <ele>1838</ele>
        <time>2014-08-10T13:57:01Z</time>
      </trkpt>
      <trkpt lat="45.19809" lon="6.21808">
        <ele>1838</ele>
        <time>2014-08-10T13:57:09Z</time>
      </trkpt>
      <trkpt lat="45.19819" lon="6.2181">
        <ele>1838</ele>
        <time>2014-08-10T13:57:17Z</time>
      </trkpt>
      <trkpt lat="45.19828" lon="6.21816">
        <ele>1838</ele>
        <time>2014-08-10T13:57:22Z</time>
      </trkpt>
      <trkpt lat="45.19837" lon="6.2182">
        <ele>1843</ele>
        <time>2014-08-10T13:57:25Z</time>
      </trkpt>
      <trkpt lat="45.19849" lon="6.21825">
        <ele>1843</ele>
        <time>2014-08-10T13:57:28Z</time>
      </trkpt>
      <trkpt lat="45.19861" lon="6.21828">
        <ele>1845</ele>
        <time>2014-08-10T13:57:31Z</time>
      </trkpt>
      <trkpt lat="45.1987" lon="6.21834">
        <ele>1838</ele>
        <time>2014-08-10T13:57:35Z</time>
      </trkpt>
      <trkpt lat="45.19879" lon="6.2184">
        <ele>1838</ele>
        <time>2014-08-10T13:57:40Z</time>
      </trkpt>
      <trkpt lat="45.19889" lon="6.21844">
        <ele>1838</ele>
        <time>2014-08-10T13:57:45Z</time>
      </trkpt>
      <trkpt lat="45.19897" lon="6.21851">
        <ele>1838</ele>
        <time>2014-08-10T13:57:51Z</time>
      </trkpt>
      <trkpt lat="45.19906" lon="6.21859">
        <ele>1838</ele>
        <time>2014-08-10T13:57:58Z</time>
      </trkpt>
      <trkpt lat="45.19912" lon="6.2187">
        <ele>1837</ele>
        <time>2014-08-10T13:58:04Z</time>
      </trkpt>
      <trkpt lat="45.19916" lon="6.21882">
        <ele>1837</ele>
        <time>2014-08-10T13:58:12Z</time>
      </trkpt>
      <trkpt lat="45.19918" lon="6.21896">
        <ele>1839</ele>
        <time>2014-08-10T13:58:18Z</time>
      </trkpt>
      <trkpt lat="45.19923" lon="6.21907">
        <ele>1837</ele>
        <time>2014-08-10T13:58:21Z</time>
      </trkpt>
      <trkpt lat="45.19927" lon="6.21923">
        <ele>1834</ele>
        <time>2014-08-10T13:58:24Z</time>
      </trkpt>
      <trkpt lat="45.19933" lon="6.21941">
        <ele>1832</ele>
        <time>2014-08-10T13:58:27Z</time>
      </trkpt>
      <trkpt lat="45.1994" lon="6.2195">
        <ele>1831</ele>
        <time>2014-08-10T13:58:29Z</time>
      </trkpt>
      <trkpt lat="45.19952" lon="6.21958">
        <ele>1831</ele>
        <time>2014-08-10T13:58:32Z</time>
      </trkpt>
      <trkpt lat="45.19959" lon="6.2197">
        <ele>1830</ele>
        <time>2014-08-10T13:58:35Z</time>
      </trkpt>
      <trkpt lat="45.19962" lon="6.21984">
        <ele>1830</ele>
        <time>2014-08-10T13:58:37Z</time>
      </trkpt>
      <trkpt lat="45.19965" lon="6.22002">
        <ele>1818</ele>
        <time>2014-08-10T13:58:40Z</time>
      </trkpt>
      <trkpt lat="45.1997" lon="6.22018">
        <ele>1817</ele>
        <time>2014-08-10T13:58:43Z</time>
      </trkpt>
      <trkpt lat="45.19977" lon="6.22027">
        <ele>1817</ele>
        <time>2014-08-10T13:58:45Z</time>
      </trkpt>
      <trkpt lat="45.19986" lon="6.22037">
        <ele>1815</ele>
        <time>2014-08-10T13:58:47Z</time>
      </trkpt>
      <trkpt lat="45.19994" lon="6.22046">
        <ele>1814</ele>
        <time>2014-08-10T13:58:49Z</time>
      </trkpt>
      <trkpt lat="45.19998" lon="6.22061">
        <ele>1811</ele>
        <time>2014-08-10T13:58:51Z</time>
      </trkpt>
      <trkpt lat="45.20004" lon="6.22076">
        <ele>1811</ele>
        <time>2014-08-10T13:58:53Z</time>
      </trkpt>
      <trkpt lat="45.2001" lon="6.22091">
        <ele>1803</ele>
        <time>2014-08-10T13:58:55Z</time>
      </trkpt>
      <trkpt lat="45.20016" lon="6.22104">
        <ele>1800</ele>
        <time>2014-08-10T13:58:57Z</time>
      </trkpt>
      <trkpt lat="45.20025" lon="6.22119">
        <ele>1797</ele>
        <time>2014-08-10T13:59:00Z</time>
      </trkpt>
      <trkpt lat="45.20034" lon="6.22127">
        <ele>1796</ele>
        <time>2014-08-10T13:59:02Z</time>
      </trkpt>
      <trkpt lat="45.20044" lon="6.22135">
        <ele>1795</ele>
        <time>2014-08-10T13:59:05Z</time>
      </trkpt>
      <trkpt lat="45.20054" lon="6.22143">
        <ele>1795</ele>
        <time>2014-08-10T13:59:08Z</time>
      </trkpt>
      <trkpt lat="45.20061" lon="6.22153">
        <ele>1793</ele>
        <time>2014-08-10T13:59:11Z</time>
      </trkpt>
      <trkpt lat="45.20072" lon="6.22161">
        <ele>1791</ele>
        <time>2014-08-10T13:59:15Z</time>
      </trkpt>
      <trkpt lat="45.20081" lon="6.22163">
        <ele>1789</ele>
        <time>2014-08-10T13:59:18Z</time>
      </trkpt>
      <trkpt lat="45.20092" lon="6.22165">
        <ele>1790</ele>
        <time>2014-08-10T13:59:22Z</time>
      </trkpt>
      <trkpt lat="45.20103" lon="6.22164">
        <ele>1793</ele>
        <time>2014-08-10T13:59:26Z</time>
      </trkpt>
      <trkpt lat="45.20112" lon="6.22162">
        <ele>1794</ele>
        <time>2014-08-10T13:59:29Z</time>
      </trkpt>
      <trkpt lat="45.20122" lon="6.22163">
        <ele>1795</ele>
        <time>2014-08-10T13:59:33Z</time>
      </trkpt>
      <trkpt lat="45.20127" lon="6.22174">
        <ele>1776</ele>
        <time>2014-08-10T13:59:37Z</time>
      </trkpt>
      <trkpt lat="45.20131" lon="6.22188">
        <ele>1775</ele>
        <time>2014-08-10T13:59:40Z</time>
      </trkpt>
      <trkpt lat="45.20133" lon="6.22202">
        <ele>1772</ele>
        <time>2014-08-10T13:59:43Z</time>
      </trkpt>
      <trkpt lat="45.20139" lon="6.22215">
        <ele>1770</ele>
        <time>2014-08-10T13:59:46Z</time>
      </trkpt>
      <trkpt lat="45.2015" lon="6.22224">
        <ele>1767</ele>
        <time>2014-08-10T13:59:49Z</time>
      </trkpt>
      <trkpt lat="45.20161" lon="6.22226">
        <ele>1766</ele>
        <time>2014-08-10T13:59:52Z</time>
      </trkpt>
      <trkpt lat="45.20173" lon="6.22231">
        <ele>1765</ele>
        <time>2014-08-10T13:59:55Z</time>
      </trkpt>
      <trkpt lat="45.20183" lon="6.22235">
        <ele>1765</ele>
        <time>2014-08-10T13:59:57Z</time>
      </trkpt>
      <trkpt lat="45.20192" lon="6.22243">
        <ele>1765</ele>
        <time>2014-08-10T14:00:00Z</time>
      </trkpt>
      <trkpt lat="45.20205" lon="6.22248">
        <ele>1766</ele>
        <time>2014-08-10T14:00:03Z</time>
      </trkpt>
      <trkpt lat="45.20216" lon="6.22248">
        <ele>1766</ele>
        <time>2014-08-10T14:00:06Z</time>
      </trkpt>
      <trkpt lat="45.20227" lon="6.22255">
        <ele>1750</ele>
        <time>2014-08-10T14:00:09Z</time>
      </trkpt>
      <trkpt lat="45.20237" lon="6.2226">
        <ele>1752</ele>
        <time>2014-08-10T14:00:11Z</time>
      </trkpt>
      <trkpt lat="45.20249" lon="6.22267">
        <ele>1751</ele>
        <time>2014-08-10T14:00:13Z</time>
      </trkpt>
      <trkpt lat="45.20258" lon="6.22272">
        <ele>1752</ele>
        <time>2014-08-10T14:00:15Z</time>
      </trkpt>
      <trkpt lat="45.20267" lon="6.22281">
        <ele>1750</ele>
        <time>2014-08-10T14:00:18Z</time>
      </trkpt>
      <trkpt lat="45.20265" lon="6.22295">
        <ele>1747</ele>
        <time>2014-08-10T14:00:22Z</time>
      </trkpt>
      <trkpt lat="45.20275" lon="6.22308">
        <ele>1745</ele>
        <time>2014-08-10T14:00:26Z</time>
      </trkpt>
      <trkpt lat="45.20284" lon="6.22312">
        <ele>1746</ele>
        <time>2014-08-10T14:00:28Z</time>
      </trkpt>
      <trkpt lat="45.20296" lon="6.22319">
        <ele>1745</ele>
        <time>2014-08-10T14:00:31Z</time>
      </trkpt>
      <trkpt lat="45.20301" lon="6.2233">
        <ele>1745</ele>
        <time>2014-08-10T14:00:33Z</time>
      </trkpt>
      <trkpt lat="45.20304" lon="6.22347">
        <ele>1730</ele>
        <time>2014-08-10T14:00:35Z</time>
      </trkpt>
      <trkpt lat="45.20305" lon="6.22361">
        <ele>1728</ele>
        <time>2014-08-10T14:00:37Z</time>
      </trkpt>
      <trkpt lat="45.20304" lon="6.22378">
        <ele>1725</ele>
        <time>2014-08-10T14:00:40Z</time>
      </trkpt>
      <trkpt lat="45.20299" lon="6.22393">
        <ele>1723</ele>
        <time>2014-08-10T14:00:43Z</time>
      </trkpt>
      <trkpt lat="45.20308" lon="6.22406">
        <ele>1722</ele>
        <time>2014-08-10T14:00:48Z</time>
      </trkpt>
      <trkpt lat="45.20318" lon="6.22412">
        <ele>1721</ele>
        <time>2014-08-10T14:00:50Z</time>
      </trkpt>
      <trkpt lat="45.20326" lon="6.22419">
        <ele>1714</ele>
        <time>2014-08-10T14:00:52Z</time>
      </trkpt>
      <trkpt lat="45.20335" lon="6.22427">
        <ele>1715</ele>
        <time>2014-08-10T14:00:55Z</time>
      </trkpt>
      <trkpt lat="45.20344" lon="6.22439">
        <ele>1714</ele>
        <time>2014-08-10T14:00:59Z</time>
      </trkpt>
      <trkpt lat="45.20347" lon="6.22453">
        <ele>1712</ele>
        <time>2014-08-10T14:01:02Z</time>
      </trkpt>
      <trkpt lat="45.20354" lon="6.22466">
        <ele>1710</ele>
        <time>2014-08-10T14:01:05Z</time>
      </trkpt>
      <trkpt lat="45.20364" lon="6.22474">
        <ele>1710</ele>
        <time>2014-08-10T14:01:08Z</time>
      </trkpt>
      <trkpt lat="45.20374" lon="6.22488">
        <ele>1709</ele>
        <time>2014-08-10T14:01:11Z</time>
      </trkpt>
      <trkpt lat="45.20381" lon="6.225">
        <ele>1697</ele>
        <time>2014-08-10T14:01:13Z</time>
      </trkpt>
      <trkpt lat="45.20388" lon="6.22515">
        <ele>1696</ele>
        <time>2014-08-10T14:01:16Z</time>
      </trkpt>
      <trkpt lat="45.20395" lon="6.22525">
        <ele>1696</ele>
        <time>2014-08-10T14:01:18Z</time>
      </trkpt>
      <trkpt lat="45.20403" lon="6.22533">
        <ele>1695</ele>
        <time>2014-08-10T14:01:20Z</time>
      </trkpt>
      <trkpt lat="45.20414" lon="6.2254">
        <ele>1694</ele>
        <time>2014-08-10T14:01:23Z</time>
      </trkpt>
      <trkpt lat="45.20424" lon="6.22542">
        <ele>1697</ele>
        <time>2014-08-10T14:01:28Z</time>
      </trkpt>
      <trkpt lat="45.20434" lon="6.22542">
        <ele>1698</ele>
        <time>2014-08-10T14:01:31Z</time>
      </trkpt>
      <trkpt lat="45.20443" lon="6.22539">
        <ele>1699</ele>
        <time>2014-08-10T14:01:33Z</time>
      </trkpt>
      <trkpt lat="45.20453" lon="6.22541">
        <ele>1699</ele>
        <time>2014-08-10T14:01:35Z</time>
      </trkpt>
      <trkpt lat="45.2046" lon="6.22551">
        <ele>1698</ele>
        <time>2014-08-10T14:01:37Z</time>
      </trkpt>
      <trkpt lat="45.20471" lon="6.2256">
        <ele>1697</ele>
        <time>2014-08-10T14:01:40Z</time>
      </trkpt>
      <trkpt lat="45.2048" lon="6.22566">
        <ele>1696</ele>
        <time>2014-08-10T14:01:44Z</time>
      </trkpt>
      <trkpt lat="45.20488" lon="6.22572">
        <ele>1694</ele>
        <time>2014-08-10T14:01:49Z</time>
      </trkpt>
      <trkpt lat="45.20498" lon="6.22577">
        <ele>1692</ele>
        <time>2014-08-10T14:01:54Z</time>
      </trkpt>
      <trkpt lat="45.20509" lon="6.22582">
        <ele>1695</ele>
        <time>2014-08-10T14:01:57Z</time>
      </trkpt>
      <trkpt lat="45.2052" lon="6.22585">
        <ele>1685</ele>
        <time>2014-08-10T14:02:00Z</time>
      </trkpt>
      <trkpt lat="45.20529" lon="6.22587">
        <ele>1684</ele>
        <time>2014-08-10T14:02:06Z</time>
      </trkpt>
      <trkpt lat="45.20542" lon="6.22594">
        <ele>1684</ele>
        <time>2014-08-10T14:02:11Z</time>
      </trkpt>
      <trkpt lat="45.20554" lon="6.226">
        <ele>1684</ele>
        <time>2014-08-10T14:02:14Z</time>
      </trkpt>
      <trkpt lat="45.20563" lon="6.22605">
        <ele>1684</ele>
        <time>2014-08-10T14:02:17Z</time>
      </trkpt>
      <trkpt lat="45.20572" lon="6.22612">
        <ele>1683</ele>
        <time>2014-08-10T14:02:20Z</time>
      </trkpt>
      <trkpt lat="45.20583" lon="6.22618">
        <ele>1682</ele>
        <time>2014-08-10T14:02:23Z</time>
      </trkpt>
      <trkpt lat="45.20592" lon="6.22621">
        <ele>1680</ele>
        <time>2014-08-10T14:02:26Z</time>
      </trkpt>
      <trkpt lat="45.20602" lon="6.22629">
        <ele>1678</ele>
        <time>2014-08-10T14:02:30Z</time>
      </trkpt>
      <trkpt lat="45.20611" lon="6.22633">
        <ele>1677</ele>
        <time>2014-08-10T14:02:35Z</time>
      </trkpt>
      <trkpt lat="45.20622" lon="6.22635">
        <ele>1676</ele>
        <time>2014-08-10T14:02:39Z</time>
      </trkpt>
      <trkpt lat="45.20632" lon="6.22636">
        <ele>1676</ele>
        <time>2014-08-10T14:02:42Z</time>
      </trkpt>
      <trkpt lat="45.20644" lon="6.22633">
        <ele>1676</ele>
        <time>2014-08-10T14:02:45Z</time>
      </trkpt>
      <trkpt lat="45.20656" lon="6.2263">
        <ele>1676</ele>
        <time>2014-08-10T14:02:48Z</time>
      </trkpt>
      <trkpt lat="45.20668" lon="6.2263">
        <ele>1673</ele>
        <time>2014-08-10T14:02:51Z</time>
      </trkpt>
      <trkpt lat="45.20677" lon="6.22625">
        <ele>1674</ele>
        <time>2014-08-10T14:02:54Z</time>
      </trkpt>
      <trkpt lat="45.20686" lon="6.22621">
        <ele>1675</ele>
        <time>2014-08-10T14:02:58Z</time>
      </trkpt>
      <trkpt lat="45.20696" lon="6.2262">
        <ele>1675</ele>
        <time>2014-08-10T14:03:03Z</time>
      </trkpt>
      <trkpt lat="45.207" lon="6.22633">
        <ele>1673</ele>
        <time>2014-08-10T14:03:08Z</time>
      </trkpt>
      <trkpt lat="45.20705" lon="6.22648">
        <ele>1670</ele>
        <time>2014-08-10T14:03:12Z</time>
      </trkpt>
      <trkpt lat="45.20709" lon="6.22661">
        <ele>1669</ele>
        <time>2014-08-10T14:03:15Z</time>
      </trkpt>
      <trkpt lat="45.20719" lon="6.22668">
        <ele>1647</ele>
        <time>2014-08-10T14:03:19Z</time>
      </trkpt>
      <trkpt lat="45.20731" lon="6.22675">
        <ele>1648</ele>
        <time>2014-08-10T14:03:24Z</time>
      </trkpt>
      <trkpt lat="45.20742" lon="6.22679">
        <ele>1650</ele>
        <time>2014-08-10T14:03:26Z</time>
      </trkpt>
      <trkpt lat="45.2075" lon="6.2269">
        <ele>1646</ele>
        <time>2014-08-10T14:03:29Z</time>
      </trkpt>
      <trkpt lat="45.2076" lon="6.22702">
        <ele>1641</ele>
        <time>2014-08-10T14:03:32Z</time>
      </trkpt>
      <trkpt lat="45.20766" lon="6.22715">
        <ele>1637</ele>
        <time>2014-08-10T14:03:35Z</time>
      </trkpt>
      <trkpt lat="45.20778" lon="6.22725">
        <ele>1635</ele>
        <time>2014-08-10T14:03:39Z</time>
      </trkpt>
      <trkpt lat="45.20787" lon="6.22727">
        <ele>1635</ele>
        <time>2014-08-10T14:03:41Z</time>
      </trkpt>
      <trkpt lat="45.208" lon="6.22725">
        <ele>1635</ele>
        <time>2014-08-10T14:03:43Z</time>
      </trkpt>
      <trkpt lat="45.20812" lon="6.22718">
        <ele>1636</ele>
        <time>2014-08-10T14:03:45Z</time>
      </trkpt>
      <trkpt lat="45.20825" lon="6.22716">
        <ele>1636</ele>
        <time>2014-08-10T14:03:47Z</time>
      </trkpt>
      <trkpt lat="45.20837" lon="6.22715">
        <ele>1636</ele>
        <time>2014-08-10T14:03:49Z</time>
      </trkpt>
      <trkpt lat="45.20863" lon="6.22717">
        <ele>1636</ele>
        <time>2014-08-10T14:03:53Z</time>
      </trkpt>
      <trkpt lat="45.20876" lon="6.22713">
        <ele>1637</ele>
        <time>2014-08-10T14:03:56Z</time>
      </trkpt>
      <trkpt lat="45.20885" lon="6.22713">
        <ele>1637</ele>
        <time>2014-08-10T14:03:59Z</time>
      </trkpt>
      <trkpt lat="45.20898" lon="6.22714">
        <ele>1636</ele>
        <time>2014-08-10T14:04:01Z</time>
      </trkpt>
      <trkpt lat="45.20908" lon="6.22711">
        <ele>1637</ele>
        <time>2014-08-10T14:04:03Z</time>
      </trkpt>
      <trkpt lat="45.20921" lon="6.2271">
        <ele>1633</ele>
        <time>2014-08-10T14:04:06Z</time>
      </trkpt>
      <trkpt lat="45.20933" lon="6.2271">
        <ele>1633</ele>
        <time>2014-08-10T14:04:09Z</time>
      </trkpt>
      <trkpt lat="45.20944" lon="6.22704">
        <ele>1633</ele>
        <time>2014-08-10T14:04:12Z</time>
      </trkpt>
      <trkpt lat="45.20954" lon="6.22701">
        <ele>1633</ele>
        <time>2014-08-10T14:04:16Z</time>
      </trkpt>
      <trkpt lat="45.20966" lon="6.22699">
        <ele>1633</ele>
        <time>2014-08-10T14:04:20Z</time>
      </trkpt>
      <trkpt lat="45.20977" lon="6.22695">
        <ele>1633</ele>
        <time>2014-08-10T14:04:22Z</time>
      </trkpt>
      <trkpt lat="45.20991" lon="6.22692">
        <ele>1634</ele>
        <time>2014-08-10T14:04:24Z</time>
      </trkpt>
      <trkpt lat="45.21004" lon="6.22688">
        <ele>1625</ele>
        <time>2014-08-10T14:04:26Z</time>
      </trkpt>
      <trkpt lat="45.21019" lon="6.22688">
        <ele>1622</ele>
        <time>2014-08-10T14:04:28Z</time>
      </trkpt>
      <trkpt lat="45.21029" lon="6.22691">
        <ele>1619</ele>
        <time>2014-08-10T14:04:29Z</time>
      </trkpt>
      <trkpt lat="45.21044" lon="6.22692">
        <ele>1615</ele>
        <time>2014-08-10T14:04:31Z</time>
      </trkpt>
      <trkpt lat="45.21058" lon="6.22691">
        <ele>1613</ele>
        <time>2014-08-10T14:04:33Z</time>
      </trkpt>
      <trkpt lat="45.21072" lon="6.22689">
        <ele>1612</ele>
        <time>2014-08-10T14:04:35Z</time>
      </trkpt>
      <trkpt lat="45.21085" lon="6.22686">
        <ele>1605</ele>
        <time>2014-08-10T14:04:37Z</time>
      </trkpt>
      <trkpt lat="45.211" lon="6.22684">
        <ele>1603</ele>
        <time>2014-08-10T14:04:39Z</time>
      </trkpt>
      <trkpt lat="45.21112" lon="6.22685">
        <ele>1602</ele>
        <time>2014-08-10T14:04:41Z</time>
      </trkpt>
      <trkpt lat="45.21124" lon="6.22687">
        <ele>1600</ele>
        <time>2014-08-10T14:04:43Z</time>
      </trkpt>
      <trkpt lat="45.21133" lon="6.22691">
        <ele>1599</ele>
        <time>2014-08-10T14:04:45Z</time>
      </trkpt>
      <trkpt lat="45.21144" lon="6.22698">
        <ele>1598</ele>
        <time>2014-08-10T14:04:48Z</time>
      </trkpt>
      <trkpt lat="45.21154" lon="6.22699">
        <ele>1598</ele>
        <time>2014-08-10T14:04:50Z</time>
      </trkpt>
      <trkpt lat="45.21165" lon="6.22697">
        <ele>1598</ele>
        <time>2014-08-10T14:04:52Z</time>
      </trkpt>
      <trkpt lat="45.21176" lon="6.22699">
        <ele>1595</ele>
        <time>2014-08-10T14:04:54Z</time>
      </trkpt>
      <trkpt lat="45.21186" lon="6.22707">
        <ele>1593</ele>
        <time>2014-08-10T14:04:56Z</time>
      </trkpt>
      <trkpt lat="45.21197" lon="6.22713">
        <ele>1592</ele>
        <time>2014-08-10T14:04:58Z</time>
      </trkpt>
      <trkpt lat="45.2121" lon="6.22721">
        <ele>1590</ele>
        <time>2014-08-10T14:05:00Z</time>
      </trkpt>
      <trkpt lat="45.21221" lon="6.22729">
        <ele>1589</ele>
        <time>2014-08-10T14:05:02Z</time>
      </trkpt>
      <trkpt lat="45.21235" lon="6.22733">
        <ele>1586</ele>
        <time>2014-08-10T14:05:04Z</time>
      </trkpt>
      <trkpt lat="45.21247" lon="6.22736">
        <ele>1584</ele>
        <time>2014-08-10T14:05:06Z</time>
      </trkpt>
      <trkpt lat="45.21258" lon="6.22739">
        <ele>1582</ele>
        <time>2014-08-10T14:05:08Z</time>
      </trkpt>
      <trkpt lat="45.21269" lon="6.22737">
        <ele>1584</ele>
        <time>2014-08-10T14:05:10Z</time>
      </trkpt>
      <trkpt lat="45.2128" lon="6.22736">
        <ele>1585</ele>
        <time>2014-08-10T14:05:12Z</time>
      </trkpt>
      <trkpt lat="45.21298" lon="6.2274">
        <ele>1584</ele>
        <time>2014-08-10T14:05:16Z</time>
      </trkpt>
      <trkpt lat="45.21308" lon="6.22744">
        <ele>1583</ele>
        <time>2014-08-10T14:05:42Z</time>
      </trkpt>
      <trkpt lat="45.21317" lon="6.22745">
        <ele>1581</ele>
        <time>2014-08-10T14:05:46Z</time>
      </trkpt>
      <trkpt lat="45.21328" lon="6.22745">
        <ele>1578</ele>
        <time>2014-08-10T14:05:49Z</time>
      </trkpt>
      <trkpt lat="45.2134" lon="6.22745">
        <ele>1578</ele>
        <time>2014-08-10T14:05:54Z</time>
      </trkpt>
      <trkpt lat="45.21349" lon="6.22748">
        <ele>1580</ele>
        <time>2014-08-10T14:05:56Z</time>
      </trkpt>
      <trkpt lat="45.2136" lon="6.22754">
        <ele>1567</ele>
        <time>2014-08-10T14:06:02Z</time>
      </trkpt>
      <trkpt lat="45.2137" lon="6.22758">
        <ele>1566</ele>
        <time>2014-08-10T14:06:06Z</time>
      </trkpt>
      <trkpt lat="45.21382" lon="6.22756">
        <ele>1566</ele>
        <time>2014-08-10T14:06:12Z</time>
      </trkpt>
      <trkpt lat="45.21395" lon="6.22759">
        <ele>1568</ele>
        <time>2014-08-10T14:06:14Z</time>
      </trkpt>
      <trkpt lat="45.21408" lon="6.22756">
        <ele>1572</ele>
        <time>2014-08-10T14:06:17Z</time>
      </trkpt>
      <trkpt lat="45.21419" lon="6.22755">
        <ele>1574</ele>
        <time>2014-08-10T14:06:19Z</time>
      </trkpt>
      <trkpt lat="45.21428" lon="6.22762">
        <ele>1571</ele>
        <time>2014-08-10T14:06:21Z</time>
      </trkpt>
      <trkpt lat="45.21439" lon="6.22769">
        <ele>1569</ele>
        <time>2014-08-10T14:06:23Z</time>
      </trkpt>
      <trkpt lat="45.2145" lon="6.22769">
        <ele>1568</ele>
        <time>2014-08-10T14:06:31Z</time>
      </trkpt>
      <trkpt lat="45.21459" lon="6.22764">
        <ele>1569</ele>
        <time>2014-08-10T14:06:36Z</time>
      </trkpt>
      <trkpt lat="45.2147" lon="6.22763">
        <ele>1570</ele>
        <time>2014-08-10T14:06:40Z</time>
      </trkpt>
      <trkpt lat="45.21478" lon="6.22771">
        <ele>1569</ele>
        <time>2014-08-10T14:06:46Z</time>
      </trkpt>
      <trkpt lat="45.21486" lon="6.2278">
        <ele>1568</ele>
        <time>2014-08-10T14:06:50Z</time>
      </trkpt>
      <trkpt lat="45.21492" lon="6.2279">
        <ele>1566</ele>
        <time>2014-08-10T14:06:53Z</time>
      </trkpt>
      <trkpt lat="45.215" lon="6.228">
        <ele>1564</ele>
        <time>2014-08-10T14:06:55Z</time>
      </trkpt>
      <trkpt lat="45.2151" lon="6.2281">
        <ele>1564</ele>
        <time>2014-08-10T14:06:57Z</time>
      </trkpt>
      <trkpt lat="45.21523" lon="6.22819">
        <ele>1563</ele>
        <time>2014-08-10T14:06:59Z</time>
      </trkpt>
      <trkpt lat="45.21536" lon="6.22827">
        <ele>1564</ele>
        <time>2014-08-10T14:07:01Z</time>
      </trkpt>
      <trkpt lat="45.21552" lon="6.22835">
        <ele>1550</ele>
        <time>2014-08-10T14:07:05Z</time>
      </trkpt>
      <trkpt lat="45.21564" lon="6.22838">
        <ele>1551</ele>
        <time>2014-08-10T14:07:07Z</time>
      </trkpt>
      <trkpt lat="45.21577" lon="6.22842">
        <ele>1554</ele>
        <time>2014-08-10T14:07:11Z</time>
      </trkpt>
      <trkpt lat="45.21587" lon="6.22843">
        <ele>1552</ele>
        <time>2014-08-10T14:07:13Z</time>
      </trkpt>
      <trkpt lat="45.21598" lon="6.22844">
        <ele>1549</ele>
        <time>2014-08-10T14:07:15Z</time>
      </trkpt>
      <trkpt lat="45.21609" lon="6.22842">
        <ele>1546</ele>
        <time>2014-08-10T14:07:17Z</time>
      </trkpt>
      <trkpt lat="45.21621" lon="6.22839">
        <ele>1544</ele>
        <time>2014-08-10T14:07:19Z</time>
      </trkpt>
      <trkpt lat="45.21632" lon="6.22837">
        <ele>1543</ele>
        <time>2014-08-10T14:07:21Z</time>
      </trkpt>
      <trkpt lat="45.21644" lon="6.22833">
        <ele>1543</ele>
        <time>2014-08-10T14:07:23Z</time>
      </trkpt>
      <trkpt lat="45.21653" lon="6.22829">
        <ele>1552</ele>
        <time>2014-08-10T14:07:25Z</time>
      </trkpt>
      <trkpt lat="45.21664" lon="6.22821">
        <ele>1552</ele>
        <time>2014-08-10T14:07:28Z</time>
      </trkpt>
      <trkpt lat="45.21674" lon="6.22817">
        <ele>1546</ele>
        <time>2014-08-10T14:07:33Z</time>
      </trkpt>
      <trkpt lat="45.21683" lon="6.22807">
        <ele>1547</ele>
        <time>2014-08-10T14:07:37Z</time>
      </trkpt>
      <trkpt lat="45.21691" lon="6.22799">
        <ele>1548</ele>
        <time>2014-08-10T14:07:40Z</time>
      </trkpt>
      <trkpt lat="45.217" lon="6.22791">
        <ele>1548</ele>
        <time>2014-08-10T14:07:44Z</time>
      </trkpt>
      <trkpt lat="45.21708" lon="6.22781">
        <ele>1548</ele>
        <time>2014-08-10T14:07:48Z</time>
      </trkpt>
      <trkpt lat="45.21718" lon="6.22772">
        <ele>1548</ele>
        <time>2014-08-10T14:07:52Z</time>
      </trkpt>
      <trkpt lat="45.2173" lon="6.22764">
        <ele>1548</ele>
        <time>2014-08-10T14:07:56Z</time>
      </trkpt>
      <trkpt lat="45.2174" lon="6.22757">
        <ele>1548</ele>
        <time>2014-08-10T14:07:59Z</time>
      </trkpt>
      <trkpt lat="45.21749" lon="6.22749">
        <ele>1549</ele>
        <time>2014-08-10T14:08:01Z</time>
      </trkpt>
      <trkpt lat="45.21759" lon="6.22743">
        <ele>1548</ele>
        <time>2014-08-10T14:08:03Z</time>
      </trkpt>
      <trkpt lat="45.21771" lon="6.22736">
        <ele>1547</ele>
        <time>2014-08-10T14:08:05Z</time>
      </trkpt>
      <trkpt lat="45.21784" lon="6.22728">
        <ele>1546</ele>
        <time>2014-08-10T14:08:07Z</time>
      </trkpt>
      <trkpt lat="45.21799" lon="6.22718">
        <ele>1545</ele>
        <time>2014-08-10T14:08:09Z</time>
      </trkpt>
      <trkpt lat="45.21815" lon="6.22703">
        <ele>1545</ele>
        <time>2014-08-10T14:08:11Z</time>
      </trkpt>
      <trkpt lat="45.21824" lon="6.22695">
        <ele>1545</ele>
        <time>2014-08-10T14:08:12Z</time>
      </trkpt>
      <trkpt lat="45.21838" lon="6.22684">
        <ele>1538</ele>
        <time>2014-08-10T14:08:14Z</time>
      </trkpt>
      <trkpt lat="45.21848" lon="6.22681">
        <ele>1538</ele>
        <time>2014-08-10T14:08:16Z</time>
      </trkpt>
      <trkpt lat="45.21855" lon="6.22692">
        <ele>1535</ele>
        <time>2014-08-10T14:08:21Z</time>
      </trkpt>
      <trkpt lat="45.21852" lon="6.22708">
        <ele>1534</ele>
        <time>2014-08-10T14:08:24Z</time>
      </trkpt>
      <trkpt lat="45.21852" lon="6.22722">
        <ele>1532</ele>
        <time>2014-08-10T14:08:26Z</time>
      </trkpt>
      <trkpt lat="45.2185" lon="6.22736">
        <ele>1531</ele>
        <time>2014-08-10T14:08:31Z</time>
      </trkpt>
      <trkpt lat="45.21846" lon="6.22748">
        <ele>1530</ele>
        <time>2014-08-10T14:08:35Z</time>
      </trkpt>
      <trkpt lat="45.21844" lon="6.22762">
        <ele>1525</ele>
        <time>2014-08-10T14:08:37Z</time>
      </trkpt>
      <trkpt lat="45.2184" lon="6.22777">
        <ele>1523</ele>
        <time>2014-08-10T14:08:39Z</time>
      </trkpt>
      <trkpt lat="45.21836" lon="6.22792">
        <ele>1522</ele>
        <time>2014-08-10T14:08:41Z</time>
      </trkpt>
      <trkpt lat="45.21835" lon="6.22809">
        <ele>1520</ele>
        <time>2014-08-10T14:08:43Z</time>
      </trkpt>
      <trkpt lat="45.21833" lon="6.22828">
        <ele>1520</ele>
        <time>2014-08-10T14:08:45Z</time>
      </trkpt>
      <trkpt lat="45.21833" lon="6.22848">
        <ele>1516</ele>
        <time>2014-08-10T14:08:47Z</time>
      </trkpt>
      <trkpt lat="45.21833" lon="6.22866">
        <ele>1514</ele>
        <time>2014-08-10T14:08:49Z</time>
      </trkpt>
      <trkpt lat="45.2183" lon="6.22882">
        <ele>1512</ele>
        <time>2014-08-10T14:08:51Z</time>
      </trkpt>
      <trkpt lat="45.21828" lon="6.22899">
        <ele>1510</ele>
        <time>2014-08-10T14:08:53Z</time>
      </trkpt>
      <trkpt lat="45.21829" lon="6.22916">
        <ele>1506</ele>
        <time>2014-08-10T14:08:55Z</time>
      </trkpt>
      <trkpt lat="45.2183" lon="6.22932">
        <ele>1503</ele>
        <time>2014-08-10T14:08:57Z</time>
      </trkpt>
      <trkpt lat="45.21831" lon="6.22948">
        <ele>1503</ele>
        <time>2014-08-10T14:08:59Z</time>
      </trkpt>
      <trkpt lat="45.21832" lon="6.22962">
        <ele>1502</ele>
        <time>2014-08-10T14:09:01Z</time>
      </trkpt>
      <trkpt lat="45.21825" lon="6.22976">
        <ele>1501</ele>
        <time>2014-08-10T14:09:05Z</time>
      </trkpt>
      <trkpt lat="45.21817" lon="6.22984">
        <ele>1501</ele>
        <time>2014-08-10T14:09:08Z</time>
      </trkpt>
      <trkpt lat="45.2181" lon="6.22996">
        <ele>1501</ele>
        <time>2014-08-10T14:09:11Z</time>
      </trkpt>
      <trkpt lat="45.21807" lon="6.2301">
        <ele>1501</ele>
        <time>2014-08-10T14:09:14Z</time>
      </trkpt>
      <trkpt lat="45.21799" lon="6.2302">
        <ele>1503</ele>
        <time>2014-08-10T14:09:17Z</time>
      </trkpt>
      <trkpt lat="45.21809" lon="6.23021">
        <ele>1502</ele>
        <time>2014-08-10T14:09:23Z</time>
      </trkpt>
      <trkpt lat="45.2182" lon="6.23023">
        <ele>1501</ele>
        <time>2014-08-10T14:09:26Z</time>
      </trkpt>
      <trkpt lat="45.2183" lon="6.23026">
        <ele>1501</ele>
        <time>2014-08-10T14:09:28Z</time>
      </trkpt>
      <trkpt lat="45.21844" lon="6.2303">
        <ele>1500</ele>
        <time>2014-08-10T14:09:31Z</time>
      </trkpt>
      <trkpt lat="45.21855" lon="6.23043">
        <ele>1501</ele>
        <time>2014-08-10T14:09:34Z</time>
      </trkpt>
      <trkpt lat="45.21865" lon="6.23063">
        <ele>1501</ele>
        <time>2014-08-10T14:09:38Z</time>
      </trkpt>
      <trkpt lat="45.21875" lon="6.23075">
        <ele>1502</ele>
        <time>2014-08-10T14:09:40Z</time>
      </trkpt>
      <trkpt lat="45.21883" lon="6.23087">
        <ele>1500</ele>
        <time>2014-08-10T14:09:42Z</time>
      </trkpt>
      <trkpt lat="45.21888" lon="6.231">
        <ele>1500</ele>
        <time>2014-08-10T14:09:53Z</time>
      </trkpt>
    </trkseg>
  </trk>
</gpx>